# Wetter Temperatur Luftdruck Luftfeuchtigkeit Sichtweite Windgeschwindigkeit Windrichtung Zeit
1 Clear 25 1007 17 16093 7.53 232.285 19:41 17.10.2019
2 Clouds 25 1006 20 16093 5.1 200 19:20 17.10.2019
3 Clouds 25 1006 20 16093 5.1 200 19:20 17.10.2019
4 Clouds 25 1006 20 16093 5.1 200 19:20 17.10.2019
5 Clear 23 1007 17 16093 7.53 232.285 18:58 17.10.2019
6 Clear 23 1007 20 16093 7.53 232.285 18:38 17.10.2019
7 Clouds 21 1006 23 16093 4.6 200 18:20 17.10.2019
8 Clear 20 1008 24 16093 4.926 198 17:43 17.10.2019
9 Clouds 19 1006 23 16093 4.6 200 17:24 17.10.2019
10 Clear 18 1007 25 16093 4.926 198 16:58 17.10.2019
11 Clear 18 1007 33 16093 4.926 198 16:39 17.10.2019
12 Clouds 18 1007 24 16093 2.6 200 16:18 17.10.2019
13 Clear 17 1008 38 16093 4.926 198 15:56 17.10.2019
14 Clouds 18 1008 29 16093 4.926 198 15:38 17.10.2019
15 Clouds 17 1007 24 16093 2.6 190 15:20 17.10.2019
16 Clouds 17 1008 27 16093 3.484 202 14:55 17.10.2019
17 Clouds 17 1008 28 16093 3.136 196 14:37 17.10.2019
18 Clear 17 1009 29 16093 3.6 200 14:18 17.10.2019
19 Clouds 17 1008 28 16093 3.136 196 13:39 17.10.2019
20 Clouds 18 1007 25 16093 1.5 200 13:19 17.10.2019
21 Clouds 18 1009 28 16093 1.5 360 12:55 17.10.2019
22 Clouds 18 1009 28 16093 1.5 360 12:55 17.10.2019
23 Clouds 18 1009 28 16093 1.5 360 12:55 17.10.2019
24 Clouds 18 1009 28 16093 1.5 360 12:36 17.10.2019
25 Clear 18 1010 25 16093 5.1 160 12:18 17.10.2019
26 Clouds 18 1009 31 16093 2.743 211 11:41 17.10.2019
27 Clouds 18 1009 22 16093 1.5 210 11:21 17.10.2019
28 Clouds 19 1009 31 16093 2.743 211 10:58 17.10.2019
29 Clouds 19 1010 36 16093 2.743 211 10:39 17.10.2019
30 Clouds 19 1009 19 16093 2.1 240 10:19 17.10.2019
31 -273 0 0 0 0 0 09:55 17.10.2019
32 -273 0 0 0 0 0 09:55 17.10.2019
33 Clouds 19 1010 22 16093 1.5 350 09:36 17.10.2019
34 Clear 20 1011 25 16093 3.6 190 09:18 17.10.2019
35 Clear 20 1011 25 16093 3.6 190 09:18 17.10.2019
36 Clouds 21 1011 26 16093 3.6 50 08:46 17.10.2019
37 Clouds 21 1011 26 16093 3.6 50 08:26 17.10.2019
38 Clear 22 1011 24 16093 2.1 320 07:56 17.10.2019
39 Clouds 22 1011 20 16093 2.1 320 07:38 17.10.2019
40 Clouds 22 1011 15 16093 2.6 240 07:19 17.10.2019
41 Clouds 22 1011 24 16093 2.135 207 06:40 17.10.2019
42 Clear 22 1012 17 16093 3.1 190 06:21 17.10.2019
43 Clear 22 1011 28 16093 1.5 40 05:58 17.10.2019
44 Clear 22 1011 26 16093 2.1 50 05:32 17.10.2019
45 Clear 24 1011 23 16093 1.5 60 04:57 17.10.2019
46 Clear 27 1011 12 16093 3.1 50 03:55 17.10.2019
47 Clear 28 1012 11 16093 3.6 40 02:53 17.10.2019
48 Clear 29 1013 11 16093 2.6 40 01:39 17.10.2019
49 Clear 29 1013 9 16093 2.6 60 00:40 17.10.2019
50 Clouds 29 1013 9 16093 2.1 70 00:19 17.10.2019
51 Clear 29 1015 9 16093 1.5 70 23:42 16.10.2019
52 Clouds 29 1015 9 16093 2.6 60 23:21 16.10.2019
53 Clear 28 1015 9 16093 1.5 0 22:56 16.10.2019
54 Clear 28 1015 9 16093 1.5 0 22:56 16.10.2019
55 Clear 28 1016 9 16093 3.1 70 22:37 16.10.2019
56 Clear 28 1016 9 16093 3.1 70 22:37 16.10.2019
57 Clouds 28 1016 8 16093 2.1 20 22:19 16.10.2019
58 Clouds 28 1016 8 16093 2.1 20 22:19 16.10.2019
59 Clouds 28 1016 8 16093 2.1 20 22:19 16.10.2019
60 Clear 28 1016 9 16093 4.1 60 21:57 16.10.2019
61 Clear 27 1017 10 16093 3.6 40 21:37 16.10.2019
62 Clouds 26 1017 9 16093 1.5 0 21:19 16.10.2019
63 Clear 26 1018 10 16093 3.6 40 20:58 16.10.2019
64 Clear 25 1018 11 16093 1.862 3 20:39 16.10.2019
65 Clouds 25 1018 10 16093 2.1 100 20:20 16.10.2019
66 Clear 24 1019 12 16093 2.1 0 19:58 16.10.2019
67 Clear 24 1019 13 16093 1.862 3 19:38 16.10.2019
68 Clouds 23 1019 12 16093 1.862 3 19:20 16.10.2019
69 Clouds 23 1019 12 16093 1.862 3 19:20 16.10.2019
70 Clear 21 1019 19 16093 2.1 180 18:39 16.10.2019
71 Clouds 19 1019 18 16093 2.1 180 18:20 16.10.2019
72 -273 0 0 0 0 0 17:58 16.10.2019
73 Clear 16 1019 31 16093 0.573 3 17:39 16.10.2019
74 Clouds 16 1019 20 16093 2.6 220 17:21 16.10.2019
75 Clear 15 1019 33 16093 2.1 130 16:59 16.10.2019
76 Clear 14 1019 33 16093 0.573 3 16:41 16.10.2019
77 Clear 14 1019 33 16093 0.573 3 16:41 16.10.2019
78 Clouds 14 1018 21 16093 1.5 230 16:20 16.10.2019
79 Clear 14 1019 37 16093 0.573 3 15:56 16.10.2019
80 Clear 14 1019 37 16093 0.573 3 15:56 16.10.2019
81 Clouds 14 1019 28 16093 0.573 3 15:37 16.10.2019
82 Clouds 14 1018 23 16093 0.482 351 15:18 16.10.2019
83 Clouds 14 1018 30 16093 1.5 40 14:56 16.10.2019
84 Clouds 14 1018 30 16093 1.5 40 14:38 16.10.2019
85 Clouds 14 1017 23 16093 1.5 230 14:18 16.10.2019
86 Clear 15 1018 21 16093 2.1 290 13:56 16.10.2019
87 Clouds 15 1017 33 16093 0.501 345 13:37 16.10.2019
88 Clouds 15 1017 23 16093 1.5 230 13:18 16.10.2019
89 Clouds 15 1018 35 16093 0.501 345 12:40 16.10.2019
90 Clouds 15 1017 21 16093 1.5 220 12:18 16.10.2019
91 Clouds 15 1017 21 16093 1.5 220 12:18 16.10.2019
92 Clouds 15 1018 29 16093 0.532 299 11:43 16.10.2019
93 Clouds 15 1018 23 16093 2.6 290 11:18 16.10.2019
94 Clouds 16 1018 19 16093 1.5 220 10:39 16.10.2019
95 Clouds 17 1018 19 16093 1.5 220 10:20 16.10.2019
96 Clear 17 1018 23 16093 2.1 350 09:56 16.10.2019
97 Clouds 18 1018 25 16093 0.532 299 09:38 16.10.2019
98 Clear 18 1018 20 16093 3.6 230 09:19 16.10.2019
99 Clear 18 1018 24 16093 1.5 0 08:43 16.10.2019
100 Clear 18 1018 24 16093 1.5 0 08:24 16.10.2019
101 Clear 18 1018 22 16093 2.1 320 07:46 16.10.2019
102 Clear 20 1018 22 16093 2.1 320 07:25 16.10.2019
103 -273 0 0 0 0 0 07:25 16.10.2019
104 Clear 20 1018 16 16093 4.6 310 06:59 16.10.2019
105 Clear 20 1017 21 16093 2.1 230 06:39 16.10.2019
106 Clear 20 1017 21 16093 2.1 230 06:39 16.10.2019
107 Clear 20 1017 21 16093 2.1 310 05:54 16.10.2019
108 Clear 26 1017 17 16093 3.1 10 03:26 16.10.2019
109 Clear 27 1017 14 16093 3.1 40 02:49 16.10.2019
110 Clear 28 1017 14 16093 1.5 0 01:19 16.10.2019
111 Clear 28 1017 11 16093 4.1 40 00:50 16.10.2019
112 Clear 28 1017 11 16093 4.1 40 00:28 16.10.2019
113 Clear 28 1018 11 16093 4.1 50 23:41 15.10.2019
114 Clear 27 1018 11 16093 1.608 354 23:22 15.10.2019
115 Clear 27 1018 12 16093 1.5 0 22:56 15.10.2019
116 Clear 27 1019 11 16093 1.5 0 22:38 15.10.2019
117 Clear 27 1019 11 16093 1.5 0 22:38 15.10.2019
118 Clear 27 1019 12 16093 2.1 90 22:20 15.10.2019
119 -273 0 0 0 0 0 21:56 15.10.2019
120 Clear 27 1019 11 16093 1.608 354 21:56 15.10.2019
121 Clear 27 1019 11 16093 1.608 354 21:56 15.10.2019
122 Clear 26 1019 12 16093 2.1 30 21:38 15.10.2019
123 Clear 25 1019 11 16093 1.5 80 21:20 15.10.2019
124 Clear 24 1020 12 16093 1.859 348 20:57 15.10.2019
125 Clear 24 1020 13 16093 2.1 0 20:39 15.10.2019
126 Clouds 23 1020 16 16093 1.5 0 20:20 15.10.2019
127 Clear 23 1020 13 16093 1.859 348 19:58 15.10.2019
128 Clear 22 1021 14 16093 1.859 348 19:40 15.10.2019
129 Clouds 22 1020 15 16093 2.1 180 19:20 15.10.2019
130 Clear 20 1021 20 16093 3.1 230 18:47 15.10.2019
131 Clear 19 1021 20 16093 3.1 230 18:29 15.10.2019
132 Clear 13 1021 20 16093 0.904 331 17:59 15.10.2019
133 Clear 14 1020 30 16093 0.904 331 17:40 15.10.2019
134 Clear 14 1020 30 16093 0.904 331 17:40 15.10.2019
135 Clear 15 1020 26 16093 2.1 210 17:20 15.10.2019
136 Clear 14 1020 19 16093 2.6 270 16:55 15.10.2019
137 Clear 14 1020 19 16093 2.6 270 16:55 15.10.2019
138 Clear 13 1019 23 16093 0.904 331 16:37 15.10.2019
139 Clear 13 1019 28 16093 2.6 230 16:19 15.10.2019
140 Clouds 13 1019 35 16093 0.904 331 15:42 15.10.2019
141 Clear 12 1019 26 16093 0.638 321 15:20 15.10.2019
142 Clear 12 1019 21 16093 2.1 330 14:58 15.10.2019
143 Clouds 12 1018 23 16093 1.5 50 14:38 15.10.2019
144 Clouds 12 1018 23 16093 1.5 50 14:38 15.10.2019
145 Clouds 12 1018 23 16093 1.5 50 14:38 15.10.2019
146 Clear 13 1018 26 16093 0.412 333 14:20 15.10.2019
147 Clear 13 1018 24 16093 1.5 230 13:55 15.10.2019
148 Clouds 14 1018 35 16093 0.412 333 13:37 15.10.2019
149 Clear 14 1017 26 16093 3.6 210 13:18 15.10.2019
150 Clouds 14 1017 29 16093 0.412 333 12:42 15.10.2019
151 Clear 14 1017 26 16093 2.1 220 12:21 15.10.2019
152 Clouds 15 1017 22 16093 0.526 267 11:56 15.10.2019
153 Clouds 15 1017 22 16093 0.526 267 11:56 15.10.2019
154 Clouds 14 1017 33 16093 0.526 267 11:37 15.10.2019
155 Clear 15 1017 25 16093 2.1 230 11:18 15.10.2019
156 Clouds 15 1017 41 16093 1.5 90 10:43 15.10.2019
157 Clear 15 1016 23 16093 2.1 200 10:19 15.10.2019
158 Clear 15 1016 31 16093 2.1 270 09:57 15.10.2019
159 Clouds 15 1016 38 16093 1.72 351.124 09:37 15.10.2019
160 Clouds 15 1016 38 16093 1.72 351.124 09:37 15.10.2019
161 Clear 16 1016 22 16093 2.6 220 09:19 15.10.2019
162 Clouds 17 1016 29 16093 1.22 349.997 08:43 15.10.2019
163 Clear 17 1015 20 16093 2.6 190 08:22 15.10.2019
164 Clear 17 1016 25 16093 2.6 270 07:58 15.10.2019
165 Clouds 18 1016 27 16093 1.5 340 07:39 15.10.2019
166 Clear 18 1015 22 16093 1.5 190 07:19 15.10.2019
167 Clouds 18 1015 31 16093 3.1 30 06:44 15.10.2019
168 Clouds 18 1015 31 16093 3.1 30 06:26 15.10.2019
169 Clouds 19 1015 29 16093 3.6 10 05:41 15.10.2019
170 Clear 19 1015 24 16093 2.1 180 05:23 15.10.2019
171 Clear 23 1014 26 16093 3.1 30 04:25 15.10.2019
172 Clear 25 1013 22 16093 3.1 30 03:37 15.10.2019
173 Clouds 26 1013 12 16093 0.65 158.622 02:24 15.10.2019
174 Clear 26 1013 15 16093 2.6 0 01:48 15.10.2019
175 Clouds 26 1013 14 16093 1.5 0 01:19 15.10.2019
176 Clear 26 1013 13 16093 3.1 30 00:49 15.10.2019
177 Clouds 26 1013 15 16093 2.6 10 00:21 15.10.2019
178 Clouds 26 1013 15 16093 2.6 10 00:21 15.10.2019
179 Clear 26 1013 14 16093 2.1 0 23:44 14.10.2019
180 Clouds 26 1013 16 16093 1.93 138.892 23:20 14.10.2019
181 Clear 25 1013 17 16093 1.5 0 22:55 14.10.2019
182 Clear 25 1014 14 16093 2.1 50 22:37 14.10.2019
183 Clear 25 1014 16 16093 2.6 70 22:18 14.10.2019
184 Clear 24 1014 17 16093 2.1 20 21:41 14.10.2019
185 Clear 24 1014 17 16093 2.1 20 21:41 14.10.2019
186 Clear 24 1014 12 16093 1.5 0 21:22 14.10.2019
187 Clear 23 1015 10 16093 2.6 90 20:59 14.10.2019
188 Clear 23 1015 16 16093 2.1 0 20:40 14.10.2019
189 Clear 23 1015 11 16093 2.1 40 20:21 14.10.2019
190 Clear 22 1015 12 16093 1.5 140 19:59 14.10.2019
191 Clear 21 1015 14 16093 1.019 10 19:40 14.10.2019
192 Clouds 21 1015 13 16093 1.019 10 19:22 14.10.2019
193 Clear 20 1015 16 16093 2.12 105.317 18:58 14.10.2019
194 Clear 20 1015 16 16093 2.12 105.317 18:58 14.10.2019
195 Clear 20 1015 16 16093 2.12 105.317 18:58 14.10.2019
196 Clear 19 1015 16 16093 2.12 105.317 18:38 14.10.2019
197 Clouds 18 1014 16 16093 2 48.979 18:19 14.10.2019
198 Clear 15 1014 21 16093 2 48.979 17:44 14.10.2019
199 Clear 15 1014 21 16093 2 48.979 17:26 14.10.2019
200 Clear 13 1014 26 16093 2 48.979 16:59 14.10.2019
201 Clear 11 1013 37 16093 2 48.979 16:40 14.10.2019
202 Clouds 11 1013 22 16093 2.6 200 16:21 14.10.2019
203 Clouds 12 1013 34 16093 2 48.979 15:42 14.10.2019
204 Clear 12 1012 22 16093 2.1 230 15:22 14.10.2019
205 Clouds 12 1013 26 16093 0.66 38.972 14:56 14.10.2019
206 Clouds 12 1012 32 16093 0.66 38.972 14:38 14.10.2019
207 Clear 13 1013 29 16093 3.1 170 14:19 14.10.2019
208 Clouds 13 1012 30 16093 0.66 38.972 13:43 14.10.2019
209 Clear 13 1011 19 16093 2.6 220 13:21 14.10.2019
210 Clouds 13 1012 30 16093 1.19 55.439 12:55 14.10.2019
211 Clouds 13 1012 30 16093 1.19 55.439 12:55 14.10.2019
212 Clouds 13 1012 34 16093 1.5 360 12:36 14.10.2019
213 Clear 13 1012 22 16093 2.6 180 12:18 14.10.2019
214 Clouds 14 1012 26 16093 0.73 336.976 11:44 14.10.2019
215 Clear 14 1013 22 16093 3.6 170 11:24 14.10.2019
216 Clouds 15 1012 28 16093 0.73 336.976 10:55 14.10.2019
217 Clouds 14 1012 28 16093 0.73 336.976 10:37 14.10.2019
218 Clear 15 1011 16 16093 1.5 140 10:18 14.10.2019
219 Clear 15 1011 16 16093 1.5 140 10:18 14.10.2019
220 Clouds 15 1011 26 16093 1.5 350 09:41 14.10.2019
221 Clouds 15 1011 26 16093 1.5 350 09:41 14.10.2019
222 Clouds 15 1011 26 16093 1.5 350 09:41 14.10.2019
223 Clear 15 1011 13 16093 2.1 250 09:21 14.10.2019
224 Clouds 16 1012 26 16093 2.1 350 08:50 14.10.2019
225 Clear 16 1011 15 16093 0.48 262.288 08:23 14.10.2019
226 Clouds 17 1011 23 16093 0.48 262.288 07:47 14.10.2019
227 -273 0 0 0 0 0 07:25 14.10.2019
228 Clouds 18 1011 20 16093 0.48 262.288 06:59 14.10.2019
229 Clouds 19 1011 17 16093 0.48 262.288 06:28 14.10.2019
230 Clouds 22 1011 11 16093 0.86 252.22 05:57 14.10.2019
231 Clouds 21 1011 11 16093 0.86 252.22 05:26 14.10.2019
232 Clear 25 1010 10 16093 4.6 130 03:50 14.10.2019
233 Clear 24 1010 10 16093 4.6 130 03:26 14.10.2019
234 Clear 25 1010 8 16093 6.2 150 02:31 14.10.2019
235 Clouds 26 1011 6 16093 2.6 0 01:21 14.10.2019
236 Clear 26 1011 6 16093 5.1 150 00:42 14.10.2019
237 Clear 25 1012 7 16093 2.6 50 00:18 14.10.2019
238 Clear 25 1012 7 16093 3.6 30 23:41 13.10.2019
239 Clouds 25 1012 6 16093 1.5 0 23:19 13.10.2019
240 Clear 24 1012 7 16093 3.1 20 22:57 13.10.2019
241 Clear 24 1012 7 16093 3.1 20 22:57 13.10.2019
242 Clear 24 1013 7 16093 3.1 60 22:39 13.10.2019
243 Clouds 24 1013 6 16093 3.1 50 22:20 13.10.2019
244 Clouds 24 1013 6 16093 3.1 50 22:20 13.10.2019
245 Clear 23 1013 8 16093 2.6 0 21:57 13.10.2019
246 Clear 22 1014 9 16093 4.17 179.148 21:36 13.10.2019
247 Clouds 21 1014 7 16093 2.1 0 21:18 13.10.2019
248 Clear 21 1014 10 16093 1.5 120 20:56 13.10.2019
249 Clear 21 1015 9 16093 2.21 149.508 20:37 13.10.2019
250 Clear 21 1015 9 16093 2.21 149.508 20:37 13.10.2019
251 Clear 21 1015 9 16093 2.21 149.508 20:37 13.10.2019
252 Clouds 20 1015 7 16093 1.5 30 20:18 13.10.2019
253 Clear 20 1015 7 16093 2.21 149.508 19:55 13.10.2019
254 Clear 19 1015 7 16093 2.21 149.508 19:36 13.10.2019
255 Clear 19 1015 7 16093 2.21 149.508 19:36 13.10.2019
256 Clear 18 1016 8 16093 2.21 149.508 19:18 13.10.2019
257 Clear 17 1015 9 16093 2.21 149.508 18:41 13.10.2019
258 Clouds 16 1015 12 16093 1.11 44.307 18:21 13.10.2019
259 Clear 13 1015 10 16093 1.11 44.307 17:59 13.10.2019
260 Clear 13 1015 11 16093 1.11 44.307 17:41 13.10.2019
261 Clear 13 1015 11 16093 1.11 44.307 17:41 13.10.2019
262 Clear 13 1015 11 16093 1.11 44.307 17:41 13.10.2019
263 Clouds 12 1014 12 16093 1.11 44.307 17:23 13.10.2019
264 Clear 9 1014 33 16093 1.11 44.307 16:44 13.10.2019
265 Clouds 9 1014 14 16093 2.6 220 16:20 13.10.2019
266 Clear 9 1014 26 16093 1.11 44.307 15:58 13.10.2019
267 Clear 9 1014 26 16093 1.11 44.307 15:58 13.10.2019
268 Clouds 9 1014 24 16093 1.5 100 15:39 13.10.2019
269 Clouds 9 1014 24 16093 1.5 100 15:39 13.10.2019
270 Clear 9 1013 15 16093 2.6 210 15:20 13.10.2019
271 Clear 10 1014 11 16093 1.5 30 14:58 13.10.2019
272 Clouds 10 1014 23 16093 0.56 54.616 14:39 13.10.2019
273 Clouds 10 1014 23 16093 0.56 54.616 14:39 13.10.2019
274 Clear 10 1013 13 16093 1.5 250 14:21 13.10.2019
275 Clouds 9 1014 26 16093 0.56 54.616 13:56 13.10.2019
276 Clouds 10 1014 21 16093 0.56 54.616 13:37 13.10.2019
277 Clear 11 1013 14 16093 0.94 45.432 13:19 13.10.2019
278 Clouds 11 1014 23 16093 0.94 45.432 12:56 13.10.2019
279 Clouds 11 1014 25 16093 0.94 45.432 12:37 13.10.2019
280 Clear 10 1014 13 16093 4.1 180 12:18 13.10.2019
281 Clouds 11 1014 29 16093 1.17 18.682 11:55 13.10.2019
282 Clouds 11 1014 29 16093 1.17 18.682 11:37 13.10.2019
283 Clear 11 1014 13 16093 4.1 190 11:18 13.10.2019
284 Clear 11 1014 13 16093 4.1 190 11:18 13.10.2019
285 Clouds 11 1014 23 16093 1.17 18.682 10:41 13.10.2019
286 Clouds 11 1014 23 16093 1.17 18.682 10:41 13.10.2019
287 Clear 12 1013 12 16093 1.5 230 10:22 13.10.2019
288 Clouds 12 1014 21 16093 1.17 18.682 09:41 13.10.2019
289 Clear 13 1013 11 16093 2.1 200 09:21 13.10.2019
290 Clouds 13 1014 14 16093 0.7 358.771 08:58 13.10.2019
291 Clouds 13 1014 17 16093 0.7 358.771 08:38 13.10.2019
292 Clear 13 1014 11 16093 3.6 190 08:19 13.10.2019
293 Clear 13 1014 12 16093 3.1 180 07:46 13.10.2019
294 Clear 14 1013 8 16093 1.5 250 07:21 13.10.2019
295 Clouds 15 1013 14 16093 2.1 310 06:41 13.10.2019
296 Clouds 16 1013 22 16093 1.5 20 05:39 13.10.2019
297 Clouds 18 1013 13 16093 2.1 40 04:46 13.10.2019
298 Clear 24 1012 4 16093 0.62 23.539 03:51 13.10.2019
299 Clear 23 1013 4 16093 2.6 40 02:41 13.10.2019
300 Clear 24 1014 3 16093 2.6 50 01:53 13.10.2019
301 Clear 24 1014 3 16093 2.6 50 01:30 13.10.2019
302 Clear 24 1014 3 16093 2.6 30 00:47 13.10.2019
303 Clear 24 1014 3 16093 2.6 30 00:47 13.10.2019
304 Clear 24 1014 4 16093 2.1 360 00:21 13.10.2019
305 Clear 23 1014 3 16093 1.6 109.44 23:56 12.10.2019
306 Clear 23 1014 4 16093 1.5 0 23:37 12.10.2019
307 Clear 23 1014 5 16093 2.1 360 23:19 12.10.2019
308 Clear 23 1014 4 16093 3.6 50 22:57 12.10.2019
309 Clear 23 1015 4 16093 2.6 60 22:38 12.10.2019
310 Clear 23 1015 4 16093 3.1 360 22:19 12.10.2019
311 Clear 21 1016 5 16093 3.1 50 21:54 12.10.2019
312 Clear 21 1016 5 16093 3.1 50 21:36 12.10.2019
313 Clear 20 1017 7 16093 1.5 0 21:18 12.10.2019
314 Clear 20 1017 5 16093 1.84 93.951 20:39 12.10.2019
315 Clear 19 1016 7 16093 1.84 93.951 20:21 12.10.2019
316 Clear 18 1017 7 16093 1.5 0 19:37 12.10.2019
317 Clear 18 1017 7 16093 1.84 93.951 19:19 12.10.2019
318 Clear 17 1017 7 16093 1.84 93.951 18:56 12.10.2019
319 Clear 16 1017 7 16093 1.84 93.951 18:36 12.10.2019
320 Clear 14 1018 9 16093 2.17 51.601 18:18 12.10.2019
321 Clear 12 1017 11 16093 2.17 51.601 17:42 12.10.2019
322 Clear 11 1016 12 16093 2.1 260 17:19 12.10.2019
323 Clear 9 1016 10 16093 2.17 51.601 16:41 12.10.2019
324 Clear 9 1016 10 16093 2.17 51.601 16:41 12.10.2019
325 Clear 9 1016 13 16093 2.1 190 16:21 12.10.2019
326 Clear 9 1016 9 16093 2.6 310 15:59 12.10.2019
327 Clouds 9 1016 8 16093 2.6 300 15:39 12.10.2019
328 Clear 8 1016 12 16093 2.1 250 15:21 12.10.2019
329 Clouds 8 1016 9 16093 1.96 52.727 14:41 12.10.2019
330 Clear 9 1016 12 16093 1.5 240 14:21 12.10.2019
331 Clouds 9 1016 11 16093 1.96 52.727 13:53 12.10.2019
332 Clouds 9 1016 11 16093 1.96 52.727 13:53 12.10.2019
333 Clouds 9 1016 11 16093 1.96 52.727 13:33 12.10.2019
334 Clouds 9 1016 8 16093 3.6 340 12:59 12.10.2019
335 Clouds 9 1016 8 16093 1.95 53.354 12:38 12.10.2019
336 Clear 9 1016 11 16093 3.1 220 12:20 12.10.2019
337 Clouds 10 1017 21 16093 2.11 53.179 11:47 12.10.2019
338 Clouds 11 1017 21 16093 2.11 53.179 11:26 12.10.2019
339 Clouds 11 1017 6 16093 2.11 53.179 10:59 12.10.2019
340 Clouds 11 1017 6 16093 2.11 53.179 10:40 12.10.2019
341 Clear 11 1016 10 16093 2.1 240 10:21 12.10.2019
342 Clouds 11 1017 6 16093 2.11 53.179 09:57 12.10.2019
343 Clouds 11 1017 6 16093 2.11 53.179 09:57 12.10.2019
344 Clouds 12 1017 9 16093 2.11 53.179 09:38 12.10.2019
345 Clear 12 1016 9 16093 2.1 200 09:20 12.10.2019
346 Clouds 12 1017 5 16093 2.1 290 08:45 12.10.2019
347 Clear 12 1017 7 16093 2.1 210 08:25 12.10.2019
348 Clouds 12 1017 5 16093 2.1 310 07:59 12.10.2019
349 Clouds 12 1017 7 16093 2.6 320 07:31 12.10.2019
350 Clouds 13 1017 5 16093 1.5 0 06:37 12.10.2019
351 Clouds 14 1017 10 16093 2.98 35.913 05:44 12.10.2019
352 Clouds 17 1017 5 16093 1.5 360 04:43 12.10.2019
353 Clouds 19 1017 7 16093 1.5 20 03:54 12.10.2019
354 Clear 20 1017 3 16093 2.6 360 02:50 12.10.2019
355 Clear 21 1018 3 16093 3.6 30 01:33 12.10.2019
356 Clear 21 1019 3 16093 2.6 0 00:56 12.10.2019
357 Clear 21 1019 4 16093 4.6 40 00:37 12.10.2019
358 Clear 21 1020 4 16093 4.6 50 23:55 11.10.2019
359 Clear 20 1020 4 16093 4.6 50 23:36 11.10.2019
360 Clear 20 1021 6 16093 3.6 10 23:18 11.10.2019
361 Clear 19 1022 6 16093 5.7 40 22:38 11.10.2019
362 Clear 19 1023 6 16093 4.1 30 22:19 11.10.2019
363 Clear 18 1023 6 16093 4.6 30 21:43 11.10.2019
364 Clouds 17 1023 7 16093 2.6 0 21:22 11.10.2019
365 Clear 16 1023 7 16093 5.7 40 20:57 11.10.2019
366 Clear 16 1024 7 16093 7.2 30 20:39 11.10.2019
367 Clouds 15 1024 8 16093 2.6 0 20:20 11.10.2019
368 Clouds 15 1024 8 16093 2.6 0 20:20 11.10.2019
369 Clear 15 1024 7 16093 7.2 340 19:55 11.10.2019
370 Clear 14 1024 11 16093 5.7 30 19:37 11.10.2019
371 Clear 14 1026 12 16093 3.6 60 19:18 11.10.2019
372 Clear 14 1026 12 16093 3.6 60 19:18 11.10.2019
373 Clear 14 1026 12 16093 3.6 60 19:18 11.10.2019
374 Clear 14 1026 12 16093 3.6 60 19:18 11.10.2019
375 Clear 14 1026 12 16093 3.6 60 19:18 11.10.2019
376 Clear 13 1025 10 16093 6.2 20 18:56 11.10.2019
377 Clear 13 1025 10 16093 6.2 20 18:37 11.10.2019
378 Clear 12 1026 13 16093 4.6 30 18:18 11.10.2019
379 Clear 11 1025 10 16093 1.5 0 17:55 11.10.2019
380 Clear 10 1025 10 16093 1.5 0 17:36 11.10.2019
381 Clear 10 1026 15 16093 2.6 50 17:18 11.10.2019
382 Clear 8 1024 10 16093 1.5 0 16:40 11.10.2019
383 Clouds 8 1024 16 16093 1.5 140 16:20 11.10.2019
384 Clear 8 1024 10 16093 4.46 63.303 15:58 11.10.2019
385 Clouds 9 1024 15 16093 2.6 70 15:38 11.10.2019
386 Clouds 9 1024 15 16093 2.6 70 15:18 11.10.2019
387 Clouds 9 1024 10 16093 7.2 20 14:46 11.10.2019
388 Clouds 9 1024 10 16093 7.2 20 14:28 11.10.2019
389 Clouds 10 1023 11 16093 7.2 20 13:56 11.10.2019
390 Thunderstorm 10 1023 10 16093 7.7 10 13:37 11.10.2019
391 Clear 10 1024 15 16093 6.7 30 13:18 11.10.2019
392 Clouds 10 1023 10 16093 10.3 20 12:42 11.10.2019
393 Clouds 10 1023 14 16093 4.6 50 12:22 11.10.2019
394 Clouds 11 1023 11 16093 10.3 10 12:00 11.10.2019
395 Clouds 11 1023 11 16093 7.2 20 11:40 11.10.2019
396 Clouds 11 1024 14 16093 4.1 100 11:21 11.10.2019
397 Clouds 11 1023 12 16093 7.7 10 10:56 11.10.2019
398 Clouds 11 1023 12 16093 8.7 20 10:38 11.10.2019
399 Clouds 11 1023 13 16093 5.1 80 10:20 11.10.2019
400 Clouds 12 1023 12 16093 8.2 20 09:54 11.10.2019
401 Clouds 12 1023 12 16093 8.2 20 09:54 11.10.2019
402 Clouds 12 1023 12 16093 8.2 20 09:36 11.10.2019
403 Clear 12 1024 14 16093 5.7 40 09:18 11.10.2019
404 Clouds 13 1023 13 16093 7.7 350 08:39 11.10.2019
405 Clouds 13 1023 12 16093 4.6 40 08:21 11.10.2019
406 Clouds 13 1023 13 16093 5.7 350 07:59 11.10.2019
407 Clouds 14 1023 14 16093 4.6 20 07:40 11.10.2019
408 Clouds 14 1022 13 16093 4.6 40 07:20 11.10.2019
409 Clouds 14 1022 15 16093 7.2 20 06:43 11.10.2019
410 Clear 14 1023 14 16093 4.1 40 06:21 11.10.2019
411 Clouds 15 1021 15 16093 6.7 30 05:32 11.10.2019
412 Clouds 16 1021 13 16093 6.2 40 04:59 11.10.2019
413 Clear 16 1020 11 16093 4.6 60 04:24 11.10.2019
414 Clear 18 1020 8 16093 5.7 30 01:58 11.10.2019
415 Clear 19 1020 8 16093 7.2 10 00:42 11.10.2019
416 Clear 19 1020 8 16093 7.2 10 00:42 11.10.2019
417 Clear 19 1020 8 16093 7.2 60 00:23 11.10.2019
418 Clear 18 1020 7 16093 9.3 60 23:42 10.10.2019
419 Clear 18 1020 7 16093 9.3 60 23:20 10.10.2019
420 Clear 17 1021 7 16093 8.2 40 22:57 10.10.2019
421 Clear 17 1021 9 16093 8.7 40 22:38 10.10.2019
422 Clear 17 1021 9 16093 6.7 50 22:19 10.10.2019
423 Clear 16 1022 10 16093 8.2 330 21:54 10.10.2019
424 Clear 16 1022 10 16093 9.3 40 21:36 10.10.2019
425 Clear 16 1023 10 16093 8.7 20 21:18 10.10.2019
426 Clear 15 1022 11 16093 9.8 30 20:41 10.10.2019
427 Clear 15 1022 9 16093 8.7 10 20:21 10.10.2019
428 Clear 15 1022 9 16093 8.7 10 20:21 10.10.2019
429 Clear 15 1022 9 16093 8.7 10 20:21 10.10.2019
430 Clear 14 1022 11 16093 8.7 350 19:57 10.10.2019
431 Clear 14 1022 12 16093 10.3 10 19:39 10.10.2019
432 Clear 14 1022 10 16093 7.2 360 19:19 10.10.2019
433 Clear 13 1022 15 16093 10.8 10 18:54 10.10.2019
434 Clear 13 1022 15 16093 10.8 10 18:54 10.10.2019
435 Clear 13 1022 15 16093 10.8 10 18:54 10.10.2019
436 Clear 13 1022 15 16093 10.8 10 18:54 10.10.2019
437 Clear 13 1022 15 16093 10.8 10 18:36 10.10.2019
438 Clear 12 1023 13 16093 6.7 30 18:18 10.10.2019
439 Clear 12 1021 13 16093 10.8 350 17:40 10.10.2019
440 Clear 12 1021 10 16093 8.7 30 17:20 10.10.2019
441 Clear 11 1021 13 16093 9.8 360 16:58 10.10.2019
442 Clear 11 1020 14 16093 9.3 10 16:38 10.10.2019
443 Clear 11 1020 11 16093 7.7 50 16:20 10.10.2019
444 Clouds 12 1019 13 16093 6.2 20 15:42 10.10.2019
445 Clear 12 1018 10 16093 9.3 10 15:23 10.10.2019
446 Clouds 12 1018 12 16093 10.3 10 14:59 10.10.2019
447 Clouds 13 1017 11 16093 12.3 20 14:37 10.10.2019
448 Dust 13 1018 12 16093 8.7 30 14:19 10.10.2019
449 Dust 13 1017 10 16093 10.8 20 13:58 10.10.2019
450 Dust 13 1016 10 16093 12.9 20 13:39 10.10.2019
451 Dust 13 1017 10 16093 9.3 30 13:18 10.10.2019
452 Dust 14 1015 8 14484 10.3 20 12:42 10.10.2019
453 Dust 15 1015 8 16093 14.4 30 12:21 10.10.2019
454 Dust 15 1015 7 16093 9.8 30 11:58 10.10.2019
455 Dust 16 1014 6 16093 10.3 20 11:40 10.10.2019
456 Dust 16 1014 8 16093 12.9 10 11:19 10.10.2019
457 Dust 17 1013 6 16093 11.8 20 10:57 10.10.2019
458 Dust 17 1012 6 16093 12.3 20 10:39 10.10.2019
459 Dust 17 1012 8 14484 14.9 360 10:20 10.10.2019
460 Dust 19 1010 11 16093 12.9 10 09:41 10.10.2019
461 Dust 19 1011 9 14484 12.9 20 09:23 10.10.2019
462 Dust 20 1010 12 16093 12.3 20 08:59 10.10.2019
463 Dust 20 1009 12 14484 12.9 20 08:40 10.10.2019
464 Dust 21 1009 12 14484 12.9 20 08:21 10.10.2019
465 Dust 23 1007 12 12874 7.2 50 07:48 10.10.2019
466 Dust 23 1007 12 12874 7.2 50 07:26 10.10.2019
467 Clear 25 1006 10 16093 6.2 20 06:56 10.10.2019
468 Clear 26 1005 11 8047 12.9 360 06:38 10.10.2019
469 Clouds 25 1004 13 16093 1.3 299.444 05:50 10.10.2019
470 Clear 25 1003 11 16093 2.1 290 05:19 10.10.2019
471 Clouds 27 1003 9 16093 2.6 330 04:35 10.10.2019
472 Haze 30 1003 7 16093 5.7 250 02:29 10.10.2019
473 Haze 31 1003 7 16093 6.7 240 01:37 10.10.2019
474 Haze 31 1004 9 16093 8.2 210 01:18 10.10.2019
475 Haze 31 1003 6 16093 6.7 260 00:33 10.10.2019
476 Haze 31 1003 7 16093 5.7 180 23:42 09.10.2019
477 Haze 31 1003 8 16093 2.1 50 23:24 09.10.2019
478 Haze 31 1003 8 16093 2.1 50 23:24 09.10.2019
479 Haze 30 1003 7 16093 3.6 180 22:59 09.10.2019
480 Haze 30 1004 8 16093 4.6 200 22:41 09.10.2019
481 Haze 30 1004 9 16093 1.5 110 22:22 09.10.2019
482 Clear 28 1005 8 16093 2.1 0 21:57 09.10.2019
483 Clear 28 1005 10 16093 3.6 160 21:38 09.10.2019
484 Clouds 28 1005 11 16093 4.56 220.965 21:19 09.10.2019
485 -273 0 0 0 0 0 20:55 09.10.2019
486 Clear 28 1006 9 16093 4.6 160 20:36 09.10.2019
487 Clear 27 1007 12 16093 6.7 210 20:18 09.10.2019
488 Clear 27 1007 12 16093 6.7 210 20:18 09.10.2019
489 Clear 27 1007 12 16093 6.7 210 20:18 09.10.2019
490 Clear 26 1006 10 16093 3.1 0 19:43 09.10.2019
491 Clouds 26 1006 12 16093 3.6 200 19:22 09.10.2019
492 Clear 24 1007 11 16093 3.1 0 18:39 09.10.2019
493 Clouds 21 1006 15 16093 2.6 190 18:21 09.10.2019
494 Clear 21 1007 12 16093 3.1 170 17:58 09.10.2019
495 Clear 20 1007 13 16093 1.5 110 17:40 09.10.2019
496 Clouds 19 1006 18 16093 1.5 150 17:22 09.10.2019
497 Clear 20 1007 16 16093 2.1 80 16:57 09.10.2019
498 Clear 19 1006 15 16093 1.5 240 16:39 09.10.2019
499 Clouds 17 1006 19 16093 2.6 270 16:21 09.10.2019
500 Clouds 17 1006 19 16093 2.6 270 16:21 09.10.2019
501 Clear 18 1006 20 16093 2.6 0 15:57 09.10.2019
502 Clouds 18 1006 13 16093 3.6 190 15:38 09.10.2019
503 Clouds 19 1005 16 16093 3.1 260 15:19 09.10.2019
504 Clouds 18 1006 12 16093 3.6 160 14:55 09.10.2019
505 Clouds 18 1006 12 16093 3.6 160 14:36 09.10.2019
506 Clear 19 1007 14 16093 5.1 180 14:18 09.10.2019
507 Clouds 18 1006 12 16093 2.6 160 13:38 09.10.2019
508 Clear 19 1005 11 16093 5.7 200 13:19 09.10.2019
509 Clouds 19 1006 11 16093 4.1 130 12:55 09.10.2019
510 Clouds 20 1006 11 16093 5.1 160 12:37 09.10.2019
511 Clear 21 1007 12 16093 5.1 170 12:18 09.10.2019
512 Clouds 20 1006 12 16093 3.1 180 11:40 09.10.2019
513 Clouds 20 1005 13 16093 5.1 180 11:20 09.10.2019
514 Clouds 20 1007 22 16093 3.01 231.156 10:59 09.10.2019
515 Clouds 20 1007 18 16093 3.1 90 10:40 09.10.2019
516 Clouds 20 1005 14 16093 4.6 200 10:19 09.10.2019
517 Clouds 20 1005 14 16093 4.6 200 10:19 09.10.2019
518 Clouds 21 1007 12 16093 2.1 120 09:43 09.10.2019
519 Clear 20 1008 14 16093 4.6 220 09:20 09.10.2019
520 Clouds 22 1007 25 16093 2.6 10 08:58 09.10.2019
521 Clouds 22 1007 14 16093 2.44 222.811 08:38 09.10.2019
522 Clouds 22 1006 13 16093 1.5 170 08:19 09.10.2019
523 Clouds 22 1006 13 16093 1.5 170 08:19 09.10.2019
524 Clouds 23 1008 15 16093 1.5 130 07:47 09.10.2019
525 Clouds 23 1008 15 16093 1.5 130 07:47 09.10.2019
526 Clouds 23 1007 10 16093 1.5 0 07:24 09.10.2019
527 Clouds 24 1008 24 16093 2.1 50 06:57 09.10.2019
528 Clouds 24 1008 24 16093 2.1 50 06:34 09.10.2019
529 Clouds 25 1008 7 16093 2.1 190 05:51 09.10.2019
530 Clouds 27 1008 7 16093 2.5 248.531 04:50 09.10.2019
531 Clear 30 1008 7 16093 5.1 150 03:47 09.10.2019
532 Clear 31 1008 6 16093 6.2 160 02:27 09.10.2019
533 Clouds 31 1008 7 16093 3.1 100 01:24 09.10.2019
534 Clear 31 1008 6 16093 3.6 90 00:59 09.10.2019
535 Clear 31 1009 5 16093 1.5 0 00:40 09.10.2019
536 Clouds 31 1009 7 16093 2.1 0 00:22 09.10.2019
537 Smoke 31 1009 5 16093 3.1 180 23:58 08.10.2019
538 Smoke 30 1010 6 16093 2.6 90 23:38 08.10.2019
539 Clear 30 1011 9 16093 3.1 20 23:18 08.10.2019
540 Clear 30 1011 9 16093 3.1 20 23:18 08.10.2019
541 Clear 30 1011 7 16093 1.5 170 22:41 08.10.2019
542 Clear 29 1011 9 16093 2.1 40 22:22 08.10.2019
543 Clear 29 1011 7 16093 3.26 237.888 21:58 08.10.2019
544 Clear 28 1012 8 16093 3.26 237.888 21:39 08.10.2019
545 Clear 28 1012 10 16093 2.6 0 21:20 08.10.2019
546 Clear 27 1012 8 16093 2.1 212.67 20:58 08.10.2019
547 Clear 27 1013 9 14484 1.93 207.869 20:39 08.10.2019
548 Clear 26 1012 11 16093 2.1 60 20:21 08.10.2019
549 Clear 26 1013 9 16093 1.93 207.869 19:59 08.10.2019
550 Clear 25 1013 11 16093 1.93 207.869 19:41 08.10.2019
551 Clear 25 1013 12 16093 1.5 80 19:23 08.10.2019
552 -273 0 0 0 0 0 18:55 08.10.2019
553 -273 0 0 0 0 0 18:55 08.10.2019
554 Clear 22 1013 12 16093 1.93 207.869 18:37 08.10.2019
555 Clear 21 1013 15 16093 0.52 1.214 18:19 08.10.2019
556 Haze 18 1013 15 16093 0.52 1.214 17:55 08.10.2019
557 Haze 18 1013 15 16093 0.52 1.214 17:55 08.10.2019
558 Haze 19 1013 15 16093 0.52 1.214 17:36 08.10.2019
559 Haze 18 1013 15 16093 0.52 1.214 17:36 08.10.2019
560 Haze 18 1014 18 16093 2.6 170 17:18 08.10.2019
561 Clear 15 1012 20 16093 1.5 360 16:40 08.10.2019
562 Clear 15 1012 20 16093 1.5 360 16:22 08.10.2019
563 Clouds 15 1013 20 16093 0.52 1.214 15:41 08.10.2019
564 Clear 14 1012 20 16093 2.1 210 15:22 08.10.2019
565 Clear 14 1012 20 16093 2.1 210 15:22 08.10.2019
566 Clouds 15 1013 30 16093 0.77 323.984 14:59 08.10.2019
567 Clouds 15 1012 30 16093 0.77 323.984 14:41 08.10.2019
568 Clear 15 1012 20 16093 1.5 250 14:21 08.10.2019
569 Clouds 15 1012 30 16093 0.77 323.984 13:57 08.10.2019
570 Clouds 16 1012 28 16093 0.77 323.984 13:39 08.10.2019
571 Clear 16 1012 20 16093 2.6 210 13:19 08.10.2019
572 Clouds 17 1012 23 16093 0.8 316.523 12:59 08.10.2019
573 Clouds 17 1012 25 16093 0.8 316.523 12:38 08.10.2019
574 Clear 17 1013 16 16093 3.6 170 12:18 08.10.2019
575 Clouds 17 1013 26 16093 1.43 311.31 11:42 08.10.2019
576 Clouds 17 1012 17 16093 1.5 240 11:24 08.10.2019
577 Clouds 17 1012 17 16093 1.5 240 11:24 08.10.2019
578 Clouds 17 1013 23 16093 1.43 311.31 10:58 08.10.2019
579 Clouds 18 1013 25 16093 1.43 311.31 10:37 08.10.2019
580 Clear 18 1014 16 16093 4.1 170 10:19 08.10.2019
581 Clouds 18 1013 25 16093 1.43 311.31 09:55 08.10.2019
582 Clouds 18 1013 18 16093 1.43 311.31 09:37 08.10.2019
583 Clear 19 1014 15 16093 3.6 190 09:19 08.10.2019
584 Clouds 18 1013 25 16093 0.92 281.689 08:42 08.10.2019
585 Clouds 19 1013 12 16093 1.5 200 08:23 08.10.2019
586 Clouds 19 1013 12 16093 1.5 200 08:23 08.10.2019
587 Clear 20 1014 24 16093 0.92 281.689 07:44 08.10.2019
588 Clouds 20 1013 12 16093 2.6 240 07:21 08.10.2019
589 Clouds 21 1013 16 16093 0.92 281.689 06:51 08.10.2019
590 Clouds 21 1013 16 16093 0.92 281.689 06:28 08.10.2019
591 Clouds 22 1013 21 16093 3.1 40 05:46 08.10.2019
592 Clear 22 1014 16 16093 2.6 190 05:26 08.10.2019
593 Clear 25 1013 12 16093 3.1 20 04:31 08.10.2019
594 Clear 29 1013 10 16093 3.1 30 03:28 08.10.2019
595 Clear 29 1013 7 16093 2.6 40 02:37 08.10.2019
596 Clear 29 1014 6 16093 3.1 60 01:47 08.10.2019
597 Clear 29 1014 6 16093 3.1 60 01:27 08.10.2019
598 Clear 29 1015 7 16093 2.6 0 00:46 08.10.2019
599 Clear 29 1015 7 16093 2.6 80 00:21 08.10.2019
600 Clear 29 1016 7 16093 4.1 60 23:40 07.10.2019
601 Clear 28 1016 8 16093 1.5 70 23:20 07.10.2019
602 Clear 28 1016 7 16093 3.1 50 22:56 07.10.2019
603 Clear 28 1017 7 16093 3.1 80 22:38 07.10.2019
604 Clear 27 1017 8 16093 2.1 0 22:20 07.10.2019
605 Clear 27 1017 7 16093 3.1 10 21:56 07.10.2019
606 Clear 27 1018 9 16093 3.6 60 21:37 07.10.2019
607 Clear 27 1018 9 16093 3.6 60 21:37 07.10.2019
608 Clear 26 1018 9 16093 3.6 60 21:19 07.10.2019
609 Clear 26 1018 9 16093 3.6 60 21:19 07.10.2019
610 Clear 26 1018 9 16093 3.6 60 21:19 07.10.2019
611 Clear 26 1018 8 16093 2.6 0 20:57 07.10.2019
612 Clear 25 1019 8 16093 4.6 300 20:39 07.10.2019
613 Clear 25 1019 10 16093 1.5 0 20:19 07.10.2019
614 Clear 24 1019 9 16093 4.6 310 19:56 07.10.2019
615 Clear 24 1019 9 16093 2.6 0 19:38 07.10.2019
616 Clear 24 1019 9 16093 2.6 0 19:38 07.10.2019
617 Clear 23 1021 14 16093 3.1 40 19:18 07.10.2019
618 Clear 22 1020 10 16093 3.6 350 18:43 07.10.2019
619 Clear 20 1021 15 16093 2.1 40 18:20 07.10.2019
620 Clear 19 1020 10 16093 3.6 350 17:59 07.10.2019
621 Clear 19 1020 11 16093 3.1 340 17:41 07.10.2019
622 Clouds 18 1019 18 16093 1.5 220 17:19 07.10.2019
623 Clear 16 1019 13 16093 4.6 330 16:46 07.10.2019
624 Clear 16 1019 13 16093 4.6 330 16:46 07.10.2019
625 Clear 16 1019 13 16093 4.6 330 16:28 07.10.2019
626 Clear 15 1019 13 16093 4.6 320 15:59 07.10.2019
627 Clear 15 1019 20 16093 2.6 220 15:40 07.10.2019
628 Clear 14 1019 20 16093 2.6 220 15:21 07.10.2019
629 Clouds 15 1019 12 16093 3.1 340 14:42 07.10.2019
630 Clear 15 1019 20 16093 2.23 52.15 14:23 07.10.2019
631 Clouds 15 1019 13 16093 3.6 350 13:45 07.10.2019
632 Clear 15 1018 20 16093 1.5 240 13:21 07.10.2019
633 Clear 15 1018 20 16093 1.5 240 13:21 07.10.2019
634 Clouds 16 1019 11 16093 2.6 320 12:59 07.10.2019
635 Clouds 16 1019 12 16093 2.1 360 12:41 07.10.2019
636 Clear 16 1019 20 16093 1.5 210 12:21 07.10.2019
637 Haze 16 1019 18 16093 3.1 210 11:59 07.10.2019
638 Haze 16 1019 10 16093 4.1 360 11:41 07.10.2019
639 Clear 17 1019 18 16093 3.1 210 11:22 07.10.2019
640 Clouds 18 1019 10 16093 4.1 350 10:58 07.10.2019
641 Clouds 18 1019 10 16093 4.1 350 10:58 07.10.2019
642 Clouds 18 1019 10 16093 4.1 350 10:39 07.10.2019
643 Clear 18 1019 17 16093 2.6 220 10:20 07.10.2019
644 Clouds 18 1019 10 16093 5.1 350 09:40 07.10.2019
645 Clouds 19 1019 13 16093 5.7 350 09:22 07.10.2019
646 Clouds 19 1019 15 16093 3.6 330 08:44 07.10.2019
647 Clear 19 1021 25 16093 1.5 200 08:21 07.10.2019
648 Clouds 20 1019 24 16093 4.1 330 07:59 07.10.2019
649 Clouds 20 1019 15 16093 2.1 0 07:40 07.10.2019
650 Clear 20 1019 15 16093 3.6 270 07:20 07.10.2019
651 Clouds 20 1019 18 16093 2.1 20 06:44 07.10.2019
652 Clear 21 1020 22 16093 2.57 44.449 06:22 07.10.2019
653 Clear 22 1019 18 16093 2.57 44.449 05:27 07.10.2019
654 Clear 24 1019 10 16093 2.6 360 04:56 07.10.2019
655 Clouds 25 1018 10 16093 2.6 30 04:19 07.10.2019
656 Clear 27 1018 9 16093 3.1 360 03:39 07.10.2019
657 Clear 27 1018 9 16093 3.1 360 03:39 07.10.2019
658 Clear 27 1019 9 16093 4.1 30 02:55 07.10.2019
659 Clouds 28 1019 9 16093 3.6 20 02:20 07.10.2019
660 Clear 28 1020 11 16093 2.6 50 02:20 07.10.2019
661 Clouds 28 1019 10 16093 1.5 0 01:24 07.10.2019
662 Clear 28 1019 9 16093 5.7 50 00:55 07.10.2019
663 Clear 28 1020 9 16093 5.7 50 00:27 07.10.2019
664 Clear 28 1020 9 16093 5.1 50 23:59 06.10.2019
665 Clear 28 1021 10 16093 4.1 40 23:40 06.10.2019
666 Clear 27 1021 10 16093 5.1 70 23:20 06.10.2019
667 Clear 27 1021 10 16093 4.6 40 22:58 06.10.2019
668 Clear 27 1022 10 16093 5.1 20 22:39 06.10.2019
669 Clear 27 1022 10 16093 5.1 60 22:21 06.10.2019
670 Clear 27 1022 10 16093 4.6 50 21:56 06.10.2019
671 Clear 26 1023 12 16093 5.1 30 21:37 06.10.2019
672 Clear 26 1023 11 16093 6.7 50 21:19 06.10.2019
673 Clear 25 1023 13 16093 4.6 30 20:56 06.10.2019
674 Clear 25 1023 13 16093 6.7 30 20:38 06.10.2019
675 Clear 24 1023 12 16093 7.2 50 20:19 06.10.2019
676 Clear 24 1023 14 16093 4.6 30 19:57 06.10.2019
677 Clear 23 1023 15 16093 6.2 20 19:37 06.10.2019
678 Clear 23 1024 14 16093 5.7 40 19:18 06.10.2019
679 Clear 22 1023 12 16093 6.2 30 18:55 06.10.2019
680 Clear 22 1023 12 16093 4.6 20 18:37 06.10.2019
681 Clear 21 1024 15 16093 4.1 50 18:18 06.10.2019
682 Clear 21 1024 15 16093 4.1 50 18:18 06.10.2019
683 Clear 19 1022 12 16093 3.1 20 17:43 06.10.2019
684 Clear 18 1022 15 16093 2.6 110 17:20 06.10.2019
685 Clear 17 1022 12 16093 3.79 66.591 16:56 06.10.2019
686 Clear 17 1022 12 16093 3.79 66.591 16:56 06.10.2019
687 Clear 16 1021 15 16093 2.1 360 16:37 06.10.2019
688 Clear 16 1022 23 16093 1.5 200 16:19 06.10.2019
689 Clouds 16 1020 16 16093 3.79 66.591 15:43 06.10.2019
690 Clear 16 1020 15 16093 2.6 20 15:22 06.10.2019
691 Clouds 16 1020 19 16093 2.1 0 14:56 06.10.2019
692 Clouds 15 1019 12 16093 2.1 350 14:38 06.10.2019
693 Clear 16 1019 16 16093 1.5 30 14:19 06.10.2019
694 Clouds 15 1019 24 16093 1.71 51.309 13:42 06.10.2019
695 Clouds 15 1019 24 16093 1.71 51.309 13:42 06.10.2019
696 Clear 15 1018 17 16093 2.1 270 13:24 06.10.2019
697 Clouds 15 1019 28 16093 1.82 50.963 12:59 06.10.2019
698 Clouds 15 1018 30 16093 1.82 50.963 12:41 06.10.2019
699 Clear 16 1018 12 16093 2.1 220 12:21 06.10.2019
700 Clouds 17 1018 30 16093 1.04 340.176 11:59 06.10.2019
701 Clouds 17 1018 30 16093 1.04 340.176 11:41 06.10.2019
702 Clear 17 1017 12 16093 2.6 210 11:23 06.10.2019
703 Clouds 17 1018 17 16093 1.5 320 10:55 06.10.2019
704 Clouds 17 1018 23 16093 1.04 340.176 10:37 06.10.2019
705 Clear 17 1017 14 16093 2.6 210 10:19 06.10.2019
706 Clouds 17 1017 33 16093 1.5 360 09:41 06.10.2019
707 Clear 18 1018 17 16093 3.1 170 09:19 06.10.2019
708 Clouds 18 1017 25 16093 0.43 295.848 08:48 06.10.2019
709 Clouds 18 1017 25 16093 0.43 295.848 08:48 06.10.2019
710 Clear 18 1017 12 16093 0.48 301.866 08:22 06.10.2019
711 Clouds 19 1017 23 16093 0.48 301.866 07:58 06.10.2019
712 Clouds 18 1017 22 16093 1.5 340 07:39 06.10.2019
713 Clouds 20 1017 18 16093 4.1 360 06:50 06.10.2019
714 Clouds 21 1017 15 16093 3.6 20 05:41 06.10.2019
715 Clouds 24 1016 15 16093 2.1 30 04:32 06.10.2019
716 Clear 27 1016 7 16093 1.63 240.264 02:52 06.10.2019
717 Clear 28 1016 7 16093 1.63 240.264 02:29 06.10.2019
718 Clear 28 1017 7 16093 1.63 240.264 01:46 06.10.2019
719 Clear 28 1017 7 16093 1.72 244.152 01:28 06.10.2019
720 Clear 28 1017 7 16093 2.1 60 00:59 06.10.2019
721 Clear 28 1017 7 16093 2.1 60 00:59 06.10.2019
722 Clear 28 1017 7 16093 1.5 50 00:31 06.10.2019
723 -273 0 0 0 0 0 23:54 05.10.2019
724 Clear 27 1018 8 16093 2.1 90 23:36 05.10.2019
725 Clear 27 1019 9 16093 2.1 250 23:18 05.10.2019
726 Clear 26 1019 9 16093 4.1 50 22:54 05.10.2019
727 Clear 26 1019 9 16093 4.1 50 22:54 05.10.2019
728 Clear 26 1019 9 16093 4.1 50 22:36 05.10.2019
729 Clear 26 1021 10 16093 2.1 0 22:18 05.10.2019
730 Clear 25 1020 9 16093 5.1 50 21:40 05.10.2019
731 Clear 24 1020 9 16093 2.1 350 21:21 05.10.2019
732 Clear 23 1021 9 16093 2.6 40 20:56 05.10.2019
733 Clear 23 1021 9 16093 2.6 40 20:38 05.10.2019
734 Clear 23 1021 10 16093 2.6 10 20:19 05.10.2019
735 Clear 22 1022 9 16093 3.6 340 19:40 05.10.2019
736 Clear 22 1021 11 16093 1.8 112.956 19:22 05.10.2019
737 Clear 21 1022 10 16093 3.1 340 18:57 05.10.2019
738 Clear 21 1022 10 16093 3.1 340 18:39 05.10.2019
739 Clear 19 1021 14 16093 2.05 51.218 18:20 05.10.2019
740 Clear 18 1021 11 16093 5.7 360 17:55 05.10.2019
741 Clear 18 1021 11 16093 5.7 360 17:55 05.10.2019
742 Clear 18 1021 11 16093 5.7 360 17:37 05.10.2019
743 Clear 17 1021 14 16093 2.6 220 17:18 05.10.2019
744 Clear 15 1020 11 16093 5.7 340 16:42 05.10.2019
745 Clear 15 1020 16 16093 2.1 210 16:21 05.10.2019
746 Clouds 15 1020 11 16093 5.7 360 15:57 05.10.2019
747 Clouds 15 1020 11 16093 5.7 360 15:39 05.10.2019
748 Clear 15 1021 20 16093 3.1 80 15:21 05.10.2019
749 Clouds 14 1019 11 16093 5.1 10 14:56 05.10.2019
750 Clouds 14 1019 11 16093 5.1 10 14:56 05.10.2019
751 Clouds 14 1019 11 16093 1.5 0 14:38 05.10.2019
752 Clear 15 1019 13 16093 2.6 100 14:20 05.10.2019
753 Clouds 15 1018 11 16093 3.6 320 13:41 05.10.2019
754 Clear 15 1018 17 16093 1.75 69.712 13:22 05.10.2019
755 Clouds 16 1018 11 16093 3.6 330 12:46 05.10.2019
756 Clear 16 1019 18 16093 3.1 170 12:21 05.10.2019
757 Clouds 16 1018 11 16093 2.1 320 11:58 05.10.2019
758 Clouds 16 1018 11 16093 2.1 340 11:37 05.10.2019
759 Clear 17 1018 16 16093 3.1 190 11:18 05.10.2019
760 Clouds 17 1017 18 16093 2.1 360 10:44 05.10.2019
761 Clear 18 1017 14 16093 2.1 0 10:25 05.10.2019
762 Clouds 19 1017 18 16093 0.91 52.236 09:57 05.10.2019
763 Clouds 19 1017 11 16093 0.91 52.236 09:38 05.10.2019
764 Clear 19 1016 13 16093 1.5 210 09:20 05.10.2019
765 Clouds 20 1017 25 16093 1.17 6.356 08:39 05.10.2019
766 Clouds 20 1017 25 16093 1.17 6.356 08:39 05.10.2019
767 Clear 19 1018 13 16093 4.1 210 08:19 05.10.2019
768 Clouds 19 1017 26 16093 1.5 30 07:56 05.10.2019
769 Clouds 21 1016 9 16093 1.5 170 07:33 05.10.2019
770 Clouds 21 1016 14 16093 1.17 6.356 06:58 05.10.2019
771 Clear 21 1016 15 16093 1.17 6.356 06:27 05.10.2019
772 Clear 22 1015 18 16093 2.1 60 05:40 05.10.2019
773 Clear 28 1014 12 16093 2.1 60 03:56 05.10.2019
774 Clear 29 1014 8 16093 3.6 150 03:28 05.10.2019
775 Haze 29 1014 5 6437 2.1 110 01:41 05.10.2019
776 Clear 29 1015 5 16093 4.1 220 01:18 05.10.2019
777 Clear 29 1014 3 16093 1.7 248.549 00:41 05.10.2019
778 Clear 28 1014 7 16093 2.1 340 00:23 05.10.2019
779 Clear 28 1014 4 16093 3.1 210 23:44 04.10.2019
780 Clear 28 1014 4 16093 3.1 210 23:25 04.10.2019
781 Clear 28 1014 4 16093 3.6 240 22:59 04.10.2019
782 Clear 27 1015 5 16093 3.1 230 22:39 04.10.2019
783 Clouds 27 1015 9 16093 3.6 320 22:19 04.10.2019
784 Clear 27 1015 5 16093 4.1 240 21:55 04.10.2019
785 Clear 27 1015 5 16093 4.1 240 21:36 04.10.2019
786 Clear 26 1016 7 16093 6.7 230 21:18 04.10.2019
787 Clear 25 1015 11 16093 2.6 0 20:42 04.10.2019
788 Clear 25 1015 11 16093 2.6 0 20:23 04.10.2019
789 Clear 24 1015 8 16093 2.1 0 19:58 04.10.2019
790 Clear 24 1015 9 16093 3.1 240 19:39 04.10.2019
791 Clear 24 1015 13 16093 3.6 200 19:21 04.10.2019
792 Clear 23 1015 10 16093 1.5 230 18:56 04.10.2019
793 Clear 22 1015 13 16093 3.05 231.771 18:37 04.10.2019
794 Clear 21 1015 16 16093 6.2 220 18:18 04.10.2019
795 Clear 20 1014 16 16093 2.1 10 17:41 04.10.2019
796 Clear 20 1014 16 16093 2.1 10 17:41 04.10.2019
797 Clear 19 1013 15 16093 3.1 200 17:22 04.10.2019
798 Clear 19 1014 18 16093 2.1 200 16:59 04.10.2019
799 Clear 19 1014 20 16093 1.5 190 16:41 04.10.2019
800 Clouds 18 1012 16 16093 6.7 200 16:19 04.10.2019
801 Clear 18 1014 19 16093 2.48 240.172 15:58 04.10.2019
802 Clouds 18 1013 17 16093 2.6 240 15:39 04.10.2019
803 Clear 18 1014 18 16093 4.6 160 15:20 04.10.2019
804 Clouds 19 1013 21 16093 2.6 310 14:56 04.10.2019
805 Clouds 18 1013 26 16093 2.1 30 14:38 04.10.2019
806 Clear 17 1013 20 16093 7.2 200 14:19 04.10.2019
807 Clouds 17 1012 18 16093 3.1 130 13:44 04.10.2019
808 Clear 17 1012 19 16093 8.7 210 13:22 04.10.2019
809 Clouds 17 1012 26 16093 2.61 248.252 12:54 04.10.2019
810 Clouds 17 1012 26 16093 2.61 248.252 12:36 04.10.2019
811 Clear 18 1012 19 16093 7.7 200 12:18 04.10.2019
812 Clouds 19 1012 26 16093 2.1 10 11:42 04.10.2019
813 Clouds 19 1012 26 16093 2.1 10 11:42 04.10.2019
814 Clouds 19 1012 26 16093 2.1 10 11:42 04.10.2019
815 Clear 19 1011 14 16093 3.6 160 11:21 04.10.2019
816 Clouds 19 1012 25 16093 2.1 340 10:41 04.10.2019
817 Clear 19 1011 13 16093 3.1 170 10:21 04.10.2019
818 Clouds 19 1012 21 16093 3.09 244.522 09:50 04.10.2019
819 Clouds 19 1012 21 16093 3.09 244.522 09:50 04.10.2019
820 Clear 20 1011 14 16093 2.1 220 09:32 04.10.2019
821 Clouds 20 1012 16 16093 2.18 223.772 08:59 04.10.2019
822 Clouds 20 1012 33 16093 2.18 223.772 08:41 04.10.2019
823 Clouds 20 1012 33 16093 2.18 223.772 08:41 04.10.2019
824 Clear 20 1011 13 16093 1.5 170 08:23 04.10.2019
825 Clouds 21 1012 24 16093 2.18 223.772 07:47 04.10.2019
826 Clear 22 1011 12 16093 2.1 190 07:23 04.10.2019
827 Clouds 23 1012 11 16093 2.1 190 06:48 04.10.2019
828 Clouds 23 1012 11 16093 2.1 190 06:27 04.10.2019
829 Clear 24 1012 15 16093 2.6 250 05:52 04.10.2019
830 Clear 24 1011 9 16093 2.1 160 05:19 04.10.2019
831 Clear 26 1010 8 16093 4.1 240 04:25 04.10.2019
832 Clear 28 1010 13 16093 9.8 150 02:56 04.10.2019
833 Clear 28 1010 13 16093 9.8 150 02:56 04.10.2019
834 Clear 28 1010 11 16093 8.7 150 02:37 04.10.2019
835 Clear 29 1011 10 16093 7.7 160 01:43 04.10.2019
836 Clear 29 1011 9 16093 4.6 90 01:24 04.10.2019
837 Clear 29 1012 9 16093 5.1 50 00:24 04.10.2019
838 Clear 27 1012 9 16093 6.2 150 23:38 03.10.2019
839 Clear 27 1014 10 16093 4.6 30 23:19 03.10.2019
840 Clear 27 1013 9 16093 5.1 150 22:57 03.10.2019
841 Clear 26 1014 9 16093 2.6 30 22:39 03.10.2019
842 Clear 26 1014 8 16093 3.6 70 22:21 03.10.2019
843 Clear 25 1015 12 16093 3.1 20 21:56 03.10.2019
844 Clear 24 1015 12 16093 3.1 20 21:38 03.10.2019
845 Clear 24 1015 10 16093 3.6 80 21:19 03.10.2019
846 Clear 23 1015 14 16093 3.37 182.227 20:57 03.10.2019
847 Clear 23 1016 10 16093 1.5 0 20:37 03.10.2019
848 Clear 22 1017 10 16093 2.1 30 20:19 03.10.2019
849 Clear 22 1016 10 16093 2.1 140 19:55 03.10.2019
850 Clear 21 1016 10 16093 3.34 181.391 19:36 03.10.2019
851 Clear 21 1017 9 16093 3.34 181.391 19:18 03.10.2019
852 Clear 19 1017 11 16093 3.34 181.391 18:40 03.10.2019
853 Clear 18 1016 12 16093 0.31 34.566 18:20 03.10.2019
854 Clear 16 1017 13 16093 0.31 34.566 17:59 03.10.2019
855 Clear 15 1016 19 16093 0.31 34.566 17:41 03.10.2019
856 Clear 15 1016 17 16093 0.31 34.566 17:20 03.10.2019
857 Clear 12 1016 27 16093 0.31 34.566 16:54 03.10.2019
858 Clear 12 1016 27 16093 0.31 34.566 16:36 03.10.2019
859 Clear 11 1017 19 16093 3.1 190 16:18 03.10.2019
860 Clouds 10 1016 29 16093 0.31 34.566 15:41 03.10.2019
861 Clear 12 1015 17 16093 0.24 340.733 15:23 03.10.2019
862 Clouds 12 1015 25 16093 2.1 60 14:54 03.10.2019
863 Clouds 12 1015 25 16093 2.1 60 14:36 03.10.2019
864 Clear 12 1016 18 16093 3.6 190 14:18 03.10.2019
865 Clouds 12 1015 22 16093 0.24 340.733 13:41 03.10.2019
866 Clear 12 1015 16 16093 2.1 220 13:22 03.10.2019
867 Clouds 12 1015 25 16093 1.5 100 12:58 03.10.2019
868 Clouds 12 1015 25 16093 0.23 341.333 12:39 03.10.2019
869 Clear 13 1015 16 16093 2.1 220 12:19 03.10.2019
870 Clear 13 1015 16 16093 2.1 220 12:19 03.10.2019
871 Clouds 13 1016 22 16093 0.44 4.796 11:55 03.10.2019
872 Clouds 13 1016 22 16093 0.44 4.796 11:37 03.10.2019
873 Clear 14 1016 13 16093 3.6 180 11:18 03.10.2019
874 Clouds 14 1016 30 16093 0.44 4.796 10:41 03.10.2019
875 Clear 14 1015 14 16093 1.5 220 10:19 03.10.2019
876 Clouds 14 1016 35 16093 0.44 4.796 09:59 03.10.2019
877 Clouds 15 1016 35 16093 0.44 4.796 09:40 03.10.2019
878 Clear 15 1015 12 16093 2.6 220 09:21 03.10.2019
879 Haze 15 1016 35 16093 1.5 70 08:55 03.10.2019
880 Haze 15 1016 19 16093 0.28 335.168 08:36 03.10.2019
881 Haze 16 1016 18 16093 4.6 160 08:18 03.10.2019
882 Haze 17 1015 19 16093 3.1 340 07:41 03.10.2019
883 Clear 17 1015 11 16093 1.5 220 07:19 03.10.2019
884 Clouds 17 1015 20 16093 3.1 20 06:51 03.10.2019
885 Clear 17 1015 10 16093 2.1 50 06:25 03.10.2019
886 Clouds 19 1015 19 16093 3.1 30 05:47 03.10.2019
887 Clear 18 1014 10 16093 2.6 340 05:20 03.10.2019
888 Clear 21 1014 10 16093 2.6 20 04:31 03.10.2019
889 Clear 24 1014 5 16093 0.89 66.43 03:24 03.10.2019
890 Clear 25 1015 5 16093 1.5 0 02:39 03.10.2019
891 Clear 25 1015 6 16093 1.97 132.739 01:59 03.10.2019
892 Clear 25 1015 6 16093 2.1 0 01:35 03.10.2019
893 Clear 25 1015 6 16093 2.37 145.685 00:51 03.10.2019
894 Clear 25 1015 7 16093 1.5 0 00:23 03.10.2019
895 Clear 25 1016 7 16093 2.6 60 23:44 02.10.2019
896 Clear 24 1016 7 16093 2.6 60 23:22 02.10.2019
897 Clear 24 1017 8 16093 1.76 110.911 22:46 02.10.2019
898 Clear 24 1017 9 16093 1.5 0 22:23 02.10.2019
899 Clear 24 1017 8 16093 2.6 0 21:58 02.10.2019
900 Clear 24 1018 10 16093 3.1 70 21:38 02.10.2019
901 Clear 23 1018 11 16093 2.6 70 21:20 02.10.2019
902 Clear 23 1018 11 16093 3.1 60 20:57 02.10.2019
903 Clear 22 1018 13 16093 3.6 50 20:38 02.10.2019
904 Clear 22 1018 12 16093 1.5 0 20:20 02.10.2019
905 Clear 21 1018 15 16093 2.1 320 19:55 02.10.2019
906 Clear 20 1018 15 16093 2.1 320 19:37 02.10.2019
907 Clear 20 1019 15 16093 2.6 40 19:18 02.10.2019
908 Clear 19 1018 17 16093 2.27 76.54 18:56 02.10.2019
909 Clear 19 1018 16 16093 1.5 350 18:37 02.10.2019
910 Clear 18 1019 17 16093 3.1 40 18:19 02.10.2019
911 Clear 16 1018 17 16093 2.6 250 17:42 02.10.2019
912 Clear 15 1017 19 16093 1.5 220 17:21 02.10.2019
913 Clear 14 1018 19 16093 2.6 290 16:59 02.10.2019
914 Clear 13 1017 23 16093 2.1 260 16:39 02.10.2019
915 Clear 13 1017 23 16093 2.1 260 16:20 02.10.2019
916 Clear 13 1016 22 16093 1.75 37.961 15:57 02.10.2019
917 Clear 12 1015 18 16093 3.1 320 15:38 02.10.2019
918 Clear 12 1015 18 16093 3.1 320 15:18 02.10.2019
919 Clouds 12 1015 22 16093 0.69 357.018 14:45 02.10.2019
920 Clear 13 1015 20 16093 0.69 357.018 14:27 02.10.2019
921 Clouds 13 1015 25 16093 2.1 330 13:59 02.10.2019
922 Clouds 13 1015 27 16093 3.1 330 13:40 02.10.2019
923 Clouds 14 1015 27 16093 3.1 330 13:22 02.10.2019
924 Clouds 14 1015 25 16093 2.1 330 12:54 02.10.2019
925 Clouds 14 1015 27 16093 2.1 350 12:36 02.10.2019
926 Clouds 14 1015 27 16093 2.1 350 12:18 02.10.2019
927 Clouds 14 1015 27 16093 2.1 350 12:18 02.10.2019
928 Clear 14 1014 17 16093 2.1 210 11:41 02.10.2019
929 Clear 14 1014 17 16093 2.1 210 11:21 02.10.2019
930 Clear 15 1013 16 16093 1.37 272.978 10:39 02.10.2019
931 Clear 15 1013 16 16093 1.37 272.978 10:19 02.10.2019
932 Clear 15 1013 16 16093 1.37 272.978 10:19 02.10.2019
933 Clouds 16 1013 16 16093 1.5 300 09:42 02.10.2019
934 Clear 16 1012 16 16093 3.6 200 09:20 02.10.2019
935 Clouds 16 1013 15 16093 2.02 272.779 08:57 02.10.2019
936 Clear 16 1012 16 16093 2.6 200 08:38 02.10.2019
937 Clear 17 1012 16 16093 2.6 200 08:20 02.10.2019
938 Clear 17 1012 16 16093 2.6 200 08:20 02.10.2019
939 Clouds 17 1012 14 16093 1.5 270 07:43 02.10.2019
940 Clouds 18 1012 14 16093 2.1 310 07:24 02.10.2019
941 Clouds 18 1012 12 16093 2.6 0 06:58 02.10.2019
942 Clouds 19 1012 14 16093 1.5 10 06:27 02.10.2019
943 Clouds 19 1011 12 16093 3.6 220 05:51 02.10.2019
944 Clear 20 1010 11 16093 4.6 240 05:21 02.10.2019
945 Clear 22 1009 8 16093 5.1 240 03:53 02.10.2019
946 Clear 23 1009 10 16093 5.1 270 03:31 02.10.2019
947 Clear 24 1008 7 16093 6.2 240 02:27 02.10.2019
948 Clear 25 1008 11 16093 6.7 500 01:59 02.10.2019
949 Clear 25 1008 11 16093 7.2 140 00:53 02.10.2019
950 Clear 24 1008 10 16093 2.6 230 00:30 02.10.2019
951 Clear 24 1009 10 16093 6.7 170 23:56 01.10.2019
952 Clear 24 1009 13 16093 2.6 0 23:37 01.10.2019
953 Clear 24 1009 13 16093 2.6 0 23:19 01.10.2019
954 Clear 23 1009 12 16093 4.1 140 22:58 01.10.2019
955 Clear 23 1010 11 16093 3.6 70 22:37 01.10.2019
956 Clear 23 1010 11 16093 3.6 70 22:18 01.10.2019
957 Clear 22 1010 15 16093 3.42 237.95 21:43 01.10.2019
958 Clear 22 1010 11 16093 1.51 224.57 21:22 01.10.2019
959 Clear 21 1011 16 16093 3.1 60 20:58 01.10.2019
960 Clear 21 1011 13 16093 1.67 224.757 20:39 01.10.2019
961 Clear 20 1011 13 16093 1.67 224.757 20:20 01.10.2019
962 Clear 20 1011 19 16093 1.67 224.757 19:57 01.10.2019
963 Clear 20 1011 19 16093 1.67 224.757 19:39 01.10.2019
964 Clear 19 1011 19 16093 1.67 224.757 19:20 01.10.2019
965 Clear 18 1011 23 16093 1.67 224.757 18:55 01.10.2019
966 Clear 17 1011 23 16093 1.67 224.757 18:37 01.10.2019
967 Clear 17 1011 23 16093 1.35 255.573 18:19 01.10.2019
968 Clear 14 1010 25 16093 1.35 255.573 17:43 01.10.2019
969 Clear 15 1010 29 16093 1.35 255.573 17:20 01.10.2019
970 Clear 14 1009 28 16093 1.35 255.573 16:59 01.10.2019
971 Clear 14 1009 28 16093 1.35 255.573 16:40 01.10.2019
972 Clear 13 1009 33 16093 3.1 180 16:22 01.10.2019
973 Clear 13 1009 33 16093 3.1 180 16:22 01.10.2019
974 Clear 12 1009 34 16093 2.1 310 15:48 01.10.2019
975 Clear 12 1008 30 16093 2.1 160 15:24 01.10.2019
976 Clouds 12 1008 32 16093 1.91 263.288 14:58 01.10.2019
977 Clear 11 1008 26 16093 1.91 263.288 14:38 01.10.2019
978 Clear 12 1008 26 16093 1.91 263.288 14:19 01.10.2019
979 Clouds 12 1008 22 16093 1.91 263.288 13:55 01.10.2019
980 Clouds 12 1008 22 16093 1.91 263.288 13:55 01.10.2019
981 Clouds 13 1008 22 16093 1.91 263.288 13:37 01.10.2019
982 Clouds 14 1008 22 16093 1.59 252.889 13:18 01.10.2019
983 Clouds 13 1008 30 16093 1.59 252.889 12:54 01.10.2019
984 Clouds 14 1008 30 16093 1.59 252.889 12:36 01.10.2019
985 Clouds 13 1008 30 16093 1.45 209.53 12:18 01.10.2019
986 Clouds 13 1008 30 16093 1.5 80 11:54 01.10.2019
987 Clear 13 1007 20 16093 4.1 200 11:36 01.10.2019
988 Clear 14 1007 20 16093 4.1 200 11:18 01.10.2019
989 Clouds 14 1008 22 16093 2.6 10 10:43 01.10.2019
990 Clear 15 1007 17 16093 3.1 200 10:24 01.10.2019
991 Clouds 15 1008 13 16093 3.1 290 09:44 01.10.2019
992 Clear 15 1007 15 16093 2.1 210 09:25 01.10.2019
993 Clouds 16 1008 13 16093 2.1 270 08:44 01.10.2019
994 Clear 17 1007 12 16093 2.6 230 08:25 01.10.2019
995 Clouds 17 1008 11 16093 1.79 232.26 07:49 01.10.2019
996 Clouds 17 1008 10 16093 2.1 230 07:26 01.10.2019
997 Clouds 19 1007 10 16093 1.79 232.26 06:50 01.10.2019
998 Clouds 18 1007 10 16093 3.1 180 06:25 01.10.2019
999 Clouds 19 1007 9 16093 1.5 220 05:46 01.10.2019
1000 Clouds 19 1007 9 16093 1.5 220 05:46 01.10.2019
1001 Clear 19 1006 10 16093 1.5 0 05:19 01.10.2019
1002 Clear 21 1006 8 16093 4.1 230 04:35 01.10.2019
1003 Clear 21 1006 8 16093 4.1 230 04:35 01.10.2019
1004 Clear 23 1006 7 16093 3.1 210 03:25 01.10.2019
1005 Clear 23 1006 6 16093 4.1 210 02:18 01.10.2019
1006 Clear 24 1007 7 16093 2.6 150 01:41 01.10.2019
1007 Clear 24 1008 8 16093 4.9 235.412 00:42 01.10.2019
1008 Clear 24 1008 8 16093 4.79 240.136 00:24 01.10.2019
1009 Clear 23 1008 7 16093 3.6 190 23:41 30.09.2019
1010 Clear 23 1008 7 16093 3.6 190 23:41 30.09.2019
1011 Clear 23 1008 7 16093 3.6 190 23:22 30.09.2019
1012 Clear 22 1009 8 16093 3.1 100 22:46 30.09.2019
1013 Clear 21 1009 8 16093 3.1 210 22:27 30.09.2019
1014 Clear 20 1010 6 16093 2.1 0 21:58 30.09.2019
1015 Clear 21 1011 10 16093 1.5 0 21:40 30.09.2019
1016 Clear 20 1011 10 16093 1.5 0 21:20 30.09.2019
1017 Clear 18 1011 8 16093 3.24 214.386 20:58 30.09.2019
1018 Clear 19 1011 11 16093 3.24 214.386 20:39 30.09.2019
1019 Clear 19 1011 11 16093 3.03 221.665 20:21 30.09.2019
1020 Clear 19 1012 9 16093 3.03 221.665 19:58 30.09.2019
1021 Clear 19 1012 10 16093 3.1 200 19:40 30.09.2019
1022 Clear 18 1012 10 16093 3.1 200 19:20 30.09.2019
1023 Clear 18 1012 11 16093 2.6 0 18:58 30.09.2019
1024 Clear 17 1012 12 16093 2.1 180 18:40 30.09.2019
1025 Clear 16 1012 12 16093 2.1 180 18:20 30.09.2019
1026 Clear 15 1011 13 16093 171.3 83 17:54 30.09.2019
1027 Clear 14 1011 14 16093 1.5 0 17:36 30.09.2019
1028 Clear 14 1011 14 16093 1.5 0 17:18 30.09.2019
1029 Clear 13 1011 20 16093 3.1 50 16:41 30.09.2019
1030 Clear 12 1010 16 16093 3.6 200 16:20 30.09.2019
1031 Clear 12 1010 16 16093 3.6 200 16:20 30.09.2019
1032 Clear 12 1010 16 16093 3.6 200 16:20 30.09.2019
1033 Clear 12 1010 13 16093 3.6 180 15:59 30.09.2019
1034 Clear 12 1011 16 16093 6.7 190 15:38 30.09.2019
1035 Clear 12 1009 14 16093 2.1 240 15:19 30.09.2019
1036 Clear 12 1010 16 16093 7.7 220 14:58 30.09.2019
1037 Clear 13 1010 16 16093 7.7 220 14:38 30.09.2019
1038 Clear 13 1008 14 16093 6.7 200 14:19 30.09.2019
1039 Clouds 13 1009 14 16093 2.1 0 13:58 30.09.2019
1040 Clouds 13 1009 26 16093 3.6 30 13:39 30.09.2019
1041 Clouds 13 1009 26 16093 3.6 30 13:20 30.09.2019
1042 Clouds 14 1009 22 16093 4.6 250 12:44 30.09.2019
1043 Clouds 14 1009 24 16093 4.1 210 12:23 30.09.2019
1044 Clouds 15 1008 25 16093 8.2 220 11:59 30.09.2019
1045 Clear 15 1008 23 16093 4.1 200 11:40 30.09.2019
1046 Clear 16 1008 23 16093 4.1 200 11:19 30.09.2019
1047 Clouds 17 1009 26 16093 3.6 200 10:55 30.09.2019
1048 Clear 16 1007 25 16093 4.1 210 10:37 30.09.2019
1049 Clear 16 1007 25 16093 4.1 210 10:18 30.09.2019
1050 Clear 17 1007 18 16093 4.1 200 09:40 30.09.2019
1051 Clear 17 1007 18 16093 4.1 200 09:40 30.09.2019
1052 Clear 16 1007 18 16093 4.1 200 09:21 30.09.2019
1053 Clouds 17 1008 13 16093 7.2 230 08:51 30.09.2019
1054 Clear 17 1006 15 16093 6.7 210 08:33 30.09.2019
1055 Clouds 18 1007 12 16093 4.6 210 07:47 30.09.2019
1056 Clouds 18 1007 13 16093 3.1 220 07:28 30.09.2019
1057 Clouds 19 1007 13 16093 2.1 150 06:59 30.09.2019
1058 Clouds 18 1007 12 16093 4.1 220 06:41 30.09.2019
1059 Clouds 19 1007 12 16093 3.6 220 05:51 30.09.2019
1060 Clouds 19 1007 12 16093 3.6 220 05:51 30.09.2019
1061 Clear 19 1006 13 16093 3.1 210 05:33 30.09.2019
1062 Clear 22 1006 9 16093 6.7 240 02:49 30.09.2019
1063 Clear 23 1006 9 16093 6.7 210 01:41 30.09.2019
1064 Clear 23 1006 10 16093 5.7 190 00:55 30.09.2019
1065 Clear 23 1007 8 16093 4.6 240 00:37 30.09.2019
1066 Clear 24 1007 8 16093 4.6 240 00:18 30.09.2019
1067 Clouds 23 1007 13 16093 2.1 0 23:39 29.09.2019
1068 Clouds 23 1007 13 16093 2.1 0 23:20 29.09.2019
1069 Clear 23 1007 8 16093 5.7 210 22:43 29.09.2019
1070 Clouds 22 1007 14 16093 2.6 0 22:25 29.09.2019
1071 Clear 22 1008 10 16093 6.7 240 21:59 29.09.2019
1072 Clouds 21 1008 15 16093 5.7 320 21:39 29.09.2019
1073 Clouds 21 1008 15 16093 5.7 320 21:19 29.09.2019
1074 Clear 21 1009 11 16093 5.7 210 20:58 29.09.2019
1075 Clouds 20 1008 16 16093 4.6 180 20:40 29.09.2019
1076 Clouds 20 1008 16 16093 4.6 180 20:19 29.09.2019
1077 Clear 19 1009 16 16093 5.7 200 19:55 29.09.2019
1078 Clear 19 1009 17 16093 6.2 220 19:36 29.09.2019
1079 Clear 19 1009 17 16093 6.2 220 19:36 29.09.2019
1080 Clear 19 1009 17 16093 6.2 220 19:18 29.09.2019
1081 Clear 18 1009 22 16093 7.2 220 18:55 29.09.2019
1082 Clear 18 1009 22 16093 7.2 220 18:54 29.09.2019
1083 Clear 18 1009 22 16093 8.2 220 18:36 29.09.2019
1084 Clear 17 1009 22 16093 8.2 220 18:18 29.09.2019
1085 Clear 17 1008 22 16093 9.3 270 17:54 29.09.2019
1086 Clear 17 1008 22 16093 9.3 270 17:54 29.09.2019
1087 Clouds 17 1006 29 16093 6.7 210 17:36 29.09.2019
1088 Clouds 16 1006 29 16093 6.7 210 17:18 29.09.2019
1089 Clear 15 1008 29 16093 6.2 240 16:41 29.09.2019
1090 Clouds 15 1007 31 16093 5.7 240 16:20 29.09.2019
1091 Clear 15 1006 41 16093 6.7 230 15:58 29.09.2019
1092 Clear 15 1005 31 16093 7.7 230 15:37 29.09.2019
1093 Clear 16 1005 31 16093 7.7 230 15:19 29.09.2019
1094 Clouds 16 1006 38 16093 5.1 250 14:58 29.09.2019
1095 Clouds 16 1004 33 16093 6.2 220 14:38 29.09.2019
1096 Clouds 16 1004 33 16093 6.2 220 14:19 29.09.2019
1097 Clouds 16 1005 41 16093 7.2 220 13:56 29.09.2019
1098 Clouds 17 1005 42 16093 8.2 220 13:36 29.09.2019
1099 Clouds 17 1005 42 16093 8.2 220 13:18 29.09.2019
1100 Rain 17 1004 42 16093 6.2 220 12:56 29.09.2019
1101 Rain 17 1004 42 16093 6.2 190 12:38 29.09.2019
1102 Rain 17 1004 42 16093 6.2 190 12:20 29.09.2019
1103 Haze 18 1002 37 16093 9.8 220 11:41 29.09.2019
1104 Haze 18 1002 37 16093 9.8 220 11:20 29.09.2019
1105 Clouds 18 1003 34 16093 6.2 220 10:58 29.09.2019
1106 Clouds 19 1003 36 16093 2.1 0 10:39 29.09.2019
1107 Clouds 18 1003 36 16093 2.1 0 10:20 29.09.2019
1108 Clouds 20 1003 30 16093 8.2 230 09:57 29.09.2019
1109 Clear 20 1001 37 16093 8.7 230 09:38 29.09.2019
1110 Clear 19 1001 37 16093 8.7 230 09:18 29.09.2019
1111 Clear 20 1002 34 16093 4.1 190 08:42 29.09.2019
1112 Clear 20 1001 30 16093 8.7 240 08:22 29.09.2019
1113 Clouds 21 1001 35 16093 6.7 180 07:44 29.09.2019
1114 Clouds 21 1002 37 16093 5.7 190 07:26 29.09.2019
1115 Clouds 23 1002 35 16093 8.7 210 06:49 29.09.2019
1116 Clouds 23 1001 31 16093 9.8 230 05:58 29.09.2019
1117 Clouds 25 1000 27 16093 8.7 220 04:45 29.09.2019
1118 Clouds 25 1000 27 16093 8.7 220 04:45 29.09.2019
1119 Clouds 26 999 28 16093 10.3 230 04:23 29.09.2019
1120 Clouds 28 999 34 16093 11.8 160 02:58 29.09.2019
1121 Clouds 29 998 20 16093 6.7 220 02:19 29.09.2019
1122 Clouds 29 999 37 16093 14.4 150 01:40 29.09.2019
1123 Clear 30 1000 35 16093 13.9 150 00:55 29.09.2019
1124 Haze 30 1000 37 8047 15.9 150 00:36 29.09.2019
1125 Haze 30 1000 37 8047 15.9 150 00:18 29.09.2019
1126 Clouds 30 999 16 16093 10.8 200 23:37 28.09.2019
1127 Clouds 30 999 16 16093 10.8 200 23:19 28.09.2019
1128 Dust 29 1001 19 16093 10.8 220 22:40 28.09.2019
1129 Dust 30 1001 19 16093 10.8 220 22:21 28.09.2019
1130 Clear 29 1002 37 16093 14.4 180 21:58 28.09.2019
1131 Clear 29 1002 37 16093 14.4 180 21:58 28.09.2019
1132 Clouds 29 1002 23 16093 7.7 230 21:40 28.09.2019
1133 Clouds 28 1002 23 16093 7.7 230 21:21 28.09.2019
1134 Clear 27 1003 34 16093 11.3 180 20:57 28.09.2019
1135 Clouds 27 1002 28 16093 6.7 220 20:38 28.09.2019
1136 Clouds 27 1002 28 16093 6.7 220 20:19 28.09.2019
1137 Clear 27 1004 47 16093 11.8 170 19:56 28.09.2019
1138 Clear 26 1004 47 16093 11.3 170 19:38 28.09.2019
1139 Clear 26 1004 47 16093 11.3 170 19:19 28.09.2019
1140 Clear 25 1004 50 16093 11.8 160 18:54 28.09.2019
1141 Clear 25 1004 53 16093 10.8 170 18:36 28.09.2019
1142 Clear 24 1004 53 16093 10.8 170 18:18 28.09.2019
1143 Clear 23 1004 53 16093 10.8 160 17:54 28.09.2019
1144 Clear 23 1003 41 16093 7.2 190 17:36 28.09.2019
1145 Clear 23 1003 41 16093 7.2 190 17:18 28.09.2019
1146 Clear 22 1004 60 16093 7.7 160 16:41 28.09.2019
1147 Clear 21 1003 46 16093 4.1 150 16:22 28.09.2019
1148 Clear 21 1004 60 16093 6.2 170 15:41 28.09.2019
1149 Clear 21 1003 46 16093 1.5 130 15:23 28.09.2019
1150 Clouds 22 1004 60 16093 4.6 180 14:56 28.09.2019
1151 Clear 22 1003 46 16093 2.6 110 14:38 28.09.2019
1152 Clear 22 1003 46 16093 2.6 110 14:38 28.09.2019
1153 Clear 22 1003 46 16093 2.6 110 14:20 28.09.2019
1154 Clouds 22 1004 56 16093 3.6 210 13:56 28.09.2019
1155 Clouds 22 1004 53 16093 5.7 170 13:37 28.09.2019
1156 Clouds 22 1004 53 16093 5.7 170 13:19 28.09.2019
1157 Clouds 23 1004 49 16093 1.5 210 12:40 28.09.2019
1158 Clouds 22 1004 49 16093 1.5 210 12:19 28.09.2019
1159 Clouds 22 1004 49 16093 1.5 210 12:19 28.09.2019
1160 Clouds 23 1005 49 16093 4.1 180 11:54 28.09.2019
1161 Clear 23 1004 47 16093 2.6 190 11:36 28.09.2019
1162 Clear 23 1004 47 16093 2.6 190 11:18 28.09.2019
1163 Clear 24 1004 44 16093 6.2 180 10:40 28.09.2019
1164 Clear 24 1004 44 16093 6.2 180 10:20 28.09.2019
1165 Clouds 24 1005 47 16093 3.1 240 09:42 28.09.2019
1166 Clear 24 1004 44 16093 4.1 170 09:23 28.09.2019
1167 Clouds 24 1006 47 16093 3.1 230 08:55 28.09.2019
1168 Clear 25 1004 44 16093 7.2 190 08:37 28.09.2019
1169 Clear 25 1004 44 16093 7.2 190 08:18 28.09.2019
1170 Clouds 26 1006 47 16093 1.5 0 07:43 28.09.2019
1171 Clouds 26 1006 47 16093 3.54 223.786 07:19 28.09.2019
1172 Clouds 26 1006 47 16093 4.1 170 06:52 28.09.2019
1173 Clouds 27 1006 44 16093 6.2 150 06:30 28.09.2019
1174 Clouds 27 1006 44 16093 8.2 160 05:43 28.09.2019
1175 Clear 27 1004 27 16093 3.6 200 05:20 28.09.2019
1176 Clear 29 1004 25 16093 5.7 240 04:38 28.09.2019
1177 Clear 30 1005 42 16093 10.3 160 03:49 28.09.2019
1178 Clouds 30 1004 24 16093 5.1 230 03:21 28.09.2019
1179 Clouds 31 1004 29 16093 4.1 130 02:44 28.09.2019
1180 Clouds 31 1004 29 16093 4.1 130 02:26 28.09.2019
1181 Smoke 31 1006 33 16093 9.8 160 01:47 28.09.2019
1182 Smoke 31 1005 27 16093 4.1 160 01:26 28.09.2019
1183 Clear 31 1006 33 16093 8.2 150 00:49 28.09.2019
1184 Clear 31 1007 31 16093 8.2 160 00:31 28.09.2019
1185 Clear 31 1007 33 16093 6.2 150 23:55 27.09.2019
1186 Clouds 31 1007 33 16093 2.6 0 23:36 27.09.2019
1187 Clouds 30 1007 33 16093 2.6 0 23:18 27.09.2019
1188 Clear 29 1009 35 16093 4.6 180 22:41 27.09.2019
1189 Clear 29 1009 35 16093 3.6 130 22:19 27.09.2019
1190 Clear 29 1009 35 16093 3.6 130 22:19 27.09.2019
1191 Clear 28 1010 39 16093 2.1 0 21:55 27.09.2019
1192 Clear 28 1010 42 16093 4.03 215.85 21:37 27.09.2019
1193 Clear 27 1010 42 16093 2.89 203.021 21:18 27.09.2019
1194 Clear 26 1011 42 16093 2.89 203.021 20:55 27.09.2019
1195 Clear 26 1011 42 16093 3.1 110 20:36 27.09.2019
1196 Clear 26 1011 42 16093 3.1 110 20:18 27.09.2019
1197 Clear 25 1012 50 16093 3.1 0 19:42 27.09.2019
1198 Clear 24 1012 50 16093 3.1 0 19:23 27.09.2019
1199 Clear 24 1012 53 16093 4.1 150 18:56 27.09.2019
1200 Clear 24 1012 53 16093 5.1 160 18:37 27.09.2019
1201 Clear 23 1012 53 16093 5.1 160 18:19 27.09.2019
1202 Clear 22 1011 60 16093 1.5 300 17:40 27.09.2019
1203 Clear 22 1011 60 16093 1.5 300 17:22 27.09.2019
1204 Clear 22 1011 60 16093 1.5 300 17:22 27.09.2019
1205 Clear 21 1012 64 16093 2.6 130 16:59 27.09.2019
1206 Clear 21 1012 64 16093 2.6 130 16:59 27.09.2019
1207 Clear 20 1012 64 16093 2.6 130 16:41 27.09.2019
1208 Clear 20 1011 64 16093 2.6 300 16:20 27.09.2019
1209 Clear 20 1011 64 16093 2.6 300 16:20 27.09.2019
1210 Clear 20 1011 64 16093 2.6 300 16:20 27.09.2019
1211 Clear 19 1012 72 16093 1.5 70 15:57 27.09.2019
1212 Clear 19 1012 72 16093 1.5 70 15:57 27.09.2019
1213 Clear 19 1012 68 16093 2.1 80 15:39 27.09.2019
1214 Clear 20 1012 68 16093 2.1 80 15:19 27.09.2019
1215 Clear 20 1011 68 16093 3.6 140 14:56 27.09.2019
1216 Clear 21 1010 64 16093 2.6 290 14:37 27.09.2019
1217 Clear 20 1010 64 16093 2.6 290 14:18 27.09.2019
1218 Clouds 20 1011 68 16093 3.1 120 13:42 27.09.2019
1219 Clouds 21 1011 68 16093 1.5 110 13:22 27.09.2019
1220 Clouds 21 1011 68 16093 1.96 252.674 12:59 27.09.2019
1221 Clear 21 1012 72 16093 1.96 252.674 12:41 27.09.2019
1222 Clear 21 1012 72 16093 2.84 242.342 12:20 27.09.2019
1223 Clear 21 1012 72 16093 2.84 242.342 12:20 27.09.2019
1224 Clear 22 1011 53 16093 2.1 290 11:40 27.09.2019
1225 Clear 22 1011 53 16093 2.1 290 11:22 27.09.2019
1226 Clear 22 1012 64 16093 2.84 242.342 10:57 27.09.2019
1227 Clear 23 1012 64 16093 2.84 242.342 10:39 27.09.2019
1228 Clear 23 1012 64 16093 2.84 242.342 10:20 27.09.2019
1229 Clouds 23 1011 44 16093 2.1 210 09:42 27.09.2019
1230 Clouds 23 1011 44 16093 2.1 210 09:22 27.09.2019
1231 Clouds 23 1012 56 16093 2.6 120 08:57 27.09.2019
1232 Clouds 24 1011 41 16093 4.1 200 08:39 27.09.2019
1233 Clouds 24 1011 41 16093 4.1 200 08:20 27.09.2019
1234 Clear 24 1013 53 16093 3.1 170 07:45 27.09.2019
1235 Clear 25 1013 53 16093 1.5 180 07:23 27.09.2019
1236 Clear 25 1013 47 16093 4.1 170 06:43 27.09.2019
1237 Clear 25 1013 47 16093 4.1 170 06:23 27.09.2019
1238 Clear 26 1013 41 16093 2.1 150 05:50 27.09.2019
1239 Clear 26 1013 41 16093 2.1 150 05:50 27.09.2019
1240 Clouds 26 1011 37 16093 5.1 170 05:32 27.09.2019
1241 Thunderstorm 28 1012 39 16093 7.7 160 03:55 27.09.2019
1242 Rain 29 1011 32 16093 4.1 110 02:42 27.09.2019
1243 Rain 30 1012 37 16093 7.2 160 01:47 27.09.2019
1244 Rain 30 1012 37 16093 6.7 160 01:27 27.09.2019
1245 Clouds 29 1013 34 16093 6.2 150 00:22 27.09.2019
1246 Clouds 29 1013 37 16093 5.1 160 23:56 26.09.2019
1247 Clouds 29 1013 30 16093 3.6 160 23:38 26.09.2019
1248 Clouds 29 1013 30 16093 3.6 160 23:18 26.09.2019
1249 Clouds 29 1013 30 16093 3.6 160 23:18 26.09.2019
1250 Clear 29 1014 35 16093 5.1 150 22:55 26.09.2019
1251 Clear 29 1014 35 16093 5.1 150 22:55 26.09.2019
1252 Clouds 29 1014 32 16093 2.83 244.158 22:37 26.09.2019
1253 Clouds 29 1014 32 16093 2.83 244.158 22:18 26.09.2019
1254 Clear 29 1015 37 16093 5.7 170 21:55 26.09.2019
1255 Clouds 29 1015 32 16093 2.83 244.158 21:36 26.09.2019
1256 Clouds 28 1015 32 16093 2.97 197.227 21:18 26.09.2019
1257 Clouds 28 1015 32 16093 2.97 197.227 21:18 26.09.2019
1258 Clear 28 1016 42 16093 3.6 140 20:56 26.09.2019
1259 Clouds 27 1015 34 16093 1.5 0 20:38 26.09.2019
1260 Clouds 27 1015 34 16093 1.5 0 20:20 26.09.2019
1261 Clear 27 1016 47 16093 6.2 150 19:40 26.09.2019
1262 Clear 26 1016 47 16093 6.2 150 19:19 26.09.2019
1263 Clear 26 1016 47 16093 6.2 150 18:58 26.09.2019
1264 Clear 26 1016 47 16093 6.2 150 18:58 26.09.2019
1265 Clear 25 1016 47 16093 5.1 140 18:39 26.09.2019
1266 Clear 25 1016 47 16093 5.1 140 18:39 26.09.2019
1267 Clear 24 1016 47 16093 5.1 140 18:21 26.09.2019
1268 Clouds 23 1016 50 16093 3.1 0 17:54 26.09.2019
1269 Clouds 23 1015 53 16093 2.6 40 17:36 26.09.2019
1270 Clouds 23 1015 53 16093 2.6 40 17:18 26.09.2019
1271 Clouds 23 1014 56 16093 3.1 20 16:39 26.09.2019
1272 Clouds 22 1014 56 16093 3.1 20 16:20 26.09.2019
1273 Clouds 22 1015 64 16093 4.1 120 15:58 26.09.2019
1274 Clouds 23 1014 56 16093 1.5 50 15:38 26.09.2019
1275 Clouds 22 1014 56 16093 1.5 50 15:19 26.09.2019
1276 Clouds 23 1015 64 16093 2.1 120 14:57 26.09.2019
1277 Clouds 23 1013 53 16093 2.6 100 14:37 26.09.2019
1278 Clouds 23 1013 53 16093 2.6 100 14:19 26.09.2019
1279 Clear 23 1015 64 16093 3.1 110 13:41 26.09.2019
1280 Clear 23 1014 60 16093 0.86 233.771 13:20 26.09.2019
1281 Clear 23 1014 60 16093 0.86 233.771 13:20 26.09.2019
1282 Clear 23 1014 60 16093 0.86 233.771 12:57 26.09.2019
1283 Clouds 23 1014 60 16093 3.6 170 12:39 26.09.2019
1284 Clouds 24 1014 60 16093 3.6 170 12:20 26.09.2019
1285 Clouds 24 1013 39 16093 3.6 90 11:42 26.09.2019
1286 Clouds 24 1013 39 16093 3.6 90 11:22 26.09.2019
1287 Clear 25 1014 53 16093 7.2 140 10:56 26.09.2019
1288 Clear 25 1014 53 16093 7.2 140 10:56 26.09.2019
1289 Clouds 25 1012 39 16093 0.65 228.665 10:38 26.09.2019
1290 Clouds 25 1012 39 16093 0.65 228.665 10:19 26.09.2019
1291 Clouds 25 1013 47 16093 2.6 120 09:44 26.09.2019
1292 Clouds 26 1012 36 16093 1.5 250 09:25 26.09.2019
1293 Clear 26 1013 36 16093 1.08 147.35 08:57 26.09.2019
1294 Clouds 26 1012 36 16093 2.6 180 08:39 26.09.2019
1295 Clouds 26 1012 36 16093 2.6 180 08:21 26.09.2019
1296 Clear 26 1013 39 16093 4.1 250 07:42 26.09.2019
1297 Clear 27 1013 39 16093 4.6 210 07:20 26.09.2019
1298 Clear 27 1013 36 16093 6.2 190 06:43 26.09.2019
1299 Clear 27 1013 36 16093 6.2 190 06:25 26.09.2019
1300 Clear 27 1013 36 16093 6.2 190 06:25 26.09.2019
1301 Clear 28 1012 30 16093 5.1 180 05:44 26.09.2019
1302 Clouds 29 1010 16 16093 1.5 210 05:24 26.09.2019
1303 Clear 32 1010 15 16093 2.6 50 02:50 26.09.2019
1304 Clear 33 1010 12 16093 2.6 40 01:53 26.09.2019
1305 Clear 33 1010 12 16093 2.6 40 01:53 26.09.2019
1306 Clear 33 1010 12 16093 2.6 60 01:28 26.09.2019
1307 Clear 33 1010 18 16093 3.6 70 00:55 26.09.2019
1308 Clear 33 1011 18 16093 1.5 0 00:37 26.09.2019
1309 Clear 33 1011 13 16093 3.6 350 23:47 25.09.2019
1310 Clouds 33 1012 17 16093 2.6 40 23:28 25.09.2019
1311 Clear 32 1012 14 16093 4.1 30 22:58 25.09.2019
1312 Clouds 32 1012 18 16093 0.97 123.69 22:40 25.09.2019
1313 Clouds 32 1012 18 16093 0.97 123.69 22:20 25.09.2019
1314 Clear 31 1013 15 16093 5.1 20 21:57 25.09.2019
1315 Clouds 31 1013 20 16093 0.97 123.69 21:38 25.09.2019
1316 Clouds 31 1013 20 16093 1.7 64.503 21:19 25.09.2019
1317 Clear 30 1014 17 16093 3.6 40 20:57 25.09.2019
1318 Clouds 29 1014 17 16093 2.6 30 20:39 25.09.2019
1319 Clouds 29 1014 17 16093 2.6 30 20:20 25.09.2019
1320 Clear 28 1014 18 16093 2.1 220 19:43 25.09.2019
1321 Clear 28 1014 20 16093 2.6 180 19:25 25.09.2019
1322 Clear 27 1014 22 16093 2.1 0 18:58 25.09.2019
1323 Clear 26 1014 23 16093 1.76 77.651 18:39 25.09.2019
1324 Clear 25 1014 23 16093 2.53 58.283 18:21 25.09.2019
1325 Clear 23 1014 24 16093 2.53 58.283 17:59 25.09.2019
1326 Clouds 23 1013 23 16093 1.5 240 17:38 25.09.2019
1327 Clouds 22 1013 23 16093 1.5 240 17:19 25.09.2019
1328 Clouds 22 1013 23 16093 1.5 240 17:19 25.09.2019
1329 Clear 22 1014 29 16093 2.53 58.283 16:45 25.09.2019
1330 Clouds 21 1013 26 16093 2.6 210 16:27 25.09.2019
1331 Clear 20 1013 42 16093 2.1 0 15:59 25.09.2019
1332 Clear 20 1013 42 16093 2.1 0 15:40 25.09.2019
1333 Clouds 20 1012 24 16093 1.5 190 15:22 25.09.2019
1334 Clouds 20 1013 42 16093 2.1 30 14:56 25.09.2019
1335 Clouds 20 1013 42 16093 2.1 30 14:56 25.09.2019
1336 Clouds 20 1012 36 16093 2.43 53.541 14:38 25.09.2019
1337 Clouds 20 1012 36 16093 2.43 53.541 14:20 25.09.2019
1338 Clouds 21 1012 29 16093 2.43 53.541 13:41 25.09.2019
1339 Clouds 21 1012 32 16093 1.96 61.945 13:22 25.09.2019
1340 Clouds 21 1012 32 16093 1.96 61.945 13:22 25.09.2019
1341 Clouds 21 1012 26 16093 1.96 61.945 12:58 25.09.2019
1342 Clouds 21 1012 29 16093 2.6 10 12:39 25.09.2019
1343 Clouds 21 1012 29 16093 2.6 10 12:21 25.09.2019
1344 Clear 22 1012 22 16093 3.1 180 11:42 25.09.2019
1345 Clear 22 1012 22 16093 3.1 180 11:22 25.09.2019
1346 Clear 22 1012 19 16093 1.7 40.382 10:59 25.09.2019
1347 Clouds 23 1012 22 16093 1.7 40.382 10:41 25.09.2019
1348 Clouds 23 1012 22 16093 1.7 40.382 10:21 25.09.2019
1349 Haze 23 1012 23 16093 4.6 10 09:56 25.09.2019
1350 Haze 23 1012 23 16093 2.6 220 09:36 25.09.2019
1351 Haze 23 1012 21 16093 2.6 220 09:18 25.09.2019
1352 Clouds 24 1012 23 16093 2.1 270 08:41 25.09.2019
1353 Clouds 24 1012 16 16093 2.1 200 08:21 25.09.2019
1354 Clear 25 1012 20 16093 2.1 350 07:56 25.09.2019
1355 Clear 25 1012 22 16093 2.6 340 07:37 25.09.2019
1356 Clear 25 1012 22 16093 2.6 340 07:19 25.09.2019
1357 Haze 26 1012 20 16093 2.1 360 06:37 25.09.2019
1358 Clear 27 1012 15 16093 3.21 1.34 05:52 25.09.2019
1359 Clear 27 1011 19 16093 3.21 1.34 05:27 25.09.2019
1360 Clear 29 1012 19 16093 2.6 60 04:49 25.09.2019
1361 Clear 33 1012 10 16093 3.6 40 01:54 25.09.2019
1362 Clear 33 1013 11 16093 4.6 10 00:43 25.09.2019
1363 Clear 33 1013 11 16093 4.6 10 00:23 25.09.2019
1364 Clear 33 1013 10 16093 6.2 30 23:54 24.09.2019
1365 Clear 33 1013 10 16093 6.2 30 23:54 24.09.2019
1366 Clear 33 1014 11 16093 7.2 60 23:36 24.09.2019
1367 Clear 33 1014 11 16093 7.2 60 23:18 24.09.2019
1368 Clouds 32 1015 13 16093 5.1 20 22:38 24.09.2019
1369 Clouds 32 1015 13 16093 5.1 20 22:20 24.09.2019
1370 Clear 31 1016 16 16093 6.7 40 21:56 24.09.2019
1371 Clear 31 1016 15 16093 5.1 50 21:37 24.09.2019
1372 Clear 31 1016 15 16093 5.1 50 21:37 24.09.2019
1373 Clear 30 1016 15 16093 5.1 50 21:19 24.09.2019
1374 Clear 29 1017 16 16093 6.7 360 20:57 24.09.2019
1375 Clear 29 1017 16 16093 6.7 360 20:57 24.09.2019
1376 Clear 29 1017 16 16093 7.7 10 20:38 24.09.2019
1377 Clear 28 1017 16 16093 7.7 10 20:19 24.09.2019
1378 Clear 27 1018 18 16093 7.7 20 19:43 24.09.2019
1379 Clear 27 1018 21 16093 5.1 30 19:21 24.09.2019
1380 Clear 25 1018 36 16093 5.23 46.48 18:59 24.09.2019
1381 Clear 24 1018 40 16093 5.23 46.48 18:39 24.09.2019
1382 Clear 24 1018 40 16093 1.98 57.691 18:21 24.09.2019
1383 Clear 22 1019 49 16093 1.5 130 17:57 24.09.2019
1384 Clouds 21 1018 35 16093 1.98 57.691 17:38 24.09.2019
1385 Clouds 21 1018 35 16093 1.98 57.691 17:38 24.09.2019
1386 Clouds 21 1018 35 16093 1.98 57.691 17:20 24.09.2019
1387 Clear 19 1018 52 16093 1.98 57.691 16:55 24.09.2019
1388 Clouds 18 1018 48 16093 1.98 57.691 16:37 24.09.2019
1389 Clouds 18 1018 48 16093 1.98 57.691 16:18 24.09.2019
1390 Clear 17 1018 67 16093 1.98 57.691 15:41 24.09.2019
1391 Clouds 17 1017 52 16093 2.1 280 15:23 24.09.2019
1392 Clouds 17 1017 63 16093 3.13 28.681 14:41 24.09.2019
1393 Clear 17 1017 52 16093 2.1 300 14:20 24.09.2019
1394 Clouds 18 1017 63 16093 3.13 28.681 13:55 24.09.2019
1395 Clouds 18 1017 63 16093 3.13 28.681 13:55 24.09.2019
1396 Clouds 18 1017 63 16093 3.13 28.681 13:37 24.09.2019
1397 Clouds 18 1017 63 16093 2.29 60.261 13:18 24.09.2019
1398 Clear 18 1016 55 16093 2.29 60.261 12:39 24.09.2019
1399 Clear 18 1016 55 16093 3.25 23.832 12:18 24.09.2019
1400 Clear 19 1016 46 16093 1.5 270 11:43 24.09.2019
1401 Clear 19 1016 46 16093 1.5 270 11:22 24.09.2019
1402 Clear 19 1017 49 16093 1.5 140 10:57 24.09.2019
1403 Clear 19 1016 49 16093 2.1 360 10:38 24.09.2019
1404 Clear 19 1016 49 16093 2.1 360 10:19 24.09.2019
1405 Clear 20 1017 43 16093 2.6 20 09:46 24.09.2019
1406 Clouds 20 1016 49 16093 2.6 10 09:27 24.09.2019
1407 Clouds 20 1017 46 16093 1.5 60 08:57 24.09.2019
1408 Clouds 21 1016 40 16093 4.1 50 08:39 24.09.2019
1409 Clouds 21 1016 40 16093 4.1 50 08:20 24.09.2019
1410 Clear 22 1017 46 16093 2.6 70 07:55 24.09.2019
1411 Clouds 22 1015 49 16093 1.5 290 07:36 24.09.2019
1412 Clouds 22 1015 49 16093 1.5 290 07:36 24.09.2019
1413 Clouds 22 1015 49 16093 1.5 290 07:18 24.09.2019
1414 Clouds 23 1016 49 16093 3.6 90 06:36 24.09.2019
1415 Thunderstorm 24 1017 40 16093 3.1 90 05:52 24.09.2019
1416 Thunderstorm 24 1015 33 16093 3.1 110 05:20 24.09.2019
1417 Rain 26 1014 31 16093 5.7 10 03:45 24.09.2019
1418 Rain 26 1013 21 11265 8.2 290 02:57 24.09.2019
1419 Rain 27 1012 34 16093 3.1 110 02:39 24.09.2019
1420 Rain 28 1012 25 16093 7.7 150 01:39 24.09.2019
1421 Thunderstorm 30 1013 25 16093 6.2 130 00:38 24.09.2019
1422 Thunderstorm 30 1013 23 16093 1.5 0 00:20 24.09.2019
1423 Thunderstorm 31 1013 20 16093 5.7 60 23:40 23.09.2019
1424 Thunderstorm 31 1013 20 16093 5.7 60 23:40 23.09.2019
1425 Clouds 31 1012 22 16093 2.1 310 23:21 23.09.2019
1426 Clear 30 1013 15 16093 5.7 130 22:40 23.09.2019
1427 Clear 30 1013 15 16093 5.7 130 22:21 23.09.2019
1428 Clear 29 1014 16 16093 5.66 226.719 21:58 23.09.2019
1429 Clouds 29 1013 22 16093 1.5 0 21:40 23.09.2019
1430 Clouds 29 1013 22 16093 1.5 0 21:20 23.09.2019
1431 Clear 28 1014 15 16093 4.1 100 20:56 23.09.2019
1432 Clear 28 1014 29 16093 2.6 0 20:37 23.09.2019
1433 Clear 28 1014 29 16093 2.6 0 20:18 23.09.2019
1434 Clear 27 1015 12 16093 3.1 130 19:39 23.09.2019
1435 Clear 27 1015 12 16093 3.1 130 19:39 23.09.2019
1436 Clear 26 1015 12 16093 3.1 130 19:21 23.09.2019
1437 Clear 26 1015 13 16093 2.1 40 18:58 23.09.2019
1438 Clear 25 1015 12 16093 1.5 80 18:39 23.09.2019
1439 Clear 25 1015 12 16093 1.5 80 18:18 23.09.2019
1440 Clear 24 1015 14 16093 2.06 229.899 17:56 23.09.2019
1441 Clear 24 1015 13 16093 2.06 229.899 17:37 23.09.2019
1442 Clear 23 1015 13 16093 2.06 229.899 17:18 23.09.2019
1443 Clear 22 1014 19 16093 2.06 229.899 16:41 23.09.2019
1444 Clear 22 1014 19 16093 2.06 229.899 16:22 23.09.2019
1445 Clear 22 1014 27 16093 1.5 40 15:59 23.09.2019
1446 Clouds 22 1012 16 16093 2.1 190 15:41 23.09.2019
1447 Clouds 21 1012 16 16093 2.1 190 15:20 23.09.2019
1448 Clouds 20 1012 16 16093 2.1 190 15:20 23.09.2019
1449 Clouds 20 1013 20 16093 3.1 10 14:59 23.09.2019
1450 Clouds 20 1013 22 16093 2.6 360 14:39 23.09.2019
1451 Clouds 20 1013 22 16093 2.6 360 14:19 23.09.2019
1452 Clouds 20 1013 20 16093 2.87 238.096 13:58 23.09.2019
1453 Clouds 21 1013 14 16093 1.5 300 13:37 23.09.2019
1454 Clouds 21 1013 14 16093 1.5 300 13:18 23.09.2019
1455 Clouds 20 1013 19 16093 1.5 310 12:41 23.09.2019
1456 Clouds 20 1013 19 16093 1.5 310 12:21 23.09.2019
1457 Clouds 21 1013 20 16093 2.1 330 11:55 23.09.2019
1458 Clouds 20 1012 13 16093 2.1 180 11:37 23.09.2019
1459 Clouds 20 1012 13 16093 2.1 180 11:19 23.09.2019
1460 Clouds 22 1013 22 16093 1.5 320 10:48 23.09.2019
1461 Clouds 22 1013 20 16093 1.5 320 10:21 23.09.2019
1462 Clouds 23 1013 19 16093 2.1 300 09:49 23.09.2019
1463 Clouds 23 1012 10 16093 3.6 200 09:29 23.09.2019
1464 Clouds 24 1013 22 16093 1.56 258.798 08:59 23.09.2019
1465 Clouds 24 1013 12 16093 2.1 190 08:39 23.09.2019
1466 Clouds 24 1013 12 16093 2.1 190 08:20 23.09.2019
1467 Clear 24 1014 14 16093 2.1 320 07:44 23.09.2019
1468 Clear 25 1014 11 16093 1.5 320 07:23 23.09.2019
1469 Clear 25 1014 10 16093 1.5 230 06:20 23.09.2019
1470 Clear 26 1014 9 16093 3.6 210 05:44 23.09.2019
1471 Clear 27 1013 9 16093 4.6 160 04:59 23.09.2019
1472 Clear 28 1013 9 16093 6.2 160 04:37 23.09.2019
1473 Clear 30 1013 7 16093 6.2 140 01:26 23.09.2019
1474 Clear 30 1014 8 16093 4.1 130 00:39 23.09.2019
1475 Clear 30 1014 8 16093 4.1 130 00:19 23.09.2019
1476 Clear 30 1014 8 16093 4.6 180 23:44 22.09.2019
1477 Clear 30 1014 8 16093 4.6 180 23:44 22.09.2019
1478 Clear 30 1014 9 16093 3.85 169.227 23:26 22.09.2019
1479 Clear 29 1015 9 16093 2.1 0 22:56 22.09.2019
1480 Clear 29 1015 11 16093 3.85 169.227 22:37 22.09.2019
1481 Clear 29 1015 11 16093 3.85 169.227 22:19 22.09.2019
1482 Clear 28 1016 12 16093 1.5 100 21:43 22.09.2019
1483 Clear 28 1016 12 16093 1.5 100 21:43 22.09.2019
1484 Clear 28 1016 12 16093 3.6 90 21:21 22.09.2019
1485 Clear 27 1017 13 16093 2.1 70 20:45 22.09.2019
1486 Clouds 27 1017 14 16093 2.6 30 20:27 22.09.2019
1487 Clear 26 1017 14 16093 1.98 99.724 19:59 22.09.2019
1488 Clear 26 1017 14 16093 1.98 99.724 19:59 22.09.2019
1489 Clear 26 1017 13 16093 2.6 210 19:41 22.09.2019
1490 Clear 26 1017 13 16093 2.6 210 19:21 22.09.2019
1491 Clear 25 1017 15 16093 2.1 250 18:57 22.09.2019
1492 Clear 24 1018 17 16093 1.5 250 18:38 22.09.2019
1493 Clear 23 1018 17 16093 1.5 250 18:18 22.09.2019
1494 Clear 21 1017 18 16093 1.8 57.514 17:47 22.09.2019
1495 Clouds 20 1017 19 16093 1.8 57.514 17:27 22.09.2019
1496 Clear 19 1017 19 16093 1.8 57.514 16:58 22.09.2019
1497 Clear 19 1017 19 16093 1.8 57.514 16:58 22.09.2019
1498 Clear 17 1017 19 16093 1.8 57.514 16:40 22.09.2019
1499 Clear 17 1017 19 16093 1.8 57.514 16:20 22.09.2019
1500 Clear 17 1016 19 16093 1.8 57.514 15:46 22.09.2019
1501 Clear 16 1016 25 16093 2.1 240 15:26 22.09.2019
1502 Clouds 17 1016 31 16093 1.69 9.267 14:55 22.09.2019
1503 Clear 17 1015 22 16093 3.1 210 14:37 22.09.2019
1504 Clear 17 1015 22 16093 3.1 210 14:37 22.09.2019
1505 Clear 17 1015 22 16093 3.1 210 14:19 22.09.2019
1506 Clouds 17 1015 23 16093 1.69 9.267 13:43 22.09.2019
1507 Clouds 17 1015 23 16093 1.69 9.267 13:43 22.09.2019
1508 Clouds 17 1015 27 16093 1.54 7.204 13:25 22.09.2019
1509 Clouds 18 1015 20 16093 2.1 270 12:57 22.09.2019
1510 Clouds 18 1015 20 16093 2.1 270 12:57 22.09.2019
1511 Clouds 18 1015 20 16093 2.1 270 12:57 22.09.2019
1512 Clouds 18 1015 24 16093 3.1 10 12:39 22.09.2019
1513 Clouds 18 1015 24 16093 3.1 10 12:19 22.09.2019
1514 Clouds 18 1015 25 16093 2.1 320 11:55 22.09.2019
1515 Clear 18 1015 19 16093 1.5 190 11:36 22.09.2019
1516 Clear 19 1015 19 16093 1.5 190 11:18 22.09.2019
1517 Clouds 19 1015 33 16093 1.5 30 10:42 22.09.2019
1518 Clouds 19 1015 25 16093 1.23 23.235 10:20 22.09.2019
1519 Clouds 19 1015 25 16093 1.23 23.235 10:20 22.09.2019
1520 Clear 20 1015 31 16093 1.23 23.235 09:43 22.09.2019
1521 Clear 20 1015 31 16093 1.23 23.235 09:43 22.09.2019
1522 Clear 20 1015 31 16093 1.23 23.235 09:43 22.09.2019
1523 Clear 20 1014 17 16093 1.5 240 09:21 22.09.2019
1524 Clear 21 1015 29 16093 0.39 22.046 08:56 22.09.2019
1525 Clear 21 1015 16 16093 2.6 260 08:38 22.09.2019
1526 Clear 21 1015 16 16093 2.6 260 08:38 22.09.2019
1527 Clear 21 1015 15 16093 1.5 360 08:19 22.09.2019
1528 Clouds 21 1015 29 16093 0.23 349.717 07:44 22.09.2019
1529 Clouds 22 1015 17 16093 0.23 349.717 07:25 22.09.2019
1530 Clouds 22 1015 23 16093 4.1 360 06:58 22.09.2019
1531 Clear 22 1015 23 16093 3.1 10 06:34 22.09.2019
1532 Clear 27 1014 13 16093 3.6 40 03:56 22.09.2019
1533 Clear 28 1013 11 16093 4.1 50 02:44 22.09.2019
1534 Clear 29 1013 12 16093 2.6 50 02:24 22.09.2019
1535 Clear 29 1014 11 16093 3.1 90 01:36 22.09.2019
1536 Clear 29 1014 11 16093 2.6 20 00:44 22.09.2019
1537 Clear 29 1014 11 16093 2.6 20 00:26 22.09.2019
1538 Clear 28 1014 12 16093 2.1 0 23:47 21.09.2019
1539 Clear 28 1015 13 16093 2.1 0 23:27 21.09.2019
1540 Clear 28 1015 13 16093 2.1 0 22:43 21.09.2019
1541 Clear 28 1015 13 16093 2.1 0 22:23 21.09.2019
1542 Clear 27 1016 13 16093 3.1 50 21:58 21.09.2019
1543 Clouds 26 1016 15 16093 2.1 0 21:40 21.09.2019
1544 Clouds 26 1016 15 16093 2.1 0 21:19 21.09.2019
1545 Clear 25 1017 15 16093 4.6 340 20:41 21.09.2019
1546 Clear 26 1017 15 16093 4.6 340 20:41 21.09.2019
1547 Clear 25 1017 15 16093 4.6 340 20:23 21.09.2019
1548 Clear 24 1017 15 16093 4.6 360 19:58 21.09.2019
1549 Clear 24 1017 16 16093 4.6 360 19:39 21.09.2019
1550 Clear 24 1017 16 16093 4.6 360 19:18 21.09.2019
1551 Clear 22 1017 18 16093 5.7 360 18:39 21.09.2019
1552 Clear 22 1017 18 16093 5.7 360 18:21 21.09.2019
1553 Clouds 20 1016 19 16093 1.82 55.07 17:42 21.09.2019
1554 Clouds 20 1016 19 16093 1.82 55.07 17:42 21.09.2019
1555 Clouds 20 1016 19 16093 1.82 55.07 17:23 21.09.2019
1556 Clouds 20 1016 19 16093 1.82 55.07 17:23 21.09.2019
1557 Clouds 20 1016 19 16093 1.82 55.07 17:23 21.09.2019
1558 Clear 18 1016 22 16093 4.1 340 16:56 21.09.2019
1559 Clouds 17 1016 23 16093 1.82 55.07 16:37 21.09.2019
1560 Clouds 17 1016 23 16093 1.82 55.07 16:18 21.09.2019
1561 Clear 16 1015 25 16093 1.5 0 15:42 21.09.2019
1562 Clear 16 1015 26 16093 2.6 340 15:20 21.09.2019
1563 Clouds 16 1015 33 16093 1.77 19.458 14:47 21.09.2019
1564 Clouds 16 1015 30 16093 1.77 19.458 14:28 21.09.2019
1565 Clouds 17 1014 23 16093 1.77 19.458 13:45 21.09.2019
1566 Clouds 17 1014 25 16093 1.94 28.688 13:25 21.09.2019
1567 Clouds 17 1014 19 16093 1.5 260 12:59 21.09.2019
1568 Clouds 18 1014 19 16093 1.94 28.688 12:41 21.09.2019
1569 Clouds 17 1014 19 16093 1.69 344.283 12:21 21.09.2019
1570 Clear 18 1014 22 16093 1.69 344.283 11:58 21.09.2019
1571 Clouds 18 1014 20 16093 4.6 360 11:39 21.09.2019
1572 Clouds 18 1014 20 16093 4.6 360 11:19 21.09.2019
1573 Clouds 18 1014 36 16093 1.69 344.283 10:40 21.09.2019
1574 Clouds 19 1014 36 16093 1.69 344.283 10:20 21.09.2019
1575 Clouds 19 1014 25 16093 1.69 344.283 09:57 21.09.2019
1576 Clear 19 1013 18 16093 2.1 250 09:37 21.09.2019
1577 Clear 19 1013 18 16093 2.1 250 09:19 21.09.2019
1578 Clouds 19 1013 22 16093 1.5 330 08:48 21.09.2019
1579 Clouds 20 1013 25 16093 2.1 310 08:20 21.09.2019
1580 Clouds 21 1013 19 16093 3.1 50 07:40 21.09.2019
1581 Clouds 21 1013 19 16093 3.1 50 07:20 21.09.2019
1582 Clouds 21 1013 19 16093 3.1 50 07:20 21.09.2019
1583 Clear 21 1013 19 16093 2.6 20 06:36 21.09.2019
1584 Clouds 23 1012 26 16093 3.1 30 05:51 21.09.2019
1585 Clear 24 1012 17 16093 2.6 60 04:40 21.09.2019
1586 Clear 26 1012 11 16093 2.1 40 03:35 21.09.2019
1587 Clear 27 1012 11 16093 2.1 40 02:25 21.09.2019
1588 Clear 27 1012 10 16093 3.1 0 01:49 21.09.2019
1589 Clear 28 1012 9 16093 2.1 0 01:25 21.09.2019
1590 Clear 27 1012 10 16093 3.6 320 00:25 21.09.2019
1591 Clear 27 1012 10 16093 3.6 300 23:56 20.09.2019
1592 Clear 26 1013 10 16093 3.1 300 23:30 20.09.2019
1593 Clear 26 1013 10 16093 3.1 300 23:30 20.09.2019
1594 Clear 26 1013 11 16093 3.1 270 22:56 20.09.2019
1595 Clouds 26 1013 16 16093 1.5 0 22:37 20.09.2019
1596 Clouds 26 1013 16 16093 1.5 0 22:19 20.09.2019
1597 Clear 25 1014 14 16093 3.6 280 21:55 20.09.2019
1598 Clear 25 1014 14 16093 4.1 10 21:36 20.09.2019
1599 Clear 25 1014 14 16093 4.1 10 21:18 20.09.2019
1600 Clear 24 1014 15 16093 6.2 320 20:41 20.09.2019
1601 Clear 24 1014 17 16093 5.1 350 20:20 20.09.2019
1602 Clear 23 1014 19 16093 6.2 310 19:56 20.09.2019
1603 Clear 23 1014 23 16093 8.2 320 19:37 20.09.2019
1604 Clear 22 1014 23 16093 8.2 320 19:19 20.09.2019
1605 Clear 21 1014 23 16093 8.2 320 18:39 20.09.2019
1606 Clear 21 1014 29 16093 8.2 320 18:20 20.09.2019
1607 Clear 19 1013 29 16093 6.2 330 17:57 20.09.2019
1608 Clear 20 1013 29 16093 6.2 330 17:57 20.09.2019
1609 Clear 20 1013 29 16093 6.2 330 17:57 20.09.2019
1610 Clear 19 1013 24 16093 5.7 330 17:38 20.09.2019
1611 Clear 19 1013 24 16093 5.7 330 17:18 20.09.2019
1612 Clear 18 1012 25 16093 6.2 320 16:41 20.09.2019
1613 Clear 18 1012 25 16093 6.2 320 16:41 20.09.2019
1614 Clear 17 1012 25 16093 6.2 320 16:19 20.09.2019
1615 Clear 17 1012 25 16093 8.2 320 15:43 20.09.2019
1616 Clear 17 1012 25 16093 8.2 320 15:43 20.09.2019
1617 Clear 16 1011 25 16093 6.7 340 15:23 20.09.2019
1618 Clear 17 1011 32 16093 8.2 320 14:57 20.09.2019
1619 Clouds 17 1011 24 16093 4.1 310 14:38 20.09.2019
1620 Clear 17 1011 25 16093 2.1 250 14:18 20.09.2019
1621 Clear 18 1010 25 16093 2.6 180 13:45 20.09.2019
1622 Clear 18 1012 29 16093 4.1 200 13:27 20.09.2019
1623 Clouds 18 1010 21 16093 7.7 320 12:56 20.09.2019
1624 Clouds 19 1010 21 16093 6.2 320 12:36 20.09.2019
1625 Clouds 19 1010 21 16093 6.2 320 12:18 20.09.2019
1626 Clouds 19 1010 21 16093 6.2 320 12:18 20.09.2019
1627 Clouds 19 1009 21 16093 4.6 320 11:44 20.09.2019
1628 Clouds 20 1010 21 16093 6.7 330 11:19 20.09.2019
1629 Clouds 20 1010 21 16093 5.7 350 10:43 20.09.2019
1630 Clouds 20 1010 21 16093 4.1 330 10:23 20.09.2019
1631 Dust 21 1008 20 16093 7.2 340 09:38 20.09.2019
1632 Dust 21 1008 20 16093 7.2 340 09:19 20.09.2019
1633 Dust 21 1008 19 16093 10.8 320 08:59 20.09.2019
1634 Dust 21 1008 19 16093 10.8 320 08:59 20.09.2019
1635 Dust 22 1008 20 16093 6.7 330 08:39 20.09.2019
1636 Dust 22 1008 20 16093 6.7 330 08:39 20.09.2019
1637 Dust 22 1008 20 16093 6.7 330 08:20 20.09.2019
1638 Dust 22 1008 13 16093 5.1 250 07:43 20.09.2019
1639 Dust 22 1008 19 16093 4.1 10 07:24 20.09.2019
1640 Clear 23 1007 19 16093 9.3 280 06:44 20.09.2019
1641 Clouds 24 1007 10 16093 2.1 220 06:19 20.09.2019
1642 Clouds 25 1005 10 16093 7.2 240 05:22 20.09.2019
1643 Smoke 28 1005 7 16093 7.7 240 03:30 20.09.2019
1644 Clear 28 1005 6 16093 8.2 230 02:44 20.09.2019
1645 Clear 30 1005 6 16093 10.3 240 01:44 20.09.2019
1646 Clear 30 1005 6 16093 10.3 240 01:44 20.09.2019
1647 Clear 30 1006 7 16093 7.7 240 00:44 20.09.2019
1648 Clear 30 1006 8 16093 8.7 240 23:59 19.09.2019
1649 Clear 30 1006 9 16093 9.8 240 23:41 19.09.2019
1650 Clear 29 1006 9 16093 9.8 240 23:18 19.09.2019
1651 Dust 30 1007 8 16093 10.3 250 22:41 19.09.2019
1652 Dust 29 1007 8 16093 10.3 250 22:23 19.09.2019
1653 Clear 29 1007 11 16093 9.3 240 21:58 19.09.2019
1654 Clear 28 1008 13 16093 9.3 240 21:39 19.09.2019
1655 Clear 28 1008 13 16093 9.3 240 21:20 19.09.2019
1656 Clear 28 1008 15 16093 10.8 220 20:59 19.09.2019
1657 Clear 27 1008 17 16093 9.3 220 20:40 19.09.2019
1658 Clear 27 1008 17 16093 9.3 220 20:19 19.09.2019
1659 Clear 26 1009 20 16093 8.2 230 19:54 19.09.2019
1660 Clear 26 1009 20 16093 8.2 230 19:54 19.09.2019
1661 Clear 27 1009 21 16093 9.8 220 19:36 19.09.2019
1662 Clear 27 1009 21 16093 9.8 220 19:36 19.09.2019
1663 Clear 27 1009 21 16093 9.8 220 19:18 19.09.2019
1664 Clear 25 1009 22 16093 10.8 220 18:41 19.09.2019
1665 Clear 25 1009 22 16093 10.8 220 18:22 19.09.2019
1666 Clear 24 1007 27 16093 5.7 210 17:43 19.09.2019
1667 Clear 24 1007 27 16093 5.7 210 17:24 19.09.2019
1668 Clear 23 1008 23 16093 6.7 160 16:59 19.09.2019
1669 Clouds 22 1007 28 16093 5.1 210 16:40 19.09.2019
1670 Clouds 22 1007 28 16093 5.1 210 16:20 19.09.2019
1671 Clear 21 1008 26 16093 3.6 170 15:41 19.09.2019
1672 Clear 21 1008 26 16093 3.6 170 15:22 19.09.2019
1673 Clouds 21 1008 26 16093 4.6 200 14:58 19.09.2019
1674 Clouds 21 1008 28 16093 3.6 200 14:39 19.09.2019
1675 Clouds 21 1008 28 16093 3.6 200 14:20 19.09.2019
1676 Clouds 22 1008 42 16093 2.1 0 13:40 19.09.2019
1677 Clouds 22 1008 42 16093 2.1 0 13:22 19.09.2019
1678 Clouds 22 1008 24 16093 3.1 170 12:59 19.09.2019
1679 Clouds 23 1008 23 16093 4.6 160 12:36 19.09.2019
1680 Clouds 23 1008 23 16093 4.6 160 12:18 19.09.2019
1681 Clear 23 1007 22 16093 7.7 200 11:41 19.09.2019
1682 Clear 23 1007 22 16093 7.7 200 11:22 19.09.2019
1683 Clouds 24 1008 17 16093 4.1 170 10:58 19.09.2019
1684 Clouds 24 1008 17 16093 4.1 170 10:58 19.09.2019
1685 Clouds 24 1008 19 16093 4.6 170 10:38 19.09.2019
1686 Clouds 24 1008 19 16093 4.6 170 10:20 19.09.2019
1687 Clear 24 1008 19 16093 4.53 233.831 09:55 19.09.2019
1688 Clear 24 1008 19 16093 4.53 233.831 09:55 19.09.2019
1689 Clear 24 1008 19 16093 4.53 233.831 09:55 19.09.2019
1690 -273 0 0 0 0 0 09:55 19.09.2019
1691 Clouds 24 1008 14 16093 2.1 220 09:36 19.09.2019
1692 Clouds 24 1008 14 16093 2.1 220 09:36 19.09.2019
1693 Clouds 25 1008 14 16093 2.1 220 09:18 19.09.2019
1694 Clear 25 1008 14 16093 4.1 220 08:41 19.09.2019
1695 Clear 25 1008 14 16093 4.1 220 08:22 19.09.2019
1696 Clouds 25 1009 18 16093 4.37 220.596 07:43 19.09.2019
1697 Clouds 25 1009 18 16093 4.37 220.596 07:43 19.09.2019
1698 Clear 26 1008 15 16093 3.6 190 07:22 19.09.2019
1699 Clear 26 1008 15 16093 4.37 220.596 06:48 19.09.2019
1700 Clear 27 1008 15 16093 4.37 220.596 06:28 19.09.2019
1701 Clear 28 1009 11 16093 3.1 150 05:52 19.09.2019
1702 Clear 28 1008 13 16093 4.6 220 05:31 19.09.2019
1703 Clear 32 1008 6 16093 5.7 220 03:54 19.09.2019
1704 Clear 32 1008 6 16093 9.8 170 02:47 19.09.2019
1705 Clear 32 1008 7 16093 9.3 150 01:32 19.09.2019
1706 Clear 32 1009 7 16093 8.2 140 00:51 19.09.2019
1707 Clear 33 1009 7 16093 8.7 130 00:26 19.09.2019
1708 Haze 32 1009 9 6437 9.3 150 23:42 18.09.2019
1709 Haze 32 1009 9 6437 9.3 150 23:22 18.09.2019
1710 Clear 31 1011 10 16093 5.7 160 22:55 18.09.2019
1711 Clear 31 1011 10 16093 5.7 160 22:55 18.09.2019
1712 Clear 31 1011 11 16093 6.2 170 22:37 18.09.2019
1713 Clear 31 1011 11 16093 6.2 170 22:18 18.09.2019
1714 Clear 30 1012 11 16093 4.1 140 21:55 18.09.2019
1715 Clear 30 1012 11 16093 5.1 140 21:37 18.09.2019
1716 Clear 30 1012 11 16093 5.1 140 21:18 18.09.2019
1717 Clear 28 1013 11 16093 3.1 160 20:55 18.09.2019
1718 Clear 28 1013 11 16093 3.1 160 20:55 18.09.2019
1719 Clear 28 1013 12 16093 4.1 150 20:37 18.09.2019
1720 Clear 27 1013 12 16093 4.1 150 20:18 18.09.2019
1721 Clear 27 1013 12 16093 3.1 140 19:41 18.09.2019
1722 Clear 27 1013 12 16093 3.1 140 19:20 18.09.2019
1723 Clear 26 1014 13 16093 4.16 229.156 18:57 18.09.2019
1724 Clear 25 1014 15 16093 4.16 229.156 18:38 18.09.2019
1725 Clear 25 1014 15 16093 4.16 229.156 18:38 18.09.2019
1726 Clear 24 1014 15 16093 1.92 230.807 18:19 18.09.2019
1727 Clear 22 1013 17 16093 1.92 230.807 17:59 18.09.2019
1728 Clear 21 1013 18 16093 1.92 230.807 17:40 18.09.2019
1729 Clear 21 1013 18 16093 1.92 230.807 17:19 18.09.2019
1730 Clear 19 1013 25 16093 1.92 230.807 16:57 18.09.2019
1731 Clear 19 1012 24 16093 1.5 200 16:38 18.09.2019
1732 Clear 18 1012 24 16093 1.5 200 16:20 18.09.2019
1733 Clear 18 1012 26 16093 1.92 230.807 15:56 18.09.2019
1734 Clear 18 1012 26 16093 1.92 230.807 15:56 18.09.2019
1735 Clear 17 1012 25 16093 1.92 230.807 15:38 18.09.2019
1736 Clear 17 1012 25 16093 1.47 242.044 15:19 18.09.2019
1737 Clouds 17 1012 29 16093 1.47 242.044 14:57 18.09.2019
1738 Clear 18 1011 22 16093 1.5 240 14:39 18.09.2019
1739 Clear 18 1011 22 16093 1.5 240 14:21 18.09.2019
1740 Clouds 19 1012 27 16093 2.1 310 13:54 18.09.2019
1741 Clouds 19 1012 25 16093 2.1 330 13:36 18.09.2019
1742 Clouds 19 1012 25 16093 2.1 330 13:18 18.09.2019
1743 Clouds 19 1012 30 16093 1.3 247.173 12:37 18.09.2019
1744 Clouds 19 1012 25 16093 1.54 252.542 12:19 18.09.2019
1745 Clear 20 1011 19 16093 1.5 190 11:40 18.09.2019
1746 Clear 21 1011 19 16093 1.5 190 11:20 18.09.2019
1747 Clouds 21 1012 31 16093 1.54 252.542 10:55 18.09.2019
1748 Clear 21 1011 19 16093 2.6 190 10:37 18.09.2019
1749 Clear 22 1011 19 16093 2.6 190 10:18 18.09.2019
1750 Clouds 22 1012 30 16093 1.54 252.542 09:41 18.09.2019
1751 Clear 22 1011 18 16093 3.1 170 09:22 18.09.2019
1752 Clouds 23 1012 28 16093 1.62 263.906 08:56 18.09.2019
1753 Clear 23 1012 15 16093 2.6 190 08:38 18.09.2019
1754 Clear 23 1012 15 16093 2.6 190 08:19 18.09.2019
1755 Clear 23 1012 26 16093 2.1 50 07:43 18.09.2019
1756 Clear 24 1012 19 16093 1.65 272.184 07:23 18.09.2019
1757 Clear 24 1012 24 16093 1.65 272.184 06:45 18.09.2019
1758 Clear 25 1012 20 16093 2.03 255.457 06:21 18.09.2019
1759 Clear 26 1011 12 16093 3.6 230 05:26 18.09.2019
1760 Clear 30 1011 7 16093 4.6 230 03:38 18.09.2019
1761 Clear 30 1011 5 16093 6.7 230 02:40 18.09.2019
1762 Clear 30 1011 7 16093 6.7 240 01:37 18.09.2019
1763 Clear 30 1012 7 16093 5.7 230 00:51 18.09.2019
1764 Clear 30 1012 7 16093 5.7 260 00:29 18.09.2019
1765 Clear 29 1013 8 16093 4.1 160 23:47 17.09.2019
1766 Clear 30 1013 9 16093 1.5 0 23:24 17.09.2019
1767 Clear 29 1014 9 16093 2.6 240 22:55 17.09.2019
1768 Clouds 29 1014 12 16093 5.7 180 22:36 17.09.2019
1769 Clouds 29 1014 12 16093 5.7 180 22:18 17.09.2019
1770 Clear 27 1015 12 16093 4.6 260 21:54 17.09.2019
1771 Clouds 28 1014 15 16093 3.1 250 21:36 17.09.2019
1772 Clouds 28 1014 15 16093 3.1 250 21:18 17.09.2019
1773 Clear 27 1015 12 16093 4.6 220 20:54 17.09.2019
1774 Clear 27 1015 12 16093 6.2 220 20:36 17.09.2019
1775 Clear 27 1015 12 16093 6.2 220 20:18 17.09.2019
1776 Clear 27 1015 12 16093 6.2 220 20:18 17.09.2019
1777 Clear 26 1016 16 16093 4.6 170 19:39 17.09.2019
1778 Clear 26 1016 16 16093 4.6 170 19:39 17.09.2019
1779 Clear 26 1016 16 16093 4.6 170 19:20 17.09.2019
1780 Clear 25 1016 23 16093 4.6 240 18:59 17.09.2019
1781 Clear 25 1015 20 16093 4.6 210 18:41 17.09.2019
1782 Clear 24 1015 20 16093 4.6 210 18:21 17.09.2019
1783 Clear 23 1015 22 16093 4.6 220 17:47 17.09.2019
1784 Clear 23 1015 22 16093 4.6 220 17:21 17.09.2019
1785 Clear 22 1014 39 16093 4.6 210 16:59 17.09.2019
1786 Clouds 22 1014 28 16093 5.1 190 16:41 17.09.2019
1787 Clouds 22 1014 28 16093 5.1 190 16:22 17.09.2019
1788 Clouds 22 1014 28 16093 5.1 190 16:22 17.09.2019
1789 Clouds 22 1012 25 16093 4.1 210 15:40 17.09.2019
1790 Clouds 22 1012 25 16093 4.1 210 15:22 17.09.2019
1791 Clear 22 1013 26 16093 4.1 240 14:58 17.09.2019
1792 Clear 22 1013 22 16093 2.6 200 14:40 17.09.2019
1793 Clear 22 1013 22 16093 2.6 200 14:21 17.09.2019
1794 Clear 23 1012 19 16093 6.2 240 13:58 17.09.2019
1795 Clear 23 1012 19 16093 6.2 240 13:58 17.09.2019
1796 Clear 23 1011 19 16093 6.7 220 13:39 17.09.2019
1797 Clear 23 1011 19 16093 6.7 220 13:21 17.09.2019
1798 Dust 24 1011 15 16093 3.1 170 12:43 17.09.2019
1799 Dust 24 1011 15 16093 3.1 170 12:20 17.09.2019
1800 Dust 25 1011 19 16093 2.1 0 11:57 17.09.2019
1801 Dust 25 1010 16 16093 2.1 230 11:38 17.09.2019
1802 Dust 25 1010 16 16093 2.1 230 11:38 17.09.2019
1803 Dust 25 1010 16 16093 2.1 230 11:18 17.09.2019
1804 Dust 25 1010 16 16093 2.1 230 11:18 17.09.2019
1805 Clear 26 1009 14 16093 10.8 240 10:41 17.09.2019
1806 Clear 26 1009 14 16093 10.8 240 10:21 17.09.2019
1807 Clear 26 1009 14 16093 9.3 220 09:56 17.09.2019
1808 Clear 26 1008 15 16093 5.7 120 09:37 17.09.2019
1809 Clear 26 1008 15 16093 5.7 120 09:19 17.09.2019
1810 Clear 26 1008 15 16093 5.7 120 09:19 17.09.2019
1811 Clouds 27 1008 13 16093 8.7 220 08:43 17.09.2019
1812 Clouds 27 1008 13 16093 8.7 220 08:25 17.09.2019
1813 Clear 28 1009 13 16093 8.7 210 07:45 17.09.2019
1814 Clear 29 1009 13 16093 7.2 210 07:27 17.09.2019
1815 Clear 29 1009 14 16093 3.6 200 06:57 17.09.2019
1816 Clear 29 1009 13 16093 3.6 210 06:36 17.09.2019
1817 Clear 29 1008 12 16093 6.2 230 05:54 17.09.2019
1818 Clear 30 1008 10 16093 6.2 240 04:56 17.09.2019
1819 Rain 32 1008 9 16093 7.7 240 03:49 17.09.2019
1820 Rain 32 1008 9 16093 7.7 240 03:49 17.09.2019
1821 Rain 32 1008 9 16093 8.7 250 02:40 17.09.2019
1822 Rain 33 1008 16 16093 8.2 240 01:50 17.09.2019
1823 Clear 33 1008 8 16093 7.2 250 00:56 17.09.2019
1824 Clouds 34 1009 8 14484 10.8 220 23:42 16.09.2019
1825 Clouds 33 1009 8 14484 10.8 220 23:20 16.09.2019
1826 Clear 34 1010 9 16093 9.8 230 22:59 16.09.2019
1827 Clear 34 1011 9 16093 7.7 230 22:40 16.09.2019
1828 Clear 34 1011 9 16093 7.7 230 22:22 16.09.2019
1829 Clear 34 1011 9 16093 7.7 230 22:22 16.09.2019
1830 Clear 33 1011 10 16093 9.3 210 21:57 16.09.2019
1831 Clouds 33 1011 7 16093 4.6 190 21:38 16.09.2019
1832 Clouds 33 1011 7 16093 4.6 190 21:38 16.09.2019
1833 Clouds 33 1011 7 16093 4.6 190 21:20 16.09.2019
1834 Clouds 33 1011 7 16093 4.6 190 21:20 16.09.2019
1835 Clear 33 1012 7 16093 6.7 160 20:42 16.09.2019
1836 Clear 33 1012 7 16093 6.7 160 20:23 16.09.2019
1837 Clear 32 1012 12 16093 5.1 190 19:58 16.09.2019
1838 Clear 32 1013 6 16093 6.2 220 19:40 16.09.2019
1839 Clear 31 1013 6 16093 6.2 220 19:20 16.09.2019
1840 Clear 31 1013 8 16093 3.6 220 18:56 16.09.2019
1841 Clear 30 1013 8 16093 3.1 0 18:37 16.09.2019
1842 Clear 30 1013 8 16093 3.1 0 18:18 16.09.2019
1843 Clouds 28 1011 14 16093 7.2 200 17:42 16.09.2019
1844 Clouds 28 1011 14 16093 7.2 200 17:24 16.09.2019
1845 Clouds 28 1011 14 16093 7.2 200 17:24 16.09.2019
1846 Clear 27 1012 10 16093 3.6 180 16:57 16.09.2019
1847 Clouds 26 1011 15 16093 4.6 170 16:38 16.09.2019
1848 Clouds 26 1011 15 16093 4.6 170 16:20 16.09.2019
1849 Clear 26 1011 20 16093 3.94 224.671 15:56 16.09.2019
1850 Clouds 25 1011 20 16093 3.6 180 15:37 16.09.2019
1851 Clouds 26 1011 23 16093 3.6 180 15:18 16.09.2019
1852 Clear 26 1011 17 16093 3.28 250.257 14:44 16.09.2019
1853 Clear 26 1011 23 16093 3.28 250.257 14:23 16.09.2019
1854 Clear 27 1011 16 16093 2.1 130 13:58 16.09.2019
1855 Clouds 27 1011 23 16093 1.5 50 13:38 16.09.2019
1856 Clouds 27 1011 23 16093 1.5 50 13:20 16.09.2019
1857 Clouds 27 1011 23 16093 1.5 50 13:20 16.09.2019
1858 Clear 27 1011 12 16093 1.5 200 12:43 16.09.2019
1859 Clear 27 1011 12 16093 1.5 200 12:24 16.09.2019
1860 Clouds 27 1010 13 16093 3.6 200 11:55 16.09.2019
1861 -273 0 0 0 0 0 11:55 16.09.2019
1862 Clouds 27 1010 13 16093 3.6 200 11:37 16.09.2019
1863 Clouds 27 1010 13 16093 3.6 200 11:37 16.09.2019
1864 Clouds 28 1010 13 16093 3.6 200 11:19 16.09.2019
1865 Clear 29 1011 14 16093 3.1 260 10:38 16.09.2019
1866 Clear 29 1011 14 16093 3.1 260 10:19 16.09.2019
1867 Clouds 30 1011 16 16093 5.1 220 09:57 16.09.2019
1868 Clouds 29 1009 9 16093 4.6 220 09:38 16.09.2019
1869 Clear 29 1012 12 16093 5.7 210 09:18 16.09.2019
1870 Clouds 30 1010 26 16093 3.35 255.591 08:42 16.09.2019
1871 Clear 30 1010 21 16093 3.18 258.669 08:24 16.09.2019
1872 Clear 31 1010 20 16093 3.1 220 07:48 16.09.2019
1873 Clear 30 1010 23 16093 3.18 258.669 07:25 16.09.2019
1874 Clear 31 1010 23 16093 4.1 170 06:59 16.09.2019
1875 Clear 31 1010 20 16093 4.1 170 06:40 16.09.2019
1876 Clear 31 1010 20 16093 4.1 170 06:22 16.09.2019
1877 Clear 32 1010 18 16093 3.6 170 05:43 16.09.2019
1878 Clear 32 1010 18 16093 3.6 170 05:23 16.09.2019
1879 Clear 35 1009 20 16093 9.3 160 03:51 16.09.2019
1880 Clear 36 1009 18 16093 9.3 160 01:57 16.09.2019
1881 Clear 36 1010 18 16093 7.7 150 00:39 16.09.2019
1882 Clear 36 1010 18 16093 7.7 150 00:21 16.09.2019
1883 Clouds 36 1011 11 16093 6.2 160 23:39 15.09.2019
1884 Clouds 36 1011 11 16093 6.2 160 23:20 15.09.2019
1885 Clouds 36 1012 10 16093 4.1 210 22:40 15.09.2019
1886 Clouds 36 1012 10 16093 4.1 210 22:21 15.09.2019
1887 Clear 35 1013 19 16093 5.1 160 21:58 15.09.2019
1888 Clear 35 1013 19 16093 5.1 160 21:58 15.09.2019
1889 Clear 35 1013 17 16093 2.1 0 21:39 15.09.2019
1890 Clear 34 1013 17 16093 2.1 0 21:21 15.09.2019
1891 Clear 33 1014 21 16093 3.6 160 20:57 15.09.2019
1892 Clear 33 1014 21 16093 3.6 160 20:57 15.09.2019
1893 Clear 33 1014 21 16093 6.7 140 20:39 15.09.2019
1894 Clear 32 1014 21 16093 6.7 140 20:21 15.09.2019
1895 Clear 31 1015 24 16093 4.6 190 19:44 15.09.2019
1896 Clear 31 1015 25 16093 5.1 160 19:23 15.09.2019
1897 Clear 30 1015 27 16093 4.1 160 18:43 15.09.2019
1898 Clear 26 1015 27 16093 4.1 160 18:24 15.09.2019
1899 Clear 24 1015 30 16093 2.1 170 17:58 15.09.2019
1900 Clouds 26 1014 22 16093 2.1 290 17:39 15.09.2019
1901 Clouds 26 1014 22 16093 2.1 290 17:20 15.09.2019
1902 Clear 24 1015 41 16093 0.88 199.053 16:44 15.09.2019
1903 Clouds 23 1013 23 16093 2.1 270 16:26 15.09.2019
1904 Clear 23 1014 43 16093 0.88 199.053 15:59 15.09.2019
1905 Clear 23 1014 41 16093 1.5 260 15:41 15.09.2019
1906 Clear 23 1014 41 16093 1.5 260 15:20 15.09.2019
1907 Clear 23 1014 36 16093 2.1 270 14:58 15.09.2019
1908 Clear 23 1014 40 16093 1.34 252.718 14:39 15.09.2019
1909 Clear 23 1014 40 16093 1.34 252.718 14:20 15.09.2019
1910 Clear 24 1013 38 16093 1.34 252.718 13:46 15.09.2019
1911 Clear 24 1013 34 16093 1.31 228.192 13:24 15.09.2019
1912 Clear 25 1014 30 16093 3.1 110 12:56 15.09.2019
1913 Clouds 25 1014 30 16093 2.6 120 12:38 15.09.2019
1914 Clouds 25 1014 30 16093 2.6 120 12:18 15.09.2019
1915 Clear 25 1014 29 16093 1.82 211.519 11:42 15.09.2019
1916 Clear 25 1014 29 16093 1.82 211.519 11:22 15.09.2019
1917 Clouds 26 1015 20 16093 3.1 210 10:56 15.09.2019
1918 Clouds 27 1015 13 16093 4.6 240 10:38 15.09.2019
1919 Clouds 27 1015 13 16093 4.6 240 10:20 15.09.2019
1920 Clear 27 1014 20 16093 2.6 30 09:40 15.09.2019
1921 Clear 27 1014 20 16093 2.6 30 09:20 15.09.2019
1922 Clouds 27 1014 15 16093 1.29 249.579 08:48 15.09.2019
1923 Clouds 27 1014 10 16093 2.6 310 08:28 15.09.2019
1924 Clear 30 1014 10 16093 3.6 270 07:51 15.09.2019
1925 Clear 30 1014 9 16093 2.6 210 07:32 15.09.2019
1926 Clear 31 1014 9 16093 2.1 280 06:43 15.09.2019
1927 Clear 37 1012 7 16093 3.6 130 03:54 15.09.2019
1928 Clear 37 1012 6 16093 3.1 130 02:46 15.09.2019
1929 Clear 37 1013 6 16093 2.21 225.33 01:49 15.09.2019
1930 Clear 37 1013 6 16093 2.6 0 01:28 15.09.2019
1931 Clear 37 1013 6 16093 2.27 228.612 00:50 15.09.2019
1932 Clear 37 1014 6 16093 3.12 191.411 00:24 15.09.2019
1933 Clear 36 1014 6 16093 3.12 191.411 23:59 14.09.2019
1934 Clouds 36 1014 8 16093 3.1 90 23:41 14.09.2019
1935 Clouds 36 1014 8 16093 3.1 90 23:22 14.09.2019
1936 Clear 36 1015 6 16093 2.6 0 22:59 14.09.2019
1937 Clear 36 1015 6 16093 2.6 0 22:59 14.09.2019
1938 Clear 36 1015 6 16093 2.6 0 22:59 14.09.2019
1939 Clear 36 1016 6 16093 3.12 191.411 22:41 14.09.2019
1940 Clear 36 1016 6 16093 3.12 191.411 22:21 14.09.2019
1941 Clear 35 1016 7 16093 1.5 0 21:59 14.09.2019
1942 Clouds 34 1016 9 16093 1.5 0 21:39 14.09.2019
1943 Clouds 34 1016 9 16093 1.5 0 21:20 14.09.2019
1944 Clear 33 1017 7 16093 3.6 90 20:55 14.09.2019
1945 Clouds 33 1017 9 16093 1.5 80 20:37 14.09.2019
1946 Clouds 33 1017 9 16093 1.5 80 20:19 14.09.2019
1947 Clear 32 1017 10 16093 1.4 144.234 19:44 14.09.2019
1948 Clear 31 1018 11 16093 1.4 144.234 19:21 14.09.2019
1949 Clear 30 1018 12 16093 1.4 144.234 18:57 14.09.2019
1950 Clear 29 1018 12 16093 1.4 144.234 18:37 14.09.2019
1951 Clear 28 1018 12 16093 1.56 47.397 18:19 14.09.2019
1952 Clear 25 1017 17 16093 1.56 47.397 17:43 14.09.2019
1953 Clear 24 1017 17 16093 1.56 47.397 17:22 14.09.2019
1954 Clear 23 1017 15 16093 1.56 47.397 16:47 14.09.2019
1955 Clouds 22 1016 17 16093 2.1 230 16:26 14.09.2019
1956 Clear 22 1017 22 16093 1.56 47.397 15:58 14.09.2019
1957 Clear 22 1016 24 16093 1.56 47.397 15:40 14.09.2019
1958 Clear 21 1016 24 16093 1.48 0.854 15:20 14.09.2019
1959 Clear 21 1016 28 16093 1.48 0.854 14:43 14.09.2019
1960 Clouds 21 1016 19 16093 1.48 0.854 14:19 14.09.2019
1961 Clouds 22 1016 19 16093 1.48 0.854 13:48 14.09.2019
1962 Clear 22 1016 28 16093 1.5 20 13:24 14.09.2019
1963 Clear 23 1016 26 16093 1.12 2.45 12:59 14.09.2019
1964 Clear 23 1015 20 16093 1.12 2.45 12:38 14.09.2019
1965 Clear 23 1015 19 16093 0.86 6.679 12:18 14.09.2019
1966 Clear 23 1015 15 16093 2.1 210 11:40 14.09.2019
1967 Clear 24 1015 15 16093 2.1 210 11:19 14.09.2019
1968 Clear 25 1015 13 16093 2.6 240 10:39 14.09.2019
1969 Clear 25 1015 13 16093 2.6 240 10:21 14.09.2019
1970 Clouds 25 1016 28 16093 0.86 6.679 09:57 14.09.2019
1971 Clouds 25 1016 25 16093 0.86 6.679 09:39 14.09.2019
1972 Clouds 25 1016 25 16093 1.12 351.11 09:19 14.09.2019
1973 Clouds 26 1016 22 16093 1.13 329.86 08:47 14.09.2019
1974 Clear 26 1016 19 16093 1.13 329.86 08:24 14.09.2019
1975 Clear 27 1016 16 16093 1.13 329.86 07:48 14.09.2019
1976 Clouds 27 1015 19 16093 1.13 329.86 07:28 14.09.2019
1977 Clouds 27 1015 19 16093 1.13 329.86 07:28 14.09.2019
1978 Clear 27 1015 18 16093 2.1 60 06:52 14.09.2019
1979 Clear 27 1015 19 16093 2.6 60 06:29 14.09.2019
1980 Clear 30 1015 17 16093 3.1 40 05:26 14.09.2019
1981 Clear 35 1014 11 16093 2.6 40 03:46 14.09.2019
1982 Clear 35 1014 8 16093 2.6 50 02:54 14.09.2019
1983 Clear 35 1015 7 16093 2.1 100 01:54 14.09.2019
1984 Clear 35 1015 7 16093 2.1 0 01:23 14.09.2019
1985 Clear 35 1015 7 16093 3.6 60 00:59 14.09.2019
1986 Clear 35 1015 8 16093 2.6 60 00:39 14.09.2019
1987 Clear 35 1015 8 16093 2.6 60 00:20 14.09.2019
1988 Clear 34 1016 8 16093 5.1 50 23:38 13.09.2019
1989 Clear 35 1016 8 16093 5.1 50 23:19 13.09.2019
1990 Clear 33 1017 8 16093 5.7 50 22:59 13.09.2019
1991 Clear 33 1017 8 16093 5.7 40 22:38 13.09.2019
1992 Clear 34 1017 8 16093 5.7 40 22:20 13.09.2019
1993 Clear 33 1018 9 16093 5.1 40 21:42 13.09.2019
1994 Clear 32 1018 9 16093 5.1 40 21:20 13.09.2019
1995 Clear 32 1018 9 16093 5.1 40 21:20 13.09.2019
1996 Clear 32 1019 10 16093 4.1 40 20:59 13.09.2019
1997 Clear 32 1019 10 16093 3.6 40 20:40 13.09.2019
1998 Clear 30 1019 10 16093 3.6 40 20:21 13.09.2019
1999 Clear 30 1019 11 16093 3.6 360 19:58 13.09.2019
2000 Clear 30 1019 10 16093 3.6 330 19:40 13.09.2019
2001 Clear 30 1019 10 16093 3.6 330 19:19 13.09.2019
2002 Clear 28 1019 11 16093 3.1 340 18:57 13.09.2019
2003 Clear 28 1019 11 16093 4.6 330 18:37 13.09.2019
2004 Clear 27 1019 11 16093 4.6 330 18:18 13.09.2019
2005 Clear 24 1019 15 16093 2.61 42.417 17:39 13.09.2019
2006 Clear 24 1019 15 16093 2.61 42.417 17:39 13.09.2019
2007 Clear 24 1019 15 16093 2.61 42.417 17:19 13.09.2019
2008 Clear 22 1019 14 16093 4.1 340 16:42 13.09.2019
2009 Clear 21 1019 14 16093 2.61 42.417 16:22 13.09.2019
2010 Clear 21 1018 15 16093 3.6 350 15:58 13.09.2019
2011 Clear 20 1018 15 16093 2.6 320 15:39 13.09.2019
2012 Clear 20 1018 15 16093 2.6 320 15:20 13.09.2019
2013 Clear 20 1017 19 16093 2.7 28.553 14:44 13.09.2019
2014 Clear 21 1017 19 16093 2.7 28.553 14:22 13.09.2019
2015 Clouds 21 1018 16 16093 2.6 330 13:56 13.09.2019
2016 Clouds 21 1018 18 16093 3.6 310 13:37 13.09.2019
2017 Clouds 21 1018 18 16093 3.6 310 13:18 13.09.2019
2018 Clouds 22 1017 19 16093 2.3 37.657 12:41 13.09.2019
2019 Clouds 21 1017 19 16093 2.3 38.489 12:23 13.09.2019
2020 Clear 22 1018 20 16093 2.3 38.489 11:56 13.09.2019
2021 Clear 22 1018 16 16093 2.1 350 11:20 13.09.2019
2022 Clear 23 1018 15 16093 3.1 260 10:41 13.09.2019
2023 Clear 23 1018 15 16093 3.1 260 10:20 13.09.2019
2024 Clear 23 1017 14 16093 4.1 350 09:46 13.09.2019
2025 Clear 23 1017 13 16093 2.23 2.624 09:25 13.09.2019
2026 Clear 24 1017 13 16093 3.6 340 08:59 13.09.2019
2027 Clear 24 1017 12 16093 4.1 340 08:40 13.09.2019
2028 Clear 24 1017 12 16093 4.1 340 08:21 13.09.2019
2029 Clouds 25 1017 19 16093 3.1 350 07:52 13.09.2019
2030 Clear 25 1017 19 16093 3.6 10 07:34 13.09.2019
2031 Clear 26 1017 22 16093 3.6 10 06:48 13.09.2019
2032 Clear 29 1017 16 16093 3.6 350 05:49 13.09.2019
2033 Clear 30 1017 11 16093 3.6 350 04:59 13.09.2019
2034 Clear 32 1017 9 16093 3.6 20 03:40 13.09.2019
2035 Clear 32 1017 9 16093 2.6 40 02:21 13.09.2019
2036 Clear 32 1017 8 16093 4.6 50 01:59 13.09.2019
2037 Clear 32 1018 9 16093 4.1 40 01:34 13.09.2019
2038 Clear 32 1018 9 16093 4.6 50 00:47 13.09.2019
2039 Clear 32 1018 9 16093 5.1 50 00:21 13.09.2019
2040 Clear 32 1019 11 16093 4.1 50 23:38 12.09.2019
2041 Clear 32 1019 11 16093 4.1 50 23:19 12.09.2019
2042 Clear 32 1020 11 16093 5.7 40 22:42 12.09.2019
2043 Clear 32 1020 10 16093 4.6 30 22:23 12.09.2019
2044 Clear 31 1021 11 16093 5.1 30 21:57 12.09.2019
2045 Clear 30 1021 12 16093 3.6 60 21:38 12.09.2019
2046 Clear 30 1021 12 16093 3.6 60 21:20 12.09.2019
2047 Clear 29 1021 16 16093 5.7 30 20:56 12.09.2019
2048 Clear 29 1021 15 16093 5.7 30 20:38 12.09.2019
2049 Clear 29 1021 15 16093 5.7 30 20:19 12.09.2019
2050 Clear 29 1022 15 16093 6.2 10 19:54 12.09.2019
2051 Clear 28 1022 15 16093 7.7 30 19:36 12.09.2019
2052 Clear 28 1022 15 16093 7.7 30 19:36 12.09.2019
2053 Clear 28 1022 15 16093 7.7 30 19:18 12.09.2019
2054 Clear 27 1022 15 16093 4.6 10 18:37 12.09.2019
2055 Haze 26 1022 20 16093 4.6 10 18:19 12.09.2019
2056 -273 0 0 0 0 0 17:56 12.09.2019
2057 Haze 23 1021 20 16093 6.2 350 17:38 12.09.2019
2058 Clear 23 1021 20 16093 6.2 350 17:19 12.09.2019
2059 Clear 22 1021 22 16093 4.1 340 16:41 12.09.2019
2060 Clear 21 1021 22 16093 4.1 340 16:21 12.09.2019
2061 Clear 20 1020 24 16093 2.1 340 15:43 12.09.2019
2062 Clear 19 1020 28 16093 3.1 360 15:24 12.09.2019
2063 Clouds 20 1020 26 16093 2.6 310 14:58 12.09.2019
2064 Clouds 19 1019 26 16093 4.1 320 14:39 12.09.2019
2065 Clouds 20 1019 26 16093 4.1 320 14:20 12.09.2019
2066 Clouds 20 1019 22 16093 4.1 310 13:39 12.09.2019
2067 Clouds 20 1019 23 16093 4.1 310 13:21 12.09.2019
2068 Clouds 21 1019 20 16093 1.5 250 12:49 12.09.2019
2069 Clouds 21 1019 17 16093 2.62 43.545 12:20 12.09.2019
2070 Clouds 22 1018 20 16093 2.62 43.545 11:58 12.09.2019
2071 Clouds 22 1018 20 16093 2.62 43.545 11:58 12.09.2019
2072 Clouds 22 1018 19 16093 2.62 43.545 11:40 12.09.2019
2073 Clouds 22 1018 19 16093 2.62 43.545 11:21 12.09.2019
2074 Clouds 22 1018 24 16093 2.6 40 10:49 12.09.2019
2075 Clouds 22 1018 24 16093 2.62 43.545 10:28 12.09.2019
2076 Clear 23 1016 16 16093 2.1 320 09:57 12.09.2019
2077 Clear 23 1016 16 16093 2.1 320 09:38 12.09.2019
2078 Clear 23 1016 16 16093 2.1 320 09:19 12.09.2019
2079 Clouds 23 1017 17 16093 1.65 61.803 08:43 12.09.2019
2080 Clear 24 1016 15 16093 4.1 260 08:23 12.09.2019
2081 Clouds 25 1017 19 16093 2.1 330 07:47 12.09.2019
2082 Clouds 25 1017 16 16093 3.6 310 07:21 12.09.2019
2083 Clouds 25 1017 16 16093 3.6 310 07:21 12.09.2019
2084 Clouds 26 1016 25 16093 2.6 30 06:52 12.09.2019
2085 Clouds 26 1016 23 16093 3.1 30 06:32 12.09.2019
2086 Clouds 26 1016 23 16093 3.1 30 06:32 12.09.2019
2087 Clear 26 1016 19 16093 4.1 40 05:53 12.09.2019
2088 Clear 27 1015 19 16093 4.1 30 05:35 12.09.2019
2089 Clear 28 1015 19 16093 4.1 30 04:42 12.09.2019
2090 Clear 31 1014 10 16093 3.1 20 03:23 12.09.2019
2091 Clear 32 1014 9 16093 2.1 0 01:43 12.09.2019
2092 Clear 31 1014 9 16093 0.17 259.232 01:21 12.09.2019
2093 Clear 31 1015 8 16093 3.6 130 00:45 12.09.2019
2094 Clear 31 1015 9 16093 2.1 20 00:27 12.09.2019
2095 Clear 31 1015 10 16093 0.96 229.119 23:43 11.09.2019
2096 Clear 30 1015 10 16093 0.96 229.119 23:24 11.09.2019
2097 Clear 30 1016 10 16093 2.6 0 22:57 11.09.2019
2098 Clear 30 1016 11 16093 3.1 190 22:38 11.09.2019
2099 Clear 29 1016 11 16093 3.1 190 22:19 11.09.2019
2100 -273 0 0 0 0 0 21:55 11.09.2019
2101 Clear 29 1017 13 16093 0.96 229.119 21:37 11.09.2019
2102 Clear 28 1017 13 16093 1.62 221.525 21:18 11.09.2019
2103 Clear 28 1016 15 16093 1.62 221.525 20:54 11.09.2019
2104 Clear 28 1016 15 16093 1.1 165.66 20:36 11.09.2019
2105 Clear 27 1016 15 16093 1.1 165.66 20:18 11.09.2019
2106 Clear 26 1017 14 16093 2.1 200 19:42 11.09.2019
2107 Clear 26 1017 14 16093 1.1 165.66 19:22 11.09.2019
2108 Clear 26 1017 14 16093 1.1 165.66 19:22 11.09.2019
2109 Clear 25 1017 15 16093 1.5 0 18:59 11.09.2019
2110 Clear 24 1016 16 16093 2.1 240 18:41 11.09.2019
2111 Clear 24 1016 16 16093 2.1 240 18:22 11.09.2019
2112 Clear 23 1016 18 16093 2.1 230 17:57 11.09.2019
2113 Clear 22 1016 18 16093 1.5 220 17:38 11.09.2019
2114 Clear 22 1016 18 16093 1.5 220 17:20 11.09.2019
2115 Clear 21 1015 32 16093 2.19 274.026 16:49 11.09.2019
2116 Clear 20 1015 24 16093 2.1 90 16:26 11.09.2019
2117 Clear 20 1014 32 16093 2.19 274.026 15:59 11.09.2019
2118 Clear 20 1014 27 16093 2.1 60 15:41 11.09.2019
2119 Clear 20 1014 27 16093 2.1 60 15:20 11.09.2019
2120 Clear 20 1013 20 16093 2.6 210 14:56 11.09.2019
2121 Clear 20 1013 20 16093 2.6 210 14:56 11.09.2019
2122 Clear 20 1012 20 16093 6.2 190 14:37 11.09.2019
2123 Clear 20 1012 20 16093 6.2 190 14:18 11.09.2019
2124 Clouds 20 1012 22 16093 3.1 140 13:39 11.09.2019
2125 Clouds 21 1012 22 16093 3.1 140 13:20 11.09.2019
2126 Clouds 21 1011 38 16093 4.6 190 12:59 11.09.2019
2127 Clear 21 1011 38 16093 5.7 200 12:38 11.09.2019
2128 Clear 22 1011 34 16093 5.7 200 12:20 11.09.2019
2129 Clouds 22 1010 23 16093 7.2 220 11:40 11.09.2019
2130 Clouds 23 1010 23 16093 7.2 220 11:21 11.09.2019
2131 Clouds 23 1010 27 16093 3.1 230 10:57 11.09.2019
2132 Clouds 24 1009 28 16093 2.6 190 10:39 11.09.2019
2133 Clouds 24 1009 28 16093 2.6 190 10:20 11.09.2019
2134 Clouds 25 1008 25 16093 8.2 220 09:40 11.09.2019
2135 Clouds 25 1008 25 16093 8.2 220 09:20 11.09.2019
2136 Clouds 25 1008 23 16093 7.7 220 08:56 11.09.2019
2137 Clouds 25 1007 21 16093 4.6 210 08:38 11.09.2019
2138 Clouds 26 1007 21 16093 4.6 210 08:20 11.09.2019
2139 Clouds 27 1007 32 16093 6.2 210 07:40 11.09.2019
2140 Clouds 27 1007 32 16093 6.2 210 07:22 11.09.2019
2141 Clouds 27 1007 21 16093 7.7 190 06:48 11.09.2019
2142 Clouds 28 1007 23 16093 7.2 180 06:27 11.09.2019
2143 Clouds 28 1006 23 16093 6.2 180 05:36 11.09.2019
2144 Clouds 29 1006 23 16093 6.2 180 05:18 11.09.2019
2145 Clouds 30 1005 15 16093 4.6 220 04:22 11.09.2019
2146 Clouds 31 1006 18 16093 11.3 190 03:31 11.09.2019
2147 Clouds 31 1006 18 16093 11.3 190 03:31 11.09.2019
2148 Clouds 32 1006 22 16093 9.8 170 02:40 11.09.2019
2149 Dust 32 1006 24 16093 10.8 190 01:42 11.09.2019
2150 Dust 33 1006 22 16093 11.8 180 00:46 11.09.2019
2151 Dust 32 1007 22 16093 10.3 170 00:20 11.09.2019
2152 Dust 33 1007 21 16093 11.3 180 23:41 10.09.2019
2153 Dust 33 1007 21 16093 11.3 180 23:41 10.09.2019
2154 Dust 32 1007 21 16093 11.3 180 23:22 10.09.2019
2155 Dust 32 1008 24 16093 12.3 170 22:57 10.09.2019
2156 Dust 32 1008 24 16093 12.3 170 22:57 10.09.2019
2157 Dust 32 1008 22 16093 10.8 180 22:38 10.09.2019
2158 Dust 31 1008 22 16093 10.8 180 22:19 10.09.2019
2159 Dust 31 1008 22 16093 10.8 180 22:19 10.09.2019
2160 Dust 31 1009 27 14484 12.3 170 21:55 10.09.2019
2161 Dust 31 1009 27 14484 12.3 170 21:55 10.09.2019
2162 Dust 31 1009 33 16093 9.8 170 21:37 10.09.2019
2163 Dust 30 1009 33 16093 9.8 170 21:18 10.09.2019
2164 Dust 29 1009 35 16093 12.3 160 20:56 10.09.2019
2165 Dust 29 1009 37 16093 12.9 160 20:38 10.09.2019
2166 Dust 29 1009 37 16093 12.9 160 20:38 10.09.2019
2167 Dust 30 1009 37 16093 12.9 160 20:19 10.09.2019
2168 Dust 28 1009 37 16093 12.9 160 19:55 10.09.2019
2169 Dust 28 1010 39 16093 9.3 160 19:36 10.09.2019
2170 Dust 28 1010 39 16093 9.3 160 19:18 10.09.2019
2171 Dust 28 1010 39 16093 9.3 160 19:18 10.09.2019
2172 Clear 27 1010 39 16093 7.2 170 18:45 10.09.2019
2173 Clear 26 1010 39 16093 8.2 150 18:22 10.09.2019
2174 Clear 25 1010 36 16093 8.2 150 17:57 10.09.2019
2175 Clear 25 1008 27 16093 3.1 180 17:39 10.09.2019
2176 Clear 25 1008 27 16093 3.1 180 17:20 10.09.2019
2177 Clear 24 1009 33 16093 5.1 160 16:57 10.09.2019
2178 Clear 24 1009 36 16093 2.6 210 16:38 10.09.2019
2179 Clear 24 1009 36 16093 2.6 210 16:38 10.09.2019
2180 Clear 23 1009 36 16093 2.6 210 16:19 10.09.2019
2181 Clouds 23 1008 38 16093 4.1 180 15:44 10.09.2019
2182 Clouds 23 1008 38 16093 4.1 180 15:23 10.09.2019
2183 Clouds 23 1008 44 16093 3.1 170 14:58 10.09.2019
2184 Clouds 24 1008 41 16093 4.1 160 14:39 10.09.2019
2185 Clouds 24 1008 41 16093 4.1 160 14:20 10.09.2019
2186 Clouds 24 1007 44 16093 5.1 170 13:47 10.09.2019
2187 Clear 25 1007 27 16093 1.5 0 13:23 10.09.2019
2188 Clouds 25 1007 41 16093 7.2 180 12:53 10.09.2019
2189 Clouds 25 1007 41 16093 7.2 180 12:53 10.09.2019
2190 Clouds 25 1007 41 16093 7.2 170 12:28 10.09.2019
2191 Clouds 26 1007 41 16093 6.2 190 11:59 10.09.2019
2192 Clouds 25 1007 41 16093 6.2 190 11:40 10.09.2019
2193 Clouds 26 1007 41 16093 6.2 190 11:22 10.09.2019
2194 Clouds 27 1007 36 16093 7.2 200 10:54 10.09.2019
2195 Clouds 27 1007 34 16093 7.2 210 10:36 10.09.2019
2196 Clouds 27 1007 34 16093 7.2 210 10:18 10.09.2019
2197 Clouds 28 1007 28 16093 5.7 180 09:42 10.09.2019
2198 Clouds 28 1007 28 16093 5.7 180 09:20 10.09.2019
2199 Clouds 28 1007 28 16093 5.7 180 09:20 10.09.2019
2200 Clouds 28 1007 25 16093 6.2 190 08:48 10.09.2019
2201 Clouds 28 1007 26 16093 6.7 190 08:29 10.09.2019
2202 Clouds 29 1007 30 16093 5.1 170 07:56 10.09.2019
2203 Clouds 29 1007 30 16093 8.2 190 07:38 10.09.2019
2204 Clouds 29 1007 30 16093 8.2 190 07:20 10.09.2019
2205 Clouds 30 1007 28 16093 8.7 180 06:40 10.09.2019
2206 Clouds 30 1007 28 16093 8.7 180 06:20 10.09.2019
2207 Clear 32 1006 27 16093 7.7 190 04:19 10.09.2019
2208 Clouds 33 1007 24 16093 10.3 160 02:39 10.09.2019
2209 Clouds 33 1007 24 16093 10.3 160 02:39 10.09.2019
2210 Clouds 33 1007 24 16093 10.3 160 02:39 10.09.2019
2211 Clouds 34 1007 24 16093 10.3 160 02:20 10.09.2019
2212 Clouds 34 1007 24 16093 10.3 160 02:20 10.09.2019
2213 Clouds 34 1007 24 16093 10.3 160 02:20 10.09.2019
2214 Clouds 34 1007 24 16093 10.3 160 02:20 10.09.2019
2215 Clear 34 1005 8 16093 7.7 160 01:50 10.09.2019
2216 Clear 34 1005 8 16093 7.7 160 01:50 10.09.2019
2217 Clear 34 1005 8 16093 7.7 160 01:50 10.09.2019
2218 Clear 35 1007 12 16093 11.3 180 01:22 10.09.2019
2219 Clear 35 1008 20 16093 7.2 150 00:36 10.09.2019
2220 Clear 35 1008 20 16093 7.2 150 00:36 10.09.2019
2221 Clear 35 1008 15 16093 11.8 150 23:56 09.09.2019
2222 Clear 35 1009 12 16093 9.8 150 23:36 09.09.2019
2223 Clear 35 1009 12 16093 9.8 150 23:18 09.09.2019
2224 Clear 34 1009 9 16093 8.7 160 22:54 09.09.2019
2225 Clear 34 1010 9 16093 8.7 140 22:36 09.09.2019
2226 Clear 34 1010 9 16093 8.7 140 22:18 09.09.2019
2227 Clear 33 1011 11 16093 10.3 160 21:55 09.09.2019
2228 Clear 33 1011 11 16093 10.3 150 21:36 09.09.2019
2229 Clear 33 1010 9 16093 4.26 207.683 21:18 09.09.2019
2230 Clear 31 1011 11 16093 8.2 160 20:54 09.09.2019
2231 Clear 31 1011 10 16093 8.2 150 20:36 09.09.2019
2232 Clear 31 1011 10 16093 8.2 150 20:18 09.09.2019
2233 Clear 30 1012 9 16093 7.2 140 19:55 09.09.2019
2234 Clear 30 1012 9 16093 6.7 160 19:36 09.09.2019
2235 Clear 29 1011 13 16093 2.1 80 19:18 09.09.2019
2236 Clear 28 1012 12 16093 2.6 130 18:41 09.09.2019
2237 Clear 27 1012 12 16093 2.6 130 18:22 09.09.2019
2238 Clear 25 1012 15 16093 2.6 60 17:59 09.09.2019
2239 Clear 25 1012 17 16093 2.1 70 17:41 09.09.2019
2240 Clear 24 1012 17 16093 2.1 70 17:21 09.09.2019
2241 Clear 23 1011 23 16093 0.97 139.226 16:57 09.09.2019
2242 Clear 22 1011 19 16093 0.97 139.226 16:38 09.09.2019
2243 Clear 22 1011 19 16093 0.97 139.226 16:20 09.09.2019
2244 Clear 21 1011 18 16093 2.1 350 15:56 09.09.2019
2245 Clear 21 1011 18 16093 2.1 350 15:56 09.09.2019
2246 Clouds 21 1011 24 16093 0.97 139.226 15:37 09.09.2019
2247 Clouds 21 1011 24 16093 0.29 3.515 15:18 09.09.2019
2248 Clouds 20 1010 25 16093 2.1 350 14:55 09.09.2019
2249 Clouds 21 1010 28 16093 0.29 3.515 14:37 09.09.2019
2250 Clouds 21 1010 28 16093 0.29 3.515 14:37 09.09.2019
2251 Clouds 21 1010 28 16093 0.29 3.515 14:19 09.09.2019
2252 Clouds 21 1010 28 16093 0.29 3.515 14:19 09.09.2019
2253 Clouds 22 1010 22 16093 0.29 3.515 13:44 09.09.2019
2254 Clouds 22 1010 22 16093 0.27 217.248 13:20 09.09.2019
2255 Clouds 23 1010 30 16093 1.5 60 12:58 09.09.2019
2256 Clouds 23 1010 26 16093 0.27 217.248 12:38 09.09.2019
2257 Clouds 23 1010 23 16093 1.21 285.743 12:20 09.09.2019
2258 Clouds 23 1010 24 16093 1.21 285.743 11:47 09.09.2019
2259 Clouds 23 1010 24 16093 1.21 285.743 11:23 09.09.2019
2260 Clouds 25 1009 26 16093 1.5 340 10:59 09.09.2019
2261 Clouds 25 1009 26 16093 1.5 340 10:41 09.09.2019
2262 Clouds 25 1009 26 16093 1.5 340 10:20 09.09.2019
2263 Clouds 26 1009 28 16093 2.1 30 09:56 09.09.2019
2264 Clouds 26 1009 23 16093 1.5 20 09:37 09.09.2019
2265 Clouds 26 1009 23 16093 1.5 20 09:37 09.09.2019
2266 Clouds 26 1009 23 16093 1.5 20 09:19 09.09.2019
2267 Clouds 27 1009 22 16093 2.1 70 08:38 09.09.2019
2268 Clouds 27 1009 22 16093 2.1 70 08:20 09.09.2019
2269 Clear 28 1008 10 16093 3.1 180 07:46 09.09.2019
2270 Clear 28 1008 10 16093 3.1 180 07:22 09.09.2019
2271 Clouds 29 1009 10 16093 2.1 130 06:56 09.09.2019
2272 Clouds 29 1009 10 16093 2.1 130 06:56 09.09.2019
2273 Clouds 29 1008 10 16093 2.6 150 06:32 09.09.2019
2274 Clouds 32 1007 8 16093 2.6 200 04:55 09.09.2019
2275 -273 0 0 0 0 0 04:55 09.09.2019
2276 -273 0 0 0 0 0 04:55 09.09.2019
2277 Clear 34 1007 8 16093 3.6 240 02:43 09.09.2019
2278 Clear 34 1007 8 16093 3.6 240 02:19 09.09.2019
2279 Clear 34 1008 8 16093 7.2 200 00:39 09.09.2019
2280 Clear 34 1008 8 16093 7.2 200 00:21 09.09.2019
2281 Clear 33 1008 9 16093 2.6 0 23:44 08.09.2019
2282 Clear 33 1008 9 16093 2.6 0 23:23 08.09.2019
2283 Clear 34 1009 9 16093 3.6 230 22:55 08.09.2019
2284 Clear 33 1009 10 16093 3.6 230 22:36 08.09.2019
2285 Clear 33 1009 10 16093 3.6 230 22:36 08.09.2019
2286 Clear 34 1009 10 16093 3.6 230 22:18 08.09.2019
2287 Clear 32 1009 11 16093 2.1 0 21:41 08.09.2019
2288 Clear 32 1009 11 16093 2.1 0 21:22 08.09.2019
2289 Clear 31 1009 11 16093 1.5 0 20:57 08.09.2019
2290 Clear 31 1009 10 16093 5.1 210 20:38 08.09.2019
2291 Clear 30 1009 10 16093 5.1 210 20:20 08.09.2019
2292 Clear 29 1009 11 14484 3.1 200 19:57 08.09.2019
2293 Clear 29 1009 11 16093 4.6 210 19:37 08.09.2019
2294 Clear 29 1009 11 16093 4.6 210 19:18 08.09.2019
2295 Clear 29 1009 11 16093 4.6 210 19:18 08.09.2019
2296 Clear 28 1009 13 16093 5.1 210 18:55 08.09.2019
2297 Clear 28 1009 13 16093 5.1 210 18:55 08.09.2019
2298 Clear 28 1009 14 16093 5.1 220 18:37 08.09.2019
2299 Clear 27 1008 17 16093 3.6 200 18:18 08.09.2019
2300 Clear 26 1009 14 16093 5.1 200 17:38 08.09.2019
2301 Clear 25 1009 14 16093 5.1 200 17:19 08.09.2019
2302 Clear 25 1009 16 16093 5.7 220 16:59 08.09.2019
2303 Clear 25 1009 15 16093 4.1 210 16:40 08.09.2019
2304 Clear 24 1009 15 16093 4.1 210 16:21 08.09.2019
2305 Dust 24 1008 13 16093 2.1 330 15:57 08.09.2019
2306 Dust 24 1008 12 16093 2.1 0 15:39 08.09.2019
2307 Dust 24 1008 12 16093 2.1 0 15:20 08.09.2019
2308 Dust 25 1008 13 16093 4.6 230 14:41 08.09.2019
2309 Dust 25 1008 13 16093 4.6 230 14:22 08.09.2019
2310 Dust 25 1008 13 16093 4.6 230 14:22 08.09.2019
2311 Clear 26 1007 13 16093 4.6 160 13:58 08.09.2019
2312 Clear 27 1007 14 16093 5.7 200 13:40 08.09.2019
2313 Clear 27 1007 14 16093 5.7 200 13:40 08.09.2019
2314 Clear 26 1007 14 16093 5.7 200 13:22 08.09.2019
2315 Clear 27 1007 14 16093 11.3 230 12:58 08.09.2019
2316 Clear 28 1007 30 16093 10.3 220 12:40 08.09.2019
2317 Clear 27 1007 33 16093 10.3 220 12:22 08.09.2019
2318 Clear 28 1007 18 16093 9.8 220 11:57 08.09.2019
2319 Clear 28 1007 20 16093 9.3 210 11:37 08.09.2019
2320 Clear 28 1007 20 16093 9.3 210 11:19 08.09.2019
2321 Clouds 30 1007 19 16093 8.2 220 10:43 08.09.2019
2322 Clouds 30 1007 19 16093 8.2 220 10:23 08.09.2019
2323 Clear 30 1007 17 16093 5.7 210 09:56 08.09.2019
2324 Clear 31 1007 20 16093 6.7 210 09:37 08.09.2019
2325 Clear 30 1007 20 16093 6.7 210 09:19 08.09.2019
2326 Clouds 32 1008 17 16093 9.3 220 08:40 08.09.2019
2327 Clouds 32 1008 17 16093 9.3 220 08:19 08.09.2019
2328 Clear 32 1007 16 16093 4.1 230 07:58 08.09.2019
2329 Clear 32 1007 15 16093 3.6 240 07:37 08.09.2019
2330 Clear 32 1007 15 16093 3.6 240 07:19 08.09.2019
2331 Clear 32 1008 15 16093 5.7 210 06:41 08.09.2019
2332 Clear 34 1008 13 16093 5.7 210 05:40 08.09.2019
2333 Clear 34 1008 13 16093 5.7 210 05:21 08.09.2019
2334 Clear 37 1007 10 16093 7.2 220 03:23 08.09.2019
2335 Clear 38 1007 10 16093 7.7 190 02:48 08.09.2019
2336 Clouds 39 1007 12 16093 5.7 240 01:54 08.09.2019
2337 Clear 39 1008 13 16093 7.7 160 01:29 08.09.2019
2338 Clear 39 1009 14 16093 9.3 170 00:49 08.09.2019
2339 Clear 39 1009 14 16093 6.7 170 00:30 08.09.2019
2340 Clear 39 1010 13 16093 6.7 200 23:57 07.09.2019
2341 Clouds 39 1011 14 16093 5.7 140 23:37 07.09.2019
2342 Clouds 38 1011 14 16093 5.7 140 23:18 07.09.2019
2343 Clear 39 1012 15 16093 4.6 150 22:43 07.09.2019
2344 Clear 38 1012 15 16093 4.6 150 22:25 07.09.2019
2345 Clear 38 1012 16 16093 4.6 130 21:56 07.09.2019
2346 Clear 37 1013 15 16093 4.1 160 21:38 07.09.2019
2347 Clear 37 1013 15 16093 4.1 160 21:20 07.09.2019
2348 Clear 37 1013 15 16093 4.1 160 21:20 07.09.2019
2349 Clear 36 1014 16 16093 1.5 0 20:40 07.09.2019
2350 Clear 36 1014 16 16093 1.5 0 20:21 07.09.2019
2351 Clear 35 1014 18 16093 2.6 0 19:57 07.09.2019
2352 Clear 34 1014 20 16093 1.5 70 19:38 07.09.2019
2353 Clear 34 1014 20 16093 1.5 70 19:19 07.09.2019
2354 Clear 33 1015 22 16093 2.55 192.777 18:58 07.09.2019
2355 Clear 34 1015 22 16093 2.55 192.777 18:58 07.09.2019
2356 Clear 33 1015 21 16093 2.55 192.777 18:39 07.09.2019
2357 Clear 32 1015 21 16093 0.5 308.767 18:20 07.09.2019
2358 Clear 31 1015 25 16093 1.5 200 17:58 07.09.2019
2359 Clear 31 1015 25 16093 1.5 200 17:58 07.09.2019
2360 Clear 31 1015 27 16093 0.5 308.767 17:39 07.09.2019
2361 Clear 30 1015 27 16093 0.5 308.767 17:18 07.09.2019
2362 Clouds 29 1014 28 16093 0.5 308.767 16:56 07.09.2019
2363 Clouds 28 1014 28 16093 0.5 308.767 16:37 07.09.2019
2364 Clouds 28 1014 28 16093 0.5 308.767 16:18 07.09.2019
2365 Clear 27 1014 32 16093 0.5 308.767 15:44 07.09.2019
2366 Clear 27 1014 32 16093 0.5 308.767 15:25 07.09.2019
2367 Clear 27 1014 36 16093 1.5 330 14:56 07.09.2019
2368 Clouds 27 1014 36 16093 1.5 330 14:36 07.09.2019
2369 Clouds 27 1014 36 16093 1.5 330 14:36 07.09.2019
2370 Clouds 27 1014 36 16093 1.5 330 14:18 07.09.2019
2371 Clear 29 1014 34 16093 1.63 265.924 13:44 07.09.2019
2372 Clear 28 1014 34 16093 1.7 268.617 13:25 07.09.2019
2373 Clouds 29 1014 30 16093 1.7 268.617 12:55 07.09.2019
2374 Clear 29 1014 30 16093 1.7 268.617 12:37 07.09.2019
2375 Clear 29 1014 30 16093 1.7 268.617 12:37 07.09.2019
2376 Clear 29 1014 30 16093 1.61 291.775 12:19 07.09.2019
2377 Clear 30 1014 28 16093 1.61 291.775 11:41 07.09.2019
2378 Clear 30 1014 28 16093 1.61 291.775 11:41 07.09.2019
2379 Clear 30 1014 28 16093 1.61 291.775 11:22 07.09.2019
2380 Clear 30 1014 34 16093 1.61 291.775 10:42 07.09.2019
2381 Clear 30 1014 34 16093 1.61 291.775 10:42 07.09.2019
2382 Clear 30 1014 34 16093 1.61 291.775 10:23 07.09.2019
2383 Clear 31 1014 28 16093 1.61 291.775 09:59 07.09.2019
2384 Clear 31 1014 32 16093 1.61 291.775 09:41 07.09.2019
2385 Clear 31 1014 32 16093 2.04 269.187 09:21 07.09.2019
2386 Clear 32 1014 28 16093 1.39 256.014 08:49 07.09.2019
2387 Clear 32 1014 28 16093 1.39 256.014 08:31 07.09.2019
2388 Clouds 33 1014 24 16093 1.39 256.014 07:57 07.09.2019
2389 Clear 33 1014 21 16093 2.1 220 07:38 07.09.2019
2390 Clear 33 1014 21 16093 2.1 220 07:20 07.09.2019
2391 Clear 34 1014 20 16093 2.1 200 06:42 07.09.2019
2392 Clear 35 1014 19 16093 2.1 220 05:39 07.09.2019
2393 Clear 36 1013 19 16093 5.1 170 04:26 07.09.2019
2394 Clouds 38 1013 19 16093 2.96 277.558 03:41 07.09.2019
2395 Clouds 39 1013 18 16093 4.6 200 02:22 07.09.2019
2396 Clear 39 1013 19 16093 2.6 0 01:29 07.09.2019
2397 Clouds 39 1014 18 16093 4.6 170 00:54 07.09.2019
2398 Clouds 39 1014 19 16093 2.6 0 00:23 07.09.2019
2399 Clear 38 1015 18 16093 5.7 170 23:59 06.09.2019
2400 Clear 39 1015 18 16093 4.6 120 23:38 06.09.2019
2401 Clear 38 1015 18 16093 4.6 120 23:19 06.09.2019
2402 Clear 38 1015 18 16093 4.6 120 23:19 06.09.2019
2403 -273 0 0 0 0 0 22:55 06.09.2019
2404 Clouds 38 1016 22 16093 3.6 60 22:36 06.09.2019
2405 Clouds 38 1016 22 16093 3.6 60 22:18 06.09.2019
2406 Clear 36 1017 23 16093 1.5 0 21:42 06.09.2019
2407 Clear 35 1017 23 16093 1.5 0 21:23 06.09.2019
2408 Clear 35 1017 23 16093 1.5 0 20:59 06.09.2019
2409 Clear 35 1018 24 16093 2.58 188.709 20:40 06.09.2019
2410 Clear 35 1018 24 16093 2.58 188.709 20:21 06.09.2019
2411 Clear 34 1018 26 16093 2.1 90 19:58 06.09.2019
2412 Clear 34 1018 29 16093 2.58 188.709 19:40 06.09.2019
2413 Clear 34 1018 29 16093 2.58 188.709 19:21 06.09.2019
2414 Clear 32 1018 35 16093 2.58 188.709 18:50 06.09.2019
2415 Clear 31 1018 35 16093 2.58 188.709 18:32 06.09.2019
2416 Clear 30 1018 42 16093 0.93 156.793 17:59 06.09.2019
2417 Clear 30 1018 42 16093 0.93 156.793 17:59 06.09.2019
2418 Clear 30 1018 45 16093 0.93 156.793 17:39 06.09.2019
2419 Clear 29 1018 45 16093 0.93 156.793 17:20 06.09.2019
2420 Clear 29 1018 45 16093 0.93 156.793 17:20 06.09.2019
2421 Clear 28 1018 54 16093 0.93 156.793 16:42 06.09.2019
2422 Clear 27 1018 54 16093 0.93 156.793 16:20 06.09.2019
2423 Clear 27 1017 60 16093 0.93 156.793 15:59 06.09.2019
2424 Clear 26 1017 57 16093 0.93 156.793 15:40 06.09.2019
2425 Clear 26 1017 57 16093 1.13 336.443 15:22 06.09.2019
2426 Clear 26 1017 60 16093 1.13 336.443 14:41 06.09.2019
2427 Clear 26 1017 60 16093 1.13 336.443 14:19 06.09.2019
2428 Clear 27 1017 47 16093 1.13 336.443 13:44 06.09.2019
2429 Clear 27 1017 47 16093 1.34 65.704 13:23 06.09.2019
2430 Clouds 27 1016 47 16093 1.34 65.704 12:56 06.09.2019
2431 Clear 27 1016 47 16093 1.34 65.704 12:36 06.09.2019
2432 Clear 27 1016 47 16093 0.71 300.256 12:18 06.09.2019
2433 Clear 27 1016 47 16093 0.71 300.256 12:18 06.09.2019
2434 Clear 28 1016 44 16093 0.71 300.256 11:40 06.09.2019
2435 Clear 28 1016 44 16093 0.71 300.256 11:22 06.09.2019
2436 Clouds 29 1017 42 16093 0.71 300.256 10:56 06.09.2019
2437 Clouds 29 1017 47 16093 0.71 300.256 10:38 06.09.2019
2438 Clouds 29 1017 47 16093 0.97 277.396 10:18 06.09.2019
2439 Clear 29 1017 42 16093 0.97 277.396 09:38 06.09.2019
2440 Clear 29 1017 42 16093 1.2 165.464 09:19 06.09.2019
2441 Clear 30 1017 45 16093 1.2 165.464 08:55 06.09.2019
2442 Clear 30 1017 45 16093 1.2 165.464 08:55 06.09.2019
2443 Clear 30 1017 47 16093 2.6 340 08:37 06.09.2019
2444 Clear 30 1017 47 16093 2.6 340 08:18 06.09.2019
2445 Clear 30 1017 47 16093 2.6 340 08:18 06.09.2019
2446 Clear 30 1017 42 16093 1.2 165.464 07:42 06.09.2019
2447 Clear 30 1017 42 16093 1.2 165.464 07:23 06.09.2019
2448 Clear 31 1017 39 16093 1.5 320 06:43 06.09.2019
2449 Thunderstorm 31 1016 33 16093 2.78 204.785 05:58 06.09.2019
2450 Rain 32 1015 33 16093 3.1 130 04:57 06.09.2019
2451 Thunderstorm 33 1016 38 16093 8.2 110 04:26 06.09.2019
2452 Thunderstorm 37 1014 17 16093 3.1 0 03:29 06.09.2019
2453 Rain 38 1014 15 16093 2.1 130 01:47 06.09.2019
2454 Rain 38 1015 17 16093 3.1 250 00:23 06.09.2019
2455 Rain 38 1016 17 16093 2.1 0 23:43 05.09.2019
2456 Rain 37 1016 17 16093 2.1 0 23:23 05.09.2019
2457 Rain 36 1017 17 16093 3.6 10 22:46 05.09.2019
2458 Rain 37 1017 17 16093 3.6 10 22:28 05.09.2019
2459 Clear 36 1017 17 16093 4.6 360 21:58 05.09.2019
2460 Clear 36 1017 19 16093 3.6 50 21:40 05.09.2019
2461 Clear 36 1017 19 16093 3.6 50 21:20 05.09.2019
2462 Clear 36 1017 18 16093 2.1 0 20:58 05.09.2019
2463 Clear 36 1017 19 16093 4.1 260 20:40 05.09.2019
2464 Clear 36 1017 19 16093 4.1 260 20:21 05.09.2019
2465 Clear 35 1018 20 16093 2.1 250 19:59 05.09.2019
2466 Clear 35 1018 21 16093 2.6 290 19:41 05.09.2019
2467 -273 0 0 0 0 0 19:22 05.09.2019
2468 Clear 33 1018 24 16093 1.5 0 18:45 05.09.2019
2469 Clear 33 1018 24 16093 1.5 0 18:27 05.09.2019
2470 Clear 32 1018 25 16093 2.93 53.865 17:59 05.09.2019
2471 Clear 32 1018 29 16093 2.93 53.865 17:40 05.09.2019
2472 Clear 31 1018 29 16093 2.93 53.865 17:22 05.09.2019
2473 Rain 30 1017 30 0 2.6 290 16:57 05.09.2019
2474 Rain 30 1017 30 16093 1.5 180 16:39 05.09.2019
2475 Clouds 29 1018 32 16093 4.6 220 16:19 05.09.2019
2476 Clear 29 1016 34 16093 2.93 53.865 15:40 05.09.2019
2477 Clear 29 1016 34 16093 1.62 68.231 15:19 05.09.2019
2478 Clear 29 1015 34 16093 2.6 360 14:58 05.09.2019
2479 Clear 29 1015 37 16093 2.6 10 14:40 05.09.2019
2480 Clear 29 1015 37 16093 2.6 10 14:19 05.09.2019
2481 Clear 31 1015 32 16093 2.6 20 13:43 05.09.2019
2482 Clear 31 1015 32 16093 2.6 20 13:21 05.09.2019
2483 Clear 31 1014 29 16093 2.1 80 12:46 05.09.2019
2484 Clear 32 1014 29 16093 2.1 80 12:26 05.09.2019
2485 Clear 32 1014 30 16093 3.6 110 11:58 05.09.2019
2486 Clear 32 1014 27 16093 3.1 360 11:39 05.09.2019
2487 Clear 32 1014 27 16093 3.1 360 11:18 05.09.2019
2488 Clouds 33 1016 24 16093 6.7 180 10:42 05.09.2019
2489 Clouds 33 1014 22 16093 2.6 250 10:22 05.09.2019
2490 Clouds 33 1014 24 16093 3.1 220 09:58 05.09.2019
2491 Clouds 33 1014 24 16093 3.1 220 09:58 05.09.2019
2492 Clouds 33 1013 24 16093 2.1 40 09:38 05.09.2019
2493 Clouds 32 1013 24 16093 2.1 40 09:18 05.09.2019
2494 Clouds 32 1013 24 16093 2.1 40 09:18 05.09.2019
2495 Clouds 32 1013 24 16093 2.1 40 09:18 05.09.2019
2496 Clouds 32 1013 24 16093 2.1 40 09:18 05.09.2019
2497 Clear 33 1014 20 16093 3.6 130 08:45 05.09.2019
2498 Clear 33 1014 20 16093 3.6 130 08:26 05.09.2019
2499 Clear 34 1013 24 16093 1.08 71.228 07:46 05.09.2019
2500 Clear 34 1013 24 16093 1.08 71.228 07:27 05.09.2019
2501 Clouds 35 1013 24 16093 2.6 110 06:54 05.09.2019
2502 Clear 35 1013 21 16093 2.6 90 06:30 05.09.2019
2503 Clear 35 1013 21 16093 2.6 90 06:30 05.09.2019
2504 Rain 35 1012 19 16093 3.1 250 05:50 05.09.2019
2505 Rain 35 1012 19 16093 3.1 250 05:30 05.09.2019
2506 Rain 36 1011 17 16093 5.1 220 04:50 05.09.2019
2507 Rain 36 1012 17 16093 3.6 200 04:24 05.09.2019
2508 Rain 39 1011 15 16093 5.7 110 03:38 05.09.2019
2509 Rain 39 1010 12 16093 4.6 100 02:46 05.09.2019
2510 Rain 39 1010 12 16093 4.6 100 02:26 05.09.2019
2511 Rain 40 1010 13 16093 2.6 120 01:36 05.09.2019
2512 Clear 39 1011 12 16093 4.1 50 00:42 05.09.2019
2513 Clear 40 1011 12 16093 4.1 50 00:20 05.09.2019
2514 Clear 40 1012 11 16093 3.1 0 23:48 04.09.2019
2515 Clear 41 1012 11 16093 3.1 0 23:26 04.09.2019
2516 Clear 40 1012 14 16093 5.1 40 22:59 04.09.2019
2517 Clear 40 1013 13 16093 5.1 60 22:40 04.09.2019
2518 Clouds 40 1013 14 16093 4.6 60 22:18 04.09.2019
2519 Clear 39 1013 15 16093 3.1 0 21:40 04.09.2019
2520 Clear 39 1013 15 16093 3.1 0 21:20 04.09.2019
2521 Clear 39 1013 15 16093 3.1 0 21:20 04.09.2019
2522 Clear 37 1014 17 16093 3.34 184.875 20:56 04.09.2019
2523 Clear 37 1014 17 16093 1.5 0 20:38 04.09.2019
2524 Clear 37 1014 17 16093 1.5 0 20:19 04.09.2019
2525 Clear 36 1014 19 16093 3.1 30 19:56 04.09.2019
2526 Clear 36 1014 20 16093 2.1 40 19:37 04.09.2019
2527 Clouds 36 1014 19 16093 3.34 184.875 19:19 04.09.2019
2528 Clear 34 1014 22 16093 3.34 184.875 18:38 04.09.2019
2529 Clouds 33 1014 24 16093 1.5 0 18:19 04.09.2019
2530 Clear 32 1014 27 16093 0.9 332.605 17:41 04.09.2019
2531 Clear 31 1014 27 16093 0.9 332.605 17:23 04.09.2019
2532 Clear 31 1014 27 16093 0.9 332.605 17:23 04.09.2019
2533 Clear 29 1014 30 16093 0.9 332.605 16:58 04.09.2019
2534 Clear 28 1013 36 16093 0.9 332.605 16:40 04.09.2019
2535 Clear 28 1013 36 16093 0.9 332.605 16:21 04.09.2019
2536 Clear 28 1013 34 16093 0.9 332.605 15:55 04.09.2019
2537 Clear 27 1013 36 16093 0.9 332.605 15:37 04.09.2019
2538 Clear 27 1013 36 16093 0.95 269.219 15:18 04.09.2019
2539 Clouds 27 1013 36 16093 0.95 269.219 14:54 04.09.2019
2540 Clouds 27 1013 39 16093 0.95 269.219 14:36 04.09.2019
2541 Clouds 27 1013 39 16093 0.95 269.219 14:18 04.09.2019
2542 Clouds 28 1012 32 16093 0.95 269.219 13:39 04.09.2019
2543 Clouds 29 1012 32 16093 1.35 263.07 13:21 04.09.2019
2544 Clear 29 1012 30 16093 1.35 263.07 12:46 04.09.2019
2545 Clear 29 1012 30 16093 1.35 263.07 12:27 04.09.2019
2546 Clouds 29 1012 32 16093 2.6 320 11:59 04.09.2019
2547 Clear 29 1012 32 16093 2.6 330 11:40 04.09.2019
2548 Clear 30 1012 32 16093 2.6 330 11:21 04.09.2019
2549 Clear 30 1012 32 16093 2.1 320 10:57 04.09.2019
2550 Clear 30 1012 28 16093 2.6 310 10:38 04.09.2019
2551 Clear 30 1012 28 16093 2.6 310 10:20 04.09.2019
2552 Clear 30 1012 27 16093 2.1 280 09:46 04.09.2019
2553 Clear 31 1012 27 16093 2.1 280 09:21 04.09.2019
2554 Clear 32 1012 37 16093 1.36 290.123 08:43 04.09.2019
2555 Clear 32 1012 37 16093 1.36 290.123 08:24 04.09.2019
2556 Clear 33 1012 33 16093 1.36 290.123 08:00 04.09.2019
2557 Clear 33 1012 24 16093 1.5 310 07:37 04.09.2019
2558 Clear 33 1012 27 16093 2.1 320 06:59 04.09.2019
2559 Clear 33 1012 31 16093 1.36 290.123 06:39 04.09.2019
2560 Clear 33 1012 31 16093 1.36 290.123 06:39 04.09.2019
2561 Clear 36 1011 21 16093 3.06 274.198 04:55 04.09.2019
2562 Clear 36 1011 19 16093 3.06 274.198 04:23 04.09.2019
2563 Rain 38 1011 17 16093 2.09 232.9 02:51 04.09.2019
2564 Rain 39 1011 18 16093 7.2 220 01:20 04.09.2019
2565 Rain 40 1012 15 16093 2.48 262.196 00:45 04.09.2019
2566 Rain 40 1012 15 16093 2.48 262.196 00:27 04.09.2019
2567 Clear 39 1012 16 16093 2.1 0 23:52 03.09.2019
2568 Clear 39 1013 16 16093 3.08 233.231 23:27 03.09.2019
2569 Clear 38 1014 18 16093 2.1 0 22:43 03.09.2019
2570 Clear 38 1014 18 16093 2.1 0 22:25 03.09.2019
2571 Clear 37 1014 18 16093 2.6 0 21:59 03.09.2019
2572 Clear 37 1014 18 16093 2.6 0 21:59 03.09.2019
2573 Clear 37 1014 19 16093 2.6 290 21:39 03.09.2019
2574 Clear 37 1014 19 16093 2.6 290 21:20 03.09.2019
2575 Clear 36 1015 19 16093 2.21 189.237 20:59 03.09.2019
2576 Clear 36 1015 22 16093 1.5 110 20:40 03.09.2019
2577 Clear 36 1015 22 16093 1.5 110 20:21 03.09.2019
2578 Clear 35 1016 23 16093 2.21 189.237 19:55 03.09.2019
2579 -273 0 0 0 0 0 19:55 03.09.2019
2580 Clear 35 1016 23 16093 2.21 189.237 19:55 03.09.2019
2581 -273 0 0 0 0 0 19:55 03.09.2019
2582 Clear 35 1016 23 16093 2.21 189.237 19:36 03.09.2019
2583 Clouds 34 1016 24 16093 2.1 70 19:18 03.09.2019
2584 Clear 33 1016 27 16093 2.21 189.237 18:42 03.09.2019
2585 Clear 32 1016 27 16093 0.57 30.322 18:24 03.09.2019
2586 Clear 31 1016 29 16093 0.57 30.322 17:56 03.09.2019
2587 Clear 31 1016 30 16093 0.57 30.322 17:38 03.09.2019
2588 Clear 31 1016 30 16093 0.57 30.322 17:19 03.09.2019
2589 Clear 29 1015 39 16093 0.57 30.322 16:43 03.09.2019
2590 Clear 28 1015 39 16093 0.57 30.322 16:23 03.09.2019
2591 Clear 27 1015 41 16093 0.57 30.322 15:58 03.09.2019
2592 Clear 27 1015 47 16093 0.57 30.322 15:39 03.09.2019
2593 Clear 26 1015 47 16093 0.74 317.961 15:20 03.09.2019
2594 Clouds 27 1015 44 16093 0.74 317.961 14:56 03.09.2019
2595 Clouds 27 1015 44 16093 0.74 317.961 14:37 03.09.2019
2596 Clouds 27 1015 44 16093 0.74 317.961 14:19 03.09.2019
2597 Clouds 27 1014 44 16093 2.1 30 13:56 03.09.2019
2598 Clouds 28 1014 37 16093 0.74 317.961 13:37 03.09.2019
2599 Clouds 28 1014 37 16093 0.79 145.866 13:19 03.09.2019
2600 Clouds 28 1014 47 16093 0.79 145.866 12:48 03.09.2019
2601 Clouds 28 1014 47 16093 0.79 145.866 12:29 03.09.2019
2602 Clouds 28 1014 37 16093 0.57 195.806 11:44 03.09.2019
2603 Clouds 29 1014 37 16093 0.57 195.806 11:26 03.09.2019
2604 Clouds 29 1014 42 16093 2.1 350 10:59 03.09.2019
2605 Clouds 29 1014 45 16093 0.57 195.806 10:40 03.09.2019
2606 Clouds 29 1014 45 16093 0.57 195.806 10:22 03.09.2019
2607 Clouds 29 1014 45 16093 0.57 195.806 10:22 03.09.2019
2608 Clouds 30 1015 37 16093 2.6 50 09:53 03.09.2019
2609 Clear 30 1014 35 16093 2.1 70 09:33 03.09.2019
2610 Clouds 31 1014 37 16093 2.6 100 08:58 03.09.2019
2611 Clouds 31 1014 40 16093 1.11 100.917 08:38 03.09.2019
2612 Clouds 31 1014 40 16093 1.11 100.917 08:19 03.09.2019
2613 Clear 33 1015 28 16093 1.5 0 07:43 03.09.2019
2614 Clear 32 1015 28 16093 1.5 0 07:24 03.09.2019
2615 Clear 33 1015 35 16093 2.6 10 06:54 03.09.2019
2616 Clear 33 1014 28 16093 1.11 100.917 06:36 03.09.2019
2617 Clear 37 1013 22 16093 4.6 90 03:44 03.09.2019
2618 Clouds 37 1013 22 16093 3.1 50 02:49 03.09.2019
2619 Clouds 37 1013 19 16093 3.1 340 02:30 03.09.2019
2620 Clear 37 1013 19 16093 3.6 40 01:58 03.09.2019
2621 Clear 37 1013 19 16093 4.97 225.668 01:40 03.09.2019
2622 Clear 37 1013 19 16093 4.1 227.175 01:21 03.09.2019
2623 Clear 37 1014 20 16093 2.1 0 00:28 03.09.2019
2624 Clear 36 1015 20 16093 1.86 148.528 23:56 02.09.2019
2625 Clear 36 1015 22 16093 2.6 40 23:36 02.09.2019
2626 Clear 36 1015 22 16093 2.6 40 23:18 02.09.2019
2627 Clear 35 1016 20 16093 1.86 148.528 22:54 02.09.2019
2628 Clear 34 1016 22 16093 2.6 70 22:36 02.09.2019
2629 Clear 35 1016 22 16093 2.6 70 22:18 02.09.2019
2630 Clear 34 1017 22 16093 3.1 0 21:54 02.09.2019
2631 Clear 33 1017 23 16093 2.1 0 21:36 02.09.2019
2632 Clear 33 1017 23 16093 2.1 0 21:18 02.09.2019
2633 Clear 32 1017 26 16093 3.6 80 20:40 02.09.2019
2634 Clear 32 1017 26 16093 3.6 80 20:21 02.09.2019
2635 Rain 30 1017 35 16093 2.1 70 19:57 02.09.2019
2636 Rain 30 1017 35 16093 2.1 70 19:57 02.09.2019
2637 Rain 30 1018 31 16093 4.1 110 19:39 02.09.2019
2638 Rain 30 1017 35 16093 2.1 70 19:20 02.09.2019
2639 Clear 30 1018 33 16093 2.6 110 18:41 02.09.2019
2640 Clear 29 1018 33 16093 2.6 110 18:22 02.09.2019
2641 Rain 29 1017 39 16093 3.1 90 17:58 02.09.2019
2642 Rain 28 1017 39 16093 3.1 60 17:39 02.09.2019
2643 Rain 28 1017 39 16093 3.1 60 17:21 02.09.2019
2644 Rain 28 1015 42 16093 8.2 350 16:58 02.09.2019
2645 Rain 28 1017 44 16093 5.1 50 16:37 02.09.2019
2646 Rain 28 1017 44 16093 5.1 50 16:19 02.09.2019
2647 Clear 28 1016 44 16093 3.1 20 15:44 02.09.2019
2648 Clear 28 1016 44 16093 3.1 20 15:22 02.09.2019
2649 Dust 28 1016 44 16093 2.1 0 14:56 02.09.2019
2650 Dust 29 1015 37 16093 4.6 100 14:37 02.09.2019
2651 Dust 29 1015 37 16093 4.6 100 14:19 02.09.2019
2652 Dust 29 1016 47 16093 4.1 90 13:54 02.09.2019
2653 Dust 29 1016 47 16093 2.6 120 13:36 02.09.2019
2654 Dust 29 1016 31 16093 4.1 170 13:18 02.09.2019
2655 Dust 30 1016 31 16093 2.6 170 12:41 02.09.2019
2656 Dust 30 1016 31 16093 2.6 170 12:23 02.09.2019
2657 Dust 30 1017 45 16093 6.7 130 11:58 02.09.2019
2658 Dust 30 1017 39 16093 3.6 180 11:38 02.09.2019
2659 Dust 30 1017 39 16093 3.6 180 11:19 02.09.2019
2660 Dust 30 1017 37 16093 11.3 220 10:43 02.09.2019
2661 Dust 30 1015 33 12874 8.2 190 10:23 02.09.2019
2662 Dust 33 1016 40 16093 11.3 250 09:59 02.09.2019
2663 Thunderstorm 34 1016 33 8047 13.9 190 09:40 02.09.2019
2664 Clouds 35 1013 16 16093 5.1 170 09:20 02.09.2019
2665 Clear 35 1014 20 16093 6.7 150 08:44 02.09.2019
2666 Clear 35 1014 20 16093 6.7 150 08:22 02.09.2019
2667 Clear 35 1013 17 16093 1.62 233.286 07:57 02.09.2019
2668 Clear 35 1013 16 16093 1.62 233.286 07:38 02.09.2019
2669 Clear 35 1013 16 16093 1.62 233.286 07:20 02.09.2019
2670 Clear 37 1012 22 16093 3.1 180 06:43 02.09.2019
2671 Clear 37 1012 22 16093 5.1 160 05:54 02.09.2019
2672 Clear 37 1012 22 16093 5.1 160 05:54 02.09.2019
2673 Clear 37 1012 20 16093 5.1 160 05:26 02.09.2019
2674 Clear 38 1011 22 16093 5.1 160 04:48 02.09.2019
2675 Clear 41 1011 12 16093 7.2 130 02:29 02.09.2019
2676 Clear 41 1011 13 16093 7.2 150 01:41 02.09.2019
2677 Clear 41 1012 12 16093 6.7 170 00:42 02.09.2019
2678 Clear 41 1013 14 16093 6.2 130 00:20 02.09.2019
2679 Clear 41 1013 12 16093 4.1 100 23:39 01.09.2019
2680 Clear 40 1013 12 16093 4.1 100 23:19 01.09.2019
2681 Clear 40 1013 12 16093 3.1 330 22:56 01.09.2019
2682 Clear 40 1014 12 16093 5.33 221.163 22:38 01.09.2019
2683 Clouds 39 1014 8 16093 5.1 110 22:18 01.09.2019
2684 Smoke 39 1015 12 16093 3.1 200 21:43 01.09.2019
2685 Smoke 38 1015 12 16093 3.1 200 21:23 01.09.2019
2686 Smoke 38 1015 12 16093 3.1 200 21:23 01.09.2019
2687 Smoke 37 1015 14 16093 3.1 170 20:58 01.09.2019
2688 Smoke 37 1015 13 16093 3.6 120 20:40 01.09.2019
2689 Smoke 36 1015 13 16093 3.6 120 20:19 01.09.2019
2690 Clear 35 1015 13 16093 4.6 150 19:59 01.09.2019
2691 Clear 35 1015 12 16093 3.6 190 19:40 01.09.2019
2692 Clouds 34 1015 8 16093 2.1 360 19:21 01.09.2019
2693 Clear 33 1015 15 16093 2.1 0 18:48 01.09.2019
2694 Clear 33 1015 15 16093 2.1 0 18:30 01.09.2019
2695 Clear 31 1015 11 16093 2.1 50 17:59 01.09.2019
2696 Clear 30 1015 12 16093 2.1 40 17:39 01.09.2019
2697 Clear 29 1015 12 16093 2.1 40 17:21 01.09.2019
2698 Clear 27 1015 21 16093 0.55 217.367 16:41 01.09.2019
2699 Clear 27 1015 21 16093 0.55 217.367 16:22 01.09.2019
2700 Clear 26 1014 16 16093 0.55 217.367 15:59 01.09.2019
2701 Clear 25 1014 9 16093 0.55 217.367 15:41 01.09.2019
2702 Clear 23 1014 12 16093 1.62 264.05 15:23 01.09.2019
2703 Clouds 24 1013 12 16093 1.62 264.05 14:44 01.09.2019
2704 Clouds 24 1013 12 16093 1.62 264.05 14:26 01.09.2019
2705 Clouds 24 1013 12 16093 1.62 264.05 13:59 01.09.2019
2706 Clouds 24 1013 22 16093 2.1 110 13:40 01.09.2019
2707 Clouds 24 1013 22 16093 2.1 110 13:40 01.09.2019
2708 Clouds 24 1013 22 16093 2.1 110 13:22 01.09.2019
2709 Clouds 25 1012 19 16093 1.44 247.047 12:44 01.09.2019
2710 Clouds 26 1012 19 16093 1.44 247.047 12:26 01.09.2019
2711 Clouds 26 1012 19 16093 1.44 247.047 12:26 01.09.2019
2712 Clouds 26 1012 17 16093 1.5 340 11:57 01.09.2019
2713 Clear 26 1013 17 16093 1.56 256.446 11:38 01.09.2019
2714 Clear 27 1013 17 16093 1.56 256.446 11:18 01.09.2019
2715 Clear 28 1012 17 16093 1.56 256.446 10:44 01.09.2019
2716 Clear 28 1012 17 16093 1.56 256.446 10:44 01.09.2019
2717 Clear 28 1012 17 16093 1.56 256.446 10:23 01.09.2019
2718 Clear 29 1012 14 16093 1.56 256.446 09:47 01.09.2019
2719 Clear 28 1012 14 16093 2.1 330 09:26 01.09.2019
2720 Clear 31 1012 14 16093 3.6 320 08:56 01.09.2019
2721 Clear 31 1012 14 16093 3.6 320 08:56 01.09.2019
2722 Clear 30 1012 18 16093 2.6 350 08:37 01.09.2019
2723 Clear 31 1011 5 16093 2.6 200 08:19 01.09.2019
2724 Clear 32 1012 18 16093 1.5 60 07:41 01.09.2019
2725 Clear 32 1012 18 16093 1.5 60 07:19 01.09.2019
2726 Clear 34 1011 18 16093 1.5 50 06:38 01.09.2019
2727 Clear 36 1011 13 16093 3.6 160 05:58 01.09.2019
2728 Clear 39 1010 10 16093 4.6 170 04:36 01.09.2019
2729 Clear 41 1009 9 16093 8.7 150 03:44 01.09.2019
2730 Clear 41 1010 8 16093 7.7 150 02:59 01.09.2019
2731 Clear 41 1010 8 16093 7.7 150 02:30 01.09.2019
2732 Clear 41 1010 8 16093 6.2 160 01:58 01.09.2019
2733 Clear 41 1010 8 16093 6.2 160 01:26 01.09.2019
2734 Clear 41 1011 9 16093 4.6 130 00:47 01.09.2019
2735 Clear 41 1011 9 16093 4.6 130 00:23 01.09.2019
2736 Clear 41 1012 9 16093 5.1 170 23:56 31.08.2019
2737 Clear 41 1012 8 16093 5.7 150 23:38 31.08.2019
2738 Clear 41 1012 8 16093 5.7 150 23:18 31.08.2019
2739 Clear 41 1012 8 16093 5.7 150 23:18 31.08.2019
2740 Clear 40 1013 8 16093 1.5 0 22:54 31.08.2019
2741 Clear 40 1013 8 16093 5.77 214.191 22:36 31.08.2019
2742 Clear 40 1013 8 16093 5.77 214.191 22:36 31.08.2019
2743 Clear 40 1013 8 16093 5.77 214.191 22:18 31.08.2019
2744 Clear 39 1014 9 16093 1.5 0 21:40 31.08.2019
2745 Clear 39 1014 9 16093 1.5 0 21:40 31.08.2019
2746 Clear 39 1014 9 16093 1.5 0 21:21 31.08.2019
2747 Clear 37 1014 9 16093 3.6 150 20:49 31.08.2019
2748 Clear 37 1014 9 16093 2.6 0 20:31 31.08.2019
2749 Clear 35 1014 10 16093 2.1 0 19:57 31.08.2019
2750 Clear 36 1014 11 16093 3.54 216.395 19:39 31.08.2019
2751 Clear 35 1014 11 16093 3.54 216.395 19:21 31.08.2019
2752 Clear 35 1014 11 16093 3.54 216.395 19:21 31.08.2019
2753 Clear 34 1014 13 16093 3.54 216.395 18:40 31.08.2019
2754 Clear 33 1014 13 16093 1.2 244.827 18:21 31.08.2019
2755 Clear 31 1014 13 16093 1.2 244.827 17:58 31.08.2019
2756 Clear 30 1014 17 16093 1.2 244.827 17:37 31.08.2019
2757 Clear 30 1014 17 16093 1.2 244.827 17:37 31.08.2019
2758 Clear 30 1014 17 16093 1.2 244.827 17:19 31.08.2019
2759 Clear 28 1014 21 16093 1.2 244.827 16:59 31.08.2019
2760 Clear 28 1014 24 16093 1.2 244.827 16:40 31.08.2019
2761 Clear 27 1014 24 16093 1.2 244.827 16:21 31.08.2019
2762 Clear 27 1013 23 16093 1.2 244.827 15:58 31.08.2019
2763 Clear 26 1013 23 16093 1.2 244.827 15:37 31.08.2019
2764 Clear 26 1013 23 16093 1.37 264.306 15:18 31.08.2019
2765 Clear 25 1013 27 16093 2.1 10 14:41 31.08.2019
2766 Clear 26 1013 27 16093 2.1 10 14:22 31.08.2019
2767 Clear 27 1012 22 16093 1.37 264.306 13:42 31.08.2019
2768 Clear 27 1012 22 16093 1.53 268.163 13:23 31.08.2019
2769 Clear 28 1012 22 16093 2.6 360 12:59 31.08.2019
2770 Clear 28 1012 26 16093 1.53 268.163 12:39 31.08.2019
2771 Clear 28 1012 26 16093 1.94 253.304 12:20 31.08.2019
2772 Clear 28 1012 26 16093 1.94 253.304 12:20 31.08.2019
2773 Clear 28 1012 21 16093 1.94 253.304 11:55 31.08.2019
2774 Clouds 28 1012 22 16093 2.1 20 11:37 31.08.2019
2775 Clouds 28 1012 22 16093 2.1 20 11:18 31.08.2019
2776 Clear 30 1012 24 16093 1.94 253.304 10:42 31.08.2019
2777 Clear 30 1012 24 16093 1.94 253.304 10:19 31.08.2019
2778 Clear 30 1012 18 16093 1.94 253.304 09:59 31.08.2019
2779 Clear 31 1012 21 16093 2.23 244.743 09:38 31.08.2019
2780 Clear 31 1012 21 16093 2.66 290.319 09:19 31.08.2019
2781 Clear 31 1012 18 16093 2.66 290.319 08:43 31.08.2019
2782 Clear 31 1012 18 16093 2.66 290.319 08:23 31.08.2019
2783 Clear 32 1012 11 16093 2.1 290 07:41 31.08.2019
2784 Clear 33 1012 11 16093 2.1 290 07:22 31.08.2019
2785 Clear 34 1011 16 16093 2.6 60 06:41 31.08.2019
2786 Clear 34 1010 8 16093 2.1 200 06:18 31.08.2019
2787 Clear 35 1011 10 16093 3.05 299.354 05:34 31.08.2019
2788 Clear 38 1010 6 16093 3.6 240 04:36 31.08.2019
2789 Clear 40 1010 5 16093 6.2 240 03:45 31.08.2019
2790 Clear 40 1010 5 16093 5.7 220 02:49 31.08.2019
2791 Clear 41 1010 4 16093 6.7 220 01:55 31.08.2019
2792 Clear 41 1010 5 16093 5.1 200 01:34 31.08.2019
2793 Clear 41 1011 5 16093 4.1 230 00:52 31.08.2019
2794 Clear 41 1011 5 16093 6.2 220 00:30 31.08.2019
2795 Clear 41 1011 5 16093 4.1 250 23:58 30.08.2019
2796 Clear 41 1012 5 16093 6.2 240 23:39 30.08.2019
2797 Clear 41 1012 5 16093 6.2 240 23:18 30.08.2019
2798 Clear 40 1013 11 16093 3.6 110 22:42 30.08.2019
2799 Clear 40 1013 11 16093 3.6 110 22:24 30.08.2019
2800 Clear 40 1013 12 16093 3.6 150 21:59 30.08.2019
2801 Clear 39 1014 13 16093 3.6 100 21:38 30.08.2019
2802 Clear 39 1014 13 16093 3.6 100 21:20 30.08.2019
2803 Clear 38 1014 14 16093 2.1 0 20:59 30.08.2019
2804 Clear 38 1014 14 16093 4.23 218.44 20:40 30.08.2019
2805 Clear 37 1014 14 16093 4.23 218.44 20:20 30.08.2019
2806 Clear 36 1015 13 16093 4.23 218.44 19:57 30.08.2019
2807 Clear 36 1015 13 16093 1.5 0 19:39 30.08.2019
2808 Clear 35 1014 13 16093 5.1 190 19:19 30.08.2019
2809 Clear 34 1015 11 16093 3.1 0 18:54 30.08.2019
2810 Clear 34 1015 18 16093 2.1 0 18:36 30.08.2019
2811 Clear 33 1014 14 16093 2.1 0 18:18 30.08.2019
2812 Clear 32 1015 24 16093 1.87 246.346 17:55 30.08.2019
2813 Clear 31 1015 22 16093 1.87 246.346 17:37 30.08.2019
2814 Clear 31 1015 22 16093 1.87 246.346 17:18 30.08.2019
2815 Clear 29 1014 34 16093 1.87 246.346 16:43 30.08.2019
2816 Clear 28 1014 34 16093 1.87 246.346 16:22 30.08.2019
2817 Clear 28 1014 41 16093 2.1 40 15:43 30.08.2019
2818 Clear 27 1014 41 16093 2.1 40 15:24 30.08.2019
2819 Clouds 27 1014 34 16093 1.48 256.622 14:55 30.08.2019
2820 Clouds 27 1014 34 16093 1.48 256.622 14:55 30.08.2019
2821 Clouds 28 1014 34 16093 1.5 60 14:36 30.08.2019
2822 Clouds 28 1014 34 16093 1.5 60 14:18 30.08.2019
2823 Clouds 29 1013 30 16093 1.48 256.622 13:41 30.08.2019
2824 Clouds 29 1013 30 16093 1.46 258.158 13:22 30.08.2019
2825 Clouds 30 1013 32 16093 1.46 258.158 12:55 30.08.2019
2826 Clouds 30 1013 32 16093 1.5 10 12:36 30.08.2019
2827 Clear 30 1012 19 16093 5.1 180 12:18 30.08.2019
2828 Clear 30 1013 28 16093 2.1 330 11:41 30.08.2019
2829 Clear 31 1013 28 16093 2.1 330 11:23 30.08.2019
2830 Clear 31 1013 34 16093 1.91 232.589 10:39 30.08.2019
2831 Clear 31 1013 34 16093 1.91 232.589 10:20 30.08.2019
2832 Clear 32 1013 25 16093 2.1 70 09:57 30.08.2019
2833 Clear 32 1013 19 16093 1.5 160 09:37 30.08.2019
2834 Clear 33 1013 19 16093 1.5 160 09:18 30.08.2019
2835 Clear 33 1013 30 16093 3.04 265.467 08:44 30.08.2019
2836 Clear 33 1013 30 16093 3.04 265.467 08:25 30.08.2019
2837 Clear 34 1012 16 16093 2.6 200 07:57 30.08.2019
2838 Clear 34 1013 21 16093 3.04 265.467 07:37 30.08.2019
2839 Clear 34 1013 21 16093 3.04 265.467 07:19 30.08.2019
2840 Clear 35 1013 16 16093 2.1 0 06:40 30.08.2019
2841 Clear 35 1013 16 16093 2.1 0 06:22 30.08.2019
2842 Clear 36 1012 14 16093 2.1 180 05:32 30.08.2019
2843 Clear 39 1011 11 16093 5.7 260 03:57 30.08.2019
2844 Clear 40 1011 14 16093 4.1 240 03:37 30.08.2019
2845 Clear 40 1011 14 16093 4.1 240 03:37 30.08.2019
2846 Clear 40 1011 17 16093 6.2 150 02:44 30.08.2019
2847 Clear 40 1011 17 16093 6.2 150 02:19 30.08.2019
2848 Clear 40 1012 20 16093 5.1 130 00:58 30.08.2019
2849 Clear 40 1012 19 16093 7.2 140 00:23 30.08.2019
2850 Clear 39 1013 20 16093 6.7 170 23:49 29.08.2019
2851 Clear 39 1014 21 16093 4.6 160 23:23 29.08.2019
2852 Clear 39 1014 21 16093 4.6 160 23:23 29.08.2019
2853 Clear 39 1014 22 16093 4.6 150 22:59 29.08.2019
2854 Clear 39 1015 22 16093 7.2 150 22:41 29.08.2019
2855 Clear 39 1015 22 16093 7.2 150 22:22 29.08.2019
2856 Haze 38 1015 25 16093 6.7 130 21:42 29.08.2019
2857 Haze 37 1015 25 16093 6.7 130 21:22 29.08.2019
2858 Haze 37 1015 25 16093 6.7 130 21:22 29.08.2019
2859 Haze 36 1016 26 16093 5.1 120 20:59 29.08.2019
2860 Haze 36 1016 28 16093 2.1 0 20:41 29.08.2019
2861 Haze 35 1016 23 16093 3.6 100 20:20 29.08.2019
2862 Haze 35 1016 23 16093 3.6 100 19:57 29.08.2019
2863 Clear 34 1017 31 16093 3.25 215.761 19:39 29.08.2019
2864 Clear 34 1016 28 16093 1.5 0 19:21 29.08.2019
2865 Clear 33 1017 33 16093 6.2 160 18:41 29.08.2019
2866 Clear 32 1016 27 16093 1.5 220 18:20 29.08.2019
2867 Clear 32 1016 27 16093 1.5 220 17:56 29.08.2019
2868 Clear 31 1017 38 16093 6.2 160 17:37 29.08.2019
2869 Clear 31 1016 29 16093 3.1 150 17:19 29.08.2019
2870 Clear 30 1016 39 16093 2.1 210 16:43 29.08.2019
2871 Clear 30 1015 28 16093 1.5 200 16:24 29.08.2019
2872 Clear 29 1016 37 16093 3.1 240 15:58 29.08.2019
2873 Clear 29 1016 35 16093 5.7 210 15:38 29.08.2019
2874 Clear 29 1016 35 16093 5.7 210 15:19 29.08.2019
2875 Clouds 29 1015 33 16093 3.6 180 14:49 29.08.2019
2876 Clouds 29 1015 30 16093 1.75 240.056 14:22 29.08.2019
2877 Clouds 29 1015 27 16093 3.1 210 13:58 29.08.2019
2878 Clouds 29 1015 27 16093 3.1 170 13:39 29.08.2019
2879 Clouds 30 1015 27 16093 3.1 170 13:20 29.08.2019
2880 Clear 30 1015 25 16093 5.1 140 12:58 29.08.2019
2881 Clear 30 1014 25 16093 2.6 110 12:39 29.08.2019
2882 Clear 30 1014 25 16093 2.6 110 12:21 29.08.2019
2883 Clear 30 1014 27 16093 1.74 259.568 11:58 29.08.2019
2884 Clear 31 1014 30 16093 2.6 90 11:37 29.08.2019
2885 Clear 31 1014 30 16093 2.6 90 11:18 29.08.2019
2886 Dust 32 1013 21 16093 6.7 30 10:44 29.08.2019
2887 Dust 32 1013 21 16093 6.7 30 10:24 29.08.2019
2888 Clear 33 1012 20 16093 4.1 170 09:42 29.08.2019
2889 Clear 34 1012 20 16093 4.1 170 09:21 29.08.2019
2890 Clear 34 1011 19 16093 3.6 190 08:59 29.08.2019
2891 Clear 34 1011 19 16093 3.6 190 08:40 29.08.2019
2892 Clear 35 1011 19 16093 3.6 190 08:22 29.08.2019
2893 Clear 35 1012 21 16093 2.1 60 07:49 29.08.2019
2894 Clear 35 1012 21 16093 2.1 60 07:26 29.08.2019
2895 Clear 36 1012 16 16093 5.1 160 06:48 29.08.2019
2896 Clear 36 1012 16 16093 5.1 160 06:30 29.08.2019
2897 Clear 37 1011 15 16093 7.2 170 05:42 29.08.2019
2898 Clear 39 1010 14 16093 8.7 150 04:51 29.08.2019
2899 Clear 39 1010 14 16093 8.7 150 04:29 29.08.2019
2900 Clear 41 1009 13 16093 9.8 150 03:35 29.08.2019
2901 Clear 42 1010 12 16093 7.7 200 01:49 29.08.2019
2902 Clear 42 1008 13 16093 6.2 190 01:30 29.08.2019
2903 Clear 42 1011 13 16093 6.7 180 00:42 29.08.2019
2904 Clear 42 1011 13 16093 6.7 180 00:21 29.08.2019
2905 Clear 42 1012 13 16093 9.3 150 23:44 28.08.2019
2906 Clear 42 1012 13 16093 9.3 150 23:25 28.08.2019
2907 Clear 41 1013 14 16093 8.2 160 22:59 28.08.2019
2908 Clear 41 1013 15 16093 11.8 150 22:39 28.08.2019
2909 Clear 41 1013 15 16093 11.8 150 22:18 28.08.2019
2910 Clear 40 1014 16 16093 9.3 150 21:57 28.08.2019
2911 Clear 40 1014 16 16093 10.3 140 21:38 28.08.2019
2912 Clear 40 1014 16 16093 10.3 140 21:20 28.08.2019
2913 Clear 38 1014 17 16093 6.2 160 20:41 28.08.2019
2914 Clear 38 1014 17 16093 6.2 160 20:22 28.08.2019
2915 Clear 37 1015 19 16093 5.1 150 19:56 28.08.2019
2916 Clear 37 1015 19 16093 5.7 130 19:37 28.08.2019
2917 Clouds 36 1014 18 16093 3.1 60 19:18 28.08.2019
2918 Clear 35 1014 20 16093 4.1 130 18:42 28.08.2019
2919 Clouds 34 1014 20 16093 1.57 124.857 18:21 28.08.2019
2920 Clouds 34 1014 20 16093 1.57 124.857 18:21 28.08.2019
2921 Clear 33 1014 20 16093 1.5 100 17:55 28.08.2019
2922 Clear 33 1014 21 16093 1.57 124.857 17:37 28.08.2019
2923 Clear 33 1014 21 16093 1.57 124.857 17:37 28.08.2019
2924 Clear 33 1014 21 16093 1.57 124.857 17:19 28.08.2019
2925 Clear 31 1013 23 16093 1.57 124.857 16:42 28.08.2019
2926 Clear 29 1013 23 16093 1.57 124.857 16:18 28.08.2019
2927 Clear 28 1013 32 16093 1.5 50 15:54 28.08.2019
2928 Clear 28 1013 30 16093 1.57 124.857 15:36 28.08.2019
2929 Clouds 28 1012 23 16093 1.5 220 15:18 28.08.2019
2930 Clear 28 1012 25 16093 0.59 244.429 14:55 28.08.2019
2931 Clear 29 1012 28 16093 0.59 244.429 14:36 28.08.2019
2932 Clear 29 1012 28 16093 0.59 244.429 14:18 28.08.2019
2933 Clear 29 1011 32 16093 2.1 330 13:39 28.08.2019
2934 Clear 29 1011 32 16093 2.1 330 13:20 28.08.2019
2935 Clear 30 1011 28 16093 2.6 350 12:58 28.08.2019
2936 Clear 30 1011 28 16093 2.6 350 12:40 28.08.2019
2937 Clear 30 1011 28 16093 2.6 350 12:40 28.08.2019
2938 Clear 30 1011 28 16093 2.6 350 12:21 28.08.2019
2939 Clear 31 1011 35 16093 2.1 10 11:40 28.08.2019
2940 Clear 32 1011 35 16093 2.1 10 11:22 28.08.2019
2941 Clear 32 1011 28 16093 2.1 350 10:57 28.08.2019
2942 Clear 32 1011 32 16093 2.1 340 10:38 28.08.2019
2943 Clear 32 1011 32 16093 2.1 340 10:20 28.08.2019
2944 Clear 33 1011 29 16093 2.1 10 09:42 28.08.2019
2945 Clear 33 1011 29 16093 2.1 10 09:21 28.08.2019
2946 Clear 34 1011 25 16093 2.6 330 08:57 28.08.2019
2947 Clear 34 1011 24 16093 2.6 330 08:38 28.08.2019
2948 Clear 34 1011 24 16093 2.6 330 08:19 28.08.2019
2949 Clear 34 1010 24 16093 1.43 326.454 07:38 28.08.2019
2950 Clear 34 1010 24 16093 1.43 326.454 07:20 28.08.2019
2951 Clear 35 1010 24 16093 1.43 326.454 06:49 28.08.2019
2952 Clear 37 1009 18 16093 1.56 337.706 05:59 28.08.2019
2953 Clear 37 1009 16 16093 2.1 140 05:24 28.08.2019
2954 Clear 41 1009 13 16093 3.6 140 02:18 28.08.2019
2955 Clouds 41 1009 14 16093 3.1 0 01:30 28.08.2019
2956 Clouds 41 1009 15 16093 3.1 0 00:52 28.08.2019
2957 Clouds 41 1009 15 16093 2.42 153.721 00:33 28.08.2019
2958 Clear 41 1010 15 16093 2.1 210 23:56 27.08.2019
2959 Clear 41 1010 16 16093 3.1 20 23:38 27.08.2019
2960 Clear 41 1010 16 16093 3.1 20 23:19 27.08.2019
2961 Clear 40 1011 16 16093 3.1 350 22:41 27.08.2019
2962 Clear 40 1011 16 16093 3.1 350 22:23 27.08.2019
2963 Clear 39 1012 18 16093 1.5 0 21:57 27.08.2019
2964 Clear 39 1012 19 16093 2.68 144.338 21:38 27.08.2019
2965 Clear 39 1012 19 16093 2.68 144.338 21:38 27.08.2019
2966 Clear 39 1012 19 16093 2.68 144.338 21:38 27.08.2019
2967 Clear 39 1012 19 16093 2.68 144.338 21:38 27.08.2019
2968 Clear 38 1012 19 16093 2.17 129.691 21:19 27.08.2019
2969 Clear 37 1012 22 16093 2.1 10 20:57 27.08.2019
2970 Clear 37 1013 23 16093 4.1 30 20:39 27.08.2019
2971 Clear 37 1013 23 16093 4.1 30 20:19 27.08.2019
2972 Clear 36 1013 25 16093 3.1 20 19:44 27.08.2019
2973 Clear 36 1013 25 16093 3.1 20 19:25 27.08.2019
2974 Clear 35 1013 24 16093 1.5 0 18:56 27.08.2019
2975 Clear 35 1013 26 16093 2.6 80 18:38 27.08.2019
2976 Smoke 33 1013 17 16093 2.1 110 18:18 27.08.2019
2977 Smoke 32 1012 29 16093 3.1 60 17:43 27.08.2019
2978 Smoke 31 1012 29 16093 3.1 60 17:24 27.08.2019
2979 Clear 30 1012 31 16093 1.65 73.993 16:57 27.08.2019
2980 Clear 29 1012 30 16093 1.65 73.993 16:38 27.08.2019
2981 Clear 29 1012 30 16093 1.65 73.993 16:19 27.08.2019
2982 Clear 28 1011 36 14484 1.65 73.993 15:42 27.08.2019
2983 Clear 27 1011 36 14484 0.86 331.803 15:23 27.08.2019
2984 Clear 28 1011 37 16093 0.86 331.803 14:59 27.08.2019
2985 Clear 28 1011 37 16093 0.86 331.803 14:59 27.08.2019
2986 Clouds 28 1011 42 16093 2.1 30 14:41 27.08.2019
2987 Clouds 28 1011 42 16093 2.1 30 14:41 27.08.2019
2988 Clouds 28 1011 42 16093 2.1 30 14:23 27.08.2019
2989 Clear 28 1010 37 16093 3.1 40 13:43 27.08.2019
2990 Clear 28 1010 37 16093 3.1 40 13:24 27.08.2019
2991 Clear 29 1010 32 16093 3.6 30 12:56 27.08.2019
2992 Clear 29 1010 32 16093 3.1 50 12:38 27.08.2019
2993 Clouds 29 1009 21 16093 1.83 261.599 12:19 27.08.2019
2994 Clear 29 1010 32 16093 2.6 50 11:45 27.08.2019
2995 Clear 31 1010 32 16093 2.6 50 11:26 27.08.2019
2996 Clear 31 1010 27 16093 2.1 350 10:46 27.08.2019
2997 Clear 31 1010 27 16093 2.1 350 10:26 27.08.2019
2998 Clear 32 1010 27 16093 2.6 340 09:59 27.08.2019
2999 Clear 32 1010 25 16093 2.1 20 09:39 27.08.2019
3000 Clear 33 1010 25 16093 2.1 20 09:21 27.08.2019
3001 Clear 33 1010 29 16093 2.1 350 08:55 27.08.2019
3002 Clear 33 1010 27 16093 1.5 360 08:37 27.08.2019
3003 Clear 33 1010 27 16093 1.5 360 08:18 27.08.2019
3004 Clear 34 1010 21 16093 1.87 260.28 07:40 27.08.2019
3005 Clear 34 1010 21 16093 1.87 260.28 07:19 27.08.2019
3006 Clear 35 1010 16 16093 2.1 220 06:54 27.08.2019
3007 Clear 36 1010 14 16093 2.6 230 06:25 27.08.2019
3008 Clear 36 1009 14 16093 2.6 160 05:42 27.08.2019
3009 Clear 38 1008 14 16093 2.6 160 04:43 27.08.2019
3010 Clear 40 1008 13 16093 0.97 277.837 03:35 27.08.2019
3011 Clear 41 1009 10 16093 2.1 0 02:23 27.08.2019
3012 Clear 41 1009 10 16093 3.1 0 01:40 27.08.2019
3013 Clear 41 1009 10 16093 3.1 0 01:21 27.08.2019
3014 Clear 41 1010 11 16093 2.1 0 00:41 27.08.2019
3015 Clear 40 1010 11 16093 2.1 0 00:22 27.08.2019
3016 Clear 40 1011 11 16093 2.1 0 23:38 26.08.2019
3017 Clear 40 1011 11 16093 2.1 0 23:19 26.08.2019
3018 Clear 39 1012 14 16093 2.6 60 22:39 26.08.2019
3019 Clear 39 1012 14 16093 2.6 60 22:19 26.08.2019
3020 Clear 39 1012 15 16093 2.6 0 21:57 26.08.2019
3021 Clear 39 1013 17 16093 2.1 0 21:37 26.08.2019
3022 Clouds 37 1013 14 16093 1.5 0 21:19 26.08.2019
3023 Clouds 36 1013 14 16093 1.5 0 20:55 26.08.2019
3024 Clear 36 1013 22 16093 1.5 0 20:37 26.08.2019
3025 Clear 37 1013 22 16093 1.5 0 20:37 26.08.2019
3026 Clouds 35 1013 13 16093 2.6 30 20:18 26.08.2019
3027 Clear 35 1013 23 16093 2.6 50 19:42 26.08.2019
3028 Clouds 35 1013 13 16093 2.1 0 19:19 26.08.2019
3029 Clouds 35 1013 13 16093 2.1 0 19:19 26.08.2019
3030 Clouds 35 1013 13 16093 2.1 0 19:19 26.08.2019
3031 Clouds 34 1013 13 16093 2.1 0 18:58 26.08.2019
3032 Clear 33 1013 26 16093 2.6 50 18:38 26.08.2019
3033 Clouds 32 1013 16 16093 1.12 256.806 18:19 26.08.2019
3034 Clear 31 1013 31 16093 2.6 70 17:44 26.08.2019
3035 Clouds 30 1013 17 16093 1.12 256.806 17:20 26.08.2019
3036 Clouds 30 1013 17 16093 1.12 256.806 16:57 26.08.2019
3037 Clear 28 1013 32 16093 1.5 340 16:39 26.08.2019
3038 Clouds 28 1012 23 16093 1.12 256.806 16:18 26.08.2019
3039 Clouds 28 1012 23 16093 1.12 256.806 16:18 26.08.2019
3040 Clouds 27 1012 23 16093 1.12 256.806 15:54 26.08.2019
3041 Clear 27 1012 41 16093 2.1 20 15:36 26.08.2019
3042 Clouds 25 1012 20 16093 1.45 283.769 15:18 26.08.2019
3043 Clear 25 1012 39 16093 2.6 320 14:42 26.08.2019
3044 Clear 25 1012 19 16093 2.1 310 14:22 26.08.2019
3045 Clouds 27 1012 36 16093 1.45 283.769 13:43 26.08.2019
3046 Clear 27 1011 22 16093 1.24 270.416 13:23 26.08.2019
3047 Clear 27 1012 32 16093 1.24 270.416 12:57 26.08.2019
3048 Clear 28 1012 32 16093 1.24 270.416 12:39 26.08.2019
3049 Clear 28 1011 20 16093 2.1 220 12:20 26.08.2019
3050 Clear 29 1011 20 16093 2.1 180 11:38 26.08.2019
3051 Clear 30 1010 19 16093 3.1 190 11:20 26.08.2019
3052 Clear 30 1010 19 16093 3.1 190 10:57 26.08.2019
3053 Clear 30 1012 25 16093 1.92 251.215 10:39 26.08.2019
3054 Clear 30 1011 17 16093 2.6 180 10:19 26.08.2019
3055 Clear 30 1012 30 16093 2.6 30 09:42 26.08.2019
3056 Clouds 31 1011 17 16093 2.6 190 09:24 26.08.2019
3057 Clouds 32 1011 17 16093 2.6 190 08:56 26.08.2019
3058 Clouds 32 1011 17 16093 3.1 180 08:38 26.08.2019
3059 Clouds 32 1011 17 16093 3.1 180 08:38 26.08.2019
3060 Clouds 32 1011 17 16093 2.1 190 08:19 26.08.2019
3061 Clear 33 1012 26 16093 2.6 50 07:43 26.08.2019
3062 Clouds 33 1011 13 16093 2.6 190 07:24 26.08.2019
3063 Clouds 34 1011 13 16093 2.6 190 06:57 26.08.2019
3064 Clear 34 1012 17 16093 2.74 246.985 06:38 26.08.2019
3065 Clouds 35 1011 13 16093 2.1 200 06:18 26.08.2019
3066 Clear 38 1011 11 16093 3.6 240 04:36 26.08.2019
3067 Clear 39 1011 10 16093 4.1 230 03:48 26.08.2019
3068 Clear 40 1011 10 16093 2.6 200 02:31 26.08.2019
3069 Clear 40 1011 9 16093 2.6 190 01:23 26.08.2019
3070 Clear 40 1012 9 16093 6.7 200 00:43 26.08.2019
3071 Clouds 40 1012 9 16093 3.1 190 00:24 26.08.2019
3072 Clear 40 1013 9 16093 5.7 200 23:44 25.08.2019
3073 Clouds 40 1013 9 16093 3.6 250 23:20 25.08.2019
3074 Clouds 39 1013 9 16093 3.6 250 22:58 25.08.2019
3075 Clear 39 1014 10 16093 5.1 220 22:39 25.08.2019
3076 Clouds 39 1014 9 16093 4.1 50 22:20 25.08.2019
3077 Clear 38 1015 25 16093 6.7 120 21:58 25.08.2019
3078 Clear 37 1015 25 16093 6.7 120 21:39 25.08.2019
3079 Clear 36 1014 10 16093 2.1 50 21:18 25.08.2019
3080 Clear 36 1016 24 16093 3.1 140 20:41 25.08.2019
3081 Clear 36 1015 13 16093 2.1 90 20:20 25.08.2019
3082 Clear 36 1015 13 16093 2.1 90 20:20 25.08.2019
3083 Clear 35 1015 13 16093 2.1 90 19:59 25.08.2019
3084 Clear 34 1016 30 16093 4.1 140 19:39 25.08.2019
3085 Clear 34 1016 18 16093 1.5 0 19:20 25.08.2019
3086 Clear 33 1016 18 16093 1.5 0 18:58 25.08.2019
3087 Clear 33 1016 21 16093 4.13 231.7 18:39 25.08.2019
3088 Clear 31 1016 21 16093 1.96 234.469 18:21 25.08.2019
3089 Clear 30 1016 37 16093 1.5 120 17:46 25.08.2019
3090 Clouds 30 1015 28 16093 1.96 234.469 17:25 25.08.2019
3091 Clouds 29 1015 28 16093 1.96 234.469 16:59 25.08.2019
3092 Clear 28 1016 51 16093 1.96 234.469 16:37 25.08.2019
3093 Clouds 28 1015 30 16093 2.1 280 16:18 25.08.2019
3094 Clear 27 1015 53 16093 2.6 10 15:43 25.08.2019
3095 Clouds 25 1014 25 16093 2.1 280 15:25 25.08.2019
3096 Clouds 25 1014 25 16093 2.1 280 14:54 25.08.2019
3097 Clouds 26 1015 53 16093 2.1 360 14:36 25.08.2019
3098 Clouds 27 1014 25 16093 2.08 283.086 14:18 25.08.2019
3099 Clouds 27 1015 44 16093 2.08 283.086 13:42 25.08.2019
3100 Clouds 27 1014 31 16093 3.6 180 13:20 25.08.2019
3101 Clouds 28 1015 37 16093 2.01 281.338 12:48 25.08.2019
3102 Clouds 28 1015 37 16093 2.01 281.338 12:48 25.08.2019
3103 Clouds 28 1013 29 16093 4.1 210 12:26 25.08.2019
3104 Clouds 29 1013 29 16093 4.1 210 11:59 25.08.2019
3105 Clouds 29 1014 37 16093 2.11 250.913 11:40 25.08.2019
3106 Clear 29 1013 23 16093 2.6 40 11:21 25.08.2019
3107 Clouds 29 1014 32 16093 2.11 250.913 10:57 25.08.2019
3108 Clouds 29 1014 32 16093 2.11 250.913 10:39 25.08.2019
3109 Clouds 30 1013 27 16093 3.1 190 10:19 25.08.2019
3110 Clouds 31 1014 27 16093 171.3 583 09:44 25.08.2019
3111 Clouds 31 1013 22 16093 4.1 200 09:25 25.08.2019
3112 Clouds 31 1014 23 16093 2.1 130 08:48 25.08.2019
3113 Clouds 31 1013 18 16093 3.1 190 08:30 25.08.2019
3114 Clouds 32 1013 18 16093 3.1 190 07:55 25.08.2019
3115 Clouds 32 1013 15 16093 2.1 200 07:34 25.08.2019
3116 Clear 33 1014 26 16093 4.1 160 06:40 25.08.2019
3117 Clear 35 1013 23 16093 2.6 180 05:35 25.08.2019
3118 Clear 38 1012 22 16093 8.2 150 03:51 25.08.2019
3119 Clouds 38 1012 13 16093 4.6 210 02:55 25.08.2019
3120 Clear 38 1011 21 16093 5.1 110 02:36 25.08.2019
3121 Clouds 39 1012 10 16093 6.2 210 00:58 25.08.2019
3122 Clouds 39 1013 10 16093 2.6 0 00:24 25.08.2019
3123 Clouds 39 1013 10 16093 2.6 0 23:59 24.08.2019
3124 Clear 38 1014 22 16093 4.6 140 23:40 24.08.2019
3125 Clouds 38 1013 11 16093 3.1 0 23:22 24.08.2019
3126 Clear 37 1015 24 16093 4.1 130 22:54 24.08.2019
3127 Clear 37 1015 24 16093 4.1 130 22:36 24.08.2019
3128 Clouds 36 1014 15 16093 3.1 60 22:18 24.08.2019
3129 Clear 36 1015 24 16093 3.6 130 21:42 24.08.2019
3130 Clear 34 1015 16 16093 2.1 0 21:24 24.08.2019
3131 Clear 34 1015 16 16093 2.1 0 21:24 24.08.2019
3132 Clear 34 1015 16 16093 2.1 0 20:59 24.08.2019
3133 Clear 34 1016 26 16093 5.1 0 20:40 24.08.2019
3134 Clear 33 1015 17 16093 3.39 211.033 20:20 24.08.2019
3135 Clear 33 1015 17 16093 3.39 211.033 19:59 24.08.2019
3136 Clear 33 1016 27 16093 4.6 170 19:39 24.08.2019
3137 Clear 33 1015 18 16093 2.1 0 19:21 24.08.2019
3138 Clear 32 1015 18 16093 2.1 0 19:21 24.08.2019
3139 Clear 31 1016 27 16093 4.6 160 18:46 24.08.2019
3140 Clear 30 1015 20 16093 2.1 270 18:25 24.08.2019
3141 Clear 29 1015 20 16093 2.1 270 17:57 24.08.2019
3142 Clear 29 1016 28 16093 3.1 180 17:39 24.08.2019
3143 Clear 28 1015 23 16093 2.1 290 17:21 24.08.2019
3144 Clear 28 1016 36 16093 1.57 231.403 16:40 24.08.2019
3145 Clear 27 1014 28 16093 1.57 231.403 16:19 24.08.2019
3146 Clear 26 1015 34 16093 2.1 210 15:44 24.08.2019
3147 Clear 26 1013 26 16093 1.57 231.403 15:26 24.08.2019
3148 Clear 27 1013 26 16093 1.68 252.727 14:59 24.08.2019
3149 Clouds 27 1014 30 16093 3.6 180 14:40 24.08.2019
3150 Clear 27 1012 26 16093 4.6 160 14:19 24.08.2019
3151 Clouds 27 1013 28 16093 2.6 200 13:54 24.08.2019
3152 Clouds 27 1013 28 16093 2.6 200 13:36 24.08.2019
3153 Clear 27 1012 23 16093 3.6 160 13:18 24.08.2019
3154 Clouds 28 1013 26 16093 2.6 130 12:41 24.08.2019
3155 Clear 29 1012 18 16093 4.1 190 12:22 24.08.2019
3156 Clouds 29 1013 21 16093 3.1 150 11:52 24.08.2019
3157 Clouds 29 1013 21 16093 3.1 150 11:32 24.08.2019
3158 Clear 29 1012 19 16093 3.1 170 10:59 24.08.2019
3159 Clouds 30 1013 34 16093 1.77 232.156 10:40 24.08.2019
3160 Clear 30 1012 19 16093 3.6 190 10:21 24.08.2019
3161 Clouds 30 1012 24 16093 1.77 232.156 09:42 24.08.2019
3162 Clear 30 1011 19 16093 2.6 150 09:19 24.08.2019
3163 Clouds 31 1012 20 16093 2.03 237.902 08:43 24.08.2019
3164 Clear 31 1011 17 16093 3.6 180 08:25 24.08.2019
3165 Clear 31 1011 16 16093 2.03 237.902 07:53 24.08.2019
3166 Clear 32 1010 15 16093 4.1 190 07:30 24.08.2019
3167 Clouds 33 1011 14 16093 4.1 180 06:52 24.08.2019
3168 Clear 33 1009 12 16093 5.1 200 06:21 24.08.2019
3169 Clear 34 1009 21 16093 3.6 160 05:36 24.08.2019
3170 Clear 38 1008 16 16093 9.8 160 03:48 24.08.2019
3171 Clouds 38 1007 10 16093 5.1 180 03:28 24.08.2019
3172 Clouds 38 1007 9 16093 4.6 180 02:18 24.08.2019
3173 Clouds 39 1007 10 16093 5.1 180 01:25 24.08.2019
3174 Clear 39 1009 15 16093 9.8 160 00:47 24.08.2019
3175 Clouds 39 1008 10 16093 3.1 140 00:23 24.08.2019
3176 Clouds 39 1008 10 16093 3.1 140 00:23 24.08.2019
3177 Clear 38 1010 16 16093 9.8 140 23:45 23.08.2019
3178 Clear 38 1010 16 16093 9.8 140 23:45 23.08.2019
3179 Clouds 38 1009 15 16093 4.6 160 23:20 23.08.2019
3180 Clear 37 1011 17 16093 8.7 140 22:45 23.08.2019
3181 Clouds 37 1010 18 16093 4.6 130 22:27 23.08.2019
3182 Clouds 37 1010 18 16093 4.6 130 21:56 23.08.2019
3183 Clear 37 1010 18 16093 7.7 100 21:37 23.08.2019
3184 Clouds 36 1011 16 16093 4.1 130 21:19 23.08.2019
3185 Clear 35 1012 21 16093 7.2 160 20:52 23.08.2019
3186 Clear 35 1012 21 16093 7.2 160 20:33 23.08.2019
3187 Clear 34 1012 20 16093 5.7 160 19:47 23.08.2019
3188 Clouds 33 1011 15 16093 3.6 60 19:19 23.08.2019
3189 Clouds 33 1011 15 16093 3.6 60 18:58 23.08.2019
3190 Clear 32 1012 22 16093 6.2 160 18:40 23.08.2019
3191 Clear 32 1012 22 16093 6.2 160 18:40 23.08.2019
3192 Clouds 31 1011 14 16093 3.1 150 18:21 23.08.2019
3193 Clear 30 1012 22 16093 5.1 180 17:45 23.08.2019
3194 Clear 30 1012 22 16093 5.1 180 17:45 23.08.2019
3195 Clear 29 1011 13 16093 1.5 0 17:26 23.08.2019
3196 Clear 28 1011 13 16093 1.5 0 16:57 23.08.2019
3197 Clear 28 1011 16 16093 2.6 220 16:39 23.08.2019
3198 Clear 27 1009 16 16093 2.6 180 16:21 23.08.2019
3199 Clear 26 1011 17 16093 5.1 170 15:40 23.08.2019
3200 Clear 25 1009 17 16093 5.1 170 15:22 23.08.2019
3201 Clear 25 1009 17 16093 5.1 170 14:57 23.08.2019
3202 Clouds 25 1009 14 16093 1.68 232.113 14:39 23.08.2019
3203 Clouds 25 1008 17 16093 2.1 200 14:20 23.08.2019
3204 Clouds 25 1008 17 16093 2.1 200 13:54 23.08.2019
3205 Clouds 25 1009 17 16093 1.68 232.113 13:36 23.08.2019
3206 Clouds 25 1009 17 16093 1.68 232.113 13:36 23.08.2019
3207 Clouds 27 1007 17 16093 4.1 160 13:18 23.08.2019
3208 Clouds 26 1008 24 16093 1.62 226.727 12:42 23.08.2019
3209 Clear 26 1007 15 16093 2.6 150 12:22 23.08.2019
3210 Clear 27 1007 15 16093 2.6 150 11:58 23.08.2019
3211 Clouds 26 1008 13 16093 1.48 254.503 11:39 23.08.2019
3212 Clear 27 1007 13 16093 1.48 254.503 11:20 23.08.2019
3213 Clear 28 1006 11 16093 2.1 150 10:57 23.08.2019
3214 Clear 28 1007 14 16093 1.5 130 10:39 23.08.2019
3215 Clouds 29 1006 8 16093 2.1 190 10:19 23.08.2019
3216 Clouds 29 1007 10 16093 1.65 250.543 09:44 23.08.2019
3217 Clouds 29 1006 8 16093 3.1 220 09:25 23.08.2019
3218 Clear 30 1006 11 16093 2.6 330 08:46 23.08.2019
3219 Clouds 30 1005 7 16093 3.6 190 08:22 23.08.2019
3220 Clouds 31 1005 7 16093 3.6 190 07:59 23.08.2019
3221 Clear 31 1006 10 16093 2.23 271.694 07:41 23.08.2019
3222 Clouds 32 1005 7 16093 3.6 180 07:22 23.08.2019
3223 Clear 33 1006 6 16093 2.23 271.694 06:41 23.08.2019
3224 Clouds 33 1005 6 16093 2.6 200 06:22 23.08.2019
3225 Clear 34 1005 5 16093 2.6 180 05:44 23.08.2019
3226 -273 0 0 0 0 0 05:25 23.08.2019
3227 Clear 38 1005 2 16093 5.1 240 03:46 23.08.2019
3228 Clear 39 1004 2 16093 8.2 260 02:39 23.08.2019
3229 Clouds 39 1004 3 16093 6.7 220 02:20 23.08.2019
3230 Clouds 39 1004 2 16093 9.3 230 00:58 23.08.2019
3231 Clear 39 1005 7 16093 9.8 140 00:39 23.08.2019
3232 Clouds 39 1005 3 16093 7.2 220 00:18 23.08.2019
3233 Clear 39 1005 4 16093 6.7 150 23:41 22.08.2019
3234 Clouds 39 1006 3 16093 6.2 220 23:21 22.08.2019
3235 Clear 39 1007 7 16093 10.3 140 22:42 22.08.2019
3236 Clouds 39 1007 4 16093 5.1 200 22:24 22.08.2019
3237 Clouds 39 1007 4 16093 5.1 200 22:24 22.08.2019
3238 Haze 38 1007 4 2012 8.1 229.321 21:58 22.08.2019
3239 Clear 38 1007 7 16093 10.8 160 21:40 22.08.2019
3240 Clouds 37 1007 5 16093 4.6 200 21:22 22.08.2019
3241 Clouds 37 1007 5 16093 4.6 200 20:58 22.08.2019
3242 Clear 37 1007 6 16093 6.7 190 20:39 22.08.2019
3243 Clear 36 1007 6 16093 6.7 190 20:20 22.08.2019
3244 Clouds 36 1007 6 16093 6.2 180 19:56 22.08.2019
3245 Clear 34 1008 7 16093 8.2 150 19:38 22.08.2019
3246 Clouds 34 1007 9 16093 4.6 170 19:20 22.08.2019
3247 Clouds 33 1007 9 16093 4.6 170 18:57 22.08.2019
3248 Clear 32 1008 7 16093 2.1 0 18:39 22.08.2019
3249 Clouds 31 1007 9 16093 4.1 160 18:19 22.08.2019
3250 Clear 30 1008 8 16093 2.16 221.321 17:43 22.08.2019
3251 Clear 29 1008 10 16093 2.16 221.321 17:24 22.08.2019
3252 Clear 28 1008 14 16093 2.1 330 16:59 22.08.2019
3253 Clear 28 1008 15 16093 2.16 221.321 16:40 22.08.2019
3254 Clouds 27 1007 11 16093 2.6 210 16:22 22.08.2019
3255 Clouds 27 1007 11 16093 2.6 210 16:22 22.08.2019
3256 Clouds 27 1007 11 16093 2.6 210 16:22 22.08.2019
3257 Clouds 27 1007 11 16093 2.6 210 16:22 22.08.2019
3258 Clouds 27 1007 11 16093 2.6 210 15:59 22.08.2019
3259 Clouds 27 1007 11 16093 2.6 210 15:59 22.08.2019
3260 Clear 27 1007 12 16093 2.16 221.321 15:40 22.08.2019
3261 Clear 27 1007 12 16093 2.16 221.321 15:40 22.08.2019
3262 Clouds 25 1007 11 16093 1.6 251.293 15:21 22.08.2019
3263 Clouds 25 1007 11 16093 1.6 251.293 14:57 22.08.2019
3264 Clouds 26 1007 15 16093 3.1 360 14:38 22.08.2019
3265 Clouds 26 1006 10 16093 2.1 240 14:18 22.08.2019
3266 Clouds 27 1006 10 16093 2.1 240 13:56 22.08.2019
3267 Clouds 26 1007 16 16093 1.6 251.293 13:37 22.08.2019
3268 Clouds 27 1006 9 16093 3.1 220 13:18 22.08.2019
3269 Clouds 28 1006 14 16093 2.6 310 12:40 22.08.2019
3270 Clouds 28 1006 8 16093 3.1 210 12:21 22.08.2019
3271 Clouds 28 1006 8 16093 3.1 210 11:55 22.08.2019
3272 Clear 28 1006 15 16093 2.43 270.895 11:36 22.08.2019
3273 Clouds 29 1006 7 16093 2.6 200 11:18 22.08.2019
3274 Clouds 29 1006 7 16093 2.6 200 10:57 22.08.2019
3275 Clouds 30 1007 14 16093 2.43 270.895 10:36 22.08.2019
3276 Clouds 30 1006 7 16093 3.1 200 10:18 22.08.2019
3277 Clear 31 1007 13 16093 2.6 330 09:40 22.08.2019
3278 Clouds 31 1006 6 16093 3.6 190 09:21 22.08.2019
3279 Clouds 31 1006 6 16093 3.6 190 08:59 22.08.2019
3280 Clear 31 1007 13 16093 1.5 300 08:40 22.08.2019
3281 Clouds 32 1006 7 16093 2.6 170 08:21 22.08.2019
3282 Clouds 33 1007 6 16093 3.1 190 07:43 22.08.2019
3283 Clouds 33 1007 6 16093 3.1 190 07:24 22.08.2019
3284 Clouds 34 1007 6 16093 3.1 190 06:58 22.08.2019
3285 Clear 34 1007 6 16093 2.58 279.908 06:40 22.08.2019
3286 Clouds 36 1006 5 16093 3.1 230 06:19 22.08.2019
3287 Clear 39 1006 5 16093 5.7 140 04:42 22.08.2019
3288 Clear 41 1007 4 16093 7.2 160 02:56 22.08.2019
3289 Clear 41 1007 4 16093 7.2 160 02:34 22.08.2019
3290 Clouds 41 1007 4 16093 5.1 80 01:26 22.08.2019
3291 Clear 41 1008 4 16093 3.6 200 00:47 22.08.2019
3292 Clouds 41 1008 5 16093 3.6 70 00:28 22.08.2019
3293 Clouds 40 1008 5 16093 3.6 70 23:58 21.08.2019
3294 Clear 40 1009 3 16093 4.6 140 23:37 21.08.2019
3295 Clouds 40 1009 6 16093 2.6 0 23:19 21.08.2019
3296 -273 0 0 0 0 0 22:55 21.08.2019
3297 Clear 39 1011 4 16093 2.1 40 22:37 21.08.2019
3298 Clouds 39 1011 6 16093 2.6 70 22:19 21.08.2019
3299 Clouds 38 1011 6 16093 2.6 70 21:55 21.08.2019
3300 Clear 38 1012 5 16093 4.1 221.943 21:36 21.08.2019
3301 Clouds 37 1012 6 16093 2.6 60 21:18 21.08.2019
3302 Clear 37 1012 5 16093 2.83 206.755 20:42 21.08.2019
3303 Clouds 36 1013 7 16093 2.1 0 20:24 21.08.2019
3304 Clear 36 1013 7 16093 2.83 206.755 19:56 21.08.2019
3305 Clear 35 1013 7 16093 2.83 206.755 19:38 21.08.2019
3306 Clouds 35 1013 7 16093 3.1 40 19:20 21.08.2019
3307 Clear 33 1013 7 16093 2.83 206.755 18:43 21.08.2019
3308 Clear 32 1012 10 16093 0.61 306.926 18:23 21.08.2019
3309 Clear 30 1012 10 16093 0.61 306.926 17:57 21.08.2019
3310 Clear 29 1013 8 16093 0.61 306.926 17:38 21.08.2019
3311 Clear 29 1012 12 16093 0.61 306.926 17:20 21.08.2019
3312 Clear 27 1012 13 16093 0.61 306.926 16:44 21.08.2019
3313 Clear 27 1012 13 16093 0.61 306.926 16:44 21.08.2019
3314 Clear 26 1012 12 16093 2.6 210 16:24 21.08.2019
3315 Clear 25 1012 12 16093 2.6 210 15:59 21.08.2019
3316 Clear 24 1012 17 16093 2.1 350 15:41 21.08.2019
3317 Clear 24 1011 12 16093 1.43 277.915 15:21 21.08.2019
3318 Clear 24 1011 12 16093 1.43 277.915 14:57 21.08.2019
3319 Clouds 24 1011 18 16093 1.43 277.915 14:39 21.08.2019
3320 Clear 24 1011 12 16093 2.6 210 14:20 21.08.2019
3321 Clear 25 1011 12 16093 2.6 210 13:55 21.08.2019
3322 Clear 25 1011 23 16093 1.42 278.611 13:37 21.08.2019
3323 Clear 25 1011 12 16093 1.5 220 13:18 21.08.2019
3324 Clear 25 1011 12 16093 1.5 220 13:18 21.08.2019
3325 Clear 25 1011 16 16093 1.42 278.611 12:41 21.08.2019
3326 Clear 26 1011 12 16093 1.7 285.042 12:23 21.08.2019
3327 Clear 26 1011 12 16093 1.7 285.042 11:59 21.08.2019
3328 Clear 26 1011 20 16093 1.7 285.042 11:40 21.08.2019
3329 Clear 27 1011 10 16093 2.1 200 11:22 21.08.2019
3330 Clear 27 1011 10 16093 2.1 200 10:57 21.08.2019
3331 Clear 27 1011 10 16093 1.7 285.042 10:38 21.08.2019
3332 Clear 28 1011 10 16093 3.6 240 10:19 21.08.2019
3333 Clear 29 1011 10 16093 3.6 240 09:55 21.08.2019
3334 Clear 29 1011 9 16093 1.7 285.042 09:37 21.08.2019
3335 Clear 30 1011 8 16093 3.6 190 09:18 21.08.2019
3336 Clear 30 1011 13 16093 2.2 270.938 08:42 21.08.2019
3337 Clear 30 1011 7 16093 3.1 200 08:23 21.08.2019
3338 Clear 32 1011 13 16093 2.2 270.938 07:42 21.08.2019
3339 Clear 32 1010 7 16093 2.2 270.938 07:23 21.08.2019
3340 Clear 32 1011 17 16093 1.5 60 06:50 21.08.2019
3341 Clear 34 1010 6 16093 3.1 220 06:24 21.08.2019
3342 Clear 35 1010 7 16093 4.1 160 05:46 21.08.2019
3343 Clear 35 1009 5 16093 2.1 230 05:23 21.08.2019
3344 Clear 39 1009 5 16093 5.1 160 03:39 21.08.2019
3345 Clear 40 1010 6 16093 3.1 150 01:51 21.08.2019
3346 Clear 39 1010 6 16093 5.1 90 01:22 21.08.2019
3347 Clear 39 1011 6 16093 2.6 120 00:37 21.08.2019
3348 Clear 38 1011 7 16093 1.5 0 00:18 21.08.2019
3349 Clear 39 1012 6 16093 2.6 120 23:42 20.08.2019
3350 Clear 38 1012 6 16093 3.1 110 23:19 20.08.2019
3351 Clear 38 1012 6 16093 3.1 110 22:56 20.08.2019
3352 Clear 37 1013 6 16093 3.88 221.461 22:37 20.08.2019
3353 Clear 38 1013 7 16093 2.1 80 22:19 20.08.2019
3354 Clear 37 1013 7 16093 2.1 80 21:57 20.08.2019
3355 Clear 37 1014 7 16093 2.6 0 21:37 20.08.2019
3356 Clear 35 1014 8 16093 2.51 166.922 21:19 20.08.2019
3357 Clear 35 1014 8 16093 1.5 120 20:43 20.08.2019
3358 Clear 35 1014 8 16093 1.5 120 20:43 20.08.2019
3359 Clear 35 1014 9 16093 1.5 30 20:24 20.08.2019
3360 Clear 35 1014 9 16093 1.5 30 20:24 20.08.2019
3361 Clear 34 1014 9 16093 1.5 30 19:58 20.08.2019
3362 Clear 34 1015 8 16093 2.51 166.922 19:38 20.08.2019
3363 Clear 33 1014 10 16093 2.51 166.922 19:20 20.08.2019
3364 Clear 32 1014 11 16093 2.51 166.922 18:55 20.08.2019
3365 Clear 32 1014 11 16093 2.51 166.922 18:37 20.08.2019
3366 Clear 30 1014 10 16093 0.76 44.679 18:18 20.08.2019
3367 Clear 29 1014 10 16093 0.76 44.679 17:39 20.08.2019
3368 Clear 28 1014 10 16093 0.76 44.679 17:21 20.08.2019
3369 Clear 27 1014 12 16093 0.76 44.679 16:58 20.08.2019
3370 Clear 26 1014 14 16093 0.76 44.679 16:40 20.08.2019
3371 Clear 26 1014 14 16093 0.76 44.679 16:22 20.08.2019
3372 Clear 24 1014 35 16093 0.76 44.679 15:41 20.08.2019
3373 Clear 22 1014 35 16093 0.94 312.11 15:18 20.08.2019
3374 Clear 23 1013 28 16093 0.94 312.11 14:56 20.08.2019
3375 Clouds 23 1013 24 16093 0.94 312.11 14:38 20.08.2019
3376 Clouds 23 1013 24 16093 0.94 312.11 14:18 20.08.2019
3377 Clouds 23 1013 30 16093 0.94 312.11 13:55 20.08.2019
3378 Clouds 23 1013 28 16093 0.94 312.11 13:36 20.08.2019
3379 Clouds 24 1013 28 16093 0.79 320.675 13:18 20.08.2019
3380 Clear 24 1013 22 16093 0.79 320.675 12:45 20.08.2019
3381 Clear 25 1013 22 16093 1.57 275.511 12:24 20.08.2019
3382 Clear 25 1012 14 16093 1.57 275.511 11:55 20.08.2019
3383 Clear 25 1012 17 16093 3.1 310 11:37 20.08.2019
3384 Clear 26 1012 11 16093 3.6 330 11:18 20.08.2019
3385 Clear 27 1012 23 16093 1.57 275.511 10:55 20.08.2019
3386 Clear 27 1012 22 16093 1.57 275.511 10:37 20.08.2019
3387 Clear 28 1012 13 16093 3.1 320 10:18 20.08.2019
3388 Clear 28 1012 9 16093 1.57 275.511 09:40 20.08.2019
3389 Clear 29 1012 9 16093 1.51 284.23 09:22 20.08.2019
3390 Clear 29 1012 8 16093 3.1 320 08:42 20.08.2019
3391 Clear 30 1012 8 16093 3.1 320 08:24 20.08.2019
3392 Clear 31 1012 7 16093 2.6 300 07:58 20.08.2019
3393 Clear 31 1012 7 16093 2.1 290 07:39 20.08.2019
3394 Clear 31 1012 7 16093 2.6 200 07:21 20.08.2019
3395 Clear 32 1012 7 16093 1.51 284.23 06:47 20.08.2019
3396 Clear 33 1012 7 16093 2.83 254.732 06:21 20.08.2019
3397 Clear 34 1011 5 16093 2.1 220 05:48 20.08.2019
3398 Clouds 37 1009 5 16093 5.1 240 04:42 20.08.2019
3399 Clear 38 1009 8 16093 9.3 160 03:26 20.08.2019
3400 Clear 39 1010 7 16093 8.2 150 02:24 20.08.2019
3401 Clear 39 1011 8 16093 10.3 140 01:22 20.08.2019
3402 Clear 39 1012 7 16093 4.6 130 00:45 20.08.2019
3403 Clear 39 1012 7 16093 4.6 130 00:25 20.08.2019
3404 Clear 38 1012 8 16093 4.1 160 23:50 19.08.2019
3405 Clear 37 1012 6 16093 6.7 170 23:19 19.08.2019
3406 Clear 37 1013 9 16093 4.1 130 22:59 19.08.2019
3407 Clear 37 1013 9 16093 3.6 200 22:41 19.08.2019
3408 Clear 37 1013 9 16093 3.6 200 22:21 19.08.2019
3409 Clear 37 1014 9 16093 3.6 180 21:58 19.08.2019
3410 Clear 37 1014 8 16093 3.6 150 21:38 19.08.2019
3411 Clear 36 1014 8 16093 3.6 150 21:20 19.08.2019
3412 Clear 35 1014 8 16093 3.6 80 20:56 19.08.2019
3413 Clear 35 1015 8 16093 3.55 214.419 20:37 19.08.2019
3414 Clear 34 1015 8 16093 3.55 214.419 20:19 19.08.2019
3415 Rain 34 1015 8 16093 2.1 160 19:55 19.08.2019
3416 Rain 33 1015 8 16093 3.55 214.419 19:36 19.08.2019
3417 Rain 32 1016 11 16093 4.6 240 19:18 19.08.2019
3418 Clear 31 1015 10 16093 3.55 214.419 18:41 19.08.2019
3419 Clear 30 1015 10 16093 1.06 253.712 18:22 19.08.2019
3420 Clear 29 1014 11 16093 1.06 253.712 17:57 19.08.2019
3421 Clear 28 1014 11 16093 1.06 253.712 17:38 19.08.2019
3422 Clear 28 1014 11 16093 1.06 253.712 17:19 19.08.2019
3423 Clear 26 1014 21 16093 1.06 253.712 16:54 19.08.2019
3424 Clear 26 1014 23 16093 1.06 253.712 16:36 19.08.2019
3425 Clouds 25 1013 14 16093 1.06 253.712 16:18 19.08.2019
3426 Clear 24 1013 28 16093 1.06 253.712 15:44 19.08.2019
3427 Clouds 22 1012 14 16093 1.5 170 15:19 19.08.2019
3428 Clouds 22 1013 26 16093 0.87 252.752 14:44 19.08.2019
3429 Clouds 22 1012 14 16093 0.87 252.752 14:24 19.08.2019
3430 Clouds 23 1012 14 16093 0.87 252.752 13:59 19.08.2019
3431 Clear 23 1012 25 16093 1.5 50 13:40 19.08.2019
3432 Clouds 23 1012 14 16093 0.84 245.511 13:21 19.08.2019
3433 Clouds 24 1012 14 16093 0.84 245.511 12:58 19.08.2019
3434 Clear 24 1012 24 16093 0.84 245.511 12:40 19.08.2019
3435 Clouds 24 1011 13 16093 2.1 220 12:20 19.08.2019
3436 Clear 25 1012 19 16093 2.1 350 11:42 19.08.2019
3437 Clouds 25 1011 12 16093 3.1 220 11:24 19.08.2019
3438 Clouds 25 1011 12 16093 3.1 220 10:59 19.08.2019
3439 Clear 26 1012 15 16093 0.41 302.947 10:39 19.08.2019
3440 Clouds 25 1011 12 16093 2.1 200 10:19 19.08.2019
3441 Clouds 27 1011 12 16093 2.1 200 09:54 19.08.2019
3442 Clouds 27 1012 15 16093 2.1 340 09:36 19.08.2019
3443 Clouds 27 1011 11 16093 2.6 220 09:18 19.08.2019
3444 Clear 29 1012 13 16093 0.82 340.51 08:42 19.08.2019
3445 Clouds 28 1011 9 16093 2.1 220 08:21 19.08.2019
3446 Clear 29 1012 10 16093 2.6 310 07:52 19.08.2019
3447 Clear 30 1012 10 16093 2.6 310 07:34 19.08.2019
3448 Clouds 30 1011 7 16093 2.1 190 06:59 19.08.2019
3449 Clear 31 1011 9 16093 0.82 340.51 06:36 19.08.2019
3450 Clouds 34 1009 6 16093 3.6 240 05:26 19.08.2019
3451 Clear 36 1009 4 16093 5.1 180 04:33 19.08.2019
3452 Clouds 37 1008 6 16093 3.6 240 03:25 19.08.2019
3453 Clouds 38 1008 4 16093 5.7 200 02:30 19.08.2019
3454 Clear 38 1009 4 16093 7.7 170 01:36 19.08.2019
3455 Clear 38 1009 4 16093 9.3 180 00:46 19.08.2019
3456 Clouds 38 1009 8 16093 5.55 217.357 00:23 19.08.2019
3457 Clear 38 1011 8 16093 7.7 150 23:43 18.08.2019
3458 Clouds 37 1011 8 16093 4.1 40 23:22 18.08.2019
3459 Clouds 37 1011 8 16093 4.1 40 22:59 18.08.2019
3460 Clouds 37 1010 11 16093 6.2 70 22:39 18.08.2019
3461 Clouds 37 1011 8 16093 5.55 217.357 22:21 18.08.2019
3462 Clouds 36 1011 8 16093 5.55 217.357 21:56 18.08.2019
3463 Clear 36 1012 11 16093 8.2 150 21:37 18.08.2019
3464 Clouds 35 1012 7 16093 4.13 165.87 21:19 18.08.2019
3465 Clear 34 1013 11 16093 5.7 150 20:44 18.08.2019
3466 Clouds 34 1012 9 16093 4.13 165.87 20:26 18.08.2019
3467 Clouds 34 1012 9 16093 4.13 165.87 20:26 18.08.2019
3468 Clouds 33 1012 9 16093 4.13 165.87 19:56 18.08.2019
3469 Clear 33 1012 10 16093 5.1 150 19:38 18.08.2019
3470 Clouds 33 1012 9 16093 4.13 165.87 19:19 18.08.2019
3471 Clear 30 1012 9 16093 4.6 130 18:54 18.08.2019
3472 Clear 30 1012 9 16093 4.6 130 18:36 18.08.2019
3473 Clouds 30 1012 11 16093 1.51 95.613 18:18 18.08.2019
3474 Clear 28 1012 10 16093 1.51 95.613 17:42 18.08.2019
3475 Clouds 27 1011 13 16093 1.51 95.613 17:19 18.08.2019
3476 Clouds 27 1011 13 16093 1.51 95.613 16:58 18.08.2019
3477 Clear 27 1011 11 16093 1.51 95.613 16:38 18.08.2019
3478 Clouds 26 1011 15 16093 2.1 200 16:20 18.08.2019
3479 Clouds 25 1011 15 16093 2.1 200 15:57 18.08.2019
3480 Clear 24 1011 21 16093 1.51 95.613 15:38 18.08.2019
3481 Clouds 24 1009 14 16093 2.6 270 15:20 18.08.2019
3482 Clouds 24 1009 14 16093 2.6 270 14:54 18.08.2019
3483 Clear 24 1010 21 16093 0.62 157.585 14:36 18.08.2019
3484 Clouds 24 1009 12 16093 0.62 157.585 14:18 18.08.2019
3485 Clouds 25 1009 20 16093 0.62 157.585 13:42 18.08.2019
3486 Clouds 25 1009 9 16093 2.6 240 13:24 18.08.2019
3487 Clouds 26 1009 9 16093 2.6 240 12:58 18.08.2019
3488 Clouds 26 1009 23 16093 1.5 50 12:39 18.08.2019
3489 Clouds 26 1008 9 16093 1.5 190 12:20 18.08.2019
3490 Clear 28 1009 15 16093 1.5 320 11:43 18.08.2019
3491 Clouds 27 1008 8 16093 3.6 190 11:23 18.08.2019
3492 Clouds 29 1008 8 16093 3.6 190 10:59 18.08.2019
3493 Clear 29 1009 8 16093 1.5 330 10:40 18.08.2019
3494 Clouds 29 1008 8 16093 2.6 200 10:19 18.08.2019
3495 Clouds 31 1009 8 16093 2.6 250 09:43 18.08.2019
3496 Clouds 31 1008 7 16093 2.1 200 09:20 18.08.2019
3497 Clear 30 1009 12 16093 1.5 310 08:44 18.08.2019
3498 Clouds 31 1007 6 16093 1.5 190 08:25 18.08.2019
3499 Clouds 31 1007 6 16093 1.5 190 07:57 18.08.2019
3500 Clouds 32 1007 5 16093 2.1 190 07:30 18.08.2019
3501 Clear 33 1008 10 16093 2.6 180 06:47 18.08.2019
3502 Clear 35 1007 10 16093 4.6 170 05:43 18.08.2019
3503 Clouds 38 1006 5 16093 4.6 230 04:18 18.08.2019
3504 Clouds 39 1006 3 16093 6.2 230 03:00 18.08.2019
3505 Clear 39 1006 8 16093 9.8 160 02:41 18.08.2019
3506 Clouds 39 1006 3 16093 5.7 210 01:57 18.08.2019
3507 Clouds 40 1007 3 16093 6.7 220 01:27 18.08.2019
3508 Clear 40 1007 5 16093 9.8 150 00:42 18.08.2019
3509 Clouds 40 1007 4 16093 5.7 190 00:22 18.08.2019
3510 Clouds 40 1007 4 16093 5.7 190 23:58 17.08.2019
3511 Clear 40 1008 7 16093 5.1 170 23:38 17.08.2019
3512 Clouds 40 1008 4 16093 4.6 190 23:19 17.08.2019
3513 Clouds 40 1008 4 16093 4.6 190 22:57 17.08.2019
3514 Clear 39 1009 10 16093 7.7 140 22:39 17.08.2019
3515 Clear 39 1009 6 16093 6.7 220 22:20 17.08.2019
3516 Clear 39 1009 6 16093 6.7 220 22:20 17.08.2019
3517 Clear 38 1009 11 16093 7.7 160 21:54 17.08.2019
3518 Clear 38 1009 11 16093 7.7 160 21:36 17.08.2019
3519 Clear 38 1009 6 16093 5.7 170 21:18 17.08.2019
3520 Clear 35 1010 12 16093 7.2 170 20:38 17.08.2019
3521 Clear 35 1009 9 16093 6.2 180 20:19 17.08.2019
3522 Clear 34 1011 14 16093 7.7 140 19:43 17.08.2019
3523 Clear 34 1009 7 16093 6.2 180 19:24 17.08.2019
3524 Clear 33 1009 7 16093 6.2 180 18:59 17.08.2019
3525 Clear 33 1011 14 16093 5.7 160 18:39 17.08.2019
3526 Clear 32 1009 13 16093 3.6 180 18:18 17.08.2019
3527 Clear 32 1009 13 16093 3.6 180 18:18 17.08.2019
3528 Clear 31 1010 10 12874 2.6 140 17:43 17.08.2019
3529 Clear 30 1009 14 16093 2.6 210 17:22 17.08.2019
3530 Clear 30 1009 14 16093 2.6 210 16:59 17.08.2019
3531 Clear 29 1010 20 16093 2.6 60 16:40 17.08.2019
3532 Clear 29 1008 16 16093 3.1 190 16:22 17.08.2019
3533 Clear 28 1008 16 16093 3.1 190 15:55 17.08.2019
3534 Clear 28 1009 15 16093 2.1 80 15:37 17.08.2019
3535 Clear 26 1008 17 16093 3.1 270 15:19 17.08.2019
3536 Clouds 26 1008 23 16093 3.1 60 14:40 17.08.2019
3537 Clear 27 1007 14 16093 2.1 170 14:22 17.08.2019
3538 Clouds 27 1008 27 16093 2.1 10 13:46 17.08.2019
3539 Clear 27 1007 14 16093 3.6 180 13:21 17.08.2019
3540 Clear 28 1007 14 16093 3.6 180 12:55 17.08.2019
3541 Clear 28 1008 27 16093 1.5 40 12:37 17.08.2019
3542 Clear 29 1007 13 16093 3.6 190 12:18 17.08.2019
3543 Clouds 30 1008 22 16093 3.46 251.628 11:43 17.08.2019
3544 Clear 31 1007 14 16093 3.1 190 11:20 17.08.2019
3545 Clear 31 1007 14 16093 3.1 190 10:55 17.08.2019
3546 Clear 31 1007 14 16093 3.1 190 10:55 17.08.2019
3547 Clouds 32 1008 12 16093 3.46 251.628 10:37 17.08.2019
3548 Clear 31 1007 13 16093 4.1 190 10:18 17.08.2019
3549 Clouds 32 1008 12 16093 3.46 251.628 09:43 17.08.2019
3550 Clear 31 1007 10 16093 4.1 190 09:25 17.08.2019
3551 Clear 32 1008 6 16093 2.6 190 08:53 17.08.2019
3552 Clear 33 1007 6 16093 3.1 210 08:24 17.08.2019
3553 Clear 33 1008 7 16093 3.1 230 07:45 17.08.2019
3554 Clear 34 1007 6 16093 3.1 180 07:20 17.08.2019
3555 Clear 34 1008 6 16093 2.1 0 06:40 17.08.2019
3556 Clear 38 1007 4 16093 5.1 160 04:52 17.08.2019
3557 Clear 39 1006 4 16093 4.6 210 04:27 17.08.2019
3558 Clear 41 1007 4 16093 3.6 260 02:49 17.08.2019
3559 Clear 40 1007 5 16093 8.7 140 01:40 17.08.2019
3560 Clear 41 1007 4 16093 3.6 230 01:22 17.08.2019
3561 Clear 41 1008 4 16093 8.2 160 00:48 17.08.2019
3562 Clear 41 1008 4 16093 3.1 180 00:26 17.08.2019
3563 Clear 41 1009 5 16093 4.1 180 23:47 16.08.2019
3564 Clouds 41 1009 3 16093 4.6 220 23:25 16.08.2019
3565 Clear 41 1010 5 16093 5.1 160 22:44 16.08.2019
3566 Clear 40 1010 4 16093 3.6 150 22:20 16.08.2019
3567 Clear 40 1010 4 16093 3.6 150 21:59 16.08.2019
3568 Clear 40 1011 6 16093 2.1 10 21:39 16.08.2019
3569 Clear 38 1011 6 16093 2.6 0 21:19 16.08.2019
3570 Clear 38 1012 6 16093 3.1 0 20:43 16.08.2019
3571 Clear 37 1012 6 16093 3.1 0 20:43 16.08.2019
3572 Clear 37 1012 7 16093 5.06 215.354 20:22 16.08.2019
3573 Clear 37 1012 7 16093 5.06 215.354 19:59 16.08.2019
3574 Clear 36 1013 6 16093 1.5 0 19:40 16.08.2019
3575 Clear 36 1012 9 16093 2.6 0 19:22 16.08.2019
3576 Clear 34 1013 6 16093 5.06 215.354 18:42 16.08.2019
3577 Clear 33 1012 11 16093 2.1 310 18:23 16.08.2019
3578 Clear 32 1013 8 16093 2.6 110 17:49 16.08.2019
3579 Clear 31 1013 8 16093 2.6 110 17:31 16.08.2019
3580 Clear 30 1012 10 16093 2.02 224.88 16:59 16.08.2019
3581 Clear 28 1013 14 16093 2.1 30 16:41 16.08.2019
3582 Clear 27 1012 15 16093 2.02 224.88 16:21 16.08.2019
3583 Clear 27 1012 15 16093 2.02 224.88 15:57 16.08.2019
3584 Clear 26 1012 12 16093 4.1 60 15:38 16.08.2019
3585 Clear 25 1011 13 16093 1.92 271.763 15:20 16.08.2019
3586 Clear 25 1011 13 16093 1.92 271.763 14:57 16.08.2019
3587 Clouds 26 1011 20 16093 2.1 50 14:38 16.08.2019
3588 Clear 27 1011 11 16093 2.6 190 14:18 16.08.2019
3589 Clouds 27 1011 20 16093 1.92 271.763 13:41 16.08.2019
3590 Clear 28 1010 10 16093 3.1 190 13:22 16.08.2019
3591 Clear 28 1010 10 16093 3.1 190 13:22 16.08.2019
3592 Clear 29 1010 10 16093 3.1 190 12:55 16.08.2019
3593 Clouds 28 1011 22 16093 2.1 30 12:37 16.08.2019
3594 Clear 29 1009 7 16093 2.6 190 12:18 16.08.2019
3595 Clear 29 1011 10 16093 2.6 281.89 11:41 16.08.2019
3596 Clear 30 1010 6 16093 3.6 190 11:23 16.08.2019
3597 Clear 31 1011 14 16093 3.1 30 10:43 16.08.2019
3598 Clear 31 1010 6 16093 3.6 170 10:22 16.08.2019
3599 Clear 32 1010 6 16093 3.6 170 09:55 16.08.2019
3600 Clear 33 1010 6 16093 1.5 200 09:37 16.08.2019
3601 Clear 32 1010 6 16093 1.5 200 09:18 16.08.2019
3602 Clear 32 1011 9 16093 2.1 320 08:40 16.08.2019
3603 Clear 33 1010 6 16093 4.1 200 08:20 16.08.2019
3604 Clear 34 1010 6 16093 3.6 210 07:52 16.08.2019
3605 Clear 34 1010 6 16093 3.6 210 07:30 16.08.2019
3606 Clear 35 1010 6 16093 3.6 210 06:56 16.08.2019
3607 Clear 36 1010 6 16093 4.1 220 06:19 16.08.2019
3608 Clear 37 1010 5 16093 3.6 170 05:36 16.08.2019
3609 Clouds 41 1009 4 16093 2.1 0 03:22 16.08.2019
3610 Clouds 42 1009 4 16093 6.36 238.145 01:59 16.08.2019
3611 Clouds 42 1010 4 16093 2.6 230 01:29 16.08.2019
3612 Clouds 42 1010 4 16093 3.6 160 00:57 16.08.2019
3613 Clear 42 1011 4 16093 3.6 170 00:39 16.08.2019
3614 Clouds 42 1012 4 16093 4.1 190 00:18 16.08.2019
3615 Clear 42 1012 4 16093 2.1 0 23:42 15.08.2019
3616 Clouds 41 1013 5 16093 2.6 0 23:20 15.08.2019
3617 Clouds 41 1013 5 16093 2.6 0 22:57 15.08.2019
3618 Clear 41 1013 4 16093 4.1 110 22:38 15.08.2019
3619 Clouds 41 1013 6 16093 2.6 40 22:20 15.08.2019
3620 Clear 40 1014 5 16093 3.1 0 21:40 15.08.2019
3621 Clear 40 1014 5 16093 3.1 0 21:40 15.08.2019
3622 Clouds 39 1014 7 16093 1.5 10 21:20 15.08.2019
3623 Clouds 38 1014 7 16093 1.5 10 20:59 15.08.2019
3624 Clear 38 1015 6 16093 2.6 0 20:41 15.08.2019
3625 Clouds 38 1015 7 16093 2.1 40 20:21 15.08.2019
3626 Clear 37 1016 7 16093 2.1 120 19:56 15.08.2019
3627 Clear 36 1016 7 16093 2.1 120 19:38 15.08.2019
3628 Clouds 37 1015 8 16093 2.1 90 19:19 15.08.2019
3629 Clear 35 1016 8 16093 2.36 235.03 18:45 15.08.2019
3630 Clouds 33 1015 10 16093 1.5 150 18:22 15.08.2019
3631 Clouds 32 1015 10 16093 1.5 150 17:56 15.08.2019
3632 Clouds 31 1015 11 16093 2.1 230 17:37 15.08.2019
3633 Clouds 31 1015 11 16093 2.1 230 17:19 15.08.2019
3634 Clouds 29 1015 13 16093 2.1 190 16:48 15.08.2019
3635 Clouds 29 1015 13 16093 2.1 190 16:27 15.08.2019
3636 Clouds 28 1015 13 16093 2.1 190 15:56 15.08.2019
3637 Clear 27 1015 25 16093 2.1 40 15:38 15.08.2019
3638 Clouds 26 1014 16 16093 1.7 290.288 15:19 15.08.2019
3639 Clouds 26 1014 22 16093 1.7 290.288 14:42 15.08.2019
3640 Clear 26 1014 10 16093 1.7 290.288 14:23 15.08.2019
3641 Clear 27 1014 10 16093 1.7 290.288 13:57 15.08.2019
3642 Clouds 27 1014 13 16093 2.1 360 13:39 15.08.2019
3643 Clear 28 1013 10 16093 1.5 190 13:20 15.08.2019
3644 Clear 28 1013 10 16093 1.5 190 13:20 15.08.2019
3645 Clear 28 1013 10 16093 1.5 190 12:56 15.08.2019
3646 Clear 28 1014 13 16093 1.5 320 12:38 15.08.2019
3647 Clear 29 1013 10 16093 1.5 200 12:18 15.08.2019
3648 Clear 29 1014 19 16093 1.5 10 11:57 15.08.2019
3649 Clear 29 1014 19 16093 1.5 10 11:36 15.08.2019
3650 Clear 30 1013 11 16093 3.1 200 11:18 15.08.2019
3651 Clear 30 1014 18 16093 2.1 340 10:39 15.08.2019
3652 Clear 30 1014 18 16093 2.1 340 10:39 15.08.2019
3653 Clear 31 1013 11 16093 2.1 190 10:20 15.08.2019
3654 Clear 31 1014 17 16093 1.89 269.727 09:45 15.08.2019
3655 Clear 31 1013 13 16093 2.1 200 09:24 15.08.2019
3656 Clear 32 1013 13 16093 2.1 200 08:57 15.08.2019
3657 Clear 32 1014 19 16093 1.96 290.734 08:37 15.08.2019
3658 Clear 33 1013 13 16093 2.6 210 08:19 15.08.2019
3659 Clear 33 1014 15 16093 1.96 290.734 07:44 15.08.2019
3660 Clear 33 1013 8 16093 1.5 350 07:26 15.08.2019
3661 Clear 34 1014 15 16093 1.5 10 06:54 15.08.2019
3662 Clear 34 1014 15 16093 1.5 10 06:33 15.08.2019
3663 Clear 36 1013 12 16093 1.5 0 05:48 15.08.2019
3664 Clear 36 1012 8 16093 2.1 90 05:28 15.08.2019
3665 Clear 39 1012 6 16093 2.6 110 04:34 15.08.2019
3666 Clear 40 1012 6 16093 1.88 269.482 03:39 15.08.2019
3667 Clear 41 1013 6 16093 3.4 197.63 02:44 15.08.2019
3668 Clear 41 1013 6 16093 3.1 0 01:52 15.08.2019
3669 Clouds 41 1013 6 16093 3.6 50 01:30 15.08.2019
3670 Clear 41 1014 5 16093 2.1 140 00:41 15.08.2019
3671 Clouds 41 1014 6 16093 2.6 90 00:21 15.08.2019
3672 Clouds 40 1014 6 16093 2.6 90 23:57 14.08.2019
3673 Clear 40 1015 6 16093 2.1 0 23:37 14.08.2019
3674 Clouds 40 1015 6 16093 3.41 170.405 23:19 14.08.2019
3675 Clouds 40 1015 6 16093 3.41 170.405 23:19 14.08.2019
3676 Clouds 40 1015 6 16093 3.41 170.405 22:56 14.08.2019
3677 Clear 39 1015 7 16093 4.1 360 22:38 14.08.2019
3678 Clouds 39 1016 9 16093 3.41 170.405 22:19 14.08.2019
3679 Clouds 39 1016 9 16093 3.41 170.405 21:55 14.08.2019
3680 Clear 38 1016 8 16093 2.6 80 21:36 14.08.2019
3681 Clear 38 1016 9 16093 1.5 0 21:18 14.08.2019
3682 Clear 37 1017 11 16093 3.1 50 20:41 14.08.2019
3683 Clear 37 1017 10 16093 2.6 40 20:21 14.08.2019
3684 Clear 35 1017 11 16093 1.81 164.111 19:56 14.08.2019
3685 Clear 34 1017 11 16093 1.81 164.111 19:37 14.08.2019
3686 Clear 34 1017 11 16093 2.6 360 19:19 14.08.2019
3687 Clear 33 1017 12 16093 1.81 164.111 18:56 14.08.2019
3688 Clear 33 1017 12 16093 1.81 164.111 18:38 14.08.2019
3689 Clear 33 1017 14 16093 3.1 300 18:19 14.08.2019
3690 Clear 31 1017 14 16093 3.1 300 17:55 14.08.2019
3691 Clear 31 1017 15 16093 0.7 290.431 17:36 14.08.2019
3692 Clear 30 1017 14 16093 0.7 290.431 17:18 14.08.2019
3693 Clear 28 1016 21 16093 0.7 290.431 16:39 14.08.2019
3694 Clear 27 1016 17 16093 0.7 290.431 16:20 14.08.2019
3695 Clear 25 1016 28 16093 0.7 290.431 15:44 14.08.2019
3696 Clear 25 1015 17 16093 1.54 301.753 15:22 14.08.2019
3697 Clear 25 1015 17 16093 1.54 301.753 14:59 14.08.2019
3698 Clouds 25 1015 33 16093 1.54 301.753 14:39 14.08.2019
3699 Clear 25 1015 21 16093 1.54 301.753 14:19 14.08.2019
3700 Clear 25 1015 21 16093 1.54 301.753 13:55 14.08.2019
3701 Clouds 26 1015 31 16093 1.54 301.753 13:37 14.08.2019
3702 Clear 26 1014 19 16093 1.5 190 13:18 14.08.2019
3703 Clear 26 1014 19 16093 1.5 190 12:55 14.08.2019
3704 Clear 27 1015 25 16093 1.44 312.185 12:36 14.08.2019
3705 Clear 27 1014 18 16093 2.6 210 12:18 14.08.2019
3706 Clear 28 1015 22 16093 2.6 330 11:43 14.08.2019
3707 Clear 28 1014 12 16093 1.5 260 11:22 14.08.2019
3708 Clear 29 1015 24 16093 1.74 271.052 10:46 14.08.2019
3709 Clear 29 1014 10 16093 3.1 210 10:25 14.08.2019
3710 Clear 30 1014 10 16093 3.1 210 09:59 14.08.2019
3711 Clear 30 1015 13 16093 2.6 300 09:41 14.08.2019
3712 Clear 31 1014 9 16093 2.1 210 09:20 14.08.2019
3713 Clear 32 1015 12 16093 2.1 290 08:42 14.08.2019
3714 Clear 32 1014 10 16093 3.6 200 08:24 14.08.2019
3715 Clear 34 1015 14 16093 1.25 259.822 07:55 14.08.2019
3716 Clear 34 1015 14 16093 1.25 259.822 07:35 14.08.2019
3717 Clear 35 1014 10 16093 1.5 140 06:50 14.08.2019
3718 Clear 35 1013 12 16093 3.1 150 06:23 14.08.2019
3719 Clear 37 1012 12 16093 4.6 130 05:28 14.08.2019
3720 Clear 39 1012 8 16093 3.6 180 03:40 14.08.2019
3721 Clear 39 1013 7 16093 4.6 190 02:36 14.08.2019
3722 Clouds 40 1012 9 16093 2.1 0 01:55 14.08.2019
3723 Clouds 39 1013 9 16093 3.1 90 01:21 14.08.2019
3724 Clouds 38 1014 9 16093 5.1 80 23:56 13.08.2019
3725 Clear 38 1015 9 16093 3.6 130 23:37 13.08.2019
3726 Clear 38 1015 10 16093 1.5 0 23:18 13.08.2019
3727 Clear 38 1016 10 16093 3.1 160 22:43 13.08.2019
3728 Clear 38 1016 10 16093 2.1 0 22:24 13.08.2019
3729 Clear 37 1016 10 16093 2.1 0 21:59 13.08.2019
3730 Clear 37 1016 12 16093 4.6 160 21:39 13.08.2019
3731 Clear 36 1016 12 16093 2.1 0 21:19 13.08.2019
3732 Clear 36 1016 12 16093 2.1 0 20:58 13.08.2019
3733 Clear 36 1017 12 16093 4.1 40 20:39 13.08.2019
3734 Clear 35 1017 13 16093 2.1 60 20:19 13.08.2019
3735 Clear 34 1017 13 16093 2.6 110 19:54 13.08.2019
3736 Clear 34 1017 13 16093 2.6 110 19:36 13.08.2019
3737 Clear 34 1017 15 16093 2.1 10 19:18 13.08.2019
3738 Clear 33 1017 13 16093 2.1 130 18:41 13.08.2019
3739 Clear 32 1017 15 16093 0.96 36.354 18:21 13.08.2019
3740 Clear 30 1017 17 16093 0.96 36.354 17:43 13.08.2019
3741 Clear 29 1016 16 16093 0.96 36.354 17:22 13.08.2019
3742 Clear 28 1016 16 16093 0.96 36.354 16:58 13.08.2019
3743 Clear 27 1016 23 16093 0.96 36.354 16:40 13.08.2019
3744 Clear 26 1016 20 16093 1.5 300 16:21 13.08.2019
3745 Clear 26 1016 20 16093 1.5 300 15:59 13.08.2019
3746 Clear 25 1015 20 16093 3.1 0 15:38 13.08.2019
3747 Clear 25 1015 20 16093 3.1 0 15:38 13.08.2019
3748 Clear 24 1015 21 16093 2.1 270 15:19 13.08.2019
3749 Clear 24 1015 21 16093 2.1 270 15:19 13.08.2019
3750 Clouds 24 1015 35 16093 1.5 50 14:42 13.08.2019
3751 Clear 24 1014 18 16093 2.1 270 14:20 13.08.2019
3752 Clear 26 1014 18 16093 2.1 270 13:57 13.08.2019
3753 Clouds 26 1015 35 16093 0.93 280.839 13:38 13.08.2019
3754 Clear 26 1014 21 16093 0.83 286.712 13:18 13.08.2019
3755 Clear 26 1014 21 16093 0.83 286.712 12:56 13.08.2019
3756 Clear 26 1015 33 16093 0.83 286.712 12:37 13.08.2019
3757 Clear 27 1014 20 16093 2.1 200 12:18 13.08.2019
3758 Clear 27 1014 31 16093 2.1 350 11:42 13.08.2019
3759 Clear 28 1013 18 16093 2.6 190 11:22 13.08.2019
3760 Clear 28 1013 18 16093 2.6 190 10:57 13.08.2019
3761 Clear 28 1014 27 16093 2.1 310 10:38 13.08.2019
3762 Clear 29 1014 16 16093 2.1 190 10:19 13.08.2019
3763 Clear 30 1015 20 16093 1.5 0 09:45 13.08.2019
3764 Clear 30 1014 14 16093 3.1 220 09:24 13.08.2019
3765 Clear 30 1014 14 16093 3.1 220 08:57 13.08.2019
3766 Clear 30 1014 18 16093 1.5 300 08:39 13.08.2019
3767 Clear 31 1014 13 16093 2.1 180 08:19 13.08.2019
3768 Clear 32 1014 17 16093 1.5 290 07:40 13.08.2019
3769 Clear 32 1013 10 16093 2.1 160 07:20 13.08.2019
3770 Clear 33 1014 15 16093 2.6 300 06:43 13.08.2019
3771 Clear 35 1012 13 16093 6.2 160 05:46 13.08.2019
3772 Clear 38 1012 12 16093 7.7 160 03:46 13.08.2019
3773 Clear 38 1012 10 16093 2.6 0 02:22 13.08.2019
3774 Clear 38 1012 11 16093 1.5 20 01:26 13.08.2019
3775 Clear 38 1013 9 16093 6.2 140 00:47 13.08.2019
3776 Clear 38 1013 9 16093 3.6 100 00:18 13.08.2019
3777 Clear 37 1014 9 16093 6.2 110 23:41 12.08.2019
3778 Clear 37 1014 9 16093 4.1 100 23:20 12.08.2019
3779 Clear 37 1015 9 16093 4.1 130 22:40 12.08.2019
3780 Clear 36 1015 10 16093 2.6 140 22:20 12.08.2019
3781 Clear 35 1015 10 16093 2.6 140 21:56 12.08.2019
3782 Clear 36 1016 9 16093 5.1 120 21:38 12.08.2019
3783 Clear 35 1016 11 16093 2.6 0 21:19 12.08.2019
3784 Clear 34 1016 11 16093 2.6 0 20:57 12.08.2019
3785 Clear 34 1016 12 16093 6.7 140 20:38 12.08.2019
3786 Clear 33 1016 9 16093 3.6 40 20:20 12.08.2019
3787 Clear 33 1016 9 16093 3.6 40 19:56 12.08.2019
3788 Clear 33 1016 13 16093 3.1 80 19:37 12.08.2019
3789 Clear 32 1016 12 16093 2.6 60 19:19 12.08.2019
3790 Clear 31 1016 12 16093 2.6 60 18:55 12.08.2019
3791 Clear 31 1016 12 16093 2.1 100 18:37 12.08.2019
3792 Clear 29 1016 10 16093 2.1 40 18:19 12.08.2019
3793 Clear 28 1016 15 16093 1.51 84.84 17:47 12.08.2019
3794 Clear 28 1016 13 16093 1.51 84.84 17:28 12.08.2019
3795 Clear 26 1016 13 16093 1.51 84.84 16:57 12.08.2019
3796 Clear 25 1016 23 16093 1.5 50 16:39 12.08.2019
3797 Clear 25 1016 23 16093 1.5 50 16:39 12.08.2019
3798 Clear 25 1015 13 16093 2.1 200 16:20 12.08.2019
3799 Clear 24 1015 13 16093 2.1 200 15:59 12.08.2019
3800 -273 0 0 0 0 0 15:40 12.08.2019
3801 Clear 24 1015 24 16093 1.51 84.84 15:39 12.08.2019
3802 Clear 22 1015 17 16093 2.6 200 15:21 12.08.2019
3803 Clear 23 1015 17 16093 2.6 200 14:55 12.08.2019
3804 Clouds 23 1015 26 16093 2.39 335.376 14:37 12.08.2019
3805 Clouds 23 1015 26 16093 2.39 335.376 14:37 12.08.2019
3806 -273 0 0 0 0 0 14:18 12.08.2019
3807 Clouds 24 1014 19 16093 2.1 350 13:42 12.08.2019
3808 Clear 24 1013 16 16093 2.1 300 13:23 12.08.2019
3809 Clouds 24 1014 19 16093 3.1 360 12:44 12.08.2019
3810 Clear 24 1013 14 16093 2.1 190 12:22 12.08.2019
3811 Clear 24 1013 14 16093 2.1 190 11:56 12.08.2019
3812 Clear 24 1013 14 16093 2.1 190 11:56 12.08.2019
3813 Clouds 24 1014 25 16093 2.1 360 11:38 12.08.2019
3814 Clear 25 1013 15 16093 2.1 210 11:19 12.08.2019
3815 Clouds 26 1014 25 16093 1.08 286.919 10:41 12.08.2019
3816 Clear 26 1013 15 16093 1.5 200 10:23 12.08.2019
3817 Clear 27 1013 15 16093 1.5 200 09:56 12.08.2019
3818 Clouds 27 1014 14 16093 1.08 286.919 09:37 12.08.2019
3819 Clear 27 1013 13 16093 2.6 190 09:19 12.08.2019
3820 Clear 28 1014 12 16093 3.6 310 08:42 12.08.2019
3821 Clear 28 1013 10 16093 2.1 200 08:24 12.08.2019
3822 Clear 29 1013 10 16093 2.1 200 07:59 12.08.2019
3823 Clear 29 1013 12 16093 1.5 269.35 07:41 12.08.2019
3824 Clear 30 1013 10 16093 2.1 160 07:20 12.08.2019
3825 Clear 31 1013 12 16093 1.5 269.35 06:44 12.08.2019
3826 Clear 35 1011 9 16093 6.7 160 04:40 12.08.2019
3827 Clear 36 1011 13 16093 9.3 160 02:44 12.08.2019
3828 Clear 36 1011 11 16093 5.1 160 01:52 12.08.2019
3829 Clouds 37 1011 8 16093 3.1 220 01:20 12.08.2019
3830 Clouds 36 1011 8 16093 3.1 220 00:56 12.08.2019
3831 Clear 36 1011 9 16093 3.6 160 00:38 12.08.2019
3832 Clouds 36 1012 8 16093 3.1 0 00:18 12.08.2019
3833 Clear 36 1012 13 16093 6.7 160 23:41 11.08.2019
3834 Clouds 36 1012 9 16093 6.2 230 23:20 11.08.2019
3835 Clouds 36 1012 9 16093 6.2 230 23:20 11.08.2019
3836 Clouds 35 1012 9 16093 6.2 230 22:58 11.08.2019
3837 Clear 35 1013 13 16093 4.6 230 22:39 11.08.2019
3838 Clouds 35 1013 11 16093 4.6 230 22:19 11.08.2019
3839 Clouds 34 1013 11 16093 4.6 230 21:58 11.08.2019
3840 Clear 34 1014 15 16093 2.6 0 21:39 11.08.2019
3841 Clouds 33 1014 14 16093 4.1 190 21:19 11.08.2019
3842 Clear 33 1015 15 16093 2.6 0 20:45 11.08.2019
3843 Clouds 33 1015 15 16093 5.1 180 20:24 11.08.2019
3844 Clouds 32 1015 15 16093 5.1 180 19:57 11.08.2019
3845 Clear 31 1015 17 16093 4.41 215.728 19:39 11.08.2019
3846 Clear 30 1015 16 16093 4.1 160 19:18 11.08.2019
3847 Clear 29 1015 17 16093 1.5 260 18:41 11.08.2019
3848 Clear 28 1014 21 16093 5.1 170 18:20 11.08.2019
3849 Clear 27 1014 21 16093 5.1 170 17:56 11.08.2019
3850 Clear 27 1015 22 16093 1.5 220 17:38 11.08.2019
3851 Clear 27 1014 28 16093 4.1 180 17:20 11.08.2019
3852 Clear 26 1014 28 16093 4.1 180 16:55 11.08.2019
3853 Clear 26 1015 24 16093 2.1 310 16:37 11.08.2019
3854 Clear 25 1014 27 16093 2.6 170 16:18 11.08.2019
3855 Clear 25 1014 27 16093 2.6 170 16:18 11.08.2019
3856 Clear 23 1014 40 16093 2.1 330 15:42 11.08.2019
3857 Clear 24 1013 29 16093 4.6 160 15:23 11.08.2019
3858 Clouds 24 1013 30 16093 2.53 243.952 14:56 11.08.2019
3859 Clouds 25 1013 30 16093 2.53 243.952 14:38 11.08.2019
3860 Clear 25 1012 27 16093 3.1 170 14:19 11.08.2019
3861 Clouds 25 1013 28 16093 2.53 243.952 13:43 11.08.2019
3862 Clear 25 1011 22 16093 5.1 180 13:24 11.08.2019
3863 Clouds 25 1012 22 16093 2.08 241.28 12:48 11.08.2019
3864 Clear 25 1011 22 16093 4.6 180 12:23 11.08.2019
3865 Clouds 26 1012 31 16093 2.2 260.199 11:54 11.08.2019
3866 Clouds 26 1012 31 16093 2.2 260.199 11:36 11.08.2019
3867 Clear 26 1011 20 16093 3.6 180 11:18 11.08.2019
3868 Clear 27 1011 17 16093 2.6 190 10:41 11.08.2019
3869 Clear 27 1011 17 16093 2.6 190 10:22 11.08.2019
3870 Clear 28 1011 17 16093 2.6 190 09:58 11.08.2019
3871 Clear 28 1012 16 16093 2.2 260.199 09:38 11.08.2019
3872 Clear 28 1011 12 16093 3.1 210 09:19 11.08.2019
3873 Clear 28 1011 15 16093 2.1 360 08:44 11.08.2019
3874 Clear 29 1010 10 16093 2.1 210 08:25 11.08.2019
3875 Clear 29 1011 9 16093 2.6 320 07:54 11.08.2019
3876 Clear 30 1010 10 16093 2.6 230 07:22 11.08.2019
3877 Clear 31 1011 7 16093 2.1 180 06:41 11.08.2019
3878 Clear 32 1010 6 16093 2.1 180 05:34 11.08.2019
3879 Clear 36 1008 4 16093 7.2 190 03:36 11.08.2019
3880 Clear 37 1009 3 16093 9.3 190 02:46 11.08.2019
3881 Clear 37 1009 4 16093 9.3 190 01:36 11.08.2019
3882 Clouds 37 1009 4 16093 6.2 240 00:59 11.08.2019
3883 Clear 37 1009 8 16093 10.8 200 00:41 11.08.2019
3884 Clouds 37 1009 5 16093 5.1 220 00:23 11.08.2019
3885 Clear 37 1010 12 16093 10.8 210 23:43 10.08.2019
3886 Clear 37 1010 12 16093 10.8 210 23:43 10.08.2019
3887 Clouds 37 1010 7 16093 4.1 180 23:23 10.08.2019
3888 Clouds 37 1011 14 16093 7.2 210 22:43 10.08.2019
3889 Clouds 37 1011 14 16093 7.2 210 22:43 10.08.2019
3890 Clouds 36 1011 8 16093 5.7 200 22:24 10.08.2019
3891 Clouds 36 1011 8 16093 5.7 200 21:58 10.08.2019
3892 Clear 35 1012 13 16093 2.1 0 21:38 10.08.2019
3893 Clouds 34 1012 8 16093 6.2 210 21:19 10.08.2019
3894 Clouds 34 1012 8 16093 6.2 210 20:56 10.08.2019
3895 Clear 34 1012 15 16093 2.1 0 20:37 10.08.2019
3896 Clear 33 1012 11 16093 5.1 170 20:18 10.08.2019
3897 Clear 32 1013 14 16093 2.1 0 19:39 10.08.2019
3898 Clouds 32 1012 13 16093 5.7 180 19:20 10.08.2019
3899 Clear 30 1013 13 16093 5.44 211.877 18:40 10.08.2019
3900 Clear 30 1013 13 16093 5.44 211.877 18:40 10.08.2019
3901 Clouds 29 1012 16 16093 5.7 160 18:22 10.08.2019
3902 Clear 28 1013 14 16093 2.11 252.991 17:45 10.08.2019
3903 Clouds 27 1012 21 16093 6.2 160 17:25 10.08.2019
3904 Clear 26 1013 22 16093 2.11 252.991 16:47 10.08.2019
3905 Clouds 25 1012 19 16093 4.6 180 16:28 10.08.2019
3906 Clouds 25 1012 19 16093 4.6 180 15:56 10.08.2019
3907 Clouds 23 1011 19 16093 5.7 170 15:26 10.08.2019
3908 Clouds 24 1012 30 16093 1.5 360 14:45 10.08.2019
3909 Clear 24 1010 19 16093 5.7 160 14:23 10.08.2019
3910 Clear 24 1010 19 16093 5.7 160 14:23 10.08.2019
3911 Clear 24 1010 19 16093 5.7 160 13:59 10.08.2019
3912 Clouds 25 1011 23 16093 2.1 20 13:39 10.08.2019
3913 Clear 25 1010 14 16093 5.1 180 13:18 10.08.2019
3914 Clouds 26 1011 17 16093 2.6 350 12:42 10.08.2019
3915 Clear 26 1010 13 16093 3.1 160 12:22 10.08.2019
3916 Clear 26 1010 13 16093 3.1 160 11:57 10.08.2019
3917 Clouds 26 1011 27 16093 2.1 10 11:39 10.08.2019
3918 Clear 27 1010 12 16093 2.6 160 11:20 10.08.2019
3919 Clouds 27 1011 11 16093 2.1 150 10:39 10.08.2019
3920 Clear 28 1009 11 16093 3.1 190 10:20 10.08.2019
3921 Clear 27 1009 11 16093 3.1 190 09:59 10.08.2019
3922 Clear 28 1011 16 16093 2.16 251.481 09:38 10.08.2019
3923 Clear 28 1010 13 16093 2.1 190 09:20 10.08.2019
3924 Clear 29 1011 12 16093 2.6 280 08:38 10.08.2019
3925 Clear 29 1009 10 16093 3.1 180 08:19 10.08.2019
3926 Clear 30 1010 11 16093 1.5 280 07:51 10.08.2019
3927 Clear 30 1009 10 16093 2.1 190 07:27 10.08.2019
3928 Clear 32 1010 8 16093 2.1 210 06:48 10.08.2019
3929 Clear 32 1009 9 16093 2.6 220 06:21 10.08.2019
3930 Clear 34 1011 8 16093 4.1 240 05:22 10.08.2019
3931 Clouds 36 1008 6 16093 5.7 230 04:18 10.08.2019
3932 Thunderstorm 37 1008 5 16093 5.1 230 02:52 10.08.2019
3933 Clouds 38 1008 5 16093 6.7 230 01:57 10.08.2019
3934 Clear 38 1009 6 16093 11.3 200 01:38 10.08.2019
3935 Clouds 38 1009 6 16093 5.1 190 01:19 10.08.2019
3936 Clear 38 1010 8 16093 10.3 220 00:43 10.08.2019
3937 Clouds 39 1009 7 16093 9.3 180 00:21 10.08.2019
3938 Clear 38 1011 9 16093 9.3 180 23:42 09.08.2019
3939 Clouds 38 1010 7 16093 4.6 210 23:22 09.08.2019
3940 Clouds 38 1010 7 16093 4.6 210 22:56 09.08.2019
3941 Clear 38 1011 10 16093 7.7 190 22:38 09.08.2019
3942 Clouds 37 1011 8 16093 5.7 200 22:19 09.08.2019
3943 Clouds 37 1012 10 16093 7.2 230 21:41 09.08.2019
3944 Clouds 36 1012 10 16093 7.2 230 21:23 09.08.2019
3945 Clouds 36 1012 10 16093 7.2 230 20:58 09.08.2019
3946 Clear 35 1013 13 16093 4.6 180 20:40 09.08.2019
3947 Clouds 35 1012 11 16093 4.1 190 20:20 09.08.2019
3948 Clear 34 1013 14 16093 5.44 208.784 19:56 09.08.2019
3949 Clear 34 1013 14 16093 5.44 208.784 19:38 09.08.2019
3950 Clouds 33 1013 13 16093 3.6 200 19:18 09.08.2019
3951 Clear 32 1013 14 16093 5.44 208.784 18:39 09.08.2019
3952 Clouds 31 1013 15 16093 4.6 180 18:21 09.08.2019
3953 Clear 30 1013 18 16093 1.5 250 17:46 09.08.2019
3954 Clouds 29 1012 19 16093 2.1 170 17:26 09.08.2019
3955 Clouds 29 1012 19 16093 2.1 170 16:59 09.08.2019
3956 Clear 28 1013 26 16093 2.1 320 16:39 09.08.2019
3957 Clouds 27 1012 21 16093 1.5 180 16:20 09.08.2019
3958 Clouds 26 1012 21 16093 1.5 180 15:56 09.08.2019
3959 Clear 26 1012 27 16093 2.6 340 15:37 09.08.2019
3960 Clouds 25 1011 20 16093 3.6 250 15:18 09.08.2019
3961 Clouds 25 1011 25 16093 1.5 260 14:44 09.08.2019
3962 Clear 26 1010 18 16093 3.1 190 14:22 09.08.2019
3963 Clear 26 1011 29 16093 1.45 273.007 13:56 09.08.2019
3964 Clear 27 1011 29 16093 1.45 273.007 13:38 09.08.2019
3965 Clear 27 1010 20 16093 4.1 170 13:19 09.08.2019
3966 Clouds 28 1011 26 16093 1.15 271.447 12:44 09.08.2019
3967 Clear 29 1010 15 16093 4.1 190 12:23 09.08.2019
3968 Clear 29 1011 26 16093 1.5 130 11:42 09.08.2019
3969 Clear 29 1010 14 16093 3.6 190 11:22 09.08.2019
3970 Clear 30 1010 14 16093 3.6 190 10:59 09.08.2019
3971 Clear 30 1011 34 16093 2.37 268.451 10:39 09.08.2019
3972 Clouds 30 1010 15 16093 2.1 180 10:21 09.08.2019
3973 Clear 31 1011 32 16093 2.6 310 09:43 09.08.2019
3974 Clouds 31 1010 14 16093 3.1 200 09:20 09.08.2019
3975 Clouds 31 1010 21 16093 3.6 240 08:55 09.08.2019
3976 Clouds 32 1010 21 16093 3.6 240 08:37 09.08.2019
3977 Clouds 32 1010 21 16093 3.6 240 08:18 09.08.2019
3978 Clouds 32 1010 18 16093 2.1 170 07:43 09.08.2019
3979 Clouds 32 1010 18 16093 2.1 170 07:21 09.08.2019
3980 Clear 33 1010 29 16093 3.13 252.151 06:52 09.08.2019
3981 Clouds 33 1009 18 16093 2.1 190 06:27 09.08.2019
3982 Clear 34 1009 23 16093 3.6 150 05:46 09.08.2019
3983 Clear 37 1009 20 16093 7.06 231.367 02:33 09.08.2019
3984 Thunderstorm 37 1011 26 16093 8.2 160 01:41 09.08.2019
3985 Clear 37 1011 18 16093 5.7 230 00:44 09.08.2019
3986 Clouds 38 1011 21 16093 3.1 90 00:25 09.08.2019
3987 Clouds 37 1011 21 16093 3.1 90 23:59 08.08.2019
3988 Clear 37 1012 25 16093 4.6 200 23:38 08.08.2019
3989 Clouds 37 1012 20 16093 4.6 60 23:19 08.08.2019
3990 Clouds 37 1012 20 16093 4.6 60 22:57 08.08.2019
3991 Clear 37 1013 24 16093 4.1 140 22:36 08.08.2019
3992 Clouds 35 1013 20 16093 3.1 0 22:18 08.08.2019
3993 Clouds 35 1013 20 16093 3.1 0 21:55 08.08.2019
3994 Clear 34 1014 26 16093 4.98 211.649 21:36 08.08.2019
3995 Clouds 34 1013 28 16093 3.1 0 21:18 08.08.2019
3996 Clear 33 1014 27 16093 1.5 0 20:42 08.08.2019
3997 Clouds 33 1014 29 16093 2.32 179.357 20:20 08.08.2019
3998 Clouds 32 1014 29 16093 2.32 179.357 19:56 08.08.2019
3999 Clear 31 1015 35 16093 2.32 179.357 19:37 08.08.2019
4000 Clouds 31 1014 31 16093 2.32 179.357 19:18 08.08.2019
4001 Clear 30 1015 37 16093 2.32 179.357 18:41 08.08.2019
4002 Clouds 28 1015 39 16093 2.1 360 18:20 08.08.2019
4003 Clear 28 1015 50 16093 1.21 74.583 17:42 08.08.2019
4004 Clouds 27 1015 42 16093 1.5 100 17:24 08.08.2019
4005 Clouds 26 1015 42 16093 1.5 100 16:59 08.08.2019
4006 Clear 26 1015 60 16093 1.21 74.583 16:41 08.08.2019
4007 Clouds 26 1014 50 16093 1.21 74.583 16:23 08.08.2019
4008 Clouds 25 1014 50 16093 1.21 74.583 15:57 08.08.2019
4009 Clouds 24 1013 57 16093 1.5 190 15:38 08.08.2019
4010 Clouds 23 1013 57 16093 1.5 190 15:20 08.08.2019
4011 Clouds 24 1014 56 16093 1.95 290.746 14:40 08.08.2019
4012 Clouds 24 1013 57 16093 1.95 290.746 14:21 08.08.2019
4013 Clouds 24 1013 57 16093 1.95 290.746 13:56 08.08.2019
4014 Clouds 24 1014 64 16093 1.95 290.746 13:36 08.08.2019
4015 Clouds 24 1013 54 16093 2.51 271.027 13:18 08.08.2019
4016 Clear 25 1014 68 16093 1.5 50 12:38 08.08.2019
4017 Clouds 25 1013 50 16093 2.39 271.723 12:19 08.08.2019
4018 Clouds 26 1013 47 16093 1.5 250 11:43 08.08.2019
4019 -273 0 0 0 0 0 11:25 08.08.2019
4020 Clouds 25 1013 47 16093 1.5 250 10:56 08.08.2019
4021 Clear 26 1014 53 16093 3.1 10 10:38 08.08.2019
4022 Clouds 26 1014 44 16093 2.1 180 10:19 08.08.2019
4023 Clear 26 1014 56 16093 2.39 271.723 09:41 08.08.2019
4024 Clouds 26 1014 44 16093 2.1 190 09:22 08.08.2019
4025 Clouds 27 1014 50 16093 2.66 237.707 08:44 08.08.2019
4026 Clouds 27 1013 42 16093 2.1 130 08:22 08.08.2019
4027 Clouds 27 1013 42 16093 2.1 130 07:58 08.08.2019
4028 Clear 28 1014 57 16093 3.1 360 07:39 08.08.2019
4029 Clouds 28 1013 37 16093 2.1 230 07:18 08.08.2019
4030 Clouds 28 1013 37 16093 3.1 210 06:44 08.08.2019
4031 Clouds 29 1013 37 16093 3.1 210 05:58 08.08.2019
4032 Thunderstorm 29 1012 37 16093 5.7 150 05:39 08.08.2019
4033 Thunderstorm 30 1012 35 16093 7.2 180 04:18 08.08.2019
4034 Thunderstorm 29 1010 38 16093 5.1 150 03:41 08.08.2019
4035 Rain 33 1014 37 12874 9.3 200 01:47 08.08.2019
4036 Thunderstorm 34 1011 24 16093 7.2 190 00:59 08.08.2019
4037 Thunderstorm 36 1011 26 16093 11.3 260 00:22 08.08.2019
4038 Thunderstorm 38 1010 13 16093 3.6 190 23:39 07.08.2019
4039 Clouds 39 1011 14 16093 1.5 0 23:18 07.08.2019
4040 Clouds 39 1011 16 16093 5.7 140 22:41 07.08.2019
4041 Clouds 39 1011 14 16093 7.7 230 22:21 07.08.2019
4042 Clouds 39 1011 14 16093 7.7 230 21:58 07.08.2019
4043 Clear 39 1012 18 16093 4.1 160 21:40 07.08.2019
4044 Clouds 37 1012 15 16093 2.6 140 21:21 07.08.2019
4045 Clouds 37 1012 15 16093 2.6 140 20:59 07.08.2019
4046 Clear 37 1013 17 16093 3.6 140 20:41 07.08.2019
4047 Clouds 37 1013 18 16093 1.5 100 20:20 07.08.2019
4048 Clouds 36 1013 18 16093 1.5 100 19:56 07.08.2019
4049 Clear 36 1014 19 16093 4.1 190 19:36 07.08.2019
4050 Clear 36 1014 19 16093 4.1 190 19:36 07.08.2019
4051 Clouds 35 1013 19 16093 3.6 80 19:18 07.08.2019
4052 Clear 34 1014 20 16093 2.6 0 18:40 07.08.2019
4053 Clouds 32 1014 22 16093 2.1 200 18:20 07.08.2019
4054 Clear 31 1014 21 16093 0.95 157.931 17:56 07.08.2019
4055 Clear 31 1014 21 16093 0.95 157.931 17:38 07.08.2019
4056 Clouds 30 1014 27 16093 1.5 110 17:19 07.08.2019
4057 Clouds 29 1014 27 16093 1.5 110 16:56 07.08.2019
4058 Clouds 29 1014 27 16093 1.5 110 16:56 07.08.2019
4059 Clear 29 1014 28 16093 0.95 157.931 16:37 07.08.2019
4060 Clouds 28 1013 30 16093 0.95 157.931 16:18 07.08.2019
4061 Clear 28 1014 34 16093 0.95 157.931 15:42 07.08.2019
4062 Clouds 28 1013 28 16093 0.38 260.463 15:20 07.08.2019
4063 Clouds 28 1013 36 16093 0.38 260.463 14:49 07.08.2019
4064 Clouds 28 1013 26 16093 1.5 220 14:30 07.08.2019
4065 Clouds 28 1013 26 16093 1.5 220 13:58 07.08.2019
4066 Clouds 28 1013 36 16093 1.5 10 13:39 07.08.2019
4067 Clouds 28 1012 23 16093 0.68 251.3 13:19 07.08.2019
4068 Clouds 28 1012 23 16093 0.68 251.3 12:57 07.08.2019
4069 Clouds 28 1013 36 16093 0.68 251.3 12:38 07.08.2019
4070 Clouds 28 1012 23 16093 1.51 221.7 12:19 07.08.2019
4071 Clouds 29 1012 23 16093 1.51 221.7 11:55 07.08.2019
4072 Clear 29 1013 34 16093 1.5 350 11:36 07.08.2019
4073 Clouds 29 1012 22 16093 2.1 210 11:18 07.08.2019
4074 Clear 30 1013 26 16093 1.51 221.7 10:40 07.08.2019
4075 Clouds 31 1013 22 16093 2.1 200 10:19 07.08.2019
4076 Clear 31 1013 30 16093 1.51 221.7 09:46 07.08.2019
4077 Clouds 31 1013 22 16093 2.6 210 09:24 07.08.2019
4078 Clouds 31 1013 22 16093 2.6 210 08:59 07.08.2019
4079 Clear 31 1013 28 16093 1.5 90 08:41 07.08.2019
4080 Clouds 31 1013 21 16093 1.5 220 08:23 07.08.2019
4081 Clear 33 1013 25 16093 1.5 80 07:45 07.08.2019
4082 Clouds 32 1013 20 16093 1.5 220 07:26 07.08.2019
4083 Clear 33 1013 17 16093 2.1 310 06:41 07.08.2019
4084 Clouds 33 1013 19 16093 2.23 253.963 06:21 07.08.2019
4085 Clear 33 1013 17 16093 2.23 253.963 05:40 07.08.2019
4086 Rain 35 1012 16 16093 4.6 50 03:26 07.08.2019
4087 Rain 35 1012 14 16093 4.6 330 02:51 07.08.2019
4088 Rain 36 1011 14 16093 10.8 250 02:30 07.08.2019
4089 Clear 37 1011 9 16093 10.3 270 01:48 07.08.2019
4090 Clear 40 1012 11 16093 4.6 140 00:53 07.08.2019
4091 Clouds 39 1012 9 16093 8.7 250 00:23 07.08.2019
4092 Clear 40 1012 11 16093 4.1 160 23:47 06.08.2019
4093 Clouds 40 1012 11 16093 4.6 200 23:23 06.08.2019
4094 Clouds 39 1012 11 16093 4.6 200 22:59 06.08.2019
4095 Clear 39 1013 15 16093 4.1 150 22:40 06.08.2019
4096 Clouds 39 1013 9 16093 1.5 0 22:20 06.08.2019
4097 Clear 38 1014 14 16093 3.1 0 21:45 06.08.2019
4098 Clouds 38 1013 10 16093 2.1 140 21:26 06.08.2019
4099 Clouds 37 1013 10 16093 2.1 140 20:59 06.08.2019
4100 Clear 38 1014 17 16093 5.1 160 20:41 06.08.2019
4101 Clouds 37 1014 11 16093 1.5 0 20:23 06.08.2019
4102 Clear 36 1014 14 16093 5.7 170 19:48 06.08.2019
4103 Clouds 36 1014 13 16093 1.5 70 19:29 06.08.2019
4104 -273 0 0 0 0 0 18:56 06.08.2019
4105 Clear 34 1014 20 16093 3.05 237.847 18:37 06.08.2019
4106 Clouds 33 1013 16 16093 3.1 360 18:18 06.08.2019
4107 Clouds 33 1013 16 16093 3.1 360 17:56 06.08.2019
4108 Clouds 33 1013 16 16093 3.1 360 17:56 06.08.2019
4109 Clear 33 1014 17 16093 2.6 210 17:36 06.08.2019
4110 Clouds 33 1013 14 16093 1.5 0 17:18 06.08.2019
4111 Clear 32 1013 18 16093 2.6 210 16:42 06.08.2019
4112 Clouds 32 1012 16 16093 1.58 263.001 16:24 06.08.2019
4113 Clouds 31 1012 16 16093 1.58 263.001 15:58 06.08.2019
4114 Clear 31 1012 27 16093 2.1 60 15:39 06.08.2019
4115 Clouds 31 1012 15 16093 1.5 200 15:20 06.08.2019
4116 Clear 31 1012 22 16093 1.89 278.709 14:45 06.08.2019
4117 Clouds 31 1011 14 16093 2.1 190 14:26 06.08.2019
4118 Clouds 31 1011 14 16093 2.1 190 13:58 06.08.2019
4119 Clear 31 1011 28 16093 2.1 50 13:40 06.08.2019
4120 Clouds 32 1011 14 16093 2.6 180 13:21 06.08.2019
4121 Clouds 32 1011 14 16093 2.6 180 12:58 06.08.2019
4122 Clear 32 1011 19 16093 2.14 285.403 12:39 06.08.2019
4123 Clouds 33 1011 12 16093 2.1 0 12:21 06.08.2019
4124 Clear 33 1011 23 16093 2.9 295.63 11:43 06.08.2019
4125 Clouds 34 1011 11 16093 3.1 190 11:19 06.08.2019
4126 Clouds 33 1011 11 16093 3.1 190 10:56 06.08.2019
4127 Clear 33 1011 15 16093 2.9 295.63 10:37 06.08.2019
4128 Clouds 33 1011 11 16093 3.6 170 10:19 06.08.2019
4129 Clear 34 1011 15 16093 1.5 350 09:39 06.08.2019
4130 Clouds 34 1011 14 16093 3.1 220 09:20 06.08.2019
4131 Clear 35 1011 16 16093 3.99 296.161 08:47 06.08.2019
4132 Clouds 35 1011 13 16093 2.6 220 08:26 06.08.2019
4133 Clear 36 1012 12 16093 4.29 289.368 07:40 06.08.2019
4134 Clouds 36 1011 8 16093 2.6 230 07:22 06.08.2019
4135 Clear 37 1011 7 16093 4.29 289.368 06:43 06.08.2019
4136 Clouds 38 1011 8 16093 3.1 220 05:55 06.08.2019
4137 Clear 41 1010 6 16093 7.2 260 04:32 06.08.2019
4138 Clouds 43 1010 10 16093 3.6 250 01:55 06.08.2019
4139 Clouds 43 1010 7 16093 5.1 250 01:24 06.08.2019
4140 Clear 43 1011 9 16093 2.6 0 00:37 06.08.2019
4141 Clear 43 1012 10 16093 4.1 220 23:47 05.08.2019
4142 Clouds 42 1012 10 16093 6.7 230 23:19 05.08.2019
4143 Clear 42 1013 7 16093 4.6 260 22:41 05.08.2019
4144 Clouds 41 1013 8 16093 3.1 0 22:23 05.08.2019
4145 Clouds 41 1013 8 16093 3.1 0 21:55 05.08.2019
4146 Clear 40 1013 9 16093 5.44 216.643 21:36 05.08.2019
4147 Clouds 40 1014 9 16093 1.5 130 21:18 05.08.2019
4148 Clouds 39 1014 9 16093 1.5 130 20:55 05.08.2019
4149 Clear 39 1014 10 16093 3.1 110 20:37 05.08.2019
4150 Clouds 39 1015 10 16093 1.5 0 20:18 05.08.2019
4151 Clear 37 1015 12 16093 3.83 172.511 19:43 05.08.2019
4152 Clouds 37 1015 11 16093 1.5 10 19:23 05.08.2019
4153 Clouds 36 1015 11 16093 1.5 10 18:57 05.08.2019
4154 Clouds 36 1015 11 16093 1.5 10 18:57 05.08.2019
4155 Clear 36 1015 13 16093 3.83 172.511 18:39 05.08.2019
4156 Clouds 35 1015 11 16093 0.26 330.837 18:18 05.08.2019
4157 Clear 33 1015 16 16093 0.26 330.837 17:41 05.08.2019
4158 Clouds 33 1014 15 16093 0.26 330.837 17:22 05.08.2019
4159 Clear 31 1014 19 16093 0.26 330.837 16:46 05.08.2019
4160 Clouds 30 1014 15 16093 2.6 220 16:25 05.08.2019
4161 Clear 29 1014 32 16093 0.26 330.837 15:45 05.08.2019
4162 Clouds 28 1013 14 16093 2.6 230 15:22 05.08.2019
4163 Clouds 29 1013 14 16093 2.6 230 14:58 05.08.2019
4164 Clouds 29 1013 16 16093 1.5 250 14:38 05.08.2019
4165 Clouds 29 1013 16 16093 1.5 250 14:19 05.08.2019
4166 Clouds 30 1013 26 16093 2.1 320 13:41 05.08.2019
4167 Clouds 30 1012 15 16093 2.6 190 13:21 05.08.2019
4168 Clear 31 1013 20 16093 1.16 281.048 12:45 05.08.2019
4169 Clear 31 1012 16 16093 3.1 170 12:20 05.08.2019
4170 Clear 32 1013 25 16093 2.1 330 11:46 05.08.2019
4171 Clear 31 1012 14 16093 3.1 210 11:27 05.08.2019
4172 Clear 33 1012 23 16093 1.68 263.694 10:51 05.08.2019
4173 Clear 33 1012 23 16093 1.68 263.694 10:33 05.08.2019
4174 Clouds 33 1012 14 16093 2.6 200 09:59 05.08.2019
4175 Clear 34 1013 22 16093 2.1 320 09:40 05.08.2019
4176 Clouds 33 1012 12 16093 2.6 220 09:21 05.08.2019
4177 Clear 34 1013 22 16093 1.69 269.457 08:47 05.08.2019
4178 Clouds 34 1012 12 16093 3.1 200 08:25 05.08.2019
4179 Clear 35 1012 15 16093 1.69 269.457 07:53 05.08.2019
4180 Clouds 35 1012 12 16093 3.1 210 07:31 05.08.2019
4181 Clouds 36 1012 12 16093 3.1 210 06:58 05.08.2019
4182 Clouds 37 1011 11 16093 4.1 230 06:27 05.08.2019
4183 Clear 38 1011 12 16093 4.6 270 05:41 05.08.2019
4184 Clouds 39 1011 12 16093 3.6 230 04:55 05.08.2019
4185 Clear 41 1010 11 16093 4.6 250 03:53 05.08.2019
4186 Clouds 41 1010 11 16093 5.7 230 03:20 05.08.2019
4187 Clouds 42 1010 10 16093 4.6 250 02:21 05.08.2019
4188 Clouds 42 1011 10 16093 4.6 220 01:31 05.08.2019
4189 Clear 41 1012 9 16093 6.06 229.397 00:41 05.08.2019
4190 Clouds 41 1012 9 16093 4.6 160 00:21 05.08.2019
4191 Clear 42 1012 9 16093 3.6 270 23:43 04.08.2019
4192 Clouds 42 1012 8 16093 3.6 160 23:23 04.08.2019
4193 Clouds 41 1012 8 16093 3.6 160 22:57 04.08.2019
4194 Clouds 41 1013 8 16093 4.1 210 22:38 04.08.2019
4195 Clouds 40 1013 8 16093 3.1 0 22:20 04.08.2019
4196 Clouds 40 1013 8 16093 3.1 0 21:58 04.08.2019
4197 Clear 40 1014 12 16093 3.6 260 21:40 04.08.2019
4198 Clouds 39 1014 8 16093 2.6 0 21:19 04.08.2019
4199 Clear 38 1014 14 16093 1.5 0 20:42 04.08.2019
4200 Clouds 37 1014 10 16093 3.1 90 20:19 04.08.2019
4201 Clear 37 1015 11 16093 3.6 240 19:54 04.08.2019
4202 Clear 37 1015 11 16093 3.6 240 19:36 04.08.2019
4203 Clouds 37 1014 10 16093 1.5 90 19:18 04.08.2019
4204 Clear 35 1015 13 16093 2.1 140 18:41 04.08.2019
4205 Clouds 33 1014 11 16093 1.84 82.073 18:20 04.08.2019
4206 Clear 33 1015 25 16093 1.84 82.073 17:44 04.08.2019
4207 Clouds 31 1014 11 16093 2.6 230 17:24 04.08.2019
4208 Clear 30 1014 17 16093 3.6 140 16:46 04.08.2019
4209 Clouds 30 1014 11 16093 2.1 230 16:27 04.08.2019
4210 Clouds 30 1014 11 16093 2.1 230 15:56 04.08.2019
4211 Clear 29 1014 32 16093 1.84 82.073 15:37 04.08.2019
4212 Clear 28 1012 20 16093 2.6 300 15:19 04.08.2019
4213 Clear 29 1013 26 16093 0.63 292.842 14:42 04.08.2019
4214 Clouds 29 1012 11 16093 2.1 200 14:22 04.08.2019
4215 Clear 31 1013 28 16093 0.63 292.842 13:46 04.08.2019
4216 Clouds 31 1012 13 16093 3.6 190 13:27 04.08.2019
4217 Clouds 30 1012 13 16093 3.6 190 12:57 04.08.2019
4218 Clear 31 1012 30 16093 1.5 90 12:39 04.08.2019
4219 Clouds 31 1011 15 16093 3.1 190 12:21 04.08.2019
4220 Clear 32 1012 20 16093 1.37 264.972 11:41 04.08.2019
4221 Clouds 32 1012 15 16093 2.1 200 11:22 04.08.2019
4222 Thunderstorm 33 1012 19 16093 2.6 10 10:47 04.08.2019
4223 Thunderstorm 33 1012 19 16093 2.6 10 10:22 04.08.2019
4224 Clear 34 1012 19 16093 2.6 310 09:46 04.08.2019
4225 Clouds 34 1011 12 16093 2.1 200 09:25 04.08.2019
4226 Clouds 34 1011 12 16093 2.1 200 08:57 04.08.2019
4227 Clear 34 1012 19 16093 1.5 320 08:33 04.08.2019
4228 Clear 35 1011 12 16093 2.6 290 07:54 04.08.2019
4229 Thunderstorm 36 1011 13 16093 3.1 210 07:23 04.08.2019
4230 Clouds 36 1010 10 16093 4.1 220 06:28 04.08.2019
4231 Clouds 37 1010 10 16093 4.1 220 05:57 04.08.2019
4232 Clear 42 1009 9 16093 5.7 140 03:34 04.08.2019
4233 Clear 42 1010 9 16093 1.5 0 01:52 04.08.2019
4234 Clouds 42 1009 10 16093 5.1 50 01:32 04.08.2019
4235 Clear 42 1010 9 16093 6.7 210 00:41 04.08.2019
4236 Clouds 41 1011 10 16093 4.6 80 00:23 04.08.2019
4237 Clear 41 1012 10 16093 3.1 240 23:42 03.08.2019
4238 Clouds 41 1012 12 16093 1.5 0 23:19 03.08.2019
4239 Clouds 40 1012 12 16093 1.5 0 22:57 03.08.2019
4240 Clear 41 1012 11 16093 2.1 0 22:38 03.08.2019
4241 Clouds 40 1013 11 16093 4.15 204.245 22:19 03.08.2019
4242 Clear 39 1013 12 16093 4.6 70 21:39 03.08.2019
4243 Clouds 38 1013 10 16093 2.6 0 21:20 03.08.2019
4244 Clear 38 1014 14 16093 2.1 0 20:43 03.08.2019
4245 Clouds 37 1014 13 16093 1.5 0 20:24 03.08.2019
4246 Clear 37 1014 14 16093 2.1 0 19:43 03.08.2019
4247 Clear 37 1014 14 16093 2.1 0 19:43 03.08.2019
4248 Clouds 36 1014 13 16093 3.04 195.899 19:25 03.08.2019
4249 Clouds 36 1014 13 16093 3.04 195.899 19:25 03.08.2019
4250 Clouds 35 1014 13 16093 3.04 195.899 18:56 03.08.2019
4251 Clouds 34 1014 15 16093 2.1 330 18:28 03.08.2019
4252 Clear 32 1014 18 16093 0.62 266.924 17:51 03.08.2019
4253 Clouds 31 1014 21 16093 2.1 250 17:23 03.08.2019
4254 Clouds 31 1014 21 16093 2.1 250 16:58 03.08.2019
4255 Clear 30 1014 27 16093 0.62 266.924 16:38 03.08.2019
4256 Clouds 30 1013 20 16093 2.6 210 16:19 03.08.2019
4257 Clear 29 1014 32 16093 2.1 20 15:45 03.08.2019
4258 Clear 29 1014 32 16093 2.1 20 15:45 03.08.2019
4259 Clouds 29 1013 18 16093 2.6 190 15:24 03.08.2019
4260 Clear 28 1013 32 16093 0.96 265.092 14:44 03.08.2019
4261 Clouds 29 1013 22 16093 2.1 190 14:23 03.08.2019
4262 Clouds 30 1013 22 16093 2.1 190 13:57 03.08.2019
4263 Clouds 30 1013 30 16093 0.96 265.092 13:36 03.08.2019
4264 Clouds 30 1012 20 16093 2.1 180 13:18 03.08.2019
4265 Clear 30 1013 26 16093 1.01 268.18 12:41 03.08.2019
4266 Clouds 30 1012 19 16093 1.5 200 12:23 03.08.2019
4267 Clear 31 1013 19 16093 2.6 300 11:52 03.08.2019
4268 Clouds 32 1013 18 16093 1.28 272.103 11:33 03.08.2019
4269 Clear 32 1013 26 16093 1.28 272.103 10:46 03.08.2019
4270 Clouds 32 1013 16 16093 2.6 190 10:24 03.08.2019
4271 Clear 33 1013 23 16093 2.6 70 09:45 03.08.2019
4272 Clouds 33 1012 14 16093 3.1 210 09:23 03.08.2019
4273 Clouds 33 1012 14 16093 3.1 210 08:55 03.08.2019
4274 Clouds 34 1012 13 16093 2.6 200 08:18 03.08.2019
4275 Clear 34 1013 25 16093 2.35 286.234 07:37 03.08.2019
4276 Clear 36 1012 13 16093 2.35 286.234 06:40 03.08.2019
4277 Clear 37 1011 10 16093 2.6 320 05:44 03.08.2019
4278 Clear 40 1011 12 16093 2.6 0 02:42 03.08.2019
4279 Clear 40 1012 12 16093 2.1 0 01:50 03.08.2019
4280 Clouds 41 1012 9 16093 1.5 330 00:56 03.08.2019
4281 Clouds 40 1012 10 16093 2.6 0 00:29 03.08.2019
4282 Clouds 40 1014 10 16093 4.1 160 23:41 02.08.2019
4283 Clouds 40 1014 10 16093 2.6 0 23:19 02.08.2019
4284 Clouds 40 1014 10 16093 2.6 0 22:57 02.08.2019
4285 Clear 40 1014 11 16093 2.6 0 22:39 02.08.2019
4286 Clouds 39 1015 11 16093 1.5 240 22:20 02.08.2019
4287 Clouds 38 1015 11 16093 1.5 240 21:55 02.08.2019
4288 Clear 38 1015 10 16093 1.5 260 21:36 02.08.2019
4289 Clouds 38 1015 11 16093 1.5 0 21:18 02.08.2019
4290 Clear 37 1015 14 16093 2.03 237.678 20:41 02.08.2019
4291 Clouds 37 1015 13 16093 2.03 237.678 20:21 02.08.2019
4292 Clear 36 1016 11 16093 2.1 70 19:49 02.08.2019
4293 Clouds 36 1016 11 16093 1.5 20 19:28 02.08.2019
4294 Clear 34 1016 12 16093 2.03 237.678 18:45 02.08.2019
4295 Clouds 34 1016 12 16093 2.03 237.678 18:27 02.08.2019
4296 Clear 32 1016 13 16093 2.07 266.479 17:48 02.08.2019
4297 -273 0 0 0 0 0 17:26 02.08.2019
4298 Clouds 30 1016 13 16093 2.07 266.479 16:59 02.08.2019
4299 Clear 29 1016 21 16093 2.07 266.479 16:39 02.08.2019
4300 Clouds 28 1015 15 16093 1.5 220 16:19 02.08.2019
4301 Clear 28 1015 29 16093 2.07 266.479 15:44 02.08.2019
4302 Clouds 27 1014 16 16093 3.1 190 15:20 02.08.2019
4303 Clear 28 1014 33 16093 1.5 360 14:47 02.08.2019
4304 Clouds 27 1014 17 16093 4.1 190 14:19 02.08.2019
4305 Clear 28 1014 31 16093 2.43 281.061 13:50 02.08.2019
4306 Clear 29 1013 15 16093 2.6 180 13:29 02.08.2019
4307 Clear 29 1014 28 16093 2.26 285.068 12:47 02.08.2019
4308 Clear 29 1013 14 16093 3.6 170 12:24 02.08.2019
4309 Clear 29 1013 14 16093 3.6 170 11:58 02.08.2019
4310 Clear 29 1014 36 16093 2.1 10 11:39 02.08.2019
4311 Clear 30 1013 15 16093 3.1 210 11:21 02.08.2019
4312 Clear 30 1014 28 16093 1.7 289.434 10:43 02.08.2019
4313 Clouds 31 1013 17 16093 2.1 240 10:23 02.08.2019
4314 Clear 31 1014 37 16093 1.7 289.434 09:52 02.08.2019
4315 Clouds 31 1013 16 16093 2.1 190 09:29 02.08.2019
4316 Clouds 32 1013 15 16093 2.1 200 08:53 02.08.2019
4317 Clouds 32 1013 15 16093 2.1 200 08:25 02.08.2019
4318 Clouds 34 1013 13 16093 1.5 200 07:52 02.08.2019
4319 Clouds 34 1013 13 16093 1.5 200 07:34 02.08.2019
4320 Clouds 35 1013 21 16093 2.6 170 06:55 02.08.2019
4321 -273 0 0 0 0 0 06:26 02.08.2019
4322 Clouds 36 1013 19 16093 1.5 150 05:37 02.08.2019
4323 Clouds 38 1012 15 16093 4.6 70 03:31 02.08.2019
4324 Clear 38 1013 17 16093 4.1 180 02:35 02.08.2019
4325 Clear 38 1014 20 16093 3.1 200 00:47 02.08.2019
4326 Clouds 38 1014 13 16093 1.5 0 00:18 02.08.2019
4327 Drizzle 38 1014 13 16093 3.1 0 23:43 01.08.2019
4328 Clouds 38 1015 14 16093 3.1 30 23:19 01.08.2019
4329 Clouds 37 1016 18 16093 1.5 0 22:40 01.08.2019
4330 Clouds 36 1016 18 16093 3.32 227.321 22:21 01.08.2019
4331 Clear 36 1017 19 16093 2.6 200 21:44 01.08.2019
4332 Clouds 35 1016 22 16093 1.5 0 21:24 01.08.2019
4333 Clouds 34 1016 22 16093 1.5 0 20:59 01.08.2019
4334 Clear 34 1017 26 16093 4.1 230 20:40 01.08.2019
4335 Clouds 33 1017 31 16093 2.6 0 20:21 01.08.2019
4336 Clear 32 1017 29 16093 2.6 0 19:42 01.08.2019
4337 Clouds 32 1017 38 16093 2.6 110 19:20 01.08.2019
4338 Clear 31 1017 38 16093 2.1 0 18:46 01.08.2019
4339 Clouds 30 1017 45 16093 0.59 151.967 18:25 01.08.2019
4340 Clear 29 1017 48 16093 0.59 151.967 17:56 01.08.2019
4341 Clear 29 1017 48 16093 0.59 151.967 17:38 01.08.2019
4342 Clouds 28 1017 48 16093 2.1 0 17:19 01.08.2019
4343 Clear 28 1017 51 16093 1.5 50 16:44 01.08.2019
4344 Clouds 27 1016 51 16093 0.59 151.967 16:21 01.08.2019
4345 Clear 26 1016 60 16093 1.5 10 15:42 01.08.2019
4346 Clouds 25 1015 57 16093 1.5 140 15:20 01.08.2019
4347 Clouds 25 1016 60 16093 1.5 330 14:44 01.08.2019
4348 Clear 25 1015 57 16093 1.02 268.378 14:21 01.08.2019
4349 Clear 25 1015 57 16093 1.02 268.378 13:58 01.08.2019
4350 Clear 26 1015 60 16093 1.02 268.378 13:40 01.08.2019
4351 Clear 26 1014 57 16093 1.5 250 13:21 01.08.2019
4352 Clear 26 1015 60 16093 1.22 259.288 12:49 01.08.2019
4353 Clear 26 1014 57 16093 2.1 190 12:28 01.08.2019
4354 Clear 26 1014 57 16093 2.1 190 11:55 01.08.2019
4355 Clear 27 1015 61 16093 1.5 310 11:36 01.08.2019
4356 Clear 27 1015 54 16093 2.6 210 11:18 01.08.2019
4357 Clear 27 1016 65 16093 1.14 85.907 10:41 01.08.2019
4358 -273 0 0 0 0 0 10:41 01.08.2019
4359 Clear 27 1015 45 16093 2.1 220 10:22 01.08.2019
4360 Clear 28 1016 61 16093 1.5 310 09:48 01.08.2019
4361 Clear 28 1015 45 16093 2.1 270 09:23 01.08.2019
4362 Clear 28 1016 57 16093 2.7 25.843 08:50 01.08.2019
4363 Clouds 28 1016 42 16093 4.6 20 08:21 01.08.2019
4364 Clouds 29 1016 42 16093 4.6 20 07:55 01.08.2019
4365 Clouds 29 1016 40 16093 5.1 30 07:29 01.08.2019
4366 Clouds 30 1016 40 16093 5.1 30 06:58 01.08.2019
4367 Clear 30 1016 48 16093 2.7 25.843 06:36 01.08.2019
4368 Clear 30 1015 45 16093 1.66 32.119 05:32 01.08.2019
4369 Thunderstorm 31 1015 43 16093 3.6 220 02:36 01.08.2019
4370 Rain 31 1015 57 16093 5.1 230 01:25 01.08.2019
4371 Rain 31 1014 38 16093 4.1 90 00:27 01.08.2019
4372 Thunderstorm 33 1015 38 16093 7.2 70 23:57 31.07.2019
4373 Thunderstorm 34 1015 36 16093 9.8 70 23:39 31.07.2019
4374 Thunderstorm 33 1016 34 16093 7.2 100 23:19 31.07.2019
4375 Clear 34 1017 32 16093 9.3 120 22:44 31.07.2019
4376 Clouds 34 1016 36 16093 7.7 90 22:24 31.07.2019
4377 Clouds 34 1016 36 16093 7.7 90 22:24 31.07.2019
4378 Clear 34 1016 38 16093 6.7 50 21:41 31.07.2019
4379 Clouds 33 1016 30 16093 5.7 100 21:23 31.07.2019
4380 Smoke 33 1016 32 16093 6.7 90 20:49 31.07.2019
4381 Clouds 32 1016 31 16093 4.6 130 20:24 31.07.2019
4382 Clear 33 1017 45 16093 9.3 150 19:49 31.07.2019
4383 Clouds 32 1015 33 16093 4.6 150 19:31 31.07.2019
4384 Clouds 32 1015 33 16093 4.6 150 18:58 31.07.2019
4385 Clouds 32 1015 38 16093 5.1 120 18:37 31.07.2019
4386 Clouds 31 1015 38 16093 5.1 120 18:18 31.07.2019
4387 Rain 30 1016 45 16093 5.1 140 17:44 31.07.2019
4388 Rain 30 1014 43 16093 4.6 150 17:20 31.07.2019
4389 Rain 30 1014 43 16093 5.1 150 16:54 31.07.2019
4390 Rain 30 1014 43 16093 5.1 150 16:27 31.07.2019
4391 Clouds 30 1014 43 16093 5.1 150 15:58 31.07.2019
4392 Clear 30 1015 48 16093 6.2 160 15:38 31.07.2019
4393 Clouds 30 1013 38 16093 5.1 150 15:20 31.07.2019
4394 Clouds 31 1014 38 16093 7.2 150 14:42 31.07.2019
4395 Clouds 31 1012 22 16093 5.7 170 14:20 31.07.2019
4396 Clouds 32 1012 22 16093 5.7 170 13:55 31.07.2019
4397 Clouds 32 1013 35 16093 6.2 150 13:37 31.07.2019
4398 Clouds 32 1012 20 16093 3.6 170 13:18 31.07.2019
4399 Clouds 33 1012 31 16093 4.1 150 12:40 31.07.2019
4400 Clouds 32 1011 24 16093 4.1 190 12:22 31.07.2019
4401 Clouds 33 1012 30 16093 6.2 150 11:39 31.07.2019
4402 Clouds 33 1011 24 16093 2.1 190 11:21 31.07.2019
4403 Clouds 34 1011 24 16093 2.1 190 10:55 31.07.2019
4404 Clouds 34 1012 33 16093 3.1 160 10:37 31.07.2019
4405 Clouds 34 1011 23 16093 3.6 170 10:18 31.07.2019
4406 Clouds 34 1012 30 16093 2.1 160 09:42 31.07.2019
4407 Clouds 34 1011 23 16093 4.1 180 09:23 31.07.2019
4408 Clear 34 1012 26 16093 4.6 150 08:43 31.07.2019
4409 Clouds 34 1011 23 16093 4.1 170 08:24 31.07.2019
4410 Clouds 36 1011 20 16093 4.1 170 07:47 31.07.2019
4411 Clouds 36 1011 20 16093 4.1 170 07:27 31.07.2019
4412 Clear 38 1011 20 16093 7.7 160 05:20 31.07.2019
4413 Clouds 39 1009 18 16093 4.1 150 03:55 31.07.2019
4414 Clear 40 1011 18 16093 7.7 150 00:37 31.07.2019
4415 Clouds 41 1011 14 16093 5.7 130 23:47 30.07.2019
4416 Clouds 41 1011 14 16093 5.7 130 23:47 30.07.2019
4417 Clouds 41 1011 14 16093 5.7 130 23:25 30.07.2019
4418 Clear 40 1013 17 16093 9.3 150 22:48 30.07.2019
4419 Clouds 40 1012 14 16093 4.1 170 22:26 30.07.2019
4420 Clouds 39 1012 14 16093 4.1 170 21:57 30.07.2019
4421 Clear 39 1013 20 16093 9.8 150 21:37 30.07.2019
4422 Clouds 39 1012 8 16093 4.6 180 21:19 30.07.2019
4423 Clear 38 1014 22 16093 8.2 160 20:44 30.07.2019
4424 Clouds 38 1013 10 16093 6.2 170 20:25 30.07.2019
4425 Clouds 37 1013 10 16093 6.2 170 19:59 30.07.2019
4426 Clear 36 1014 20 16093 8.2 160 19:40 30.07.2019
4427 Clouds 36 1013 18 16093 5.1 150 19:21 30.07.2019
4428 Clear 35 1014 23 16093 8.7 180 18:44 30.07.2019
4429 Clouds 33 1013 14 16093 4.1 170 18:20 30.07.2019
4430 Clear 32 1014 25 16093 8.2 160 17:42 30.07.2019
4431 Clouds 32 1012 13 16093 4.1 130 17:20 30.07.2019
4432 Clear 31 1013 24 16093 5.1 180 16:53 30.07.2019
4433 Clouds 30 1012 11 16093 3.1 140 16:22 30.07.2019
4434 Clouds 30 1012 11 16093 3.1 140 15:59 30.07.2019
4435 Clear 31 1012 25 16093 3.1 170 15:38 30.07.2019
4436 Clouds 29 1011 11 16093 2.1 180 15:19 30.07.2019
4437 Clear 28 1011 28 16093 1.77 257.253 14:43 30.07.2019
4438 Clouds 29 1009 9 16093 4.6 180 14:22 30.07.2019
4439 Clear 29 1011 23 16093 2.6 170 13:48 30.07.2019
4440 Clouds 30 1009 9 16093 4.6 180 13:29 30.07.2019
4441 Clouds 30 1009 9 16093 4.6 180 12:59 30.07.2019
4442 Clear 30 1011 32 16093 1.66 240.478 12:40 30.07.2019
4443 Clouds 31 1009 9 16093 5.1 180 12:22 30.07.2019
4444 Clear 32 1010 25 16093 2.1 140 11:44 30.07.2019
4445 Clouds 32 1009 9 16093 4.6 190 11:21 30.07.2019
4446 Clouds 32 1009 9 16093 4.6 190 11:21 30.07.2019
4447 Clouds 33 1009 9 16093 4.6 190 10:55 30.07.2019
4448 Clear 33 1010 19 16093 2.55 246.949 10:37 30.07.2019
4449 Clouds 33 1009 6 16093 7.2 180 10:18 30.07.2019
4450 Clear 34 1010 16 16093 3.1 200 09:44 30.07.2019
4451 Clouds 34 1009 7 16093 3.1 170 09:24 30.07.2019
4452 Clouds 34 1009 7 16093 3.1 170 09:24 30.07.2019
4453 Clear 35 1010 13 16093 3.6 200 08:32 30.07.2019
4454 Clear 36 1009 7 16093 2.81 245.86 07:52 30.07.2019
4455 Clear 36 1009 7 16093 2.81 245.86 07:34 30.07.2019
4456 Clear 37 1009 8 16093 2.81 245.86 06:50 30.07.2019
4457 Clouds 37 1008 5 16093 3.6 190 06:31 30.07.2019
4458 Clear 39 1008 4 16093 2.1 170 05:34 30.07.2019
4459 Clouds 43 1007 3 16093 5.7 230 03:28 30.07.2019
4460 Clouds 43 1008 4 16093 3.1 240 01:22 30.07.2019
4461 Clouds 43 1009 5 16093 4.1 180 00:25 30.07.2019
4462 Clear 43 1009 7 16093 7.2 170 23:47 29.07.2019
4463 Clouds 43 1009 6 16093 3.1 250 23:28 29.07.2019
4464 Clouds 43 1009 6 16093 3.1 250 22:58 29.07.2019
4465 Clouds 43 1009 6 16093 3.1 250 22:58 29.07.2019
4466 Clear 43 1011 7 16093 9.3 160 22:39 29.07.2019
4467 Clouds 43 1010 7 16093 7.2 230 22:20 29.07.2019
4468 Clouds 43 1010 7 16093 7.2 230 22:20 29.07.2019
4469 Clouds 43 1010 7 16093 7.2 230 21:59 29.07.2019
4470 Clear 42 1011 6 16093 5.1 170 21:41 29.07.2019
4471 Clear 42 1010 8 16093 4.1 130 21:22 29.07.2019
4472 Clear 40 1012 9 16093 3.1 0 20:55 29.07.2019
4473 Clear 40 1012 9 16093 3.1 0 20:36 29.07.2019
4474 Clouds 40 1012 6 16093 6.2 170 20:18 29.07.2019
4475 Clear 38 1012 10 16093 3.1 0 19:41 29.07.2019
4476 Clouds 39 1012 7 16093 6.7 170 19:21 29.07.2019
4477 Clear 37 1012 10 16093 3.1 160 18:43 29.07.2019
4478 Clouds 35 1012 11 16093 6.7 170 18:23 29.07.2019
4479 Clouds 34 1012 11 16093 6.7 170 17:56 29.07.2019
4480 Clear 34 1012 11 16093 2.1 0 17:37 29.07.2019
4481 Clouds 33 1012 14 16093 5.1 170 17:19 29.07.2019
4482 Clear 32 1012 14 16093 1.5 140 16:42 29.07.2019
4483 Clouds 32 1011 14 16093 5.1 170 16:23 29.07.2019
4484 Clear 31 1012 16 16093 2.6 80 15:53 29.07.2019
4485 Clear 31 1012 16 16093 2.6 80 15:34 29.07.2019
4486 Clouds 30 1011 13 16093 5.1 170 14:56 29.07.2019
4487 Clouds 30 1011 13 16093 5.1 170 14:56 29.07.2019
4488 Clear 30 1011 17 16093 1.5 30 14:38 29.07.2019
4489 Clouds 30 1010 16 16093 4.1 180 14:19 29.07.2019
4490 Clear 30 1011 18 16093 2.1 30 13:42 29.07.2019
4491 Clouds 31 1010 10 16093 4.1 180 13:23 29.07.2019
4492 Clear 32 1011 16 16093 2.6 80 12:42 29.07.2019
4493 Clouds 32 1011 9 16093 2.1 190 12:24 29.07.2019
4494 Clear 33 1011 16 16093 2.1 30 11:44 29.07.2019
4495 Clouds 34 1011 8 16093 3.1 190 11:22 29.07.2019
4496 Clear 34 1011 15 16093 1.85 258.903 10:47 29.07.2019
4497 Clouds 34 1011 8 16093 3.1 210 10:25 29.07.2019
4498 Clear 35 1011 17 16093 2.6 260 09:51 29.07.2019
4499 Clouds 35 1011 9 16093 4.6 190 09:28 29.07.2019
4500 Clear 35 1011 17 16093 2.1 20 08:57 29.07.2019
4501 Clear 35 1011 17 16093 2.1 20 08:32 29.07.2019
4502 Clouds 37 1010 9 16093 2.6 220 07:59 29.07.2019
4503 Clear 37 1011 9 16093 3.6 180 07:36 29.07.2019
4504 Clear 39 1011 12 16093 3.1 160 06:53 29.07.2019
4505 Clear 38 1011 12 16093 3.6 150 05:46 29.07.2019
4506 Clear 41 1010 12 16093 4.14 249.361 04:51 29.07.2019
4507 Clouds 42 1012 11 16093 3.6 40 02:26 29.07.2019
4508 Clear 42 1011 10 16093 3.1 340 01:41 29.07.2019
4509 Clouds 42 1012 12 16093 1.5 0 01:21 29.07.2019
4510 Clouds 42 1012 12 16093 1.5 0 01:21 29.07.2019
4511 Clear 42 1012 11 16093 2.1 150 00:41 29.07.2019
4512 Clouds 42 1012 11 16093 3.37 151.936 00:19 29.07.2019
4513 Clear 41 1013 11 16093 3.37 151.936 23:40 28.07.2019
4514 Clouds 41 1014 12 16093 2.6 0 23:18 28.07.2019
4515 Clear 41 1014 14 16093 3.1 140 22:38 28.07.2019
4516 Clear 41 1014 14 16093 3.1 140 22:38 28.07.2019
4517 Clouds 41 1014 15 16093 1.5 0 22:19 28.07.2019
4518 Clear 40 1015 15 16093 2.6 40 21:46 28.07.2019
4519 Clouds 39 1015 17 16093 1.5 0 21:18 28.07.2019
4520 Clear 39 1015 16 16093 3.1 60 20:45 28.07.2019
4521 Clouds 38 1016 19 16093 3.1 70 20:27 28.07.2019
4522 Clear 38 1016 18 16093 3.6 50 19:42 28.07.2019
4523 Clouds 37 1016 18 16093 1.5 0 19:22 28.07.2019
4524 Clear 36 1016 20 16093 3.6 40 18:51 28.07.2019
4525 Clouds 36 1016 18 16093 2.41 96.921 18:30 28.07.2019
4526 Clouds 34 1016 18 16093 1.99 67.285 17:59 28.07.2019
4527 Clouds 34 1016 18 16093 1.99 67.285 17:59 28.07.2019
4528 Clear 34 1016 20 16093 2.1 0 17:40 28.07.2019
4529 Clouds 33 1016 20 16093 1.99 67.285 17:20 28.07.2019
4530 Clear 32 1015 24 16093 2.1 350 16:47 28.07.2019
4531 Clouds 31 1015 21 16093 1.99 67.285 16:28 28.07.2019
4532 Clouds 31 1015 21 16093 1.99 67.285 15:57 28.07.2019
4533 Clouds 31 1015 21 16093 1.99 67.285 15:57 28.07.2019
4534 Clear 31 1015 28 16093 2.1 340 15:39 28.07.2019
4535 Clouds 29 1015 23 16093 2.11 30.796 15:21 28.07.2019
4536 Clear 30 1014 25 16093 2.1 20 14:37 28.07.2019
4537 Clouds 30 1015 22 16093 2.1 210 14:18 28.07.2019
4538 Clear 30 1014 17 16093 1.5 250 13:42 28.07.2019
4539 Clouds 31 1014 18 16093 2.1 200 13:22 28.07.2019
4540 Clouds 31 1014 18 16093 2.1 200 12:59 28.07.2019
4541 Clear 31 1014 22 16093 1.68 55.608 12:39 28.07.2019
4542 Clouds 31 1014 18 16093 2.1 180 12:20 28.07.2019
4543 Clear 32 1014 21 16093 1.68 36.611 11:44 28.07.2019
4544 Clear 32 1014 18 16093 2.6 180 11:26 28.07.2019
4545 Clouds 32 1014 19 16093 1.5 290 10:40 28.07.2019
4546 Clear 33 1016 19 16093 3.1 200 10:20 28.07.2019
4547 Clear 33 1014 17 16093 1.5 300 09:41 28.07.2019
4548 Clear 33 1014 17 16093 1.5 300 09:41 28.07.2019
4549 Clear 33 1014 20 16093 3.1 290 09:23 28.07.2019
4550 Clear 34 1014 15 16093 2.6 110 08:51 28.07.2019
4551 Clouds 35 1014 14 16093 2.6 270 08:28 28.07.2019
4552 Clear 35 1014 15 16093 3.1 330 07:51 28.07.2019
4553 Clear 35 1014 15 16093 3.1 330 07:32 28.07.2019
4554 Clear 36 1013 23 16093 2.6 360 06:39 28.07.2019
4555 Clouds 37 1013 11 16093 4.1 220 05:25 28.07.2019
4556 Clouds 40 1013 15 16093 2.1 0 03:23 28.07.2019
4557 Clouds 40 1013 13 16093 3.6 310 02:19 28.07.2019
4558 Clouds 40 1014 13 16093 1.5 0 01:18 28.07.2019
4559 Clouds 40 1015 13 16093 2.1 0 00:44 28.07.2019
4560 Clouds 40 1015 13 16093 3.1 60 23:56 27.07.2019
4561 Clear 40 1015 13 16093 4.6 10 23:38 27.07.2019
4562 Clouds 39 1015 13 16093 5.7 320 23:18 27.07.2019
4563 Clear 39 1016 14 16093 2.1 200 22:40 27.07.2019
4564 Clouds 39 1016 16 16093 2.6 0 22:18 27.07.2019
4565 Clear 38 1016 18 16093 2.1 0 21:39 27.07.2019
4566 Clouds 37 1017 19 16093 1.5 10 21:20 27.07.2019
4567 Clear 37 1017 20 16093 2.6 230 20:50 27.07.2019
4568 Clouds 36 1017 20 16093 2.6 340 20:23 27.07.2019
4569 Clear 36 1017 22 16093 2.6 320 19:43 27.07.2019
4570 Clouds 35 1017 24 16093 2.79 236.989 19:25 27.07.2019
4571 Clear 34 1018 24 16093 4.6 300 18:51 27.07.2019
4572 Clouds 34 1018 24 16093 2.79 236.989 18:32 27.07.2019
4573 Clear 32 1018 29 16093 4.6 300 17:52 27.07.2019
4574 Clear 31 1018 29 16093 4.6 300 17:33 27.07.2019
4575 Clouds 31 1018 27 16093 1.17 233.696 16:59 27.07.2019
4576 Clear 30 1017 27 16093 4.1 320 16:39 27.07.2019
4577 Clouds 29 1017 31 16093 1.5 260 16:20 27.07.2019
4578 Clear 29 1017 33 16093 2.1 350 15:46 27.07.2019
4579 Clouds 28 1016 33 16093 1.5 220 15:20 27.07.2019
4580 Clouds 28 1016 35 16093 2.26 285.593 14:49 27.07.2019
4581 Clear 28 1016 33 16093 1.5 250 14:31 27.07.2019
4582 Clear 29 1016 33 16093 2.6 330 13:52 27.07.2019
4583 Clear 29 1016 29 16093 3.6 340 13:25 27.07.2019
4584 Clear 30 1015 31 16093 2.6 290 12:57 27.07.2019
4585 Clear 30 1015 31 16093 2.6 290 12:37 27.07.2019
4586 Clouds 30 1016 29 16093 8.2 350 12:19 27.07.2019
4587 Clouds 31 1015 29 16093 1.02 223.339 11:41 27.07.2019
4588 Clouds 31 1015 27 16093 4.6 60 11:23 27.07.2019
4589 Clear 32 1015 29 16093 4.1 340 10:41 27.07.2019
4590 Clouds 32 1015 24 16093 7.2 340 10:23 27.07.2019
4591 Clear 33 1015 27 16093 8.2 330 09:42 27.07.2019
4592 Clouds 33 1015 24 16093 8.7 330 09:23 27.07.2019
4593 Clear 33 1015 24 16093 6.2 310 08:50 27.07.2019
4594 Clear 33 1015 24 16093 6.2 310 08:32 27.07.2019
4595 Clear 34 1014 21 16093 3.1 230 07:56 27.07.2019
4596 Clear 34 1014 21 16093 3.1 230 07:34 27.07.2019
4597 Clouds 35 1014 18 16093 2.6 230 06:58 27.07.2019
4598 Clear 36 1014 18 16093 2.1 250 06:37 27.07.2019
4599 Clouds 36 1013 16 16093 4.6 250 06:18 27.07.2019
4600 Clear 36 1013 17 16093 3.6 250 05:32 27.07.2019
4601 Clear 38 1012 16 16093 4.6 270 04:35 27.07.2019
4602 Thunderstorm 40 1012 16 16093 5.1 240 03:37 27.07.2019
4603 Thunderstorm 40 1012 15 16093 5.1 250 02:42 27.07.2019
4604 Thunderstorm 40 1012 16 16093 5.1 270 01:52 27.07.2019
4605 Thunderstorm 40 1012 16 16093 5.1 270 01:31 27.07.2019
4606 Clouds 40 1012 19 16093 8.7 140 00:33 27.07.2019
4607 Clouds 39 1016 16 16093 4.1 190 23:58 26.07.2019
4608 Clouds 39 1014 19 16093 6.2 220 23:38 26.07.2019
4609 Clouds 39 1016 17 16093 3.1 0 23:20 26.07.2019
4610 Clear 39 1015 24 16093 2.6 0 22:42 26.07.2019
4611 Clouds 38 1016 20 16093 3.1 150 22:23 26.07.2019
4612 Clear 38 1016 22 16093 5.1 190 21:49 26.07.2019
4613 Clouds 36 1016 22 16093 1.5 0 21:20 26.07.2019
4614 Clear 36 1017 25 16093 2.6 170 20:45 26.07.2019
4615 Clouds 36 1017 25 16093 2.1 0 20:27 26.07.2019
4616 Clear 35 1017 26 16093 2.1 0 19:44 26.07.2019
4617 Clouds 34 1017 30 16093 2.1 90 19:26 26.07.2019
4618 Clouds 34 1017 30 16093 2.1 90 18:58 26.07.2019
4619 Clear 33 1017 31 16093 3.27 197.073 18:38 26.07.2019
4620 Clouds 32 1017 31 16093 0.68 137.099 18:20 26.07.2019
4621 Clear 32 1017 40 16093 0.68 137.099 17:47 26.07.2019
4622 Clear 31 1019 35 16093 1.5 80 17:19 26.07.2019
4623 Clear 30 1017 45 16093 0.68 137.099 16:58 26.07.2019
4624 Clear 30 1017 45 16093 0.68 137.099 16:40 26.07.2019
4625 Clouds 29 1017 40 16093 2.1 160 16:20 26.07.2019
4626 Clouds 29 1017 40 16093 2.1 160 15:56 26.07.2019
4627 Clear 28 1016 42 16093 1.5 290 15:38 26.07.2019
4628 Clouds 28 1016 33 16093 1.5 10 15:19 26.07.2019
4629 Clear 28 1015 48 16093 0.44 290.768 14:43 26.07.2019
4630 Clouds 28 1015 35 16093 0.44 290.768 14:22 26.07.2019
4631 Clear 29 1015 51 16093 1.5 40 13:46 26.07.2019
4632 Clouds 29 1014 38 16093 1.07 264.806 13:27 26.07.2019
4633 Clear 29 1015 51 16093 1.5 350 12:49 26.07.2019
4634 Clouds 29 1014 38 16093 1.22 301.74 12:23 26.07.2019
4635 Clear 29 1015 51 16093 1.22 301.74 11:48 26.07.2019
4636 Clear 30 1016 48 16093 5.1 200 11:22 26.07.2019
4637 Clear 30 1014 31 16093 2.6 360 10:59 26.07.2019
4638 Clear 30 1014 31 16093 2.6 360 10:39 26.07.2019
4639 Clear 30 1014 31 16093 2.6 360 10:19 26.07.2019
4640 Thunderstorm 31 1015 45 16093 1.22 301.74 09:47 26.07.2019
4641 Thunderstorm 31 1014 29 16093 2.6 220 09:26 26.07.2019
4642 Clear 31 1015 45 16093 2.6 320 08:41 26.07.2019
4643 Clouds 32 1014 30 16093 1.5 260 08:21 26.07.2019
4644 Clear 32 1014 40 16093 1.18 304.134 07:39 26.07.2019
4645 Clouds 32 1014 26 16093 3.6 280 07:21 26.07.2019
4646 Clouds 33 1013 28 16093 3.1 190 06:21 26.07.2019
4647 Clouds 35 1012 25 16093 1.5 120 04:30 26.07.2019
4648 Clear 36 1013 36 16093 2.1 240 03:50 26.07.2019
4649 Thunderstorm 35 1014 30 16093 1.5 160 01:45 26.07.2019
4650 Thunderstorm 35 1014 30 16093 1.5 160 01:18 26.07.2019
4651 Thunderstorm 33 1014 38 16093 4.1 150 00:28 26.07.2019
4652 Thunderstorm 34 1015 28 16093 1.5 0 23:40 25.07.2019
4653 Rain 35 1017 34 11265 1.75 196.094 23:19 25.07.2019
4654 Rain 35 1015 23 16093 2.1 0 22:41 25.07.2019
4655 Thunderstorm 35 1017 32 16093 2.6 0 22:21 25.07.2019
4656 Thunderstorm 35 1018 34 16093 4.1 330 21:47 25.07.2019
4657 Clear 34 1016 26 16093 4.1 10 21:23 25.07.2019
4658 Drizzle 33 1017 30 16093 3.6 40 20:51 25.07.2019
4659 Drizzle 33 1017 30 16093 3.6 40 20:33 25.07.2019
4660 Clouds 32 1017 30 16093 5.1 360 19:57 25.07.2019
4661 Clouds 32 1017 30 16093 1.95 150 19:39 25.07.2019
4662 Clouds 32 1017 33 16093 2.6 10 19:21 25.07.2019
4663 Rain 31 1017 35 16093 1.5 20 18:41 25.07.2019
4664 Rain 30 1017 38 16093 3.1 10 18:22 25.07.2019
4665 Rain 30 1017 40 16093 1.91 107.151 17:48 25.07.2019
4666 Rain 30 1016 38 16093 2.1 20 17:30 25.07.2019
4667 Rain 30 1016 38 16093 2.1 20 16:56 25.07.2019
4668 Rain 30 1016 40 16093 2.1 110 16:37 25.07.2019
4669 Rain 29 1016 40 16093 1.91 107.151 16:19 25.07.2019
4670 Clear 29 1016 48 16093 3.1 50 15:42 25.07.2019
4671 Clouds 29 1017 45 16093 2.6 220 15:19 25.07.2019
4672 Clouds 28 1015 51 16093 3.6 40 14:42 25.07.2019
4673 Clouds 29 1016 45 16093 2.75 70.965 14:23 25.07.2019
4674 Clouds 29 1015 40 16093 3.6 80 13:44 25.07.2019
4675 Clouds 29 1014 40 16093 1.5 180 13:26 25.07.2019
4676 Clouds 29 1014 40 16093 1.5 180 12:57 25.07.2019
4677 Clouds 29 1014 40 16093 1.5 140 12:28 25.07.2019
4678 Clouds 30 1015 48 16093 1.5 60 11:46 25.07.2019
4679 Clouds 30 1014 35 16093 3.83 69.814 11:25 25.07.2019
4680 Clouds 31 1014 35 16093 3.83 69.814 10:55 25.07.2019
4681 Clouds 31 1014 35 16093 3.83 69.814 10:55 25.07.2019
4682 Clouds 31 1015 42 16093 3.83 69.814 10:36 25.07.2019
4683 Clouds 31 1015 33 16093 1.5 170 10:18 25.07.2019
4684 Clear 31 1015 38 16093 2.6 260 09:40 25.07.2019
4685 Clouds 31 1015 33 16093 2.1 150 09:18 25.07.2019
4686 Clouds 32 1016 38 16093 3.6 230 08:42 25.07.2019
4687 Clear 32 1016 33 16093 2.6 250 07:56 25.07.2019
4688 Clear 33 1016 33 16093 2.6 250 07:34 25.07.2019
4689 Clear 33 1015 31 16093 2.6 220 06:42 25.07.2019
4690 Clear 34 1014 31 16093 3.1 130 05:37 25.07.2019
4691 Clouds 34 1013 28 16093 4.1 130 05:18 25.07.2019
4692 Clouds 35 1013 20 16093 1.28 4.939 04:31 25.07.2019
4693 Clouds 36 1014 22 16093 3.6 170 01:31 25.07.2019
4694 Clear 36 1015 22 16093 4.6 230 00:45 25.07.2019
4695 Clouds 36 1015 25 16093 2.6 0 00:19 25.07.2019
4696 Clear 35 1015 21 16093 5.1 240 23:45 24.07.2019
4697 Clouds 35 1016 28 16093 4.6 210 23:27 24.07.2019
4698 Clouds 34 1016 26 16093 4.1 190 22:48 24.07.2019
4699 Clouds 34 1016 26 16093 4.1 190 22:27 24.07.2019
4700 Thunderstorm 34 1016 26 16093 4.1 190 21:59 24.07.2019
4701 Rain 34 1017 23 16093 5.1 240 21:41 24.07.2019
4702 Rain 33 1017 28 16093 2.6 180 21:20 24.07.2019
4703 Rain 33 1019 31 16093 3.1 130 20:48 24.07.2019
4704 Rain 32 1019 35 16093 3.6 120 20:29 24.07.2019
4705 Rain 32 1017 31 16093 1.5 0 19:59 24.07.2019
4706 Rain 32 1017 31 16093 1.5 0 19:59 24.07.2019
4707 Rain 32 1017 33 16093 3.1 90 19:41 24.07.2019
4708 Thunderstorm 32 1017 40 16093 2.6 80 19:21 24.07.2019
4709 Rain 32 1017 43 16093 3.1 160 18:45 24.07.2019
4710 Thunderstorm 31 1019 40 16093 1.5 140 18:25 24.07.2019
4711 Thunderstorm 32 1017 33 16093 2.1 160 17:55 24.07.2019
4712 Rain 31 1017 33 16093 1.43 80.313 17:37 24.07.2019
4713 Rain 31 1017 27 16093 2.6 160 17:18 24.07.2019
4714 Rain 31 1017 40 16093 2.6 360 16:39 24.07.2019
4715 Rain 31 1016 27 16093 1.43 80.313 16:21 24.07.2019
4716 Clouds 30 1016 35 16093 1.43 80.313 15:38 24.07.2019
4717 Clouds 29 1016 29 16093 1.72 64.701 15:20 24.07.2019
4718 Clouds 29 1016 39 16093 2.1 20 14:46 24.07.2019
4719 Clouds 29 1015 31 16093 2.1 210 14:22 24.07.2019
4720 Clouds 29 1015 31 16093 2.1 210 14:22 24.07.2019
4721 Clouds 31 1016 35 16093 1.72 64.701 13:41 24.07.2019
4722 Clouds 31 1015 31 16093 2.1 190 13:23 24.07.2019
4723 Clear 31 1015 37 16093 2.1 310 12:54 24.07.2019
4724 Clear 31 1015 37 16093 2.1 310 12:35 24.07.2019
4725 Clouds 30 1015 31 16093 2.6 200 11:57 24.07.2019
4726 Clear 31 1015 35 16093 2.6 320 11:37 24.07.2019
4727 Clear 31 1017 31 16093 2.1 190 11:18 24.07.2019
4728 Clear 31 1015 33 16093 2.1 320 11:18 24.07.2019
4729 Clouds 32 1015 35 16093 1.5 350 10:41 24.07.2019
4730 Clouds 32 1015 24 16093 2.1 170 10:23 24.07.2019
4731 Clear 31 1015 37 16093 0.61 346.284 09:44 24.07.2019
4732 Clear 31 1015 37 16093 0.61 346.284 09:44 24.07.2019
4733 Clouds 33 1015 24 16093 2.6 190 09:23 24.07.2019
4734 Rain 34 1015 33 16093 1.23 231.114 08:52 24.07.2019
4735 Rain 33 1015 19 16093 2.6 210 08:26 24.07.2019
4736 Thunderstorm 34 1016 24 16093 3.64 57.507 07:47 24.07.2019
4737 Thunderstorm 34 1015 23 16093 3.6 200 07:23 24.07.2019
4738 Clouds 35 1014 19 16093 3.6 200 06:28 24.07.2019
4739 Clouds 36 1014 20 16093 2.6 190 05:26 24.07.2019
4740 Clouds 37 1014 18 16093 6.16 242.981 01:56 24.07.2019
4741 Thunderstorm 38 1015 17 16093 3.6 220 01:28 24.07.2019
4742 Thunderstorm 38 1015 16 16093 4.6 240 00:52 24.07.2019
4743 Rain 38 1015 19 16093 4.1 240 00:21 24.07.2019
4744 Rain 38 1014 18 16093 6.7 250 23:38 23.07.2019
4745 Rain 38 1016 17 16093 4.1 270 23:19 23.07.2019
4746 Clouds 38 1016 23 16093 4.6 170 22:39 23.07.2019
4747 Clouds 37 1015 20 16093 2.6 160 22:19 23.07.2019
4748 Clouds 37 1017 16 16093 4.1 180 21:54 23.07.2019
4749 Clouds 37 1017 16 16093 4.1 180 21:36 23.07.2019
4750 Clouds 37 1017 16 16093 4.1 180 21:36 23.07.2019
4751 Clouds 37 1017 19 16093 2.6 0 21:18 23.07.2019
4752 Clear 36 1018 25 16093 4.07 228.61 20:41 23.07.2019
4753 Clouds 35 1018 22 16093 4.6 210 20:21 23.07.2019
4754 Clear 35 1018 30 16093 5.1 140 19:40 23.07.2019
4755 Clouds 34 1017 23 16093 2.1 280 19:19 23.07.2019
4756 Clear 34 1018 31 16093 2.6 110 18:43 23.07.2019
4757 Clouds 34 1018 30 16093 3.6 170 18:22 23.07.2019
4758 Clear 33 1018 33 16093 3.6 130 17:44 23.07.2019
4759 Drizzle 32 1017 26 16093 2.6 190 17:24 23.07.2019
4760 Rain 32 1018 38 16093 4.1 130 16:50 23.07.2019
4761 Rain 32 1017 27 16093 1.5 170 16:28 23.07.2019
4762 Rain 32 1017 27 16093 1.5 170 15:58 23.07.2019
4763 Rain 32 1017 35 16093 3.1 170 15:39 23.07.2019
4764 Rain 33 1016 24 16093 2.1 140 15:21 23.07.2019
4765 Clouds 33 1017 38 16093 5.1 110 14:37 23.07.2019
4766 Clouds 33 1016 24 16093 5.7 210 14:19 23.07.2019
4767 Clouds 33 1016 24 16093 5.7 210 13:56 23.07.2019
4768 Clear 33 1016 31 16093 4.1 200 13:38 23.07.2019
4769 Clouds 34 1015 20 16093 5.1 190 13:19 23.07.2019
4770 Clouds 34 1016 29 16093 2.6 0 12:44 23.07.2019
4771 Clouds 34 1015 20 16093 3.6 200 12:25 23.07.2019
4772 Clouds 34 1015 27 16093 3.6 180 11:45 23.07.2019
4773 Clouds 34 1014 21 16093 4.1 170 11:26 23.07.2019
4774 Clouds 34 1015 26 16093 1.5 260 10:52 23.07.2019
4775 Clouds 35 1014 21 16093 3.1 170 10:26 23.07.2019
4776 Clear 35 1015 23 16093 1.92 261.295 09:44 23.07.2019
4777 Clouds 35 1014 19 16093 3.1 180 09:24 23.07.2019
4778 Clouds 35 1014 19 16093 3.1 180 08:57 23.07.2019
4779 Clear 35 1015 24 16093 3.1 180 08:38 23.07.2019
4780 Clouds 36 1013 18 16093 4.1 190 08:19 23.07.2019
4781 Clouds 36 1014 21 16093 2.45 307.939 07:50 23.07.2019
4782 Clouds 36 1013 16 16093 4.6 200 07:32 23.07.2019
4783 Clear 37 1014 22 16093 2.6 160 06:38 23.07.2019
4784 Clear 37 1013 23 16093 4.1 150 05:34 23.07.2019
4785 Clouds 40 1012 13 16093 4.1 100 01:57 23.07.2019
4786 Clouds 41 1013 11 16093 4.43 151.438 01:20 23.07.2019
4787 Clouds 40 1013 13 16093 1.5 0 00:28 23.07.2019
4788 Clouds 40 1014 15 16093 3.6 160 23:41 22.07.2019
4789 Clouds 40 1014 14 16093 3.1 0 23:21 22.07.2019
4790 Clear 40 1015 17 16093 5.7 150 22:48 22.07.2019
4791 Clouds 40 1015 13 16093 2.1 340 22:30 22.07.2019
4792 Clouds 39 1015 13 16093 2.1 340 21:59 22.07.2019
4793 Clear 38 1016 21 16093 6.7 150 21:41 22.07.2019
4794 Clouds 37 1015 15 16093 2.6 0 21:20 22.07.2019
4795 Clear 37 1016 21 16093 6.2 160 20:47 22.07.2019
4796 Clouds 37 1015 16 16093 2.1 130 20:29 22.07.2019
4797 Clear 35 1016 23 16093 5.1 180 19:44 22.07.2019
4798 Clouds 35 1015 14 16093 2.1 0 19:26 22.07.2019
4799 Clouds 35 1015 14 16093 2.1 0 18:57 22.07.2019
4800 Clear 35 1016 17 16093 4.1 160 18:39 22.07.2019
4801 Clouds 33 1015 14 16093 0.66 111.72 18:21 22.07.2019
4802 Clear 33 1015 21 16093 1.5 230 17:39 22.07.2019
4803 Clouds 32 1014 16 16093 0.66 111.72 17:21 22.07.2019
4804 Clear 31 1015 27 16093 0.66 111.72 16:41 22.07.2019
4805 Clouds 30 1014 14 16093 1.5 300 16:21 22.07.2019
4806 Clouds 29 1014 14 16093 1.5 300 15:58 22.07.2019
4807 Clear 28 1014 36 16093 2.1 40 15:36 22.07.2019
4808 Clouds 27 1013 17 16093 2.1 200 15:18 22.07.2019
4809 Clear 26 1013 28 16093 2.6 70 14:42 22.07.2019
4810 Clear 27 1014 20 16093 4.1 220 14:20 22.07.2019
4811 Clear 27 1014 20 16093 4.1 220 14:20 22.07.2019
4812 Clear 28 1013 34 16093 1.5 90 13:45 22.07.2019
4813 Clear 28 1013 34 16093 1.5 90 13:45 22.07.2019
4814 Clouds 28 1012 15 16093 1.5 190 13:26 22.07.2019
4815 Clear 29 1013 26 16093 1.15 288.213 12:44 22.07.2019
4816 Clouds 29 1012 17 16093 1.5 160 12:24 22.07.2019
4817 Clear 30 1013 25 16093 1.46 259.871 11:44 22.07.2019
4818 Clouds 30 1012 14 16093 2.6 190 11:20 22.07.2019
4819 Clear 31 1013 26 16093 1.46 259.871 10:48 22.07.2019
4820 Clouds 31 1012 13 16093 3.1 190 10:27 22.07.2019
4821 Clear 32 1013 26 16093 1.46 259.871 09:44 22.07.2019
4822 Clouds 34 1011 17 16093 3.6 180 09:24 22.07.2019
4823 Clear 34 1013 12 16093 1.5 140 08:45 22.07.2019
4824 Clouds 34 1011 9 16093 3.1 180 08:25 22.07.2019
4825 Clear 34 1012 13 16093 3.6 160 07:55 22.07.2019
4826 Clear 35 1012 13 16093 3.6 160 07:33 22.07.2019
4827 Clear 36 1011 15 16093 6.2 160 06:51 22.07.2019
4828 Clouds 40 1009 6 16093 4.1 210 03:57 22.07.2019
4829 Clouds 41 1010 10 16093 5.1 160 02:42 22.07.2019
4830 Clouds 40 1011 7 16093 3.6 160 00:56 22.07.2019
4831 Clouds 40 1012 8 16093 3.1 90 00:26 22.07.2019
4832 Clouds 40 1012 8 16093 3.1 90 23:55 21.07.2019
4833 Clear 40 1013 12 16093 4.6 160 23:31 21.07.2019
4834 Clear 39 1013 13 16093 3.6 140 22:42 21.07.2019
4835 Clouds 38 1013 10 16093 3.6 90 22:23 21.07.2019
4836 Clouds 38 1013 10 16093 3.6 90 21:58 21.07.2019
4837 Clear 37 1014 13 16093 4.1 130 21:38 21.07.2019
4838 Clouds 37 1014 10 16093 3.83 197.938 21:20 21.07.2019
4839 Clear 36 1014 15 16093 6.2 150 20:54 21.07.2019
4840 Clear 36 1014 15 16093 6.2 150 20:36 21.07.2019
4841 Clouds 35 1014 11 16093 2.1 90 20:18 21.07.2019
4842 Clear 35 1014 13 16093 6.2 170 19:41 21.07.2019
4843 Clouds 34 1014 13 16093 1.5 0 19:21 21.07.2019
4844 Clear 33 1014 15 16093 4.6 150 18:46 21.07.2019
4845 Clouds 31 1013 13 16093 1.5 60 18:25 21.07.2019
4846 Clouds 31 1013 13 16093 1.5 60 18:25 21.07.2019
4847 Clear 30 1014 11 16093 1.59 140.273 17:42 21.07.2019
4848 Clear 29 1013 14 16093 1.59 140.273 17:20 21.07.2019
4849 Clear 29 1013 18 16093 1.59 140.273 16:45 21.07.2019
4850 Clouds 28 1012 18 16093 1.5 200 16:25 21.07.2019
4851 Clear 26 1012 22 16093 1.59 140.273 15:57 21.07.2019
4852 Clear 26 1012 22 16093 1.59 140.273 15:36 21.07.2019
4853 Clouds 24 1012 19 16093 2.1 190 15:18 21.07.2019
4854 Clear 25 1012 27 16093 1.5 60 14:41 21.07.2019
4855 Clear 25 1011 17 16093 1.5 270 14:22 21.07.2019
4856 Clouds 25 1011 25 16093 3.1 20 13:45 21.07.2019
4857 Clear 25 1010 15 16093 1.5 270 13:27 21.07.2019
4858 Clear 26 1011 23 16093 0.68 296.338 12:43 21.07.2019
4859 Clear 27 1010 13 16093 3.1 170 12:24 21.07.2019
4860 Clear 27 1011 19 16093 1.78 271.835 11:47 21.07.2019
4861 Clear 27 1009 21 16093 2.6 40 11:29 21.07.2019
4862 Clear 28 1010 12 16093 3.1 140 10:56 21.07.2019
4863 Clear 29 1011 18 16093 2.1 330 10:38 21.07.2019
4864 Clear 29 1010 11 16093 2.1 200 10:19 21.07.2019
4865 Clear 30 1011 18 16093 2.6 340 09:37 21.07.2019
4866 Clear 30 1012 14 16093 5.1 210 09:19 21.07.2019
4867 Clear 31 1011 18 16093 2.6 320 08:40 21.07.2019
4868 Clear 32 1009 11 16093 3.6 190 08:22 21.07.2019
4869 Clear 32 1010 10 16093 2.02 270.795 07:32 21.07.2019
4870 Clear 34 1009 8 16093 3.1 170 06:45 21.07.2019
4871 Clear 36 1008 8 16093 3.6 230 05:27 21.07.2019
4872 Clear 39 1008 8 16093 5.2 227.462 02:20 21.07.2019
4873 Clear 39 1009 8 16093 7.2 170 00:51 21.07.2019
4874 Clear 39 1009 8 16093 5.1 210 00:24 21.07.2019
4875 Clear 38 1009 8 16093 5.1 210 23:57 20.07.2019
4876 Clear 39 1010 9 16093 3.1 150 23:37 20.07.2019
4877 Clear 38 1010 9 16093 3.6 190 23:18 20.07.2019
4878 Clear 37 1011 11 16093 2.6 0 22:42 20.07.2019
4879 Clear 37 1011 10 16093 3.6 150 22:20 20.07.2019
4880 Clear 37 1012 11 16093 6.96 220.345 21:44 20.07.2019
4881 Clouds 36 1011 11 16093 3.6 170 21:24 20.07.2019
4882 Clear 35 1012 13 16093 3.6 180 20:44 20.07.2019
4883 Clouds 34 1012 12 16093 2.1 0 20:23 20.07.2019
4884 Clear 33 1012 13 16093 3.1 190 19:53 20.07.2019
4885 Clear 33 1012 13 16093 3.1 190 19:53 20.07.2019
4886 Clear 34 1012 13 16093 3.1 190 19:34 20.07.2019
4887 Clouds 32 1012 15 16093 4.6 170 18:58 20.07.2019
4888 Clear 32 1012 15 16093 3.1 140 18:40 20.07.2019
4889 Clouds 30 1012 19 16093 4.6 170 18:19 20.07.2019
4890 Clear 29 1012 16 16093 2.27 215.893 17:47 20.07.2019
4891 Clouds 29 1011 23 16093 4.1 170 17:20 20.07.2019
4892 Clear 28 1012 17 16093 2.27 215.893 16:42 20.07.2019
4893 Clouds 27 1010 24 16093 3.6 180 16:24 20.07.2019
4894 Clouds 26 1010 24 16093 3.6 180 15:55 20.07.2019
4895 Clear 26 1011 27 16093 2.27 215.893 15:37 20.07.2019
4896 Clouds 25 1010 22 16093 4.1 180 15:18 20.07.2019
4897 Clear 25 1010 30 16093 2.1 20 14:42 20.07.2019
4898 Clouds 25 1009 20 16093 5.7 180 14:20 20.07.2019
4899 Clouds 27 1010 32 16093 2.1 160 13:38 20.07.2019
4900 Clouds 27 1009 17 16093 4.6 190 13:19 20.07.2019
4901 Clouds 27 1009 21 16093 1.27 243.979 12:51 20.07.2019
4902 Clouds 28 1008 15 16093 4.6 190 12:20 20.07.2019
4903 Clear 28 1009 23 16093 1.5 50 11:52 20.07.2019
4904 Clouds 28 1008 15 16093 4.6 210 11:23 20.07.2019
4905 Clear 30 1009 14 16093 2.37 264.111 10:49 20.07.2019
4906 Clouds 30 1008 11 16093 3.1 180 10:26 20.07.2019
4907 Clear 30 1009 10 16093 1.5 90 09:52 20.07.2019
4908 Clouds 30 1008 11 16093 3.6 170 09:27 20.07.2019
4909 Clear 31 1009 19 16093 2.1 80 08:55 20.07.2019
4910 Clear 31 1009 19 16093 2.1 80 08:36 20.07.2019
4911 Clouds 32 1008 11 16093 2.6 190 08:18 20.07.2019
4912 Clear 34 1008 8 16093 2.1 130 06:47 20.07.2019
4913 Clouds 34 1007 8 16093 5.1 220 06:21 20.07.2019
4914 Clouds 37 1007 7 16093 5.7 220 04:31 20.07.2019
4915 Clear 38 1007 6 16093 8.7 160 02:34 20.07.2019
4916 Clouds 38 1008 5 16093 5.7 210 01:20 20.07.2019
4917 Clear 38 1008 6 16093 9.3 160 00:45 20.07.2019
4918 Clouds 38 1008 5 16093 5.1 210 00:18 20.07.2019
4919 Clear 38 1009 7 16093 9.8 160 23:43 19.07.2019
4920 Clouds 38 1009 5 16093 5.7 190 23:22 19.07.2019
4921 Clear 38 1009 7 16093 6.7 150 22:43 19.07.2019
4922 Clouds 38 1010 5 16093 6.2 190 22:24 19.07.2019
4923 Clear 37 1011 8 16093 4.1 170 21:45 19.07.2019
4924 Clouds 37 1010 7 16093 5.7 170 21:27 19.07.2019
4925 Clear 36 1011 10 16093 3.1 0 20:49 19.07.2019
4926 Clouds 35 1011 11 16093 5.1 170 20:31 19.07.2019
4927 Clouds 34 1011 11 16093 5.1 170 19:55 19.07.2019
4928 Clear 34 1011 13 16093 6.2 140 19:34 19.07.2019
4929 Clear 32 1011 13 16093 6.2 180 18:42 19.07.2019
4930 Clouds 31 1011 16 16093 3.6 160 18:22 19.07.2019
4931 Clear 30 1011 14 16093 1.94 225.188 17:54 19.07.2019
4932 Clouds 29 1011 19 16093 2.6 110 17:28 19.07.2019
4933 Clear 29 1011 17 16093 1.94 225.188 16:49 19.07.2019
4934 Clouds 28 1010 20 16093 2.6 190 16:27 19.07.2019
4935 Clear 27 1010 25 16093 1.94 225.188 15:53 19.07.2019
4936 Clouds 26 1009 21 16093 3.1 190 15:31 19.07.2019
4937 Clouds 25 1009 21 16093 3.1 190 14:58 19.07.2019
4938 Clear 25 1010 31 16093 1.5 30 14:39 19.07.2019
4939 Clear 25 1009 20 16093 3.1 170 14:21 19.07.2019
4940 Clear 26 1009 23 16093 1.35 240.308 13:44 19.07.2019
4941 Clear 26 1009 23 16093 1.35 240.308 13:44 19.07.2019
4942 Clear 26 1009 17 16093 4.1 190 13:26 19.07.2019
4943 Clear 27 1009 29 16093 1.5 80 12:55 19.07.2019
4944 Clear 27 1009 29 16093 1.5 80 12:36 19.07.2019
4945 Clear 28 1009 16 16093 2.6 180 12:18 19.07.2019
4946 Clouds 28 1009 19 16093 1.6 277.846 11:43 19.07.2019
4947 Clear 28 1009 11 16093 2.6 200 11:18 19.07.2019
4948 Clear 29 1009 17 16093 1.6 277.846 10:47 19.07.2019
4949 Clear 29 1009 11 16093 2.1 190 10:22 19.07.2019
4950 Clear 30 1009 11 16093 2.1 190 09:58 19.07.2019
4951 Clear 30 1009 17 16093 2.1 350 09:40 19.07.2019
4952 Clear 30 1009 11 16093 2.1 210 09:21 19.07.2019
4953 Clear 32 1009 10 16093 2.96 252.819 08:48 19.07.2019
4954 Clear 33 1009 19 16093 1.5 50 07:55 19.07.2019
4955 Clear 33 1009 10 16093 3.1 220 07:29 19.07.2019
4956 Clear 35 1008 9 16093 4.6 220 05:57 19.07.2019
4957 Clouds 40 1008 5 16093 5.7 240 02:23 19.07.2019
4958 Clouds 39 1009 5 16093 4.1 210 01:20 19.07.2019
4959 Clear 39 1009 5 16093 6.2 240 00:42 19.07.2019
4960 Clear 39 1011 7 16093 3.6 0 23:57 18.07.2019
4961 Clear 39 1011 7 16093 3.6 0 23:39 18.07.2019
4962 Clouds 39 1011 7 16093 5.1 210 23:19 18.07.2019
4963 Clouds 39 1011 7 16093 5.1 210 23:19 18.07.2019
4964 Clear 38 1011 8 16093 6.2 180 22:40 18.07.2019
4965 Clouds 38 1012 7 16093 6.2 190 22:20 18.07.2019
4966 Clear 37 1013 12 16093 7.91 228.429 21:44 18.07.2019
4967 Clouds 37 1013 7 16093 6.2 200 21:26 18.07.2019
4968 Clear 36 1012 11 16093 6.2 160 20:52 18.07.2019
4969 Clear 36 1012 11 16093 6.2 160 20:29 18.07.2019
4970 Clouds 35 1013 11 16093 5.1 150 19:59 18.07.2019
4971 Clear 34 1014 13 16093 4.1 220 19:40 18.07.2019
4972 Clear 34 1013 13 16093 4.6 180 19:18 18.07.2019
4973 Clear 33 1014 15 16093 3.6 220 18:42 18.07.2019
4974 Clear 31 1014 17 16093 5.7 170 18:20 18.07.2019
4975 Clear 30 1014 17 16093 2.32 234.98 17:44 18.07.2019
4976 Clear 29 1013 20 16093 4.6 180 17:24 18.07.2019
4977 Clear 29 1013 20 16093 4.6 180 16:57 18.07.2019
4978 Clouds 28 1013 21 16093 3.1 220 16:39 18.07.2019
4979 Clouds 28 1013 21 16093 3.1 220 16:18 18.07.2019
4980 Clear 27 1014 27 16093 2.32 234.98 15:44 18.07.2019
4981 Clear 27 1014 27 16093 2.32 234.98 15:44 18.07.2019
4982 Clouds 25 1012 21 16093 3.6 190 15:25 18.07.2019
4983 Clear 25 1013 31 16093 1.72 236.985 14:50 18.07.2019
4984 Clear 25 1012 21 16093 3.1 180 14:32 18.07.2019
4985 Clouds 26 1013 33 16093 1.5 70 13:50 18.07.2019
4986 Clear 27 1012 20 16093 3.1 180 13:24 18.07.2019
4987 Clouds 28 1012 16 16093 2.6 200 12:53 18.07.2019
4988 Clear 28 1011 18 16093 1.5 150 12:22 18.07.2019
4989 Clouds 29 1012 24 16093 1.51 260.018 11:58 18.07.2019
4990 Clouds 29 1012 24 16093 1.51 260.018 11:39 18.07.2019
4991 Clear 28 1011 16 16093 1.51 260.018 11:21 18.07.2019
4992 Clouds 29 1012 20 16093 1.51 260.018 10:49 18.07.2019
4993 Clear 30 1012 26 16093 2.1 360 09:50 18.07.2019
4994 Clear 31 1011 11 16093 2.1 210 09:27 18.07.2019
4995 Clouds 31 1012 20 16093 2.1 330 08:52 18.07.2019
4996 Clouds 32 1011 9 16093 2.6 190 08:25 18.07.2019
4997 Clear 32 1012 15 16093 2.81 253.768 07:56 18.07.2019
4998 Clouds 33 1011 9 16093 3.6 210 07:35 18.07.2019
4999 Clear 35 1011 9 16093 2.6 190 06:46 18.07.2019
5000 Clouds 35 1010 8 16093 3.1 230 06:20 18.07.2019
5001 Clear 38 1009 4 16093 5.7 230 03:34 18.07.2019
5002 Clear 39 1010 3 16093 6.2 220 01:53 18.07.2019
5003 Clouds 39 1010 5 16093 7.2 240 01:33 18.07.2019
5004 Clear 39 1011 5 16093 8.7 180 23:57 17.07.2019
5005 Clear 39 1013 6 16093 6.7 190 23:21 17.07.2019
5006 Clear 39 1012 4 16093 9.8 180 22:59 17.07.2019
5007 Clear 38 1012 4 16093 9.8 180 22:41 17.07.2019
5008 Clouds 38 1012 7 16093 5.1 220 22:21 17.07.2019
5009 Clear 37 1012 7 16093 8.7 180 21:56 17.07.2019
5010 Clear 37 1012 7 16093 8.7 180 21:37 17.07.2019
5011 Clouds 37 1013 8 16093 5.1 210 21:19 17.07.2019
5012 Clear 36 1013 8 16093 8.7 150 20:41 17.07.2019
5013 Clouds 36 1013 9 16093 4.1 190 20:21 17.07.2019
5014 Clear 35 1013 11 16093 3.6 190 19:59 17.07.2019
5015 Clouds 35 1013 13 16093 3.6 190 19:40 17.07.2019
5016 Clouds 34 1013 13 16093 3.6 190 19:19 17.07.2019
5017 Clear 33 1013 11 16093 3.1 150 18:43 17.07.2019
5018 Clouds 32 1012 14 16093 4.6 180 18:21 17.07.2019
5019 Clouds 32 1012 14 16093 4.6 180 18:21 17.07.2019
5020 Clear 31 1013 14 16093 2.78 222.067 17:55 17.07.2019
5021 Clear 31 1013 14 16093 2.78 222.067 17:37 17.07.2019
5022 Clear 30 1013 14 16093 2.78 222.067 17:18 17.07.2019
5023 Clouds 29 1011 17 16093 4.1 190 16:38 17.07.2019
5024 Clear 29 1013 20 16093 3.6 180 16:19 17.07.2019
5025 Clear 29 1013 20 16093 3.6 180 16:19 17.07.2019
5026 Clear 28 1011 19 16093 2.6 320 15:51 17.07.2019
5027 Clear 27 1011 22 16093 3.1 310 15:29 17.07.2019
5028 Clear 27 1010 29 16093 1.98 242.582 14:55 17.07.2019
5029 Clouds 27 1010 29 16093 1.98 242.582 14:37 17.07.2019
5030 Clouds 27 1010 29 16093 1.98 242.582 14:19 17.07.2019
5031 Clouds 27 1009 33 16093 1.98 242.582 13:45 17.07.2019
5032 Clouds 27 1009 33 16093 1.81 235.429 13:25 17.07.2019
5033 Clouds 28 1009 18 16093 3.6 270 12:43 17.07.2019
5034 Clouds 28 1009 18 16093 3.6 270 12:21 17.07.2019
5035 Clouds 29 1009 17 16093 2.1 0 11:56 17.07.2019
5036 Clouds 28 1009 21 16093 2.37 255.324 11:37 17.07.2019
5037 Clouds 29 1009 21 16093 2.37 255.324 11:18 17.07.2019
5038 Clouds 30 1009 15 16093 3.1 190 10:42 17.07.2019
5039 Clouds 30 1009 15 16093 3.1 190 10:18 17.07.2019
5040 Clouds 31 1009 23 16093 3.6 260 09:44 17.07.2019
5041 Clouds 31 1009 23 16093 3.6 260 09:44 17.07.2019
5042 Clouds 32 1009 18 16093 3.6 260 09:25 17.07.2019
5043 Clear 34 1008 10 16093 4.1 230 08:44 17.07.2019
5044 Clear 33 1007 9 16093 5.1 210 08:22 17.07.2019
5045 Clouds 34 1007 8 16093 3.1 220 07:51 17.07.2019
5046 Clouds 34 1008 7 16093 2.1 0 07:51 17.07.2019
5047 Clouds 34 1008 7 16093 2.1 0 07:26 17.07.2019
5048 Clear 35 1007 7 16093 3.1 200 06:58 17.07.2019
5049 Clear 34 1007 7 16093 2.6 180 06:30 17.07.2019
5050 Clear 36 1007 6 16093 2.6 220 05:57 17.07.2019
5051 Clear 37 1006 6 16093 3.1 230 05:30 17.07.2019
5052 Clear 39 1006 5 16093 5.1 240 04:46 17.07.2019
5053 Clear 40 1006 4 16093 9.8 250 03:32 17.07.2019
5054 Clear 40 1006 3 16093 7.7 260 02:21 17.07.2019
5055 Clear 41 1006 3 16093 9.3 170 01:27 17.07.2019
5056 Clear 41 1006 3 16093 8.7 180 00:59 17.07.2019
5057 Clear 41 1006 3 16093 10.3 210 00:37 17.07.2019
5058 Clear 41 1006 3 16093 10.3 210 00:19 17.07.2019
5059 Clear 41 1007 4 16093 10.3 180 23:40 16.07.2019
5060 Clear 41 1007 4 16093 10.3 180 23:20 16.07.2019
5061 Clear 41 1008 4 16093 10.3 140 22:43 16.07.2019
5062 Clear 41 1008 4 16093 10.3 140 22:24 16.07.2019
5063 Clear 40 1007 5 16093 9.8 170 21:47 16.07.2019
5064 Clear 39 1009 4 16093 8.2 170 21:25 16.07.2019
5065 Clear 38 1009 4 16093 8.2 160 20:58 16.07.2019
5066 Clear 38 1010 5 16093 1.5 0 20:40 16.07.2019
5067 Clear 37 1010 5 16093 1.5 0 20:21 16.07.2019
5068 Clear 36 1010 5 16093 2.6 270 19:52 16.07.2019
5069 Clear 36 1010 5 16093 2.1 230 19:29 16.07.2019
5070 Clear 34 1011 6 16093 4.77 217.904 18:58 16.07.2019
5071 Clear 34 1011 6 16093 4.77 217.904 18:39 16.07.2019
5072 Clear 33 1010 8 16093 4.1 190 18:20 16.07.2019
5073 Clear 32 1011 7 16093 2.64 205.398 17:42 16.07.2019
5074 Clear 31 1011 7 16093 2.64 205.398 17:21 16.07.2019
5075 Clear 29 1010 12 16093 2.64 205.398 16:45 16.07.2019
5076 Clear 29 1010 12 16093 2.64 205.398 16:23 16.07.2019
5077 Clear 27 1010 9 16093 2.64 205.398 15:55 16.07.2019
5078 Clear 27 1009 15 16093 2.64 205.398 15:37 16.07.2019
5079 Clear 25 1009 10 16093 2.1 170 15:18 16.07.2019
5080 Clear 25 1009 14 16093 2.6 320 14:42 16.07.2019
5081 Clear 25 1009 14 16093 2.6 320 14:23 16.07.2019
5082 Clear 26 1009 17 16093 1.5 10 13:46 16.07.2019
5083 Clear 26 1009 17 16093 1.5 10 13:27 16.07.2019
5084 Clear 27 1009 17 16093 1.55 248.35 12:55 16.07.2019
5085 Clear 27 1009 22 16093 1.55 248.35 12:37 16.07.2019
5086 Clear 27 1009 22 16093 2.25 258.101 12:19 16.07.2019
5087 Clear 29 1009 11 16093 2.25 258.101 11:43 16.07.2019
5088 Clear 30 1009 11 16093 2.25 258.101 11:23 16.07.2019
5089 Clear 30 1009 11 16093 2.25 258.101 10:57 16.07.2019
5090 Clear 30 1009 7 16093 1.5 210 10:38 16.07.2019
5091 Clear 30 1009 7 16093 1.5 210 10:18 16.07.2019
5092 Clear 31 1009 9 16093 1.5 300 09:42 16.07.2019
5093 Clear 31 1009 9 16093 1.5 300 09:19 16.07.2019
5094 Clear 32 1009 6 16093 3.42 305.107 08:46 16.07.2019
5095 Clear 33 1009 6 16093 3.6 200 08:22 16.07.2019
5096 Clear 33 1009 6 16093 2.1 310 07:49 16.07.2019
5097 Clear 34 1009 5 16093 3.6 280 07:31 16.07.2019
5098 Clear 35 1009 5 16093 3.6 220 06:53 16.07.2019
5099 Clear 35 1009 5 16093 2.6 230 06:31 16.07.2019
5100 Clear 37 1008 4 16093 5.7 260 05:42 16.07.2019
5101 Clear 38 1008 4 16093 5.7 260 05:24 16.07.2019
5102 Clear 39 1008 4 16093 7.7 250 04:23 16.07.2019
5103 Clear 41 1008 4 16093 8.2 260 03:28 16.07.2019
5104 Clear 41 1008 4 16093 4.6 260 02:36 16.07.2019
5105 Clear 41 1008 4 16093 4.6 250 01:49 16.07.2019
5106 Clear 42 1009 4 16093 6.7 230 00:53 16.07.2019
5107 Clear 41 1009 5 16093 5.7 170 00:22 16.07.2019
5108 Clear 41 1010 4 16093 6.2 270 23:54 15.07.2019
5109 Clouds 41 1011 4 16093 5.7 220 23:36 15.07.2019
5110 Clear 41 1011 5 16093 2.1 0 22:55 15.07.2019
5111 Clear 41 1011 5 16093 7.2 250 22:37 15.07.2019
5112 Clear 41 1011 5 16093 7.2 250 22:18 15.07.2019
5113 Clear 40 1012 6 16093 2.1 100 21:42 15.07.2019
5114 Clear 40 1012 6 16093 2.1 100 21:20 15.07.2019
5115 Clear 39 1013 5 16093 3.6 150 20:57 15.07.2019
5116 Clear 39 1013 6 16093 5.7 180 20:39 15.07.2019
5117 Clear 38 1013 6 16093 5.7 180 20:21 15.07.2019
5118 Clear 37 1014 7 16093 2.1 0 19:44 15.07.2019
5119 Clear 37 1014 7 16093 2.1 0 19:22 15.07.2019
5120 Clear 36 1014 8 16093 3.99 241.603 18:57 15.07.2019
5121 Clear 35 1014 9 16093 2.1 0 18:38 15.07.2019
5122 Clear 35 1014 9 16093 2.1 0 18:19 15.07.2019
5123 Clear 33 1014 9 16093 2.62 264.483 17:45 15.07.2019
5124 Clear 33 1014 9 16093 2.62 264.483 17:27 15.07.2019
5125 Clear 31 1014 9 16093 2.62 264.483 16:59 15.07.2019
5126 Clear 31 1014 17 16093 2.62 264.483 16:39 15.07.2019
5127 Clear 30 1014 17 16093 2.62 264.483 16:20 15.07.2019
5128 Clear 29 1014 20 16093 2.62 264.483 15:56 15.07.2019
5129 Clear 29 1013 23 16093 2.62 264.483 15:37 15.07.2019
5130 Clear 29 1013 23 16093 2.62 264.483 15:37 15.07.2019
5131 Clear 27 1013 23 16093 3.13 278.568 15:19 15.07.2019
5132 Clear 27 1013 26 16093 2.1 40 14:44 15.07.2019
5133 Clear 27 1013 26 16093 2.1 40 14:25 15.07.2019
5134 Clear 29 1013 18 16093 1.5 120 13:51 15.07.2019
5135 Clear 29 1013 26 16093 2.76 273.22 13:25 15.07.2019
5136 Clear 29 1013 29 16093 2.1 50 12:59 15.07.2019
5137 Clear 29 1013 20 16093 2.76 273.22 12:41 15.07.2019
5138 Clear 29 1013 20 16093 3.14 285.599 12:20 15.07.2019
5139 Clear 30 1013 17 16093 2.1 70 11:42 15.07.2019
5140 Clear 30 1013 17 16093 2.1 70 11:24 15.07.2019
5141 Clear 32 1013 11 16093 2.1 0 10:45 15.07.2019
5142 Clear 32 1013 11 16093 2.1 0 10:27 15.07.2019
5143 Clear 32 1013 7 16093 3.14 285.599 09:48 15.07.2019
5144 Clear 33 1013 7 16093 3.14 285.599 09:28 15.07.2019
5145 Clear 32 1012 14 16093 4.52 291.279 08:59 15.07.2019
5146 Clear 32 1012 14 16093 1.5 320 08:41 15.07.2019
5147 Clear 33 1012 14 16093 1.5 320 08:23 15.07.2019
5148 Clear 35 1012 14 16093 4.52 291.279 07:38 15.07.2019
5149 Clear 36 1012 10 16093 4.52 291.279 06:59 15.07.2019
5150 Clear 37 1012 6 16093 2.1 190 06:38 15.07.2019
5151 Clear 38 1011 5 16093 3.6 280 05:44 15.07.2019
5152 Clear 39 1011 5 16093 3.6 280 05:22 15.07.2019
5153 Clear 40 1011 5 16093 5.7 290 04:41 15.07.2019
5154 Clear 41 1011 5 16093 8.2 270 03:39 15.07.2019
5155 Clear 41 1011 6 16093 6.2 250 02:37 15.07.2019
5156 Clear 41 1011 5 16093 5.1 200 01:41 15.07.2019
5157 Clear 41 1011 5 16093 5.1 200 01:23 15.07.2019
5158 Clear 41 1010 5 16093 5.1 250 00:48 15.07.2019
5159 Clear 42 1012 8 16093 3.6 170 00:19 15.07.2019
5160 Clear 41 1012 8 16093 3.6 200 23:54 14.07.2019
5161 Clear 42 1011 6 16093 8.2 170 23:36 14.07.2019
5162 Clear 42 1011 6 16093 8.2 170 23:18 14.07.2019
5163 Clear 41 1013 6 16093 3.1 0 22:40 14.07.2019
5164 Clear 41 1013 6 16093 3.1 0 22:21 14.07.2019
5165 Clear 41 1014 6 16093 7.47 237.951 21:57 14.07.2019
5166 Clear 41 1014 6 16093 7.47 237.951 21:57 14.07.2019
5167 Clear 41 1014 8 16093 3.6 230 21:39 14.07.2019
5168 Clear 40 1016 6 16093 6.2 230 21:18 14.07.2019
5169 Clear 40 1015 11 16093 3.6 260 20:39 14.07.2019
5170 Clouds 39 1014 6 16093 4.1 180 20:21 14.07.2019
5171 Clear 39 1015 13 16093 2.6 140 19:59 14.07.2019
5172 Clear 38 1015 13 16093 4.45 237.421 19:39 14.07.2019
5173 Clear 38 1015 13 16093 4.45 237.421 19:21 14.07.2019
5174 Clear 36 1015 13 16093 2.1 130 18:43 14.07.2019
5175 Clear 35 1015 13 16093 2.1 130 18:25 14.07.2019
5176 Clear 34 1015 13 16093 2.15 222.189 17:58 14.07.2019
5177 Clear 34 1015 15 16093 2.15 222.189 17:39 14.07.2019
5178 Clear 33 1015 15 16093 2.15 222.189 17:18 14.07.2019
5179 Clear 32 1015 22 16093 2.15 222.189 16:44 14.07.2019
5180 Clear 32 1015 22 16093 2.15 222.189 16:21 14.07.2019
5181 Clear 30 1014 30 16093 2.1 60 15:43 14.07.2019
5182 Clear 29 1014 30 16093 2.1 60 15:24 14.07.2019
5183 Clear 29 1014 26 16093 1.5 30 14:47 14.07.2019
5184 Clear 30 1014 26 16093 2.1 70 14:20 14.07.2019
5185 Clear 30 1013 34 16093 1.93 258.278 13:47 14.07.2019
5186 Clear 30 1013 34 16093 1.93 258.278 13:47 14.07.2019
5187 Clear 30 1013 32 16093 1.97 256.873 13:25 14.07.2019
5188 Clear 31 1013 36 16093 1.5 80 12:57 14.07.2019
5189 Clear 31 1013 32 16093 1.97 256.873 12:39 14.07.2019
5190 Clear 31 1013 32 16093 2.85 278.261 12:19 14.07.2019
5191 Clear 33 1013 23 16093 2.1 100 11:49 14.07.2019
5192 Clear 33 1013 23 16093 2.1 100 11:49 14.07.2019
5193 Clear 33 1013 22 16093 2.1 100 11:20 14.07.2019
5194 Clear 34 1012 22 16093 2.85 278.261 10:45 14.07.2019
5195 Clear 33 1012 22 16093 2.85 278.261 10:21 14.07.2019
5196 Clear 33 1012 22 16093 2.85 278.261 10:21 14.07.2019
5197 Clear 34 1012 27 16093 2.85 278.261 09:48 14.07.2019
5198 Clouds 34 1012 25 16093 2.85 278.261 09:30 14.07.2019
5199 Clear 35 1012 16 16093 2.6 290 08:47 14.07.2019
5200 Clear 34 1012 21 16093 4.66 253.472 08:29 14.07.2019
5201 Clear 36 1011 14 16093 4.66 253.472 07:43 14.07.2019
5202 Clear 36 1011 14 16093 4.66 253.472 07:20 14.07.2019
5203 Clear 37 1009 9 16093 1.5 200 05:46 14.07.2019
5204 Clear 37 1009 9 16093 1.5 200 05:46 14.07.2019
5205 Clear 41 1009 8 16093 2.1 0 03:53 14.07.2019
5206 Clear 41 1009 8 16093 5.1 200 03:34 14.07.2019
5207 Clear 41 1009 8 16093 5.1 220 02:52 14.07.2019
5208 Clear 41 1009 8 16093 6.2 230 02:23 14.07.2019
5209 Clear 41 1012 7 16093 8.2 190 01:45 14.07.2019
5210 Clear 41 1009 11 16093 3.1 200 01:24 14.07.2019
5211 Clear 41 1010 11 16093 5.7 230 00:41 14.07.2019
5212 Clouds 42 1009 7 16093 5.7 230 00:20 14.07.2019
5213 Clear 41 1010 10 16093 2.6 0 23:56 13.07.2019
5214 Clear 41 1011 10 16093 3.1 0 23:37 13.07.2019
5215 Clouds 41 1009 9 16093 6.2 170 23:19 13.07.2019
5216 Clear 41 1011 9 16093 1.5 10 22:41 13.07.2019
5217 Clear 40 1011 9 16093 1.5 10 22:21 13.07.2019
5218 Clouds 40 1011 8 16093 6.2 240 21:45 13.07.2019
5219 Clouds 39 1012 12 16093 3.1 90 21:20 13.07.2019
5220 Clear 38 1012 12 16093 3.1 80 20:51 13.07.2019
5221 Clear 38 1012 12 16093 2.6 0 20:32 13.07.2019
5222 Clear 37 1013 14 16093 4.6 110 19:50 13.07.2019
5223 Clear 37 1013 14 16093 4.6 110 19:29 13.07.2019
5224 Clear 35 1013 16 16093 2.1 0 18:46 13.07.2019
5225 Clear 34 1013 16 16093 2.1 0 18:24 13.07.2019
5226 Clear 33 1013 16 16093 4.1 90 17:49 13.07.2019
5227 Clear 32 1013 18 16093 2.6 80 17:22 13.07.2019
5228 Clear 31 1012 21 16093 2.6 50 16:58 13.07.2019
5229 Clear 30 1012 25 16093 2.1 50 16:39 13.07.2019
5230 Clear 30 1012 25 16093 2.1 50 16:21 13.07.2019
5231 Clear 28 1011 28 16093 1.24 98.222 15:45 13.07.2019
5232 Clear 27 1011 28 16093 0.42 261.056 15:22 13.07.2019
5233 Clear 27 1011 23 16093 2.6 320 14:46 13.07.2019
5234 Clear 27 1011 23 16093 2.6 320 14:25 13.07.2019
5235 Clouds 27 1011 28 16093 2.1 330 13:47 13.07.2019
5236 Clear 28 1011 23 16093 2.1 320 13:27 13.07.2019
5237 Clear 28 1010 21 16093 1.5 300 12:59 13.07.2019
5238 Clear 27 1010 30 16093 2.6 320 12:39 13.07.2019
5239 Clear 28 1010 30 16093 2.6 320 12:20 13.07.2019
5240 Clear 29 1010 30 16093 1.48 94.022 11:43 13.07.2019
5241 Clear 29 1010 30 16093 1.48 94.022 11:19 13.07.2019
5242 Clear 28 1010 28 16093 2.1 330 10:45 13.07.2019
5243 Clear 29 1010 28 16093 2.1 330 10:23 13.07.2019
5244 Clear 30 1010 25 16093 2.1 320 09:57 13.07.2019
5245 Clear 30 1010 23 16093 2.1 330 09:38 13.07.2019
5246 Clear 30 1010 23 16093 2.1 330 09:18 13.07.2019
5247 Clear 31 1010 27 16093 0.82 104.324 08:33 13.07.2019
5248 Clear 32 1010 21 16093 0.82 104.324 07:59 13.07.2019
5249 Clear 33 1010 20 16093 2.1 10 07:30 13.07.2019
5250 Clear 34 1009 19 16093 4.1 40 06:39 13.07.2019
5251 Rain 35 1009 14 16093 4.1 350 05:58 13.07.2019
5252 Rain 36 1009 14 16093 4.1 330 04:49 13.07.2019
5253 Rain 37 1009 14 16093 6.7 310 04:22 13.07.2019
5254 Rain 37 1009 15 16093 7.2 330 03:55 13.07.2019
5255 Rain 37 1008 15 16093 6.7 320 03:37 13.07.2019
5256 Thunderstorm 38 1011 15 16093 6.2 280 01:55 13.07.2019
5257 Thunderstorm 38 1011 15 16093 6.2 280 01:55 13.07.2019
5258 Thunderstorm 39 1008 11 16093 1.5 110 01:36 13.07.2019
5259 Thunderstorm 39 1008 11 16093 1.5 110 01:18 13.07.2019
5260 Thunderstorm 40 1009 9 16093 3.6 140 00:50 13.07.2019
5261 Thunderstorm 40 1009 12 16093 2.1 50 00:18 13.07.2019
5262 Clear 41 1011 9 16093 2.1 0 23:43 12.07.2019
5263 Clear 40 1011 9 16093 2.1 0 23:24 12.07.2019
5264 Clear 40 1012 10 16093 6.7 90 22:43 12.07.2019
5265 Clear 40 1012 10 16093 6.7 90 22:24 12.07.2019
5266 Clouds 40 1012 10 16093 4.1 110 21:42 12.07.2019
5267 Clouds 40 1012 10 16093 4.1 110 21:22 12.07.2019
5268 Clear 39 1013 11 16093 4.6 170 20:54 12.07.2019
5269 Clear 38 1013 11 16093 3.6 170 20:24 12.07.2019
5270 Clear 38 1013 12 16093 2.6 60 19:45 12.07.2019
5271 Clear 38 1013 12 16093 2.6 60 19:45 12.07.2019
5272 Clear 37 1013 12 16093 2.6 60 19:27 12.07.2019
5273 Clear 36 1014 13 16093 2.1 70 18:59 12.07.2019
5274 Clear 36 1014 13 16093 3.6 60 18:39 12.07.2019
5275 Clear 35 1014 13 16093 3.6 60 18:20 12.07.2019
5276 Clear 33 1013 22 16093 3.1 50 17:48 12.07.2019
5277 Clear 33 1013 22 16093 3.1 50 17:27 12.07.2019
5278 Rain 32 1014 19 16093 1.65 89.583 16:44 12.07.2019
5279 Rain 31 1014 19 16093 1.65 89.583 16:21 12.07.2019
5280 Clouds 31 1013 23 16093 2.6 340 15:41 12.07.2019
5281 Clouds 30 1013 23 16093 2.6 340 15:21 12.07.2019
5282 Clouds 30 1012 22 16093 0.89 91.806 14:56 12.07.2019
5283 Clouds 30 1012 22 16093 3.1 100 14:38 12.07.2019
5284 Clouds 30 1012 15 16093 0.89 91.806 14:20 12.07.2019
5285 Clear 30 1012 20 16093 4.1 70 13:39 12.07.2019
5286 Clear 31 1012 20 16093 4.1 40 12:59 12.07.2019
5287 Clouds 31 1012 23 16093 2.6 20 12:40 12.07.2019
5288 Clouds 32 1012 23 16093 2.6 20 12:20 12.07.2019
5289 Clear 33 1012 18 16093 1.7 34.54 11:44 12.07.2019
5290 Clear 33 1012 18 16093 1.7 34.54 11:22 12.07.2019
5291 Clear 31 1012 14 16093 1.7 34.54 10:44 12.07.2019
5292 Clear 33 1012 14 16093 1.7 34.54 10:24 12.07.2019
5293 Clear 32 1012 20 16093 3.1 330 09:54 12.07.2019
5294 Clear 33 1013 18 16093 1.7 34.54 09:31 12.07.2019
5295 Clear 33 1012 16 16093 2.6 330 08:59 12.07.2019
5296 Clear 33 1012 17 16093 2.1 30 08:41 12.07.2019
5297 Clear 33 1012 17 16093 2.1 30 08:19 12.07.2019
5298 Clear 34 1013 11 16093 2.6 80 07:46 12.07.2019
5299 Clear 34 1013 11 16093 2.6 80 07:26 12.07.2019
5300 Clear 37 1012 7 16093 3.56 227.823 06:29 12.07.2019
5301 Clear 38 1012 6 16093 4.6 250 05:48 12.07.2019
5302 Clear 40 1011 4 16093 6.7 240 03:23 12.07.2019
5303 Clear 41 1011 4 16093 5.7 190 01:43 12.07.2019
5304 Clear 41 1012 4 16093 7.2 230 00:58 12.07.2019
5305 Clear 41 1012 5 16093 4.6 190 00:27 12.07.2019
5306 Clear 42 1011 6 16093 6.7 150 23:50 11.07.2019
5307 Clear 42 1013 6 16093 6.2 150 23:26 11.07.2019
5308 Clear 40 1013 6 16093 6.7 220 22:58 11.07.2019
5309 Clear 40 1014 6 16093 6.2 170 22:39 11.07.2019
5310 Clear 40 1014 6 16093 6.2 170 22:21 11.07.2019
5311 Clear 39 1015 7 16093 4.1 200 21:41 11.07.2019
5312 Clear 39 1015 7 16093 4.1 200 21:19 11.07.2019
5313 Clear 38 1015 8 16093 7.7 140 20:55 11.07.2019
5314 Clear 38 1015 8 16093 7.7 140 20:36 11.07.2019
5315 Clear 38 1015 8 16093 7.7 140 20:18 11.07.2019
5316 Clear 36 1016 11 16093 4.15 177.999 19:43 11.07.2019
5317 Clear 36 1016 11 16093 4.15 177.999 19:23 11.07.2019
5318 Clear 35 1016 11 16093 3.6 120 18:49 11.07.2019
5319 Clear 34 1016 11 16093 1.5 0 18:31 11.07.2019
5320 Clear 32 1016 13 16093 1.07 138.029 17:55 11.07.2019
5321 Clear 32 1016 13 16093 1.07 138.029 17:37 11.07.2019
5322 Clouds 31 1016 15 16093 1.07 138.029 17:19 11.07.2019
5323 Clear 30 1016 21 16093 1.07 138.029 16:43 11.07.2019
5324 Clear 29 1016 21 16093 1.07 138.029 16:21 11.07.2019
5325 Clear 28 1015 31 16093 2.1 0 15:44 11.07.2019
5326 Clear 26 1015 31 16093 2.1 0 15:25 11.07.2019
5327 Clear 26 1015 31 16093 0.79 16.964 14:59 11.07.2019
5328 Clear 26 1015 35 16093 0.79 16.964 14:39 11.07.2019
5329 Clear 26 1015 35 16093 0.79 16.964 14:19 11.07.2019
5330 Clouds 26 1015 33 16093 0.79 16.964 13:45 11.07.2019
5331 Clouds 26 1015 33 16093 0.9 11.197 13:25 11.07.2019
5332 Clouds 27 1014 33 16093 0.9 11.197 12:39 11.07.2019
5333 Clouds 27 1014 33 16093 1.83 296.943 12:20 11.07.2019
5334 Clouds 28 1014 27 16093 1.83 296.943 11:52 11.07.2019
5335 Clear 29 1015 26 16093 2.6 50 11:30 11.07.2019
5336 Clear 29 1015 26 16093 1.5 340 10:54 11.07.2019
5337 Clear 30 1014 13 16093 1.5 190 10:20 11.07.2019
5338 Clear 31 1015 20 16093 1.5 330 09:58 11.07.2019
5339 Clouds 31 1015 21 16093 2.1 320 09:39 11.07.2019
5340 Clear 31 1014 12 16093 2.6 190 09:21 11.07.2019
5341 Clear 33 1015 17 16093 3.6 350 08:49 11.07.2019
5342 Clear 33 1015 19 16093 3.6 340 08:22 11.07.2019
5343 Clear 35 1015 14 16093 0.74 243.883 07:46 11.07.2019
5344 Clear 35 1015 14 16093 0.74 243.883 07:28 11.07.2019
5345 Clear 36 1014 15 16093 2.6 0 06:21 11.07.2019
5346 Clear 36 1014 15 16093 4.6 160 05:43 11.07.2019
5347 Clear 37 1014 15 16093 4.6 160 05:24 11.07.2019
5348 Clear 39 1013 7 16093 7.7 140 03:59 11.07.2019
5349 Clear 40 1014 7 16093 7.2 140 02:34 11.07.2019
5350 Clear 40 1017 6 16093 7.7 60 00:49 11.07.2019
5351 Clear 39 1016 6 16093 1.5 0 23:53 10.07.2019
5352 Clear 39 1016 6 16093 1.5 0 23:31 10.07.2019
5353 Clear 38 1016 7 16093 3.22 125.157 22:58 10.07.2019
5354 Clear 38 1017 6 16093 5.7 140 22:37 10.07.2019
5355 Clear 38 1017 6 16093 5.7 140 22:18 10.07.2019
5356 Clear 37 1017 6 16093 4.1 130 21:43 10.07.2019
5357 Clear 36 1017 6 16093 4.1 130 21:25 10.07.2019
5358 Clear 35 1018 6 16093 4.1 100 20:48 10.07.2019
5359 Clear 35 1018 7 16093 3.6 170 20:28 10.07.2019
5360 Clear 34 1018 7 16093 1.5 0 20:00 10.07.2019
5361 Clear 34 1018 6 16093 2.1 0 19:41 10.07.2019
5362 Clear 34 1018 6 16093 2.1 0 19:21 10.07.2019
5363 Clear 32 1018 11 16093 3.21 162.43 18:47 10.07.2019
5364 Clear 31 1018 11 16093 0.87 98.437 18:25 10.07.2019
5365 Clear 29 1018 10 16093 0.87 98.437 17:51 10.07.2019
5366 Clear 29 1018 11 16093 0.87 98.437 17:30 10.07.2019
5367 Clear 28 1018 15 16093 0.87 98.437 16:59 10.07.2019
5368 Clear 27 1017 19 16093 1.5 60 16:22 10.07.2019
5369 Clear 25 1017 25 16093 0.87 98.437 15:54 10.07.2019
5370 Clear 23 1017 26 16093 0.87 98.437 15:36 10.07.2019
5371 Clear 23 1017 26 16093 0.52 295.325 15:18 10.07.2019
5372 Clear 23 1017 32 16093 0.52 295.325 14:39 10.07.2019
5373 Clear 23 1017 32 16093 0.52 295.325 14:19 10.07.2019
5374 Clouds 24 1016 26 16093 0.52 295.325 13:41 10.07.2019
5375 Clouds 24 1016 26 16093 0.36 322.153 13:19 10.07.2019
5376 Clouds 25 1015 23 16093 1.5 350 12:42 10.07.2019
5377 Clouds 25 1015 23 16093 1.5 350 12:22 10.07.2019
5378 Clouds 26 1015 23 16093 2.1 340 11:51 10.07.2019
5379 Clear 26 1015 28 16093 1.14 250.224 11:22 10.07.2019
5380 Clouds 27 1015 22 16093 2.1 340 10:58 10.07.2019
5381 Clouds 27 1015 22 16093 2.1 340 10:58 10.07.2019
5382 Clouds 27 1015 20 16093 2.1 330 10:36 10.07.2019
5383 Clouds 28 1015 20 16093 2.1 330 10:18 10.07.2019
5384 Clouds 29 1015 15 16093 2.6 310 09:41 10.07.2019
5385 Clouds 29 1015 15 16093 2.6 310 09:20 10.07.2019
5386 Clear 30 1015 21 16093 1.5 340 08:49 10.07.2019
5387 Clear 31 1015 11 16093 1.5 230 08:27 10.07.2019
5388 Clear 32 1015 11 16093 1.18 283.753 07:53 10.07.2019
5389 Clear 32 1015 10 16093 1.18 283.753 07:24 10.07.2019
5390 Clear 33 1014 10 16093 3.1 330 06:41 10.07.2019
5391 Clear 35 1014 9 16093 4.6 160 05:42 10.07.2019
5392 Clouds 36 1012 8 16093 4.6 220 04:34 10.07.2019
5393 Clear 37 1013 9 16093 8.7 140 02:40 10.07.2019
5394 Clear 37 1014 9 16093 7.7 150 00:44 10.07.2019
5395 Clear 37 1014 9 16093 7.7 140 23:57 09.07.2019
5396 Clear 37 1014 9 16093 6.2 150 23:37 09.07.2019
5397 Clouds 36 1014 10 16093 4.1 80 23:19 09.07.2019
5398 Clear 35 1015 9 16093 5.7 150 22:40 09.07.2019
5399 Clear 35 1015 9 16093 5.7 150 22:21 09.07.2019
5400 Clear 35 1016 11 16093 4.1 170 21:47 09.07.2019
5401 Clear 34 1016 11 16093 4.1 170 21:26 09.07.2019
5402 Clear 33 1016 12 16093 6.2 150 20:56 09.07.2019
5403 Clear 34 1016 12 16093 7.2 130 20:36 09.07.2019
5404 Clear 33 1016 12 16093 7.2 130 20:18 09.07.2019
5405 Clear 32 1016 13 16093 6.2 130 19:37 09.07.2019
5406 Clouds 32 1016 17 16093 2.1 70 19:19 09.07.2019
5407 Clear 31 1016 14 16093 3.6 160 18:39 09.07.2019
5408 Clouds 29 1016 19 16093 1.71 148.853 18:19 09.07.2019
5409 Clear 28 1016 16 16093 1.5 110 17:44 09.07.2019
5410 Clear 28 1016 16 16093 1.5 110 17:22 09.07.2019
5411 Clear 28 1016 16 16093 1.5 110 17:22 09.07.2019
5412 Clear 26 1015 18 16093 1.5 70 16:58 09.07.2019
5413 Clear 26 1015 22 16093 1.71 148.853 16:40 09.07.2019
5414 Clear 26 1015 22 16093 1.71 148.853 16:22 09.07.2019
5415 Clear 24 1015 28 16093 1.5 60 15:42 09.07.2019
5416 Clear 23 1015 28 16093 1.5 60 15:23 09.07.2019
5417 Clear 23 1014 32 16093 1.07 276.647 14:45 09.07.2019
5418 Clear 23 1014 32 16093 1.07 276.647 14:23 09.07.2019
5419 Clouds 25 1013 37 16093 2.1 30 13:56 09.07.2019
5420 Clouds 25 1013 32 16093 2.1 360 13:38 09.07.2019
5421 Clouds 25 1013 32 16093 2.1 360 13:19 09.07.2019
5422 Clouds 26 1013 28 16093 0.75 259.065 12:39 09.07.2019
5423 Clouds 26 1013 28 16093 2.32 253.597 12:19 09.07.2019
5424 Clouds 26 1012 27 16093 2.1 350 11:56 09.07.2019
5425 Clouds 26 1012 27 16093 2.32 253.597 11:37 09.07.2019
5426 Clouds 28 1012 20 16093 2.32 253.597 11:19 09.07.2019
5427 Clouds 28 1012 20 16093 2.32 253.597 10:47 09.07.2019
5428 Clouds 28 1012 28 16093 2.1 310 10:25 09.07.2019
5429 Clouds 29 1012 11 16093 2.6 180 09:38 09.07.2019
5430 Clouds 29 1012 11 16093 2.6 180 09:20 09.07.2019
5431 Clouds 30 1012 10 16093 3.1 200 08:44 09.07.2019
5432 Clear 30 1012 10 16093 3.41 280.326 08:19 09.07.2019
5433 Clear 36 1008 7 16093 7.2 190 03:49 05.07.2019
5434 Clear 36 1008 10 16093 9.3 170 03:21 05.07.2019
5435 Clear 36 1007 4 16093 5.7 170 02:52 05.07.2019
5436 Clear 36 1007 4 16093 5.7 170 02:26 05.07.2019
5437 Clear 36 1008 5 16093 4.6 220 01:36 05.07.2019
5438 Clear 37 1008 8 16093 8.7 180 00:52 05.07.2019
5439 Clear 36 1008 9 16093 9.3 160 00:31 05.07.2019
5440 Clear 37 1009 10 16093 9.3 150 23:44 04.07.2019
5441 Clear 36 1009 10 16093 9.3 150 23:19 04.07.2019
5442 Clear 36 1009 10 16093 9.3 150 23:19 04.07.2019
5443 Clear 36 1009 11 16093 9.3 140 22:42 04.07.2019
5444 Clear 35 1009 11 16093 9.3 140 22:23 04.07.2019
5445 Clear 34 1010 12 16093 6.2 130 21:45 04.07.2019
5446 Clear 34 1010 12 16093 6.2 130 21:26 04.07.2019
5447 Clear 33 1011 13 16093 7.2 150 20:59 04.07.2019
5448 Clear 33 1011 14 16093 7.7 140 20:38 04.07.2019
5449 Clear 32 1011 14 16093 5.7 140 20:20 04.07.2019
5450 Clear 31 1011 13 16093 5.1 130 19:42 04.07.2019
5451 Clear 30 1011 13 16093 5.1 130 19:22 04.07.2019
5452 Clear 30 1011 11 16093 5.1 150 18:56 04.07.2019
5453 Clear 30 1011 11 16093 5.7 140 18:36 04.07.2019
5454 Clear 29 1010 12 16093 3.6 160 18:18 04.07.2019
5455 Clear 27 1011 11 16093 3.1 180 17:42 04.07.2019
5456 Clear 27 1010 15 16093 2.1 0 17:18 04.07.2019
5457 Clear 27 1010 15 16093 2.1 0 17:18 04.07.2019
5458 Clear 25 1009 33 16093 2.1 360 15:55 04.07.2019
5459 Clear 24 1009 22 16093 3.19 223.032 15:36 04.07.2019
5460 Clear 24 1009 22 16093 2.77 221.374 15:18 04.07.2019
5461 Clear 24 1009 24 16093 2.77 221.374 14:41 04.07.2019
5462 Clear 24 1009 24 16093 2.77 221.374 14:20 04.07.2019
5463 Clouds 24 1008 26 16093 2.1 40 13:57 04.07.2019
5464 Clouds 24 1008 26 16093 1.5 40 13:39 04.07.2019
5465 Clouds 24 1008 26 16093 1.5 40 13:19 04.07.2019
5466 Clouds 26 1008 14 16093 2.6 180 12:39 04.07.2019
5467 Clouds 26 1008 14 16093 2.6 180 12:21 04.07.2019
5468 Clouds 27 1008 15 16093 4.1 160 11:55 04.07.2019
5469 Clouds 27 1008 13 16093 2.6 140 11:37 04.07.2019
5470 Clouds 27 1008 13 16093 2.6 140 11:18 04.07.2019
5471 Clouds 28 1008 14 16093 4.6 190 10:39 04.07.2019
5472 Clouds 28 1008 14 16093 4.6 190 10:18 04.07.2019
5473 Clouds 29 1008 12 16093 3.6 270 09:39 04.07.2019
5474 Clouds 29 1008 12 16093 3.6 270 09:20 04.07.2019
5475 Clouds 30 1007 11 16093 2.6 210 08:54 04.07.2019
5476 Clouds 30 1007 11 16093 2.6 170 08:19 04.07.2019
5477 Clear 31 1007 10 16093 4.6 180 07:43 04.07.2019
5478 Clear 31 1007 10 16093 4.6 180 07:20 04.07.2019
5479 Clear 33 1007 9 16093 2.1 130 06:37 04.07.2019
5480 Clear 33 1006 9 16093 3.1 220 05:47 04.07.2019
5481 Clear 33 1006 9 16093 3.1 220 05:29 04.07.2019
5482 Clear 36 1005 6 16093 9.3 180 02:36 04.07.2019
5483 Clear 36 1006 7 16093 10.3 160 01:28 04.07.2019
5484 Clear 36 1008 8 16093 8.7 240 00:52 04.07.2019
5485 Clear 36 1007 6 16093 9.3 200 23:55 03.07.2019
5486 Clear 36 1007 6 16093 9.3 200 23:21 03.07.2019
5487 Clear 36 1007 6 16093 9.3 200 23:21 03.07.2019
5488 Clear 36 1007 7 16093 3.6 180 22:58 03.07.2019
5489 Clear 36 1008 8 16093 7.7 170 22:39 03.07.2019
5490 Clear 36 1008 8 16093 7.7 170 22:21 03.07.2019
5491 Clear 36 1008 7 16093 7.2 190 21:56 03.07.2019
5492 Clear 35 1008 7 16093 6.2 200 21:37 03.07.2019
5493 Clear 34 1007 8 16093 7.7 130 20:57 03.07.2019
5494 Clear 34 1008 7 16093 4.6 230 20:37 03.07.2019
5495 Clear 34 1008 7 16093 4.6 230 20:19 03.07.2019
5496 Clear 32 1009 7 16093 6.7 200 19:45 03.07.2019
5497 Clear 31 1009 7 16093 6.7 200 19:25 03.07.2019
5498 Clear 31 1009 10 16093 3.1 220 18:45 03.07.2019
5499 Clear 29 1009 10 16093 3.1 220 18:23 03.07.2019
5500 Clear 28 1009 12 16093 2.6 160 17:51 03.07.2019
5501 Clear 28 1009 12 16093 2.6 0 17:20 03.07.2019
5502 Clear 27 1009 14 16093 3.1 180 16:58 03.07.2019
5503 Clear 26 1009 15 16093 4.1 180 16:40 03.07.2019
5504 Clear 26 1009 15 16093 4.1 180 16:18 03.07.2019
5505 Clear 25 1008 23 16093 2.94 226.477 15:46 03.07.2019
5506 Clear 25 1008 23 16093 2.94 226.477 15:27 03.07.2019
5507 Clear 24 1008 27 16093 2.1 350 14:49 03.07.2019
5508 Clouds 24 1008 20 16093 2.1 320 14:22 03.07.2019
5509 Clouds 25 1008 27 16093 2.29 245.291 13:50 03.07.2019
5510 Clouds 25 1007 22 16093 1.87 244.818 13:31 03.07.2019
5511 Clouds 25 1007 23 16093 1.87 244.818 12:52 03.07.2019
5512 Clouds 25 1007 22 16093 2.1 60 12:20 03.07.2019
5513 Clouds 27 1007 15 16093 2.1 190 11:55 03.07.2019
5514 Clouds 26 1007 19 16093 1.6 243.403 11:36 03.07.2019
5515 Clouds 26 1007 19 16093 1.6 243.403 11:18 03.07.2019
5516 Clouds 28 1008 14 16093 3.1 210 10:40 03.07.2019
5517 Clouds 28 1008 14 16093 3.1 210 10:21 03.07.2019
5518 Clear 30 1008 11 16093 1.6 243.403 09:42 03.07.2019
5519 Clear 30 1008 9 16093 4.1 250 09:21 03.07.2019
5520 Clear 30 1008 9 16093 4.1 250 08:53 03.07.2019
5521 Clear 30 1008 10 16093 3.1 280 08:31 03.07.2019
5522 Clear 31 1008 9 16093 2.38 272.336 07:51 03.07.2019
5523 Clear 31 1008 8 16093 2.6 210 07:33 03.07.2019
5524 Clear 33 1007 7 16093 2.1 190 06:42 03.07.2019
5525 Clear 35 1007 5 16093 5.7 250 05:42 03.07.2019
5526 Clear 37 1007 4 16093 7.2 240 04:52 03.07.2019
5527 Clear 36 1006 4 16093 6.1 256.219 03:28 03.07.2019
5528 Clear 37 1006 3 16093 6.2 250 02:37 03.07.2019
5529 Clear 38 1009 5 16093 5.1 190 01:22 03.07.2019
5530 Clear 38 1006 4 16093 6.2 170 00:52 03.07.2019
5531 Clear 38 1006 4 16093 6.2 170 00:33 03.07.2019
5532 Clear 38 1008 6 16093 7.7 170 23:39 02.07.2019
5533 Clouds 38 1008 5 16093 5.1 190 23:20 02.07.2019
5534 Clouds 38 1008 5 16093 5.1 190 23:20 02.07.2019
5535 Clear 38 1009 6 16093 6.7 140 22:57 02.07.2019
5536 Clear 38 1009 6 16093 6.7 140 22:57 02.07.2019
5537 Clear 38 1009 6 16093 6.7 140 22:57 02.07.2019
5538 Clear 38 1009 7 16093 7.2 170 22:39 02.07.2019
5539 Clouds 37 1009 5 16093 5.7 210 22:20 02.07.2019
5540 Clear 37 1010 7 16093 7.2 140 21:47 02.07.2019
5541 Clear 37 1010 7 16093 7.2 140 21:25 02.07.2019
5542 Clear 36 1011 8 16093 5.7 140 20:59 02.07.2019
5543 Clear 36 1011 8 16093 4.1 120 20:40 02.07.2019
5544 Clouds 35 1010 7 16093 7.2 150 20:22 02.07.2019
5545 Clear 34 1011 8 16093 3.1 210 19:44 02.07.2019
5546 Clouds 33 1011 8 16093 6.2 160 19:24 02.07.2019
5547 Clear 32 1011 8 16093 2.1 0 18:58 02.07.2019
5548 Clear 31 1012 10 16093 6.7 200 18:19 02.07.2019
5549 Clear 30 1011 9 16093 2.1 170 17:58 02.07.2019
5550 Clear 30 1011 11 16093 3.21 217.37 17:37 02.07.2019
5551 Clear 29 1011 11 16093 3.21 217.37 17:19 02.07.2019
5552 Clear 29 1011 11 16093 3.21 217.37 17:19 02.07.2019
5553 Clear 28 1011 14 16093 3.21 217.37 16:43 02.07.2019
5554 Clear 28 1011 14 16093 3.21 217.37 16:25 02.07.2019
5555 Clear 26 1010 28 16093 2.1 20 15:40 02.07.2019
5556 Clear 25 1010 28 16093 2.1 20 15:22 02.07.2019
5557 Clear 25 1010 28 16093 2.6 60 14:47 02.07.2019
5558 Clear 25 1010 28 16093 2.6 60 14:27 02.07.2019
5559 Clouds 25 1009 31 16093 1.89 235.274 13:44 02.07.2019
5560 Clear 25 1009 14 16093 1.5 120 13:20 02.07.2019
5561 Clouds 27 1009 23 16093 2.1 330 12:45 02.07.2019
5562 Clear 26 1008 13 16093 4.6 180 12:24 02.07.2019
5563 Clear 27 1009 20 16093 2.77 259.363 11:55 02.07.2019
5564 Clouds 27 1009 20 16093 2.1 340 11:37 02.07.2019
5565 Clear 28 1009 11 16093 3.1 160 11:18 02.07.2019
5566 Clear 29 1010 11 16093 2.77 259.363 10:39 02.07.2019
5567 Clear 29 1009 10 16093 4.6 190 10:21 02.07.2019
5568 Clear 31 1009 9 16093 2.6 250 09:42 02.07.2019
5569 Clear 30 1009 10 16093 5.7 190 09:19 02.07.2019
5570 Clear 31 1010 9 16093 2.1 0 08:40 02.07.2019
5571 Clear 31 1010 9 16093 2.1 0 08:20 02.07.2019
5572 Clear 32 1009 9 16093 2.1 0 07:50 02.07.2019
5573 Clear 32 1011 9 16093 4.1 190 07:20 02.07.2019
5574 Clear 33 1009 9 16093 2.6 220 06:42 02.07.2019
5575 Clear 35 1008 8 16093 3.6 250 05:55 02.07.2019
5576 Clear 38 1008 6 16093 6.7 270 03:26 02.07.2019
5577 Clear 39 1010 6 16093 4.6 210 00:48 02.07.2019
5578 Clear 39 1011 6 16093 4.6 180 23:44 01.07.2019
5579 Clear 38 1011 6 16093 4.6 180 23:19 01.07.2019
5580 Clear 38 1012 7 16093 3.1 0 22:44 01.07.2019
5581 Clear 38 1012 7 16093 3.1 0 22:26 01.07.2019
5582 Clear 38 1013 6 16093 2.1 0 21:46 01.07.2019
5583 Clear 37 1013 6 16093 2.1 0 21:25 01.07.2019
5584 Clear 36 1013 6 16093 5.7 230 20:51 01.07.2019
5585 Clear 35 1013 8 16093 2.1 100 20:21 01.07.2019
5586 Clear 34 1013 8 16093 2.1 0 19:57 01.07.2019
5587 Clear 34 1014 7 16093 2.1 0 19:39 01.07.2019
5588 Clear 33 1015 10 16093 6.7 210 19:21 01.07.2019
5589 Clear 32 1014 9 16093 2.6 150 18:50 01.07.2019
5590 Clear 31 1014 9 16093 2.6 140 18:28 01.07.2019
5591 Clear 30 1014 10 16093 2.56 248.057 17:55 01.07.2019
5592 Clear 29 1014 11 16093 2.56 248.057 17:37 01.07.2019
5593 Clear 29 1014 12 16093 4.1 210 17:19 01.07.2019
5594 Clear 28 1014 12 16093 2.56 248.057 16:44 01.07.2019
5595 Clear 28 1013 15 16093 2.56 248.057 16:24 01.07.2019
5596 Clear 26 1014 12 16093 2.56 248.057 15:46 01.07.2019
5597 Clear 24 1013 13 16093 1.5 250 15:26 01.07.2019
5598 Clear 24 1013 13 16093 2.49 260.136 14:45 01.07.2019
5599 Clear 24 1013 13 16093 2.49 260.136 14:45 01.07.2019
5600 Clear 24 1012 15 16093 2.1 190 14:24 01.07.2019
5601 Clear 24 1013 13 16093 1.5 70 13:55 01.07.2019
5602 Clear 25 1013 13 16093 1.5 70 13:37 01.07.2019
5603 Clear 26 1012 12 16093 2.6 200 13:18 01.07.2019
5604 Clear 26 1012 25 16093 2.1 70 12:38 01.07.2019
5605 Clear 27 1012 13 16093 3.1 190 12:20 01.07.2019
5606 Clear 26 1012 22 16093 2.1 70 11:48 01.07.2019
5607 Clear 27 1012 10 16093 3.6 210 11:28 01.07.2019
5608 Clouds 27 1013 22 16093 2.1 40 10:55 01.07.2019
5609 Clouds 27 1013 22 16093 2.1 40 10:37 01.07.2019
5610 Clear 28 1012 8 16093 4.1 220 10:18 01.07.2019
5611 Clear 29 1013 16 16093 2.04 265.243 09:41 01.07.2019
5612 Clear 29 1014 8 16093 3.1 180 09:22 01.07.2019
5613 Clear 30 1013 18 16093 3.51 279.982 08:39 01.07.2019
5614 Clear 30 1012 7 16093 2.6 200 08:21 01.07.2019
5615 Clear 31 1012 6 16093 3.1 230 07:29 01.07.2019
5616 Clear 32 1013 12 16093 2.1 0 06:39 01.07.2019
5617 Clear 37 1011 12 16093 3.1 160 02:48 01.07.2019
5618 Clear 36 1013 11 16093 3.6 30 00:51 01.07.2019
5619 Clouds 36 1013 12 16093 1.5 0 00:30 01.07.2019
5620 Clouds 36 1013 12 16093 1.5 0 23:58 30.06.2019
5621 Clouds 35 1013 14 16093 1.5 0 23:23 30.06.2019
5622 Clear 34 1014 15 16093 6.54 229.75 22:53 30.06.2019
5623 Clouds 34 1014 15 16093 3.6 40 22:22 30.06.2019
5624 Clear 33 1015 14 16093 2.6 0 21:48 30.06.2019
5625 Clouds 33 1015 14 16093 6.54 229.75 21:30 30.06.2019
5626 Clear 32 1016 17 16093 3.64 196.069 20:59 30.06.2019
5627 Clear 31 1016 17 16093 3.64 196.069 20:40 30.06.2019
5628 Clouds 31 1016 13 16093 1.5 20 20:21 30.06.2019
5629 Rain 30 1016 10 16093 3.1 80 19:47 30.06.2019
5630 Rain 29 1015 17 16093 2.1 10 19:25 30.06.2019
5631 Rain 29 1016 16 16093 1.5 40 18:41 30.06.2019
5632 Rain 28 1016 10 16093 5.1 210 18:21 30.06.2019
5633 Rain 28 1017 13 16093 1.13 30.764 17:40 30.06.2019
5634 Rain 27 1015 13 16093 1.13 30.764 17:19 30.06.2019
5635 Rain 28 1015 14 16093 1.5 50 16:51 30.06.2019
5636 Rain 27 1014 39 16093 2.1 130 16:32 30.06.2019
5637 Rain 28 1015 19 16093 2.6 350 15:39 30.06.2019
5638 Clouds 27 1014 9 16093 2.1 240 15:19 30.06.2019
5639 Clouds 28 1014 9 16093 2.1 240 14:57 30.06.2019
5640 Clouds 28 1014 9 16093 2.1 240 14:57 30.06.2019
5641 Clear 28 1014 16 16093 6.86 168.526 14:38 30.06.2019
5642 Clouds 28 1013 9 16093 2.6 170 13:57 30.06.2019
5643 Clouds 28 1013 21 16093 1.5 360 13:38 30.06.2019
5644 Clouds 28 1013 7 16093 5.1 190 13:19 30.06.2019
5645 Clouds 28 1013 14 16093 2.1 20 12:45 30.06.2019
5646 Clouds 28 1013 14 16093 2.1 20 12:45 30.06.2019
5647 Clouds 29 1013 7 16093 4.6 190 12:23 30.06.2019
5648 Clear 29 1014 6 16093 3.1 170 11:47 30.06.2019
5649 Clouds 29 1013 6 16093 3.1 180 11:22 30.06.2019
5650 Clear 29 1014 15 16093 2.6 90 10:56 30.06.2019
5651 Clear 29 1014 15 16093 2.6 90 10:37 30.06.2019
5652 Clouds 30 1013 6 16093 3.1 200 10:18 30.06.2019
5653 Clouds 30 1013 6 16093 3.1 200 10:18 30.06.2019
5654 Clear 31 1014 6 16093 3.22 267.204 09:43 30.06.2019
5655 Clouds 31 1013 5 16093 2.1 190 09:22 30.06.2019
5656 Clear 31 1014 12 16093 3.92 269.737 08:42 30.06.2019
5657 Clouds 31 1013 5 16093 2.6 200 08:23 30.06.2019
5658 Clear 31 1013 11 16093 3.92 269.737 07:52 30.06.2019
5659 Clouds 32 1013 6 16093 2.6 210 07:26 30.06.2019
5660 Clear 32 1013 9 16093 3.92 269.737 06:39 30.06.2019
5661 Clouds 34 1012 5 16093 4.6 240 04:56 30.06.2019
5662 Clear 36 1011 14 16093 9.3 150 02:41 30.06.2019
5663 Clouds 37 1012 8 16093 4.6 90 01:24 30.06.2019
5664 Clouds 37 1013 8 16093 3.6 30 00:26 30.06.2019
5665 Clear 36 1013 11 16093 6.2 160 23:53 29.06.2019
5666 Clouds 36 1014 9 16093 2.1 0 23:24 29.06.2019
5667 Clear 36 1015 7 16093 6.2 140 22:55 29.06.2019
5668 Clouds 35 1015 8 16093 3.1 90 22:25 29.06.2019
5669 Clear 35 1016 8 16093 5.7 140 21:57 29.06.2019
5670 Clear 35 1016 8 16093 5.7 140 21:57 29.06.2019
5671 Clear 35 1016 8 16093 5.7 140 21:39 29.06.2019
5672 Clouds 34 1015 7 16093 4.1 160 21:20 29.06.2019
5673 Clear 34 1016 9 16093 3.6 130 20:40 29.06.2019
5674 Clouds 33 1015 8 16093 2.6 0 20:21 29.06.2019
5675 Clouds 32 1016 8 16093 3.75 177.861 19:43 29.06.2019
5676 Clouds 32 1016 9 16093 1.5 0 19:22 29.06.2019
5677 Clear 31 1016 8 16093 3.75 177.861 18:48 29.06.2019
5678 Clouds 30 1015 11 16093 2.1 330 18:25 29.06.2019
5679 Clear 29 1015 9 16093 1.63 247.507 17:40 29.06.2019
5680 Clouds 28 1015 14 16093 2.6 180 17:22 29.06.2019
5681 Clear 27 1015 9 16093 2.1 160 16:51 29.06.2019
5682 Clouds 27 1014 14 16093 5.1 190 16:28 29.06.2019
5683 Clear 25 1014 20 16093 1.63 247.507 15:37 29.06.2019
5684 Clouds 24 1013 13 16093 2.6 200 15:19 29.06.2019
5685 Clear 25 1014 23 16093 1.5 350 14:41 29.06.2019
5686 Clouds 25 1013 11 16093 4.6 190 14:23 29.06.2019
5687 Clear 26 1013 15 16093 1.5 80 13:44 29.06.2019
5688 Clouds 26 1012 11 16093 5.1 180 13:26 29.06.2019
5689 Clear 27 1013 11 16093 1.81 268.134 12:45 29.06.2019
5690 Clouds 26 1012 10 16093 3.1 170 12:26 29.06.2019
5691 Clouds 27 1013 22 16093 2.1 40 11:51 29.06.2019
5692 Clouds 27 1013 9 16093 1.5 180 11:29 29.06.2019
5693 Clouds 28 1013 10 16093 3.6 210 10:52 29.06.2019
5694 Clouds 29 1012 9 16093 2.6 190 10:29 29.06.2019
5695 Clouds 28 1012 9 16093 2.6 190 09:58 29.06.2019
5696 Clouds 29 1012 10 16093 4.1 240 09:31 29.06.2019
5697 Clear 30 1013 14 16093 2.42 258.351 08:41 29.06.2019
5698 Clear 31 1012 18 16093 2.49 268.759 07:46 29.06.2019
5699 Clouds 31 1012 9 16093 2.1 200 07:19 29.06.2019
5700 Clear 32 1012 17 16093 2.49 268.759 06:42 29.06.2019
5701 Clouds 32 1011 7 16093 2.6 240 06:20 29.06.2019
5702 Clouds 37 1011 7 16093 4.6 160 02:26 29.06.2019
5703 Clouds 38 1011 7 16093 6.7 170 00:57 29.06.2019
5704 Clear 37 1012 7 16093 5.7 210 23:59 28.06.2019
5705 Clear 37 1013 8 16093 4.1 230 23:24 28.06.2019
5706 Clear 37 1013 9 16093 9.3 140 22:53 28.06.2019
5707 Clear 36 1013 10 16093 4.1 190 22:28 28.06.2019
5708 Clear 35 1014 11 16093 4.6 160 21:47 28.06.2019
5709 Clear 34 1014 13 16093 2.6 120 21:21 28.06.2019
5710 Clear 34 1014 12 16093 7.2 150 20:46 28.06.2019
5711 Clear 34 1014 12 16093 4.1 180 20:25 28.06.2019
5712 Clear 33 1015 12 16093 6.7 150 19:53 28.06.2019
5713 Clear 32 1014 13 16093 4.6 150 19:27 28.06.2019
5714 Clear 31 1015 14 16093 7.7 140 18:45 28.06.2019
5715 Clear 29 1015 14 16093 3.1 150 18:22 28.06.2019
5716 Clear 29 1015 14 16093 3.1 150 17:58 28.06.2019
5717 Clear 28 1014 17 16093 5.7 170 17:29 28.06.2019
5718 Clear 27 1015 18 16093 2.41 181.977 16:49 28.06.2019
5719 Clear 26 1014 19 16093 3.1 150 16:24 28.06.2019
5720 Clear 24 1014 28 16093 2.41 181.977 15:48 28.06.2019
5721 Clear 22 1013 20 16093 3.1 170 15:23 28.06.2019
5722 Clear 23 1014 37 16093 1.17 240 14:43 28.06.2019
5723 Clear 23 1013 19 16093 2.6 160 14:22 28.06.2019
5724 Clouds 23 1013 30 16093 1.17 240 13:55 28.06.2019
5725 Clouds 23 1013 30 16093 1.17 240 13:37 28.06.2019
5726 Clear 24 1012 30 16093 3.1 170 13:19 28.06.2019
5727 Clouds 25 1013 35 16093 1.35 225.36 12:44 28.06.2019
5728 Clouds 26 1013 23 16093 2.1 330 11:54 28.06.2019
5729 Clear 26 1012 14 16093 3.6 200 11:22 28.06.2019
5730 Clear 27 1013 16 16093 1.43 254.198 10:44 28.06.2019
5731 Clear 27 1013 16 16093 1.43 254.198 10:44 28.06.2019
5732 Clear 27 1012 13 16093 3.6 220 10:21 28.06.2019
5733 Clear 28 1013 13 16093 2.6 300 09:47 28.06.2019
5734 Clouds 29 1012 14 16093 1.5 160 09:29 28.06.2019
5735 Clear 28 1013 11 16093 3.08 227.805 08:45 28.06.2019
5736 Clouds 29 1012 11 16093 2.1 160 08:25 28.06.2019
5737 Clear 30 1013 10 16093 3.1 0 07:46 28.06.2019
5738 Clouds 31 1012 11 16093 2.6 190 06:57 28.06.2019
5739 Clear 32 1012 9 16093 7.7 160 05:42 28.06.2019
5740 Clouds 36 1012 7 16093 5.7 220 01:22 28.06.2019
5741 Clouds 36 1012 7 16093 3.1 210 00:26 28.06.2019
5742 Clear 36 1013 10 16093 12.9 150 23:48 27.06.2019
5743 Clouds 36 1013 8 16093 6.2 220 23:25 27.06.2019
5744 Clear 35 1013 10 16093 10.8 160 22:54 27.06.2019
5745 Clear 35 1013 10 16093 10.8 160 22:36 27.06.2019
5746 Clouds 35 1013 9 16093 5.7 240 22:18 27.06.2019
5747 Clear 34 1014 10 16093 8.2 140 21:42 27.06.2019
5748 Clouds 33 1014 10 16093 5.1 190 21:24 27.06.2019
5749 Clear 33 1015 11 16093 9.8 140 20:50 27.06.2019
5750 Clouds 33 1014 13 16093 6.2 180 20:32 27.06.2019
5751 Clouds 32 1014 13 16093 6.2 180 19:59 27.06.2019
5752 Clear 31 1015 11 16093 9.8 140 19:40 27.06.2019
5753 Clouds 31 1014 15 16093 4.6 160 19:22 27.06.2019
5754 Clear 30 1015 15 16093 7.2 130 18:42 27.06.2019
5755 Clouds 29 1014 18 16093 7.7 180 18:19 27.06.2019
5756 Clouds 28 1014 20 16093 5.7 180 17:41 27.06.2019
5757 Clouds 28 1014 20 16093 5.7 180 17:22 27.06.2019
5758 Clear 26 1014 21 16093 3.1 150 16:39 27.06.2019
5759 Clouds 26 1013 22 16093 4.6 190 16:19 27.06.2019
5760 Clouds 26 1013 22 16093 4.6 190 16:19 27.06.2019
5761 Clouds 26 1013 22 16093 4.6 190 16:19 27.06.2019
5762 Clear 25 1014 20 16093 2.6 150 15:50 27.06.2019
5763 Clouds 24 1013 22 16093 4.6 180 15:30 27.06.2019
5764 Clouds 23 1013 22 16093 4.6 180 14:57 27.06.2019
5765 Clouds 23 1012 22 16093 5.7 190 14:31 27.06.2019
5766 Clouds 23 1013 30 16093 1.99 224.716 13:57 27.06.2019
5767 Clouds 24 1013 30 16093 1.99 224.716 13:38 27.06.2019
5768 Clear 24 1012 21 16093 3.6 160 13:20 27.06.2019
5769 Clouds 25 1012 19 16093 3.1 80 12:41 27.06.2019
5770 Clear 25 1011 21 16093 4.1 190 12:23 27.06.2019
5771 Clouds 26 1012 15 16093 3.6 170 11:44 27.06.2019
5772 Clouds 26 1011 18 16093 3.6 190 11:21 27.06.2019
5773 Clouds 27 1012 16 16093 2.1 300 10:56 27.06.2019
5774 Clouds 27 1012 16 16093 2.1 300 10:36 27.06.2019
5775 Clouds 28 1011 16 16093 3.1 200 10:18 27.06.2019
5776 Clear 28 1012 11 16093 2.1 260 09:37 27.06.2019
5777 Clouds 29 1011 11 16093 4.1 180 09:19 27.06.2019
5778 Clear 29 1012 10 16093 3.1 270 08:45 27.06.2019
5779 Clouds 30 1011 10 16093 3.1 160 08:23 27.06.2019
5780 Clouds 30 1012 10 16093 3.6 290 07:39 27.06.2019
5781 Clear 32 1012 9 16093 4.1 170 06:55 27.06.2019
5782 Clouds 32 1010 9 16093 5.1 170 06:29 27.06.2019
5783 Clear 35 1009 9 16093 10.3 160 03:50 27.06.2019
5784 Clear 35 1009 9 16093 9.3 170 02:40 27.06.2019
5785 Clouds 36 1009 11 16093 6.7 190 01:18 27.06.2019
5786 Clear 36 1011 11 16093 13.4 150 00:45 27.06.2019
5787 Clouds 36 1009 10 16093 5.1 200 00:24 27.06.2019
5788 Clear 36 1011 11 16093 10.8 170 23:42 26.06.2019
5789 Clouds 35 1010 11 16093 6.2 170 23:22 26.06.2019
5790 Clear 35 1011 12 16093 12.3 160 22:55 26.06.2019
5791 Clear 35 1011 12 16093 12.3 160 22:37 26.06.2019
5792 Clouds 34 1011 11 16093 6.2 180 22:18 26.06.2019
5793 Clear 34 1012 13 16093 10.8 160 21:39 26.06.2019
5794 Clear 34 1012 13 16093 10.8 160 21:39 26.06.2019
5795 Clouds 33 1011 16 16093 4.6 190 21:19 26.06.2019
5796 Clear 33 1011 13 16093 6.2 180 20:50 26.06.2019
5797 Clouds 32 1012 13 16093 5.1 190 20:30 26.06.2019
5798 Clear 32 1013 12 16093 10.3 140 19:52 26.06.2019
5799 Clear 32 1013 12 16093 10.3 140 19:52 26.06.2019
5800 Clouds 32 1012 15 16093 4.1 210 19:32 26.06.2019
5801 Clouds 30 1012 15 16093 4.1 210 18:58 26.06.2019
5802 Clear 30 1012 15 16093 9.8 140 18:39 26.06.2019
5803 Clouds 28 1012 20 16093 4.1 180 18:21 26.06.2019
5804 Clear 28 1013 21 16093 2.6 0 17:46 26.06.2019
5805 Clear 28 1013 21 16093 2.6 0 17:46 26.06.2019
5806 Clouds 28 1012 21 16093 4.1 150 17:27 26.06.2019
5807 Clouds 28 1012 21 16093 4.1 150 17:27 26.06.2019
5808 Clear 27 1012 21 16093 3.1 150 16:51 26.06.2019
5809 Clouds 26 1011 22 16093 5.7 180 16:29 26.06.2019
5810 Clear 24 1011 27 16093 2.1 120 15:53 26.06.2019
5811 Clouds 24 1010 22 16093 4.6 180 15:28 26.06.2019
5812 Clouds 23 1011 25 16093 1.56 205.35 14:43 26.06.2019
5813 Clear 23 1009 21 16093 5.7 180 14:23 26.06.2019
5814 Clouds 24 1010 27 16093 1.56 205.35 13:46 26.06.2019
5815 Clear 25 1009 19 16093 2.6 140 13:21 26.06.2019
5816 Clear 25 1009 19 16093 2.6 140 12:57 26.06.2019
5817 Clear 25 1009 19 16093 2.6 140 12:57 26.06.2019
5818 Clouds 25 1010 41 16093 3.1 100 12:39 26.06.2019
5819 Clouds 25 1009 18 16093 2.1 170 12:19 26.06.2019
5820 Clouds 26 1009 14 16093 2.1 180 11:25 26.06.2019
5821 Clear 26 1009 12 16093 1.5 140 10:51 26.06.2019
5822 Clouds 26 1009 11 16093 1.18 233.987 10:31 26.06.2019
5823 Clouds 27 1009 11 16093 1.18 233.987 09:59 26.06.2019
5824 Clouds 27 1008 9 16093 4.1 190 09:30 26.06.2019
5825 Clouds 28 1008 6 16093 5.1 190 08:55 26.06.2019
5826 Clouds 29 1008 6 16093 5.1 190 08:22 26.06.2019
5827 Clouds 29 1008 6 16093 5.1 190 07:57 26.06.2019
5828 Clear 30 1010 7 16093 3.29 228.663 07:38 26.06.2019
5829 Clouds 31 1007 5 16093 4.6 170 06:33 26.06.2019
5830 Clouds 36 1007 5 16093 5.7 160 01:59 26.06.2019
5831 Clear 36 1008 6 16093 9.8 180 00:35 26.06.2019
5832 Clear 37 1008 6 16093 10.3 180 23:52 25.06.2019
5833 Clouds 36 1008 7 16093 4.6 190 23:32 25.06.2019
5834 Clouds 36 1008 7 16093 4.6 190 22:59 25.06.2019
5835 Clear 36 1009 6 16093 8.2 190 22:41 25.06.2019
5836 Clouds 35 1008 8 16093 5.1 210 22:22 25.06.2019
5837 Clear 35 1009 6 16093 11.3 180 21:46 25.06.2019
5838 Clouds 35 1009 8 16093 6.2 190 21:25 25.06.2019
5839 Clear 35 1010 8 16093 8.2 170 20:49 25.06.2019
5840 Clear 35 1010 8 16093 8.2 170 20:49 25.06.2019
5841 Clear 35 1010 8 16093 8.2 170 20:49 25.06.2019
5842 Clear 35 1010 8 16093 8.2 170 20:49 25.06.2019
5843 Clouds 34 1009 8 16093 6.2 200 20:24 25.06.2019
5844 Clouds 34 1009 8 16093 6.2 200 20:24 25.06.2019
5845 Clear 33 1010 9 16093 8.2 160 19:56 25.06.2019
5846 Clear 33 1010 9 16093 8.2 160 19:56 25.06.2019
5847 Clear 33 1010 9 16093 8.2 160 19:56 25.06.2019
5848 Clear 33 1010 9 16093 8.2 160 19:56 25.06.2019
5849 Clear 33 1010 9 16093 8.2 160 19:37 25.06.2019
5850 Clouds 33 1009 12 16093 3.6 170 19:19 25.06.2019
5851 Clear 31 1010 11 16093 6.7 160 18:41 25.06.2019
5852 Clouds 30 1010 15 16093 2.6 0 18:23 25.06.2019
5853 -273 0 0 0 0 0 17:44 25.06.2019
5854 Clouds 28 1009 18 16093 3.6 140 17:23 25.06.2019
5855 Clouds 28 1009 18 16093 3.6 140 17:23 25.06.2019
5856 Clouds 28 1009 18 16093 3.6 140 17:23 25.06.2019
5857 Clear 28 1010 17 16093 2.6 60 16:44 25.06.2019
5858 Clouds 26 1009 21 16093 3.1 190 16:25 25.06.2019
5859 Clear 25 1009 23 16093 2.47 180.604 15:43 25.06.2019
5860 Clouds 24 1008 21 16093 3.6 170 15:25 25.06.2019
5861 Clouds 24 1008 21 16093 3.6 170 14:57 25.06.2019
5862 Clear 24 1009 17 16093 1.4 241.694 14:38 25.06.2019
5863 Clouds 24 1007 19 16093 3.6 180 14:20 25.06.2019
5864 Clouds 25 1008 18 16093 1.4 241.694 13:41 25.06.2019
5865 Clouds 26 1007 18 16093 3.6 180 13:19 25.06.2019
5866 Clouds 26 1008 20 16093 1.68 227.152 12:41 25.06.2019
5867 Clouds 26 1007 17 16093 4.1 190 12:23 25.06.2019
5868 Clouds 27 1008 23 16093 1.8 269.649 11:44 25.06.2019
5869 Clear 28 1007 14 16093 3.6 180 11:23 25.06.2019
5870 Clouds 28 1008 16 16093 1.8 269.649 10:55 25.06.2019
5871 Clear 28 1007 10 16093 3.6 180 10:36 25.06.2019
5872 Clear 29 1007 10 16093 3.6 180 10:18 25.06.2019
5873 Clear 29 1008 8 16093 1.8 269.649 09:39 25.06.2019
5874 Clear 29 1007 7 16093 5.1 200 09:21 25.06.2019
5875 Clouds 30 1008 16 16093 2.6 350 08:50 25.06.2019
5876 Clouds 30 1007 8 16093 4.1 180 08:30 25.06.2019
5877 Clear 31 1008 6 16093 2.6 210 07:43 25.06.2019
5878 Clouds 31 1007 8 16093 2.6 190 07:23 25.06.2019
5879 Clear 33 1008 7 16093 3.6 180 06:42 25.06.2019
5880 Clouds 37 1006 7 16093 3.1 220 04:31 25.06.2019
5881 Clear 37 1007 5 16093 6.7 150 02:35 25.06.2019
5882 Clear 37 1008 4 16093 4.6 150 00:38 25.06.2019
5883 Clouds 37 1008 6 16093 4.1 100 00:18 25.06.2019
5884 Clear 37 1009 5 16093 4.4 210.314 23:48 24.06.2019
5885 Clouds 37 1009 6 16093 4.6 90 23:30 24.06.2019
5886 Clear 36 1011 5 16093 3.6 60 22:45 24.06.2019
5887 Clouds 36 1011 8 16093 4.1 70 22:19 24.06.2019
5888 Clouds 36 1011 8 16093 4.1 70 22:19 24.06.2019
5889 Clear 35 1012 6 16093 4.1 100 21:43 24.06.2019
5890 Clouds 34 1011 10 16093 1.5 0 21:20 24.06.2019
5891 Clouds 34 1011 10 16093 1.5 0 21:20 24.06.2019
5892 Clear 33 1012 8 16093 2.6 50 20:59 24.06.2019
5893 Clear 32 1012 8 16093 2.6 50 20:40 24.06.2019
5894 Clouds 32 1012 9 16093 2.75 198.823 20:22 24.06.2019
5895 Clear 32 1012 8 16093 2.6 60 19:47 24.06.2019
5896 Clouds 31 1012 10 16093 2.1 50 19:25 24.06.2019
5897 Clear 30 1013 9 16093 1.5 50 18:54 24.06.2019
5898 Clear 29 1013 12 16093 1.5 320 18:31 24.06.2019
5899 Clear 28 1013 12 16093 1.5 320 17:59 24.06.2019
5900 Clear 28 1013 10 16093 1.02 204.834 17:37 24.06.2019
5901 Clear 26 1012 13 16093 1.02 204.834 16:56 24.06.2019
5902 Clear 25 1013 12 16093 1.02 204.834 16:37 24.06.2019
5903 Clear 24 1012 17 16093 1.02 204.834 16:19 24.06.2019
5904 Clear 22 1012 21 16093 1.02 204.834 15:40 24.06.2019
5905 Clear 20 1012 17 16093 1.5 250 15:21 24.06.2019
5906 Clear 20 1012 22 16093 0.97 294.717 14:35 24.06.2019
5907 Clouds 21 1012 24 16093 0.97 294.717 13:56 24.06.2019
5908 Clear 21 1011 13 16093 1.5 200 13:31 24.06.2019
5909 Clear 21 1012 34 16093 1.08 289.22 12:46 24.06.2019
5910 Clear 22 1011 13 16093 2.6 200 12:26 24.06.2019
5911 Clear 22 1011 13 16093 2.6 200 11:59 24.06.2019
5912 Clear 23 1011 14 16093 1.17 220.032 11:40 24.06.2019
5913 Clear 23 1011 13 16093 1.17 220.032 11:21 24.06.2019
5914 Clear 23 1011 21 16093 2.1 330 10:50 24.06.2019
5915 Clear 23 1011 10 16093 2.1 260 10:27 24.06.2019
5916 Clear 23 1012 20 16093 1.17 220.032 09:49 24.06.2019
5917 Clear 23 1012 20 16093 1.17 220.032 09:49 24.06.2019
5918 Clear 24 1011 12 16093 2.1 230 09:23 24.06.2019
5919 Clouds 25 1012 19 16093 1.5 320 08:52 24.06.2019
5920 Clear 25 1012 11 16093 1.5 260 08:26 24.06.2019
5921 Clear 25 1012 11 16093 1.5 260 08:26 24.06.2019
5922 Clear 26 1012 23 16093 0.58 100.181 07:45 24.06.2019
5923 Clear 26 1014 13 16093 0.58 100.181 07:26 24.06.2019
5924 Clear 29 1012 16 16093 2.6 20 06:39 24.06.2019
5925 Clear 29 1012 9 16093 2.6 100 06:19 24.06.2019
5926 Clear 30 1011 7 16093 2.1 80 05:27 24.06.2019
5927 Clear 32 1011 7 16093 2.6 340 04:25 24.06.2019
5928 Clear 33 1012 7 16093 2.6 250 03:23 24.06.2019
5929 Clear 33 1012 7 16093 1.5 0 02:32 24.06.2019
5930 Clear 33 1013 6 16093 3.6 40 01:53 24.06.2019
5931 Clear 33 1013 7 16093 2.1 60 01:22 24.06.2019
5932 Clear 32 1014 7 16093 1.5 0 00:40 24.06.2019
5933 Clear 32 1014 8 16093 1.5 0 00:19 24.06.2019
5934 Clear 32 1014 8 16093 1.5 0 00:19 24.06.2019
5935 Clear 32 1015 7 16093 2.1 60 23:44 23.06.2019
5936 Clear 31 1015 8 16093 2.6 0 23:23 23.06.2019
5937 Clear 31 1016 7 16093 2.1 0 22:43 23.06.2019
5938 Clear 31 1016 8 16093 2.1 50 22:20 23.06.2019
5939 Clear 30 1016 8 16093 4.1 50 21:56 23.06.2019
5940 Clear 30 1016 8 16093 4.1 50 21:36 23.06.2019
5941 Clear 29 1016 9 16093 2.26 97.232 21:18 23.06.2019
5942 Clear 29 1017 8 16093 4.1 50 20:40 23.06.2019
5943 Clear 29 1017 9 16093 3.1 90 20:22 23.06.2019
5944 Clear 28 1017 9 16093 5.1 40 19:44 23.06.2019
5945 Clear 28 1017 10 16093 4.1 10 19:21 23.06.2019
5946 Clear 27 1017 9 16093 4.6 40 18:54 23.06.2019
5947 Clear 27 1017 9 16093 4.6 40 18:54 23.06.2019
5948 Clear 26 1018 10 16093 4.1 50 18:24 23.06.2019
5949 Clear 25 1018 10 16093 2.1 0 17:50 23.06.2019
5950 Clear 25 1018 12 16093 4.1 60 17:26 23.06.2019
5951 Clear 23 1017 11 16093 4.1 30 16:55 23.06.2019
5952 Clear 23 1017 11 16093 4.1 30 16:36 23.06.2019
5953 Clear 22 1017 13 16093 3.1 20 16:18 23.06.2019
5954 Clear 20 1017 13 16093 3.6 20 15:40 23.06.2019
5955 Clear 19 1017 18 16093 1.5 220 15:20 23.06.2019
5956 Clear 19 1016 15 16093 4.1 20 14:40 23.06.2019
5957 Clear 19 1016 15 16093 2.13 60.82 14:22 23.06.2019
5958 Clouds 20 1016 15 16093 4.6 20 13:57 23.06.2019
5959 Clear 20 1016 15 16093 2.13 60.82 13:57 23.06.2019
5960 Clouds 20 1016 15 16093 4.6 20 13:38 23.06.2019
5961 Clear 20 1016 13 16093 1.5 350 13:18 23.06.2019
5962 Clouds 21 1016 15 16093 5.1 20 12:42 23.06.2019
5963 Clear 21 1016 12 16093 2.4 47.495 12:21 23.06.2019
5964 Clouds 21 1016 16 16093 5.1 40 11:52 23.06.2019
5965 Clear 21 1016 10 16093 5.1 30 11:29 23.06.2019
5966 Clouds 22 1016 16 16093 5.1 30 10:54 23.06.2019
5967 Clear 23 1015 10 16093 5.7 10 10:22 23.06.2019
5968 Clear 24 1015 10 16093 5.7 10 09:59 23.06.2019
5969 Clear 24 1015 10 16093 4.6 20 09:28 23.06.2019
5970 Clouds 24 1015 14 16093 5.1 30 08:56 23.06.2019
5971 Clouds 24 1015 15 16093 4.6 30 08:37 23.06.2019
5972 Clear 25 1015 8 16093 3.1 330 08:19 23.06.2019
5973 Clear 26 1015 16 16093 3.6 30 07:51 23.06.2019
5974 Clear 27 1015 7 16093 5.7 30 07:20 23.06.2019
5975 Clear 27 1015 12 16093 3.6 20 06:53 23.06.2019
5976 Clear 27 1014 10 16093 3.6 10 05:54 23.06.2019
5977 Clear 31 1013 6 16093 4.1 90 03:30 23.06.2019
5978 Clear 30 1013 7 16093 5.1 50 01:43 23.06.2019
5979 Clouds 30 1013 8 16093 5.1 40 01:24 23.06.2019
5980 Clear 30 1014 8 16093 4.6 30 00:34 23.06.2019
5981 Clouds 30 1014 8 16093 5.1 50 23:52 22.06.2019
5982 Clouds 29 1014 8 16093 5.1 50 23:27 22.06.2019
5983 Clear 29 1015 9 16093 6.7 350 22:49 22.06.2019
5984 Clouds 29 1015 9 16093 8.2 40 22:29 22.06.2019
5985 Clouds 28 1015 9 16093 8.2 40 21:59 22.06.2019
5986 Clear 28 1015 8 16093 8.7 340 21:37 22.06.2019
5987 Clouds 27 1015 9 16093 6.2 80 21:18 22.06.2019
5988 Clear 26 1015 9 16093 9.3 30 20:46 22.06.2019
5989 Clouds 26 1015 10 16093 7.2 40 20:25 22.06.2019
5990 Clear 26 1016 11 16093 8.7 360 19:44 22.06.2019
5991 Haze 26 1015 10 16093 5.1 30 19:22 22.06.2019
5992 Clear 25 1015 12 16093 11.3 360 18:47 22.06.2019
5993 Clouds 25 1016 12 16093 6.2 20 18:29 22.06.2019
5994 Clear 24 1015 14 16093 5.7 10 17:52 22.06.2019
5995 Clouds 24 1015 13 16093 7.7 10 17:31 22.06.2019
5996 Clear 23 1014 16 16093 8.2 10 16:50 22.06.2019
5997 Clouds 23 1014 13 16093 8.7 20 16:24 22.06.2019
5998 Clear 22 1014 18 16093 10.3 20 15:54 22.06.2019
5999 Clouds 22 1014 13 16093 8.7 20 15:33 22.06.2019
6000 Clear 22 1013 17 16093 8.7 20 14:53 22.06.2019
6001 Clear 22 1013 17 16093 8.7 20 14:34 22.06.2019
6002 Clear 22 1013 13 16093 9.8 10 13:58 22.06.2019
6003 Clear 22 1012 16 16093 8.7 30 13:40 22.06.2019
6004 Clear 23 1012 11 16093 9.3 10 13:19 22.06.2019
6005 Clear 23 1011 15 16093 7.2 20 12:47 22.06.2019
6006 Clear 24 1010 11 16093 6.2 10 12:29 22.06.2019
6007 Clear 25 1009 13 16093 9.8 20 11:53 22.06.2019
6008 Clear 26 1009 10 14484 12.3 340 11:29 22.06.2019
6009 Clear 26 1009 7 16093 7.7 40 10:47 22.06.2019
6010 Clear 27 1008 6 16093 10.3 330 10:19 22.06.2019
6011 Clouds 27 1008 6 16093 7.7 10 09:42 22.06.2019
6012 Clouds 27 1007 6 16093 6.2 20 08:58 22.06.2019
6013 Clouds 28 1007 9 16093 6.7 360 08:40 22.06.2019
6014 Clear 29 1008 9 16093 8.2 330 07:56 22.06.2019
6015 Clouds 29 1006 10 16093 4.1 310 07:30 22.06.2019
6016 Clear 30 1005 8 16093 4.6 330 06:46 22.06.2019
6017 Clear 33 1004 17 16093 4.6 360 04:38 22.06.2019
6018 Clouds 34 1004 11 16093 5.1 340 02:31 22.06.2019
6019 Clouds 34 1004 12 16093 2.6 0 00:57 22.06.2019
6020 Clear 34 1004 12 16093 2.1 0 00:35 22.06.2019
6021 Clear 33 1005 13 16093 3.1 0 23:51 21.06.2019
6022 Clouds 32 1006 13 16093 3.1 80 23:25 21.06.2019
6023 Clouds 32 1006 13 16093 3.1 80 22:58 21.06.2019
6024 Haze 32 1006 14 16093 2.6 0 22:40 21.06.2019
6025 Haze 32 1006 11 16093 4.46 247.242 22:20 21.06.2019
6026 Haze 32 1007 15 16093 3.6 100 21:40 21.06.2019
6027 Haze 31 1007 25 16093 3.6 40 21:21 21.06.2019
6028 Haze 31 1007 17 16093 3.1 0 20:49 21.06.2019
6029 Haze 30 1007 30 16093 5.7 30 20:27 21.06.2019
6030 Haze 30 1007 16 16093 2.1 40 19:54 21.06.2019
6031 Haze 29 1007 30 16093 3.6 60 19:23 21.06.2019
6032 Haze 29 1007 17 16093 2.6 60 18:43 21.06.2019
6033 Haze 29 1007 17 16093 2.6 60 18:43 21.06.2019
6034 Haze 29 1007 16 16093 3.1 70 18:25 21.06.2019
6035 Clear 28 1007 21 16093 4.1 40 17:41 21.06.2019
6036 Clear 27 1007 26 16093 3.1 150 17:23 21.06.2019
6037 Clear 27 1007 26 16093 1.26 248.536 16:38 21.06.2019
6038 Clear 26 1006 27 16093 2.6 220 16:19 21.06.2019
6039 Clear 24 1006 31 16093 1.26 248.536 15:39 21.06.2019
6040 Clear 25 1005 27 16093 1.5 170 15:18 21.06.2019
6041 Clear 25 1005 31 16093 3.07 258.031 14:44 21.06.2019
6042 Clear 25 1004 27 16093 3.07 258.031 14:24 21.06.2019
6043 Clouds 25 1004 29 16093 3.07 258.031 13:42 21.06.2019
6044 Clear 26 1003 27 16093 3.1 190 13:23 21.06.2019
6045 Clouds 26 1004 27 16093 2.62 255.81 12:54 21.06.2019
6046 Clear 26 1003 24 16093 2.1 210 12:23 21.06.2019
6047 Clouds 26 1003 26 16093 3.6 200 11:56 21.06.2019
6048 Clouds 26 1003 26 16093 3.6 200 11:38 21.06.2019
6049 Clear 26 1002 23 16093 3.6 220 11:19 21.06.2019
6050 Clouds 27 1003 21 16093 3.1 220 10:44 21.06.2019
6051 Clouds 27 1003 21 16093 3.1 220 10:44 21.06.2019
6052 Clear 28 1002 20 16093 6.2 180 10:21 21.06.2019
6053 Clouds 28 1003 19 16093 3.6 190 09:43 21.06.2019
6054 Clear 28 1001 18 16093 6.2 190 09:25 21.06.2019
6055 Clear 28 1001 18 16093 6.2 190 08:58 21.06.2019
6056 Clear 28 1003 17 16093 4.1 130 08:40 21.06.2019
6057 Clouds 29 1001 16 16093 4.6 210 08:19 21.06.2019
6058 Dust 31 1003 15 16093 6.7 210 07:45 21.06.2019
6059 Dust 31 1003 15 16093 6.7 210 07:45 21.06.2019
6060 Dust 31 1002 14 16093 4.6 180 07:22 21.06.2019
6061 Dust 32 1002 18 16093 6.7 210 06:29 21.06.2019
6062 Dust 33 1002 7 16093 5.7 220 05:55 21.06.2019
6063 Dust 36 1002 7 16093 8.7 230 04:49 21.06.2019
6064 Clear 37 1002 7 16093 10.3 240 03:49 21.06.2019
6065 Clouds 38 1001 8 16093 6.2 210 03:30 21.06.2019
6066 Clear 38 1002 7 12874 10.3 240 02:42 21.06.2019
6067 Dust 38 1003 10 16093 11.3 240 01:32 21.06.2019
6068 Dust 38 1003 7 16093 11.8 240 00:46 21.06.2019
6069 Dust 39 1004 10 16093 9.8 230 23:59 20.06.2019
6070 Dust 38 1004 16 16093 11.3 240 23:40 20.06.2019
6071 Dust 38 1004 11 16093 6.7 190 23:20 20.06.2019
6072 Clear 38 1005 13 16093 11.8 170 22:44 20.06.2019
6073 Clouds 37 1005 11 16093 8.7 220 22:23 20.06.2019
6074 Clear 37 1006 13 16093 14.4 170 21:56 20.06.2019
6075 Clear 37 1006 13 16093 14.4 170 21:38 20.06.2019
6076 Clouds 36 1006 12 16093 5.7 210 21:19 20.06.2019
6077 Clear 36 1007 13 16093 12.9 150 20:41 20.06.2019
6078 Clouds 36 1006 14 16093 5.1 200 20:23 20.06.2019
6079 Clear 34 1008 14 16093 10.8 150 19:46 20.06.2019
6080 Clear 34 1007 19 16093 6.2 180 19:19 20.06.2019
6081 Clear 33 1008 15 16093 8.2 160 18:58 20.06.2019
6082 Clear 33 1008 15 16093 8.2 160 18:40 20.06.2019
6083 Clear 32 1008 22 16093 4.1 170 18:21 20.06.2019
6084 Clear 31 1009 16 16093 7.2 140 17:47 20.06.2019
6085 Clear 31 1008 22 16093 4.1 170 17:29 20.06.2019
6086 Clear 30 1009 16 16093 5.1 120 16:44 20.06.2019
6087 Clouds 29 1008 23 16093 3.6 170 16:20 20.06.2019
6088 Clear 28 1009 33 16093 5.1 160 15:56 20.06.2019
6089 Clear 28 1009 33 16093 5.1 160 15:38 20.06.2019
6090 Clouds 27 1007 26 16093 4.1 170 15:18 20.06.2019
6091 Clear 27 1009 40 16093 1.5 130 14:43 20.06.2019
6092 Clear 27 1007 25 16093 3.1 170 14:21 20.06.2019
6093 Clouds 28 1008 17 16093 3.31 237.821 13:40 20.06.2019
6094 Clear 29 1007 22 16093 3.6 170 13:19 20.06.2019
6095 Clouds 29 1008 17 16093 2.94 238.902 12:44 20.06.2019
6096 Clear 29 1007 18 16093 4.1 160 12:23 20.06.2019
6097 Clouds 30 1008 22 16093 2.1 30 11:46 20.06.2019
6098 Clear 30 1007 14 16093 3.6 170 11:24 20.06.2019
6099 Clouds 31 1008 12 16093 5.1 140 10:54 20.06.2019
6100 Clouds 31 1008 12 16093 5.1 140 10:36 20.06.2019
6101 Clear 31 1008 10 16093 3.6 170 10:18 20.06.2019
6102 Clouds 32 1009 9 16093 3.13 251.745 09:40 20.06.2019
6103 Clear 32 1008 9 16093 3.6 200 09:21 20.06.2019
6104 Clear 33 1009 8 16093 7.7 180 08:45 20.06.2019
6105 Clear 33 1008 10 16093 2.6 0 08:27 20.06.2019
6106 Clear 34 1009 7 16093 7.2 180 07:53 20.06.2019
6107 Clouds 34 1008 19 16093 4.6 200 07:28 20.06.2019
6108 Clouds 35 1007 11 16093 4.6 220 06:27 20.06.2019
6109 Clear 38 1007 8 16093 12.3 160 04:54 20.06.2019
6110 Clouds 39 1008 9 16093 6.7 230 02:29 20.06.2019
6111 Clouds 39 1009 9 16093 4.1 170 00:34 20.06.2019
6112 Clear 39 1009 7 16093 9.8 160 23:56 19.06.2019
6113 Clear 39 1009 7 16093 9.8 160 23:37 19.06.2019
6114 Clouds 38 1010 10 16093 5.1 140 23:19 19.06.2019
6115 Clear 38 1011 7 16093 8.2 170 22:40 19.06.2019
6116 Haze 38 1011 10 16093 3.1 290 22:18 19.06.2019
6117 Haze 37 1012 8 16093 7.7 140 21:42 19.06.2019
6118 Haze 37 1012 11 16093 1.5 0 21:23 19.06.2019
6119 Haze 35 1013 9 16093 5.1 150 20:42 19.06.2019
6120 Haze 34 1013 12 16093 3.15 225.013 20:22 19.06.2019
6121 Haze 33 1013 10 16093 2.6 0 19:55 19.06.2019
6122 Haze 33 1013 10 16093 2.6 0 19:36 19.06.2019
6123 Clouds 33 1013 13 16093 3.15 225.013 19:18 19.06.2019
6124 Clear 33 1013 9 16093 2.6 0 18:43 19.06.2019
6125 Clear 31 1013 13 16093 1.88 229.213 18:20 19.06.2019
6126 Clear 31 1013 11 16093 4.1 160 17:35 19.06.2019
6127 Clear 29 1013 15 16093 2.1 300 16:57 19.06.2019
6128 Clear 29 1013 13 16093 1.5 0 16:38 19.06.2019
6129 Clear 27 1013 17 16093 2.1 310 16:20 19.06.2019
6130 Clear 26 1013 19 16093 3.1 50 15:48 19.06.2019
6131 Clear 25 1012 18 16093 1.5 260 15:25 19.06.2019
6132 Clear 25 1012 16 16093 3.1 60 14:50 19.06.2019
6133 Clear 25 1012 20 16093 1.5 260 14:30 19.06.2019
6134 Clear 26 1012 20 16093 1.5 260 13:59 19.06.2019
6135 Clouds 26 1012 14 16093 2.6 100 13:40 19.06.2019
6136 Clear 26 1011 18 16093 1.5 210 13:21 19.06.2019
6137 Clouds 27 1012 25 16093 2.1 100 12:43 19.06.2019
6138 Clear 26 1011 17 16093 2.1 200 12:21 19.06.2019
6139 Clouds 27 1012 14 16093 2.6 100 11:44 19.06.2019
6140 Clear 27 1011 20 16093 3.1 170 11:25 19.06.2019
6141 Clear 28 1011 20 16093 3.1 170 10:57 19.06.2019
6142 Clouds 29 1012 22 16093 2.1 30 10:38 19.06.2019
6143 Clear 29 1011 11 16093 1.55 235.078 10:19 19.06.2019
6144 Clear 29 1012 15 16093 1.55 235.078 09:39 19.06.2019
6145 Clouds 30 1011 15 16093 1.5 180 09:19 19.06.2019
6146 Clear 30 1012 12 16093 2.1 300 08:48 19.06.2019
6147 Clouds 31 1011 11 16093 2.1 190 08:28 19.06.2019
6148 Clear 32 1012 10 16093 2.1 280 07:47 19.06.2019
6149 Clouds 32 1011 10 16093 3.1 190 07:23 19.06.2019
6150 Clear 32 1012 20 16093 1 160.767 06:49 19.06.2019
6151 Clouds 32 1010 13 16093 1.5 170 06:24 19.06.2019
6152 Clear 34 1011 10 16093 1.5 150 05:47 19.06.2019
6153 Clouds 37 1010 12 16093 1.29 244.624 04:19 19.06.2019
6154 Clouds 37 1010 12 16093 3.1 50 03:18 19.06.2019
6155 Clear 37 1011 9 16093 3.6 30 01:48 19.06.2019
6156 Clouds 36 1011 13 16093 2.1 0 00:57 19.06.2019
6157 Clear 36 1011 9 16093 2.1 0 00:39 19.06.2019
6158 Clouds 36 1012 12 16093 2.1 60 00:19 19.06.2019
6159 Thunderstorm 36 1012 17 16093 2.1 0 23:46 18.06.2019
6160 Thunderstorm 35 1012 13 16093 2.6 110 23:25 18.06.2019
6161 Clear 35 1013 12 16093 3.1 0 22:43 18.06.2019
6162 Clouds 35 1013 14 16093 2.1 10 22:24 18.06.2019
6163 Clear 34 1014 16 16093 3.6 40 21:56 18.06.2019
6164 Clear 34 1014 16 16093 3.6 40 21:37 18.06.2019
6165 Clouds 33 1014 18 16093 2.6 0 21:19 18.06.2019
6166 Clear 32 1014 18 16093 2.1 0 20:42 18.06.2019
6167 Clouds 32 1014 18 16093 2.56 108.066 20:23 18.06.2019
6168 Clear 32 1014 19 16093 2.1 0 19:41 18.06.2019
6169 Clouds 31 1014 19 16093 2.6 30 19:23 18.06.2019
6170 Clear 30 1014 22 16093 2.6 10 18:56 18.06.2019
6171 Clouds 30 1014 22 16093 1.5 0 18:26 18.06.2019
6172 Clear 29 1014 25 16093 4.1 340 17:57 18.06.2019
6173 Clear 29 1014 25 16093 4.1 340 17:57 18.06.2019
6174 Clear 28 1014 25 16093 4.1 340 17:38 18.06.2019
6175 Clouds 28 1014 26 16093 1.5 290 17:19 18.06.2019
6176 Clear 27 1013 26 16093 5.7 340 16:42 18.06.2019
6177 Clouds 26 1013 29 16093 1.5 220 16:22 18.06.2019
6178 Clear 25 1013 26 16093 5.1 360 15:43 18.06.2019
6179 Clouds 25 1013 28 16093 2.6 20 15:23 18.06.2019
6180 Clouds 24 1013 28 16093 2.6 20 14:57 18.06.2019
6181 Clear 24 1012 29 16093 5.1 360 14:39 18.06.2019
6182 Clouds 24 1012 28 16093 4.1 360 14:19 18.06.2019
6183 Clear 25 1012 29 16093 5.7 360 13:50 18.06.2019
6184 Clouds 25 1012 28 16093 4.6 30 13:31 18.06.2019
6185 Clouds 25 1011 27 16093 4.1 340 12:46 18.06.2019
6186 Clouds 25 1011 24 16093 3.6 20 12:28 18.06.2019
6187 Clouds 26 1011 26 16093 2.1 10 11:56 18.06.2019
6188 Clouds 26 1011 26 16093 2.1 10 11:38 18.06.2019
6189 Clouds 26 1011 28 16093 1.5 120 11:18 18.06.2019
6190 Clear 27 1011 24 16093 5.7 350 10:43 18.06.2019
6191 Clouds 28 1011 25 16093 2.6 130 10:22 18.06.2019
6192 Clouds 28 1011 25 16093 2.6 130 10:22 18.06.2019
6193 Clear 28 1011 24 16093 8.7 350 09:52 18.06.2019
6194 Clouds 28 1011 22 16093 3.6 70 09:25 18.06.2019
6195 Clouds 29 1011 22 16093 3.6 70 08:56 18.06.2019
6196 Clear 29 1011 23 16093 7.7 20 08:38 18.06.2019
6197 Clouds 29 1012 20 16093 5.7 40 08:20 18.06.2019
6198 Clouds 31 1011 19 16093 10.3 10 07:26 18.06.2019
6199 Clouds 31 1011 19 16093 10.3 10 06:57 18.06.2019
6200 Clouds 32 1008 10 16093 3.6 30 05:27 18.06.2019
6201 Clouds 32 1008 10 16093 3.6 30 05:27 18.06.2019
6202 Clouds 35 1008 9 16093 3.6 60 04:22 18.06.2019
6203 Clear 35 1007 8 16093 1.07 44.582 02:49 18.06.2019
6204 Thunderstorm 36 1008 10 16093 4.1 360 01:28 18.06.2019
6205 Thunderstorm 36 1008 10 16093 4.1 360 00:58 18.06.2019
6206 Clear 35 1008 8 16093 4.1 300 00:39 18.06.2019
6207 Clouds 35 1009 11 16093 2.6 0 00:18 18.06.2019
6208 Clear 34 1009 9 16093 4.1 160 23:38 17.06.2019
6209 Clouds 34 1009 15 16093 1.5 0 23:18 17.06.2019
6210 Clear 34 1010 13 16093 3.6 50 22:41 17.06.2019
6211 Clouds 33 1011 18 16093 1.5 120.237 22:21 17.06.2019
6212 Clear 32 1011 19 16093 2.1 0 21:45 17.06.2019
6213 Clear 32 1011 19 16093 2.1 0 21:45 17.06.2019
6214 Clouds 31 1011 22 16093 1.5 40 21:24 17.06.2019
6215 Clouds 31 1011 22 16093 1.5 40 21:24 17.06.2019
6216 Clear 30 1012 22 16093 3.6 100 20:44 17.06.2019
6217 Clear 30 1012 22 16093 3.6 100 20:44 17.06.2019
6218 Clouds 30 1012 23 16093 3.1 50 20:25 17.06.2019
6219 Clear 30 1012 25 16093 2.6 0 19:57 17.06.2019
6220 Clear 30 1012 25 16093 2.6 0 19:39 17.06.2019
6221 Clouds 29 1012 28 16093 2.6 0 19:21 17.06.2019
6222 Smoke 28 1012 26 16093 4.6 40 18:39 17.06.2019
6223 Smoke 27 1012 32 16093 2.91 72.05 18:18 17.06.2019
6224 Smoke 27 1013 29 16093 2.91 72.05 17:58 17.06.2019
6225 Smoke 26 1012 30 16093 2.6 0 17:39 17.06.2019
6226 Smoke 26 1012 30 16093 2.6 0 17:20 17.06.2019
6227 Smoke 25 1012 34 16093 2.91 72.05 16:42 17.06.2019
6228 Smoke 25 1012 34 16093 2.91 72.05 16:24 17.06.2019
6229 Smoke 23 1011 40 16093 2.6 330 15:45 17.06.2019
6230 Smoke 22 1011 40 16093 2.6 330 15:20 17.06.2019
6231 Clear 22 1011 40 16093 2.79 63.417 14:58 17.06.2019
6232 Clear 22 1010 40 16093 2.79 63.417 14:40 17.06.2019
6233 Clear 22 1010 40 16093 2.79 63.417 14:21 17.06.2019
6234 Smoke 24 1010 36 16093 2.1 10 13:42 17.06.2019
6235 Smoke 24 1010 36 16093 2.1 10 13:21 17.06.2019
6236 Clouds 24 1009 38 16093 5.1 20 12:46 17.06.2019
6237 Clouds 24 1009 38 16093 5.1 20 12:22 17.06.2019
6238 Clouds 24 1010 41 16093 3.1 310 11:45 17.06.2019
6239 Clouds 24 1010 41 16093 3.1 310 11:26 17.06.2019
6240 Clouds 25 1010 38 16093 3.1 340 10:49 17.06.2019
6241 Clouds 25 1010 36 16093 5.1 340 10:30 17.06.2019
6242 Clouds 26 1010 36 16093 5.7 10 09:57 17.06.2019
6243 Clouds 26 1010 36 16093 7.2 10 09:39 17.06.2019
6244 Clouds 26 1010 36 16093 7.2 10 09:20 17.06.2019
6245 Clear 27 1009 34 16093 11.3 20 08:39 17.06.2019
6246 Clear 27 1009 34 16093 11.3 20 08:21 17.06.2019
6247 Clear 28 1009 26 16093 10.8 40 07:40 17.06.2019
6248 Clear 29 1009 26 16093 10.8 40 07:20 17.06.2019
6249 Clear 30 1008 20 16093 11.3 30 06:29 17.06.2019
6250 Clear 33 1006 17 16093 3.6 180 05:42 17.06.2019
6251 Clear 35 1005 17 16093 7.2 170 04:33 17.06.2019
6252 Clear 36 1005 17 16093 8.2 190 03:33 17.06.2019
6253 Clear 37 1005 10 16093 7.7 210 02:50 17.06.2019
6254 Clear 37 1005 9 16093 7.7 200 02:32 17.06.2019
6255 Clear 37 1005 9 16093 7.7 200 02:32 17.06.2019
6256 Clear 36 1006 11 16093 6.7 210 01:39 17.06.2019
6257 Clear 37 1007 12 16093 8.2 210 00:59 17.06.2019
6258 Clear 37 1006 11 16093 4.1 210 00:40 17.06.2019
6259 Clouds 37 1006 12 16093 3.6 60 00:20 17.06.2019
6260 Clear 37 1007 12 16093 8.2 150 23:40 16.06.2019
6261 Clear 36 1007 12 16093 8.2 150 23:20 16.06.2019
6262 Clear 36 1008 12 16093 4.6 130 22:47 16.06.2019
6263 Clear 36 1008 12 16093 4.6 130 22:21 16.06.2019
6264 Clear 36 1009 14 16093 2.6 0 21:59 16.06.2019
6265 Clear 35 1009 14 16093 2.6 140 21:40 16.06.2019
6266 Clear 35 1009 14 16093 2.6 140 21:21 16.06.2019
6267 Clear 35 1009 14 16093 3.87 192.593 20:54 16.06.2019
6268 Clear 35 1009 14 16093 3.87 192.593 20:54 16.06.2019
6269 Clear 35 1009 14 16093 1.5 0 20:36 16.06.2019
6270 Clear 34 1011 17 16093 2.6 60 20:18 16.06.2019
6271 Clear 34 1010 16 16093 2.6 80 19:39 16.06.2019
6272 Clear 33 1010 16 16093 2.6 80 19:21 16.06.2019
6273 Clear 33 1010 16 16093 2.6 80 19:21 16.06.2019
6274 Clear 33 1010 16 16093 2.1 120 18:57 16.06.2019
6275 Clear 33 1010 15 16093 2.6 170 18:36 16.06.2019
6276 Clouds 32 1009 19 16093 1.32 264.039 18:18 16.06.2019
6277 Clear 31 1010 18 16093 2.1 180 17:42 16.06.2019
6278 Clear 31 1010 18 16093 2.1 180 17:21 16.06.2019
6279 Clear 29 1009 28 16093 1.5 50 16:56 16.06.2019
6280 Clear 28 1009 26 16093 1.5 40 16:38 16.06.2019
6281 Clear 28 1009 26 16093 1.5 40 16:19 16.06.2019
6282 Clear 27 1009 29 16093 3.1 40 15:41 16.06.2019
6283 Clear 26 1009 29 16093 3.1 40 15:23 16.06.2019
6284 Clear 26 1008 31 16093 2.6 10 14:42 16.06.2019
6285 Clear 27 1008 31 16093 2.6 10 14:23 16.06.2019
6286 Clear 27 1008 31 16093 2.6 10 14:23 16.06.2019
6287 Clear 27 1008 33 16093 2.47 278.928 13:51 16.06.2019
6288 Clear 28 1008 29 16093 2.47 278.928 13:26 16.06.2019
6289 Clouds 29 1008 23 16093 1.92 270.805 12:57 16.06.2019
6290 Clouds 29 1008 23 16093 1.92 270.805 12:57 16.06.2019
6291 Clouds 28 1008 27 16093 1.92 270.805 12:38 16.06.2019
6292 Clouds 28 1007 19 16093 3.1 170 12:18 16.06.2019
6293 Clear 28 1008 20 16093 3.17 245.051 11:38 16.06.2019
6294 Clouds 29 1007 17 16093 3.6 210 11:19 16.06.2019
6295 Clear 30 1008 24 16093 3.17 245.051 10:45 16.06.2019
6296 Clear 30 1008 24 16093 3.17 245.051 10:20 16.06.2019
6297 Clear 30 1008 24 16093 3.17 245.051 10:20 16.06.2019
6298 Clear 31 1008 16 16093 4.6 200 09:47 16.06.2019
6299 Clear 30 1008 16 16093 4.6 200 09:25 16.06.2019
6300 Clear 31 1008 14 16093 3.6 200 08:50 16.06.2019
6301 Clear 31 1008 14 16093 3.6 200 08:22 16.06.2019
6302 Clear 33 1008 13 16093 3.1 200 07:50 16.06.2019
6303 Clear 33 1008 14 16093 3.1 220 07:32 16.06.2019
6304 Clear 34 1008 14 16093 4.1 140 06:57 16.06.2019
6305 -273 0 0 0 0 0 06:57 16.06.2019
6306 Clear 34 1008 14 16093 4.1 150 06:21 16.06.2019
6307 Clear 36 1007 13 16093 3.6 160 05:28 16.06.2019
6308 Clear 37 1007 12 16093 5.7 160 04:33 16.06.2019
6309 Clear 38 1007 10 16093 5.7 160 03:45 16.06.2019
6310 Clear 38 1007 10 16093 5.7 160 03:26 16.06.2019
6311 Clear 38 1008 10 16093 2.1 0 01:55 16.06.2019
6312 Clear 38 1008 10 16093 4.1 30 01:37 16.06.2019
6313 Clear 37 1008 10 16093 3.6 120 00:59 16.06.2019
6314 Clear 37 1009 10 16093 1.88 292.437 00:37 16.06.2019
6315 Clouds 37 1009 12 16093 1.5 0 00:18 16.06.2019
6316 Clear 36 1009 12 16093 2.1 0 23:40 15.06.2019
6317 Clear 36 1009 12 16093 2.1 0 23:20 15.06.2019
6318 Clear 37 1010 12 16093 3.1 50 22:49 15.06.2019
6319 Clear 36 1010 12 16093 2.1 10 22:26 15.06.2019
6320 Clear 35 1011 12 16093 2.6 360 21:45 15.06.2019
6321 Clear 35 1011 12 16093 2.6 360 21:27 15.06.2019
6322 Clear 35 1011 12 16093 2.6 360 21:27 15.06.2019
6323 Clear 35 1011 12 16093 2.6 360 21:27 15.06.2019
6324 Clear 34 1012 15 16093 2.46 96.361 20:46 15.06.2019
6325 Clear 34 1012 15 16093 2.46 96.361 20:24 15.06.2019
6326 Clear 33 1012 16 16093 2.46 96.361 19:53 15.06.2019
6327 Clear 33 1012 16 16093 2.46 96.361 19:30 15.06.2019
6328 Clear 32 1012 17 16093 2.46 96.361 18:59 15.06.2019
6329 Clear 32 1012 19 16093 1.5 0 18:37 15.06.2019
6330 Clear 30 1012 19 16093 1.5 0 18:19 15.06.2019
6331 Clear 29 1012 18 16093 1.5 210 17:41 15.06.2019
6332 Clear 29 1012 18 16093 1.5 210 17:21 15.06.2019
6333 Clear 27 1011 26 16093 2.32 76.167 16:44 15.06.2019
6334 Clear 27 1011 26 16093 2.32 76.167 16:18 15.06.2019
6335 Clear 23 1011 28 16093 2.32 76.167 15:42 15.06.2019
6336 Clear 23 1011 28 16093 1.33 61.083 15:22 15.06.2019
6337 Clear 23 1010 22 16093 2.1 340 14:39 15.06.2019
6338 Clear 23 1010 22 16093 2.1 340 14:18 15.06.2019
6339 Clear 24 1009 25 16093 2.6 10 13:44 15.06.2019
6340 Clear 24 1009 25 16093 2.6 10 13:22 15.06.2019
6341 Clear 24 1009 27 16093 3.1 50 13:00 15.06.2019
6342 Clouds 24 1009 31 16093 2.6 40 12:41 15.06.2019
6343 Clouds 24 1009 31 16093 2.6 40 12:23 15.06.2019
6344 Clouds 25 1009 27 16093 2.1 60 11:47 15.06.2019
6345 Clouds 25 1009 27 16093 2.1 60 11:28 15.06.2019
6346 Clear 26 1009 25 16093 1.16 9.129 10:43 15.06.2019
6347 Clear 26 1009 25 16093 1.16 9.129 10:25 15.06.2019
6348 Clouds 27 1009 25 16093 1.16 9.129 09:48 15.06.2019
6349 Clear 26 1009 21 16093 1.16 258.311 09:26 15.06.2019
6350 Clear 28 1009 21 16093 1.16 258.311 08:54 15.06.2019
6351 Clear 28 1009 26 16093 1.16 258.311 08:34 15.06.2019
6352 Clear 28 1009 26 16093 1.5 30 07:58 15.06.2019
6353 Clear 29 1009 21 16093 1.16 258.311 07:25 15.06.2019
6354 Clear 30 1008 20 16093 2.1 30 06:48 15.06.2019
6355 Clear 30 1008 20 16093 2.1 30 06:22 15.06.2019
6356 Clear 31 1008 13 16093 2.32 316.085 05:37 15.06.2019
6357 Clear 33 1007 20 16093 2.32 316.085 04:49 15.06.2019
6358 Rain 34 1007 20 16093 5.1 310 03:50 15.06.2019
6359 Rain 34 1007 17 16093 5.1 320 03:19 15.06.2019
6360 Rain 32 1009 20 6437 16.5 250 02:30 15.06.2019
6361 Clear 35 1007 8 16093 7.2 290 01:50 15.06.2019
6362 Clouds 35 1007 9 16093 6.7 220 01:18 15.06.2019
6363 Rain 34 1010 15 16093 4.1 10 00:40 15.06.2019
6364 Clear 35 1008 9 16093 2.1 0 23:55 14.06.2019
6365 Clear 35 1008 9 16093 2.1 180 23:27 14.06.2019
6366 Clear 35 1008 9 16093 2.1 180 23:27 14.06.2019
6367 Clear 35 1008 9 16093 2.39 300.372 22:57 14.06.2019
6368 Clear 35 1009 9 16093 2.39 300.372 22:39 14.06.2019
6369 Clear 35 1009 9 16093 2.39 300.372 22:19 14.06.2019
6370 Clouds 34 1009 13 16093 3.1 50 21:41 14.06.2019
6371 Clouds 34 1009 13 16093 3.1 50 21:23 14.06.2019
6372 Clear 34 1009 13 16093 2.1 0 20:43 14.06.2019
6373 Clear 33 1009 13 16093 2.1 0 20:19 14.06.2019
6374 Clear 33 1009 15 16093 2.1 0 19:57 14.06.2019
6375 Clear 33 1009 15 16093 0.45 234.881 19:36 14.06.2019
6376 Clouds 32 1009 15 16093 3.6 330 19:18 14.06.2019
6377 Clear 32 1009 16 16093 0.45 234.881 18:43 14.06.2019
6378 Clear 32 1009 16 16093 1.1 255.075 18:24 14.06.2019
6379 Clear 30 1009 17 16093 2.1 70 17:55 14.06.2019
6380 Clear 29 1009 18 16093 1.1 255.075 17:37 14.06.2019
6381 Clear 29 1009 18 16093 1.1 255.075 17:19 14.06.2019
6382 Clear 28 1009 22 16093 1.1 255.075 16:45 14.06.2019
6383 Clear 27 1009 22 16093 1.1 255.075 16:20 14.06.2019
6384 Clear 27 1009 22 16093 1.1 255.075 16:20 14.06.2019
6385 Clear 25 1008 33 16093 1.1 255.075 15:42 14.06.2019
6386 Clear 25 1008 33 16093 1.1 255.075 15:42 14.06.2019
6387 Clear 25 1008 33 16093 2.21 256.606 15:24 14.06.2019
6388 Clear 25 1008 33 16093 2.21 256.606 15:24 14.06.2019
6389 Clear 24 1007 35 16093 1.5 50 14:59 14.06.2019
6390 Clear 24 1007 33 16093 2.1 50 14:40 14.06.2019
6391 Clear 24 1007 33 16093 2.1 50 14:21 14.06.2019
6392 Clear 25 1007 22 16093 2.12 260.671 13:42 14.06.2019
6393 Clear 25 1007 22 16093 2.12 260.671 13:24 14.06.2019
6394 Clouds 26 1007 22 16093 2.6 320 12:43 14.06.2019
6395 Clouds 26 1007 22 16093 2.6 320 12:25 14.06.2019
6396 Clouds 26 1007 22 16093 2.6 320 12:25 14.06.2019
6397 Clear 27 1007 22 16093 2.6 300 11:58 14.06.2019
6398 Clear 27 1007 22 16093 2.6 310 11:39 14.06.2019
6399 Clear 27 1007 22 16093 2.6 310 11:20 14.06.2019
6400 Clear 29 1007 19 16093 2.59 263.182 10:43 14.06.2019
6401 Clear 29 1007 19 16093 2.59 263.182 10:20 14.06.2019
6402 Clouds 30 1007 17 16093 1.5 230 09:46 14.06.2019
6403 Clouds 30 1007 17 16093 1.5 230 09:46 14.06.2019
6404 Clouds 30 1007 17 16093 1.5 230 09:24 14.06.2019
6405 Clear 31 1007 14 16093 2.6 190 08:47 14.06.2019
6406 Clear 31 1007 14 16093 2.6 190 08:19 14.06.2019
6407 Clear 32 1007 25 16093 4.1 240 07:51 14.06.2019
6408 Clear 32 1007 10 16093 2.1 290 07:21 14.06.2019
6409 Clear 33 1006 9 16093 2.6 140 06:35 14.06.2019
6410 -273 0 0 0 0 0 05:58 14.06.2019
6411 Clear 35 1006 7 16093 3.6 260 05:26 14.06.2019
6412 Clear 37 1005 6 16093 7.7 250 04:46 14.06.2019
6413 Clear 37 1005 5 16093 9.3 250 03:52 14.06.2019
6414 Clear 37 1005 5 16093 9.3 230 03:26 14.06.2019
6415 Clear 38 1005 4 16093 9.8 250 02:55 14.06.2019
6416 Clear 38 1005 3 16093 7.7 220 02:27 14.06.2019
6417 Clear 38 1005 3 16093 7.7 220 02:27 14.06.2019
6418 Clear 38 1005 3 16093 7.7 220 02:27 14.06.2019
6419 Clear 40 1006 3 16093 8.2 170 00:58 14.06.2019
6420 Clouds 39 1007 4 16093 5.1 240 00:23 14.06.2019
6421 Clear 40 1007 3 16093 9.8 200 23:59 13.06.2019
6422 Clear 40 1007 3 16093 11.3 190 23:41 13.06.2019
6423 Clouds 40 1007 5 16093 4.6 180 23:21 13.06.2019
6424 Clear 39 1008 6 16093 8.7 200 22:40 13.06.2019
6425 Clouds 39 1008 5 16093 8.7 220 22:21 13.06.2019
6426 Clear 38 1008 11 16093 5.7 150 21:40 13.06.2019
6427 Clear 38 1008 17 16093 5.7 150 21:20 13.06.2019
6428 Clear 37 1009 17 16093 7.2 180 20:57 13.06.2019
6429 Clear 37 1009 17 16093 7.2 180 20:57 13.06.2019
6430 Clear 37 1009 9 12874 4.1 240 20:38 13.06.2019
6431 Clouds 36 1009 11 16093 5.7 170 20:19 13.06.2019
6432 Clear 35 1010 11 16093 1.5 0 19:41 13.06.2019
6433 Clear 34 1010 11 16093 1.5 0 19:22 13.06.2019
6434 Clear 33 1010 12 16093 3.47 226.193 18:57 13.06.2019
6435 Clear 33 1010 13 16093 2.1 230 18:39 13.06.2019
6436 Clear 33 1010 13 16093 2.1 230 18:21 13.06.2019
6437 Clear 32 1010 15 16093 2.55 242.327 17:42 13.06.2019
6438 Clear 31 1010 15 16093 2.55 242.327 17:20 13.06.2019
6439 Clear 30 1011 16 16093 2.55 242.327 16:50 13.06.2019
6440 Clear 29 1010 17 16093 2.55 242.327 16:22 13.06.2019
6441 Clear 28 1010 29 16093 2.55 242.327 15:57 13.06.2019
6442 Clear 28 1010 29 16093 2.55 242.327 15:57 13.06.2019
6443 Clear 27 1010 33 16093 2.1 30 15:38 13.06.2019
6444 Clear 26 1010 33 16093 2.1 30 15:19 13.06.2019
6445 Clouds 26 1009 17 16093 3.1 180 14:46 13.06.2019
6446 -273 0 0 0 0 0 14:27 13.06.2019
6447 Clear 28 1009 31 16093 2.35 242.812 13:46 13.06.2019
6448 Clear 28 1009 31 16093 2.35 242.812 13:21 13.06.2019
6449 Clouds 28 1009 31 16093 2.35 242.812 12:58 13.06.2019
6450 Clouds 28 1009 21 16093 2.35 242.812 12:38 13.06.2019
6451 Clouds 29 1009 21 16093 2.77 251.323 12:19 13.06.2019
6452 Clear 29 1009 24 16093 1.5 30 11:41 13.06.2019
6453 Clear 29 1009 24 16093 1.5 30 11:22 13.06.2019
6454 Clear 30 1009 22 16093 2.77 251.323 10:46 13.06.2019
6455 Clear 30 1009 22 16093 2.77 251.323 10:27 13.06.2019
6456 Clear 30 1009 26 16093 2.77 251.323 09:49 13.06.2019
6457 Clear 30 1009 20 16093 2.1 210 09:25 13.06.2019
6458 Clear 30 1009 20 16093 2.1 210 09:25 13.06.2019
6459 Clear 30 1009 20 16093 2.1 210 09:25 13.06.2019
6460 Clear 31 1009 20 16093 3.1 20 08:50 13.06.2019
6461 Clear 31 1009 20 16093 1.5 60 08:30 13.06.2019
6462 Clear 33 1009 15 16093 3.1 10 07:59 13.06.2019
6463 Clear 33 1009 15 16093 2.6 60 07:31 13.06.2019
6464 Clear 34 1009 14 16093 3.6 80 06:53 13.06.2019
6465 Clear 34 1009 15 16093 2.1 40 06:24 13.06.2019
6466 Clear 35 1009 12 16093 3.32 265.837 05:58 13.06.2019
6467 Clear 36 1009 12 16093 3.1 20 05:38 13.06.2019
6468 Clouds 37 1009 9 16093 3.6 280 05:18 13.06.2019
6469 Clear 39 1009 7 16093 2.6 0 03:44 13.06.2019
6470 Clear 40 1010 6 16093 5.1 50 01:55 13.06.2019
6471 Clear 39 1012 6 16093 2.6 360 00:30 13.06.2019
6472 Clear 39 1013 6 16093 3.6 40 23:26 12.06.2019
6473 Clear 38 1013 6 16093 2.73 215.323 22:58 12.06.2019
6474 Clear 38 1014 7 16093 2.1 0 22:39 12.06.2019
6475 Clear 38 1014 7 16093 2.1 0 22:39 12.06.2019
6476 Clear 39 1014 7 16093 2.1 0 22:21 12.06.2019
6477 Clear 38 1015 7 16093 1.5 0 21:42 12.06.2019
6478 Clear 38 1015 7 16093 1.5 0 21:42 12.06.2019
6479 Clear 37 1015 7 16093 1.5 0 21:22 12.06.2019
6480 Clear 35 1015 8 16093 1.35 161.578 20:48 12.06.2019
6481 Clear 35 1015 8 16093 2.1 0 20:29 12.06.2019
6482 Clear 34 1016 8 16093 3.6 50 19:57 12.06.2019
6483 Clear 34 1016 8 16093 3.1 40 19:38 12.06.2019
6484 Clear 34 1016 8 16093 3.1 40 19:19 12.06.2019
6485 Clear 33 1016 10 16093 3.6 40 18:44 12.06.2019
6486 Clear 32 1016 10 16093 3.6 40 18:24 12.06.2019
6487 Clear 30 1016 10 16093 1.09 72.443 17:46 12.06.2019
6488 Clear 30 1016 10 16093 1.09 72.443 17:23 12.06.2019
6489 Clear 28 1016 10 16093 1.09 72.443 16:43 12.06.2019
6490 Clear 27 1016 10 16093 1.09 72.443 16:25 12.06.2019
6491 Clear 26 1015 14 16093 1.5 340 15:58 12.06.2019
6492 Clear 26 1015 15 16093 1.09 72.443 15:33 12.06.2019
6493 Clear 26 1015 13 16093 2.6 320 14:58 12.06.2019
6494 Clear 26 1015 13 16093 1.5 0 14:33 12.06.2019
6495 Clear 25 1015 21 16093 0.54 331.287 13:58 12.06.2019
6496 Clear 25 1015 21 16093 0.54 331.287 13:58 12.06.2019
6497 Clear 26 1015 22 16093 2.1 20 13:39 12.06.2019
6498 Clear 26 1015 22 16093 2.1 20 13:19 12.06.2019
6499 Clouds 26 1014 15 16093 1.5 10 12:44 12.06.2019
6500 Clouds 26 1014 13 16093 1.5 10 12:21 12.06.2019
6501 Clear 27 1014 13 16093 1.37 308.582 11:55 12.06.2019
6502 Clear 27 1014 20 16093 1.37 308.582 11:37 12.06.2019
6503 Clear 27 1014 20 16093 1.37 308.582 11:19 12.06.2019
6504 Clear 28 1015 25 16093 1.37 308.582 10:43 12.06.2019
6505 Clouds 28 1015 13 16093 2.6 210 10:19 12.06.2019
6506 Clear 28 1015 15 16093 2.1 330 09:41 12.06.2019
6507 Clear 28 1015 15 16093 2.1 330 09:22 12.06.2019
6508 Clear 29 1015 11 16093 1.56 327.855 08:37 12.06.2019
6509 Clear 29 1015 11 16093 1.56 327.855 08:18 12.06.2019
6510 Clear 31 1015 16 16093 1.56 327.855 07:20 12.06.2019
6511 Clear 32 1015 12 16093 2.1 310 06:39 12.06.2019
6512 Clear 34 1015 14 16093 2.1 40 05:25 12.06.2019
6513 Clear 37 1015 6 16093 2.1 0 02:22 12.06.2019
6514 Clear 37 1016 5 16093 4.6 50 00:47 12.06.2019
6515 Clouds 37 1017 6 16093 2.6 100 00:19 12.06.2019
6516 Clear 37 1017 6 16093 1.5 0 23:42 11.06.2019
6517 Clear 37 1017 6 16093 1.5 0 23:23 11.06.2019
6518 Clear 37 1018 7 16093 2.6 80 22:42 11.06.2019
6519 Clouds 37 1018 7 16093 2.6 10 22:18 11.06.2019
6520 Clear 36 1019 7 16093 3.6 50 21:56 11.06.2019
6521 Clear 36 1019 7 16093 2.6 50 21:37 11.06.2019
6522 Clouds 34 1019 8 16093 2.6 0 21:19 11.06.2019
6523 Clear 34 1019 9 16093 3.1 40 20:46 11.06.2019
6524 Clear 34 1019 9 16093 3.1 40 20:22 11.06.2019
6525 Clear 33 1019 10 16093 3.6 30 19:52 11.06.2019
6526 Clear 33 1019 11 16093 2.6 80 19:29 11.06.2019
6527 Clear 32 1019 11 16093 2.1 0 18:54 11.06.2019
6528 Clouds 31 1020 11 16093 2.6 10 18:21 11.06.2019
6529 Clouds 31 1020 11 16093 2.6 10 18:20 11.06.2019
6530 Clouds 29 1019 12 16093 0.79 324.723 17:41 11.06.2019
6531 Clouds 29 1019 12 16093 0.79 324.723 17:20 11.06.2019
6532 Clear 26 1019 15 16093 0.79 324.723 16:44 11.06.2019
6533 Clear 26 1019 15 16093 0.79 324.723 16:24 11.06.2019
6534 Clear 22 1019 17 16093 0.79 324.723 15:56 11.06.2019
6535 Clear 22 1019 26 16093 0.79 324.723 15:36 11.06.2019
6536 Clear 22 1019 26 16093 1.29 295.397 15:18 11.06.2019
6537 Clear 22 1018 28 16093 1.29 295.397 14:40 11.06.2019
6538 Clear 23 1018 28 16093 1.29 295.397 14:20 11.06.2019
6539 Clouds 23 1018 28 16093 1.29 295.397 13:43 11.06.2019
6540 Clouds 23 1018 28 16093 1.29 295.397 13:22 11.06.2019
6541 Clouds 24 1018 19 16093 1.34 304.321 12:43 11.06.2019
6542 Clouds 24 1018 19 16093 1.34 287.241 12:22 11.06.2019
6543 Clouds 25 1018 19 16093 1.5 310 11:57 11.06.2019
6544 Clouds 25 1018 20 16093 2.1 340 11:33 11.06.2019
6545 Clouds 26 1018 19 16093 2.1 320 10:57 11.06.2019
6546 Clouds 26 1018 19 16093 2.1 330 10:39 11.06.2019
6547 Clouds 26 1018 13 16093 1.5 220 10:19 11.06.2019
6548 Clouds 27 1018 16 16093 1.34 287.241 09:43 11.06.2019
6549 Clouds 27 1018 16 16093 1.03 278.311 09:23 11.06.2019
6550 Clouds 27 1018 16 16093 2.1 300 08:41 11.06.2019
6551 Clouds 27 1018 16 16093 2.1 300 08:22 11.06.2019
6552 Clear 28 1018 19 16093 1.5 10 07:34 11.06.2019
6553 Clouds 30 1017 21 16093 2.6 30 06:54 11.06.2019
6554 Clear 31 1017 17 16093 2.1 40 05:56 11.06.2019
6555 Clear 34 1016 7 16093 2.6 350 04:40 11.06.2019
6556 Clear 35 1017 5 16093 2.6 320 02:27 11.06.2019
6557 Clear 34 1018 6 16093 2.1 0 00:53 11.06.2019
6558 Clear 35 1018 6 16093 2.1 150 00:31 11.06.2019
6559 Clear 34 1019 6 16093 1.21 116.46 23:46 10.06.2019
6560 Clear 33 1019 6 16093 1.72 119.869 23:21 10.06.2019
6561 Clear 34 1019 6 16093 3.6 80 22:45 10.06.2019
6562 Clear 34 1019 6 16093 3.6 80 22:27 10.06.2019
6563 Clear 33 1020 7 16093 3.1 0 21:58 10.06.2019
6564 Clear 33 1020 6 16093 4.6 70 21:38 10.06.2019
6565 Clear 32 1020 6 16093 4.6 70 21:20 10.06.2019
6566 Clear 31 1020 7 16093 5.1 60 20:42 10.06.2019
6567 Clear 31 1020 7 16093 5.1 60 20:21 10.06.2019
6568 Clear 31 1020 7 16093 5.1 30 19:46 10.06.2019
6569 Clear 30 1020 7 16093 5.1 30 19:23 10.06.2019
6570 Clear 30 1020 7 16093 5.1 30 19:23 10.06.2019
6571 Clear 29 1020 8 16093 5.7 350 18:58 10.06.2019
6572 Clear 28 1021 9 16093 5.7 350 18:39 10.06.2019
6573 Clear 27 1021 9 16093 5.7 350 18:20 10.06.2019
6574 Clear 26 1021 9 16093 7.2 360 17:44 10.06.2019
6575 Clear 26 1021 9 16093 7.2 360 17:24 10.06.2019
6576 Clear 24 1020 9 16093 5.7 340 16:49 10.06.2019
6577 Clear 24 1020 10 16093 6.7 350 16:30 10.06.2019
6578 Clear 24 1020 10 16093 6.7 350 16:30 10.06.2019
6579 Clear 23 1020 11 16093 5.1 330 15:59 10.06.2019
6580 Clouds 22 1020 15 16093 2.1 200 15:40 10.06.2019
6581 Clouds 21 1020 15 16093 2.1 200 15:22 10.06.2019
6582 Clear 21 1019 11 16093 5.7 340 14:45 10.06.2019
6583 Clear 21 1019 11 16093 5.7 340 14:25 10.06.2019
6584 Clear 22 1019 11 16093 3.1 10 13:46 10.06.2019
6585 Clear 22 1019 11 16093 3.1 10 13:28 10.06.2019
6586 Clear 23 1019 9 16093 5.7 350 12:54 10.06.2019
6587 Clear 24 1019 10 16093 4.6 350 12:31 10.06.2019
6588 Clear 23 1019 10 16093 5.1 360 11:58 10.06.2019
6589 Clear 23 1019 9 16093 6.2 20 11:38 10.06.2019
6590 Clouds 23 1019 15 16093 2.75 21.543 11:18 10.06.2019
6591 Clouds 23 1019 9 16093 7.2 10 10:41 10.06.2019
6592 Clouds 23 1019 9 16093 7.2 10 10:19 10.06.2019
6593 Clouds 24 1018 9 16093 6.2 360 09:51 10.06.2019
6594 Clear 24 1018 9 16093 6.2 350 09:29 10.06.2019
6595 Clear 25 1018 8 16093 7.2 350 08:50 10.06.2019
6596 Clear 25 1019 8 16093 5.1 350 08:27 10.06.2019
6597 Clear 26 1018 8 16093 3.6 10 07:42 10.06.2019
6598 Clear 31 1018 6 16093 5.7 10 04:43 10.06.2019
6599 Clear 32 1018 6 16093 4.6 30 03:29 10.06.2019
6600 Clear 31 1019 7 16093 6.7 50 01:55 10.06.2019
6601 Clear 32 1019 6 16093 5.7 60 01:22 10.06.2019
6602 Clear 31 1020 7 16093 7.7 40 00:47 10.06.2019
6603 Clear 30 1021 8 16093 7.2 40 23:49 09.06.2019
6604 Clear 30 1021 8 16093 7.2 40 23:23 09.06.2019
6605 Clear 30 1021 8 16093 6.2 40 22:48 09.06.2019
6606 Clear 30 1022 9 16093 7.2 30 22:26 09.06.2019
6607 Clear 28 1022 9 16093 4.6 40 21:57 09.06.2019
6608 Clear 29 1023 9 16093 6.2 60 21:37 09.06.2019
6609 Clear 27 1023 9 16093 6.2 60 21:18 09.06.2019
6610 Clear 27 1023 10 16093 7.2 50 20:41 09.06.2019
6611 Clear 27 1023 10 16093 7.2 50 20:22 09.06.2019
6612 Clear 27 1023 12 16093 6.7 40 19:45 09.06.2019
6613 Clouds 26 1023 10 16093 8.2 40 19:18 09.06.2019
6614 Clouds 26 1023 10 16093 8.2 40 19:18 09.06.2019
6615 Clouds 26 1023 10 16093 8.2 40 19:18 09.06.2019
6616 Clear 25 1023 13 16093 8.2 30 18:44 09.06.2019
6617 Clear 24 1023 13 16093 8.2 30 18:25 09.06.2019
6618 Clear 24 1024 12 16093 7.2 20 17:56 09.06.2019
6619 Clear 23 1024 12 16093 7.2 360 17:32 09.06.2019
6620 Clear 22 1023 12 16093 7.2 10 16:59 09.06.2019
6621 Clear 22 1023 12 16093 7.2 10 16:59 09.06.2019
6622 Clear 22 1023 13 16093 6.7 10 16:40 09.06.2019
6623 Clear 22 1023 13 16093 6.7 10 16:40 09.06.2019
6624 Clear 22 1023 13 16093 6.7 10 16:20 09.06.2019
6625 Clear 21 1023 13 16093 7.7 360 15:50 09.06.2019
6626 Clear 21 1022 13 16093 5.7 10 15:29 09.06.2019
6627 Haze 21 1021 13 16093 7.2 10 14:55 09.06.2019
6628 Haze 21 1021 12 16093 6.2 10 14:36 09.06.2019
6629 Haze 21 1021 13 16093 7.7 50 14:18 09.06.2019
6630 Clouds 21 1020 11 16093 7.2 10 13:44 09.06.2019
6631 Clouds 22 1019 13 16093 7.2 20 12:56 09.06.2019
6632 Clouds 22 1019 12 16093 9.8 10 12:34 09.06.2019
6633 Clouds 22 1019 12 16093 9.8 10 12:34 09.06.2019
6634 Clear 23 1018 15 16093 9.3 20 11:51 09.06.2019
6635 Clear 23 1018 15 16093 8.2 20 11:30 09.06.2019
6636 -273 0 0 0 0 0 10:59 09.06.2019
6637 -273 0 0 0 0 0 10:59 09.06.2019
6638 Clear 24 1017 17 16093 8.7 30 10:41 09.06.2019
6639 Clear 25 1019 19 16093 4.1 50 10:20 09.06.2019
6640 Clear 25 1017 17 16093 9.8 40 09:38 09.06.2019
6641 Clear 25 1017 14 16093 9.8 40 09:20 09.06.2019
6642 Clear 26 1017 15 16093 7.2 40 08:45